<?xml version='1.0' encoding='UTF-8'?><gpx version="1.1" creator="JPX - https://github.com/jenetics/jpx" xmlns="http://www.topografix.com/GPX/1/1"><trk><trkseg><trkpt lat="45.6382047" lon="12.5419259"><ele>4.0</ele><time>2026-04-27T08:36:57.862Z</time></trkpt><trkpt lat="45.6381636" lon="12.5419975"><ele>3.9999999999999996</ele><time>2026-04-27T08:37:50.91Z</time></trkpt><trkpt lat="45.6381302" lon="12.5420833"><ele>4.0</ele><time>2026-04-27T08:38:02.888Z</time></trkpt><trkpt lat="45.6380783" lon="12.5419967"><ele>4.0</ele><time>2026-04-27T08:39:32.815Z</time></trkpt><trkpt lat="45.6380767" lon="12.5418967"><ele>3.9999999999999996</ele><time>2026-04-27T08:39:34.815Z</time></trkpt><trkpt lat="45.63812" lon="12.5417967"><ele>4.0</ele><time>2026-04-27T08:39:36.815Z</time></trkpt><trkpt lat="45.6381767" lon="12.5417533"><ele>4.0</ele><time>2026-04-27T08:39:37.815Z</time></trkpt><trkpt lat="45.63824" lon="12.5417283"><ele>4.0</ele><time>2026-04-27T08:39:38.815Z</time></trkpt><trkpt lat="45.6383283" lon="12.5417033"><ele>4.0</ele><time>2026-04-27T08:39:39.815Z</time></trkpt><trkpt lat="45.6384217" lon="12.5416783"><ele>4.0</ele><time>2026-04-27T08:39:40.815Z</time></trkpt><trkpt lat="45.638525" lon="12.5416533"><ele>4.0</ele><time>2026-04-27T08:39:41.815Z</time></trkpt><trkpt lat="45.6386333" lon="12.541635"><ele>4.0</ele><time>2026-04-27T08:39:42.816Z</time></trkpt><trkpt lat="45.63874" lon="12.5416283"><ele>3.5</ele><time>2026-04-27T08:39:43.815Z</time></trkpt><trkpt lat="45.63885" lon="12.541625"><ele>3.0</ele><time>2026-04-27T08:39:44.815Z</time></trkpt><trkpt lat="45.6389633" lon="12.541625"><ele>2.5</ele><time>2026-04-27T08:39:45.815Z</time></trkpt><trkpt lat="45.6390767" lon="12.54163"><ele>2.0</ele><time>2026-04-27T08:39:46.815Z</time></trkpt><trkpt lat="45.6391917" lon="12.541645"><ele>2.0</ele><time>2026-04-27T08:39:47.815Z</time></trkpt><trkpt lat="45.6393083" lon="12.541665"><ele>2.0</ele><time>2026-04-27T08:39:48.815Z</time></trkpt><trkpt lat="45.6394233" lon="12.5416833"><ele>2.0</ele><time>2026-04-27T08:39:49.815Z</time></trkpt><trkpt lat="45.6395417" lon="12.5417"><ele>2.0</ele><time>2026-04-27T08:39:50.815Z</time></trkpt><trkpt lat="45.63966" lon="12.5417183"><ele>2.0</ele><time>2026-04-27T08:39:51.815Z</time></trkpt><trkpt lat="45.63978" lon="12.54173"><ele>2.0</ele><time>2026-04-27T08:39:52.815Z</time></trkpt><trkpt lat="45.639895" lon="12.5417383"><ele>2.0</ele><time>2026-04-27T08:39:53.815Z</time></trkpt><trkpt lat="45.6400133" lon="12.5417533"><ele>2.0</ele><time>2026-04-27T08:39:54.815Z</time></trkpt><trkpt lat="45.64013" lon="12.5417733"><ele>2.0</ele><time>2026-04-27T08:39:55.815Z</time></trkpt><trkpt lat="45.64025" lon="12.5417883"><ele>2.0</ele><time>2026-04-27T08:39:56.815Z</time></trkpt><trkpt lat="45.640375" lon="12.5418017"><ele>2.0</ele><time>2026-04-27T08:39:57.815Z</time></trkpt><trkpt lat="45.6405033" lon="12.541815"><ele>2.0</ele><time>2026-04-27T08:39:58.815Z</time></trkpt><trkpt lat="45.640635" lon="12.5418267"><ele>1.75</ele><time>2026-04-27T08:39:59.815Z</time></trkpt><trkpt lat="45.6407667" lon="12.54184"><ele>1.5</ele><time>2026-04-27T08:40:00.815Z</time></trkpt><trkpt lat="45.640905" lon="12.5418517"><ele>1.25</ele><time>2026-04-27T08:40:01.815Z</time></trkpt><trkpt lat="45.64104" lon="12.541865"><ele>1.0</ele><time>2026-04-27T08:40:02.815Z</time></trkpt><trkpt lat="45.6411783" lon="12.5418783"><ele>1.0</ele><time>2026-04-27T08:40:03.815Z</time></trkpt><trkpt lat="45.641315" lon="12.5418933"><ele>1.0</ele><time>2026-04-27T08:40:04.815Z</time></trkpt><trkpt lat="45.6414483" lon="12.5419083"><ele>1.0</ele><time>2026-04-27T08:40:05.815Z</time></trkpt><trkpt lat="45.6415817" lon="12.54192"><ele>1.0</ele><time>2026-04-27T08:40:06.815Z</time></trkpt><trkpt lat="45.641715" lon="12.5419383"><ele>1.0</ele><time>2026-04-27T08:40:07.815Z</time></trkpt><trkpt lat="45.6418483" lon="12.5419617"><ele>1.0</ele><time>2026-04-27T08:40:08.815Z</time></trkpt><trkpt lat="45.6419767" lon="12.5419717"><ele>1.0</ele><time>2026-04-27T08:40:09.815Z</time></trkpt><trkpt lat="45.64211" lon="12.5419917"><ele>1.0</ele><time>2026-04-27T08:40:10.815Z</time></trkpt><trkpt lat="45.6422417" lon="12.5420083"><ele>1.0</ele><time>2026-04-27T08:40:11.815Z</time></trkpt><trkpt lat="45.642375" lon="12.542025"><ele>1.0</ele><time>2026-04-27T08:40:12.815Z</time></trkpt><trkpt lat="45.6425083" lon="12.54204"><ele>1.0</ele><time>2026-04-27T08:40:13.815Z</time></trkpt><trkpt lat="45.642645" lon="12.5420583"><ele>1.0</ele><time>2026-04-27T08:40:14.815Z</time></trkpt><trkpt lat="45.6427817" lon="12.542075"><ele>1.25</ele><time>2026-04-27T08:40:15.815Z</time></trkpt><trkpt lat="45.64292" lon="12.5420967"><ele>1.5</ele><time>2026-04-27T08:40:16.815Z</time></trkpt><trkpt lat="45.6430567" lon="12.5421283"><ele>1.75</ele><time>2026-04-27T08:40:17.815Z</time></trkpt><trkpt lat="45.6431917" lon="12.5421583"><ele>2.0</ele><time>2026-04-27T08:40:18.815Z</time></trkpt><trkpt lat="45.6433283" lon="12.5422083"><ele>2.0</ele><time>2026-04-27T08:40:19.815Z</time></trkpt><trkpt lat="45.6434617" lon="12.5422667"><ele>2.0</ele><time>2026-04-27T08:40:20.815Z</time></trkpt><trkpt lat="45.6435967" lon="12.54234"><ele>2.0</ele><time>2026-04-27T08:40:21.815Z</time></trkpt><trkpt lat="45.6437283" lon="12.5424367"><ele>2.0</ele><time>2026-04-27T08:40:22.815Z</time></trkpt><trkpt lat="45.64386" lon="12.5425467"><ele>1.6666666666666665</ele><time>2026-04-27T08:40:23.815Z</time></trkpt><trkpt lat="45.6439833" lon="12.542665"><ele>1.3333333333333333</ele><time>2026-04-27T08:40:24.815Z</time></trkpt><trkpt lat="45.644105" lon="12.542795"><ele>1.0</ele><time>2026-04-27T08:40:25.815Z</time></trkpt><trkpt lat="45.6442233" lon="12.54294"><ele>1.0</ele><time>2026-04-27T08:40:26.816Z</time></trkpt><trkpt lat="45.6443367" lon="12.5430933"><ele>1.0</ele><time>2026-04-27T08:40:27.815Z</time></trkpt><trkpt lat="45.6444483" lon="12.5432567"><ele>1.0</ele><time>2026-04-27T08:40:28.816Z</time></trkpt><trkpt lat="45.644545" lon="12.5434183"><ele>1.3333333333333333</ele><time>2026-04-27T08:40:29.815Z</time></trkpt><trkpt lat="45.64464" lon="12.5435817"><ele>1.6666666666666665</ele><time>2026-04-27T08:40:30.815Z</time></trkpt><trkpt lat="45.6447433" lon="12.5437583"><ele>2.0</ele><time>2026-04-27T08:40:31.815Z</time></trkpt><trkpt lat="45.6448467" lon="12.54393"><ele>2.0</ele><time>2026-04-27T08:40:32.815Z</time></trkpt><trkpt lat="45.64495" lon="12.5441033"><ele>2.0</ele><time>2026-04-27T08:40:33.815Z</time></trkpt><trkpt lat="45.6450583" lon="12.5442783"><ele>2.0</ele><time>2026-04-27T08:40:34.815Z</time></trkpt><trkpt lat="45.6451533" lon="12.5444617"><ele>2.0</ele><time>2026-04-27T08:40:35.815Z</time></trkpt><trkpt lat="45.64526" lon="12.5446417"><ele>2.0</ele><time>2026-04-27T08:40:36.815Z</time></trkpt><trkpt lat="45.64535" lon="12.5448167"><ele>2.0</ele><time>2026-04-27T08:40:37.815Z</time></trkpt><trkpt lat="45.64545" lon="12.5449833"><ele>2.0</ele><time>2026-04-27T08:40:38.815Z</time></trkpt><trkpt lat="45.6455533" lon="12.5451633"><ele>2.0</ele><time>2026-04-27T08:40:39.815Z</time></trkpt><trkpt lat="45.6456567" lon="12.545335"><ele>2.0</ele><time>2026-04-27T08:40:40.815Z</time></trkpt><trkpt lat="45.645765" lon="12.545525"><ele>2.0</ele><time>2026-04-27T08:40:41.815Z</time></trkpt><trkpt lat="45.6458617" lon="12.5457017"><ele>2.0</ele><time>2026-04-27T08:40:42.815Z</time></trkpt><trkpt lat="45.6459567" lon="12.5458783"><ele>2.0</ele><time>2026-04-27T08:40:43.815Z</time></trkpt><trkpt lat="45.6460467" lon="12.546025"><ele>2.0</ele><time>2026-04-27T08:40:44.816Z</time></trkpt><trkpt lat="45.6461317" lon="12.5461717"><ele>2.0</ele><time>2026-04-27T08:40:45.815Z</time></trkpt><trkpt lat="45.6462083" lon="12.5463"><ele>2.0</ele><time>2026-04-27T08:40:46.815Z</time></trkpt><trkpt lat="45.6462783" lon="12.5464183"><ele>2.0</ele><time>2026-04-27T08:40:47.815Z</time></trkpt><trkpt lat="45.6463333" lon="12.54652"><ele>2.0</ele><time>2026-04-27T08:40:48.815Z</time></trkpt><trkpt lat="45.64638" lon="12.5466217"><ele>2.0</ele><time>2026-04-27T08:40:49.815Z</time></trkpt><trkpt lat="45.6464117" lon="12.5467217"><ele>1.9999999999999998</ele><time>2026-04-27T08:40:50.815Z</time></trkpt><trkpt lat="45.64643" lon="12.5468267"><ele>2.0</ele><time>2026-04-27T08:40:51.816Z</time></trkpt><trkpt lat="45.6464467" lon="12.546935"><ele>2.0</ele><time>2026-04-27T08:40:52.815Z</time></trkpt><trkpt lat="45.6464617" lon="12.5470467"><ele>2.0</ele><time>2026-04-27T08:40:53.816Z</time></trkpt><trkpt lat="45.6464783" lon="12.5471733"><ele>1.9999999999999998</ele><time>2026-04-27T08:40:54.815Z</time></trkpt><trkpt lat="45.6464917" lon="12.5473"><ele>2.0</ele><time>2026-04-27T08:40:55.815Z</time></trkpt><trkpt lat="45.64651" lon="12.5474267"><ele>2.1666666666666665</ele><time>2026-04-27T08:40:56.815Z</time></trkpt><trkpt lat="45.6465383" lon="12.5475467"><ele>2.333333333333333</ele><time>2026-04-27T08:40:57.815Z</time></trkpt><trkpt lat="45.6465817" lon="12.54766"><ele>2.5</ele><time>2026-04-27T08:40:58.815Z</time></trkpt><trkpt lat="45.646635" lon="12.5477483"><ele>2.6666666666666665</ele><time>2026-04-27T08:40:59.815Z</time></trkpt><trkpt lat="45.6467017" lon="12.5478083"><ele>2.8333333333333335</ele><time>2026-04-27T08:41:00.816Z</time></trkpt><trkpt lat="45.6467783" lon="12.54785"><ele>3.0</ele><time>2026-04-27T08:41:01.815Z</time></trkpt><trkpt lat="45.6468667" lon="12.5478583"><ele>3.0</ele><time>2026-04-27T08:41:02.815Z</time></trkpt><trkpt lat="45.6469567" lon="12.54784"><ele>3.0</ele><time>2026-04-27T08:41:03.815Z</time></trkpt><trkpt lat="45.6470483" lon="12.5477783"><ele>3.0</ele><time>2026-04-27T08:41:04.815Z</time></trkpt><trkpt lat="45.6471317" lon="12.5476783"><ele>3.0</ele><time>2026-04-27T08:41:05.816Z</time></trkpt><trkpt lat="45.647205" lon="12.54754"><ele>3.0</ele><time>2026-04-27T08:41:06.815Z</time></trkpt><trkpt lat="45.64726" lon="12.5473733"><ele>3.0</ele><time>2026-04-27T08:41:07.815Z</time></trkpt><trkpt lat="45.647305" lon="12.5471817"><ele>3.0</ele><time>2026-04-27T08:41:08.815Z</time></trkpt><trkpt lat="45.6473617" lon="12.5469933"><ele>3.0</ele><time>2026-04-27T08:41:09.815Z</time></trkpt><trkpt lat="45.6474283" lon="12.5468167"><ele>3.0</ele><time>2026-04-27T08:41:10.815Z</time></trkpt><trkpt lat="45.647515" lon="12.5466517"><ele>3.0</ele><time>2026-04-27T08:41:11.815Z</time></trkpt><trkpt lat="45.6476167" lon="12.5464983"><ele>3.0</ele><time>2026-04-27T08:41:12.815Z</time></trkpt><trkpt lat="45.6477167" lon="12.5463567"><ele>3.0</ele><time>2026-04-27T08:41:13.815Z</time></trkpt><trkpt lat="45.6478233" lon="12.546225"><ele>3.0</ele><time>2026-04-27T08:41:14.815Z</time></trkpt><trkpt lat="45.6479283" lon="12.5460833"><ele>2.25</ele><time>2026-04-27T08:41:15.815Z</time></trkpt><trkpt lat="45.64803" lon="12.5459517"><ele>1.5</ele><time>2026-04-27T08:41:16.815Z</time></trkpt><trkpt lat="45.6481367" lon="12.54582"><ele>0.75</ele><time>2026-04-27T08:41:17.815Z</time></trkpt><trkpt lat="45.648245" lon="12.545695"><ele>0.0</ele><time>2026-04-27T08:41:18.815Z</time></trkpt><trkpt lat="45.64835" lon="12.5455683"><ele>0.0</ele><time>2026-04-27T08:41:19.815Z</time></trkpt><trkpt lat="45.6484533" lon="12.5454317"><ele>0.0</ele><time>2026-04-27T08:41:20.815Z</time></trkpt><trkpt lat="45.648555" lon="12.5452967"><ele>0.0</ele><time>2026-04-27T08:41:21.815Z</time></trkpt><trkpt lat="45.648655" lon="12.5451583"><ele>0.0</ele><time>2026-04-27T08:41:22.815Z</time></trkpt><trkpt lat="45.6487567" lon="12.5450233"><ele>0.5</ele><time>2026-04-27T08:41:23.815Z</time></trkpt><trkpt lat="45.6488633" lon="12.544895"><ele>1.0</ele><time>2026-04-27T08:41:24.815Z</time></trkpt><trkpt lat="45.6489683" lon="12.5447617"><ele>1.5</ele><time>2026-04-27T08:41:25.815Z</time></trkpt><trkpt lat="45.6490783" lon="12.544635"><ele>2.0</ele><time>2026-04-27T08:41:26.815Z</time></trkpt><trkpt lat="45.64918" lon="12.544505"><ele>2.0</ele><time>2026-04-27T08:41:27.815Z</time></trkpt><trkpt lat="45.6492733" lon="12.5443817"><ele>2.0</ele><time>2026-04-27T08:41:28.815Z</time></trkpt><trkpt lat="45.6493667" lon="12.54426"><ele>2.0</ele><time>2026-04-27T08:41:29.815Z</time></trkpt><trkpt lat="45.6494617" lon="12.5441367"><ele>2.0</ele><time>2026-04-27T08:41:30.815Z</time></trkpt><trkpt lat="45.6495533" lon="12.5440167"><ele>2.0</ele><time>2026-04-27T08:41:31.815Z</time></trkpt><trkpt lat="45.6496433" lon="12.5438933"><ele>2.0</ele><time>2026-04-27T08:41:32.815Z</time></trkpt><trkpt lat="45.649735" lon="12.5437683"><ele>2.0</ele><time>2026-04-27T08:41:33.815Z</time></trkpt><trkpt lat="45.6498267" lon="12.543655"><ele>2.0</ele><time>2026-04-27T08:41:34.815Z</time></trkpt><trkpt lat="45.6499233" lon="12.5435417"><ele>2.0</ele><time>2026-04-27T08:41:35.815Z</time></trkpt><trkpt lat="45.6500167" lon="12.5434217"><ele>2.0</ele><time>2026-04-27T08:41:36.815Z</time></trkpt><trkpt lat="45.6501067" lon="12.543295"><ele>2.0</ele><time>2026-04-27T08:41:37.815Z</time></trkpt><trkpt lat="45.6502" lon="12.5431783"><ele>2.0</ele><time>2026-04-27T08:41:38.815Z</time></trkpt><trkpt lat="45.6502983" lon="12.5430633"><ele>2.0</ele><time>2026-04-27T08:41:39.815Z</time></trkpt><trkpt lat="45.650395" lon="12.542935"><ele>2.0</ele><time>2026-04-27T08:41:40.815Z</time></trkpt><trkpt lat="45.6504933" lon="12.5428033"><ele>2.0</ele><time>2026-04-27T08:41:41.815Z</time></trkpt><trkpt lat="45.6505933" lon="12.5426683"><ele>2.0</ele><time>2026-04-27T08:41:42.815Z</time></trkpt><trkpt lat="45.650695" lon="12.5425417"><ele>2.25</ele><time>2026-04-27T08:41:43.815Z</time></trkpt><trkpt lat="45.650805" lon="12.54241"><ele>2.5</ele><time>2026-04-27T08:41:44.815Z</time></trkpt><trkpt lat="45.6509167" lon="12.5422683"><ele>2.75</ele><time>2026-04-27T08:41:45.816Z</time></trkpt><trkpt lat="45.6510333" lon="12.5421267"><ele>3.0</ele><time>2026-04-27T08:41:46.816Z</time></trkpt><trkpt lat="45.6511483" lon="12.5419883"><ele>3.0</ele><time>2026-04-27T08:41:47.815Z</time></trkpt><trkpt lat="45.6512567" lon="12.5418533"><ele>3.0</ele><time>2026-04-27T08:41:48.815Z</time></trkpt><trkpt lat="45.6513667" lon="12.5417283"><ele>3.0</ele><time>2026-04-27T08:41:49.815Z</time></trkpt><trkpt lat="45.65147" lon="12.5416033"><ele>3.0</ele><time>2026-04-27T08:41:50.815Z</time></trkpt><trkpt lat="45.65157" lon="12.5414667"><ele>3.0</ele><time>2026-04-27T08:41:51.815Z</time></trkpt><trkpt lat="45.6516833" lon="12.5413367"><ele>3.0</ele><time>2026-04-27T08:41:52.815Z</time></trkpt><trkpt lat="45.65179" lon="12.5412017"><ele>3.0</ele><time>2026-04-27T08:41:53.816Z</time></trkpt><trkpt lat="45.6518917" lon="12.5410683"><ele>3.0</ele><time>2026-04-27T08:41:54.815Z</time></trkpt><trkpt lat="45.65199" lon="12.5409417"><ele>3.2</ele><time>2026-04-27T08:41:55.815Z</time></trkpt><trkpt lat="45.6520783" lon="12.5408183"><ele>3.4</ele><time>2026-04-27T08:41:56.815Z</time></trkpt><trkpt lat="45.6521567" lon="12.5407"><ele>3.6000000000000005</ele><time>2026-04-27T08:41:57.815Z</time></trkpt><trkpt lat="45.6522333" lon="12.5406033"><ele>3.8000000000000003</ele><time>2026-04-27T08:41:58.815Z</time></trkpt><trkpt lat="45.6522983" lon="12.5405183"><ele>4.0</ele><time>2026-04-27T08:41:59.815Z</time></trkpt><trkpt lat="45.652355" lon="12.5404433"><ele>3.8571428571428568</ele><time>2026-04-27T08:42:00.815Z</time></trkpt><trkpt lat="45.6524" lon="12.54038"><ele>3.714285714285714</ele><time>2026-04-27T08:42:01.815Z</time></trkpt><trkpt lat="45.6524583" lon="12.5403067"><ele>3.571428571428571</ele><time>2026-04-27T08:42:03.815Z</time></trkpt><trkpt lat="45.6525167" lon="12.5402583"><ele>3.4285714285714284</ele><time>2026-04-27T08:42:21.815Z</time></trkpt><trkpt lat="45.6525683" lon="12.5402033"><ele>3.2857142857142856</ele><time>2026-04-27T08:42:22.815Z</time></trkpt><trkpt lat="45.6526283" lon="12.5401367"><ele>3.1428571428571423</ele><time>2026-04-27T08:42:23.815Z</time></trkpt><trkpt lat="45.652695" lon="12.5400517"><ele>3.0</ele><time>2026-04-27T08:42:24.815Z</time></trkpt><trkpt lat="45.65277" lon="12.5399483"><ele>3.0</ele><time>2026-04-27T08:42:25.815Z</time></trkpt><trkpt lat="45.6528517" lon="12.539835"><ele>3.0</ele><time>2026-04-27T08:42:26.815Z</time></trkpt><trkpt lat="45.6529467" lon="12.539715"><ele>3.0</ele><time>2026-04-27T08:42:27.815Z</time></trkpt><trkpt lat="45.653045" lon="12.5395917"><ele>3.0</ele><time>2026-04-27T08:42:28.815Z</time></trkpt><trkpt lat="45.6531467" lon="12.53946"><ele>3.0</ele><time>2026-04-27T08:42:29.815Z</time></trkpt><trkpt lat="45.65325" lon="12.5393267"><ele>3.0</ele><time>2026-04-27T08:42:30.815Z</time></trkpt><trkpt lat="45.6533533" lon="12.539195"><ele>3.0</ele><time>2026-04-27T08:42:31.815Z</time></trkpt><trkpt lat="45.6534567" lon="12.5390617"><ele>3.0</ele><time>2026-04-27T08:42:32.815Z</time></trkpt><trkpt lat="45.65356" lon="12.538935"><ele>3.0</ele><time>2026-04-27T08:42:33.815Z</time></trkpt><trkpt lat="45.6536617" lon="12.538815"><ele>3.0</ele><time>2026-04-27T08:42:34.815Z</time></trkpt><trkpt lat="45.653765" lon="12.5387"><ele>3.0</ele><time>2026-04-27T08:42:35.815Z</time></trkpt><trkpt lat="45.6538683" lon="12.53858"><ele>3.0</ele><time>2026-04-27T08:42:36.816Z</time></trkpt><trkpt lat="45.6539717" lon="12.5384467"><ele>3.25</ele><time>2026-04-27T08:42:37.815Z</time></trkpt><trkpt lat="45.65408" lon="12.538305"><ele>3.5</ele><time>2026-04-27T08:42:38.815Z</time></trkpt><trkpt lat="45.6541817" lon="12.53816"><ele>3.75</ele><time>2026-04-27T08:42:39.815Z</time></trkpt><trkpt lat="45.654285" lon="12.53803"><ele>4.0</ele><time>2026-04-27T08:42:40.815Z</time></trkpt><trkpt lat="45.65438" lon="12.5379033"><ele>3.5</ele><time>2026-04-27T08:42:41.815Z</time></trkpt><trkpt lat="45.6544733" lon="12.5377767"><ele>3.0</ele><time>2026-04-27T08:42:42.815Z</time></trkpt><trkpt lat="45.6545667" lon="12.5376517"><ele>2.5</ele><time>2026-04-27T08:42:43.815Z</time></trkpt><trkpt lat="45.6546583" lon="12.5375267"><ele>2.0</ele><time>2026-04-27T08:42:44.815Z</time></trkpt><trkpt lat="45.654755" lon="12.5373967"><ele>2.0</ele><time>2026-04-27T08:42:45.815Z</time></trkpt><trkpt lat="45.65486" lon="12.5372633"><ele>2.0</ele><time>2026-04-27T08:42:46.815Z</time></trkpt><trkpt lat="45.6549617" lon="12.537125"><ele>2.0</ele><time>2026-04-27T08:42:47.815Z</time></trkpt><trkpt lat="45.6550717" lon="12.5369817"><ele>2.0</ele><time>2026-04-27T08:42:48.815Z</time></trkpt><trkpt lat="45.6551767" lon="12.5368517"><ele>2.0</ele><time>2026-04-27T08:42:49.815Z</time></trkpt><trkpt lat="45.6552717" lon="12.5367233"><ele>2.0</ele><time>2026-04-27T08:42:50.815Z</time></trkpt><trkpt lat="45.655365" lon="12.5365967"><ele>2.0</ele><time>2026-04-27T08:42:51.816Z</time></trkpt><trkpt lat="45.6554633" lon="12.5364533"><ele>2.0</ele><time>2026-04-27T08:42:52.815Z</time></trkpt><trkpt lat="45.65557" lon="12.5363133"><ele>2.333333333333333</ele><time>2026-04-27T08:42:53.815Z</time></trkpt><trkpt lat="45.6556967" lon="12.53617"><ele>2.6666666666666665</ele><time>2026-04-27T08:42:54.815Z</time></trkpt><trkpt lat="45.6558183" lon="12.5360267"><ele>3.0</ele><time>2026-04-27T08:42:55.815Z</time></trkpt><trkpt lat="45.655945" lon="12.5358733"><ele>3.0</ele><time>2026-04-27T08:42:56.814Z</time></trkpt><trkpt lat="45.6560733" lon="12.53571"><ele>3.0</ele><time>2026-04-27T08:42:57.815Z</time></trkpt><trkpt lat="45.65621" lon="12.5355383"><ele>3.0</ele><time>2026-04-27T08:42:58.816Z</time></trkpt><trkpt lat="45.656345" lon="12.5353683"><ele>3.0</ele><time>2026-04-27T08:42:59.815Z</time></trkpt><trkpt lat="45.6564783" lon="12.5352017"><ele>3.0</ele><time>2026-04-27T08:43:00.815Z</time></trkpt><trkpt lat="45.6566033" lon="12.5350417"><ele>3.0</ele><time>2026-04-27T08:43:01.815Z</time></trkpt><trkpt lat="45.65672" lon="12.5348983"><ele>3.0</ele><time>2026-04-27T08:43:02.816Z</time></trkpt><trkpt lat="45.6568283" lon="12.5347583"><ele>3.0</ele><time>2026-04-27T08:43:03.815Z</time></trkpt><trkpt lat="45.65693" lon="12.534615"><ele>3.0</ele><time>2026-04-27T08:43:04.815Z</time></trkpt><trkpt lat="45.6570333" lon="12.5344883"><ele>3.0</ele><time>2026-04-27T08:43:05.815Z</time></trkpt><trkpt lat="45.657135" lon="12.5343483"><ele>3.0</ele><time>2026-04-27T08:43:06.815Z</time></trkpt><trkpt lat="45.657235" lon="12.5342233"><ele>3.0</ele><time>2026-04-27T08:43:07.815Z</time></trkpt><trkpt lat="45.6573333" lon="12.5341017"><ele>3.0</ele><time>2026-04-27T08:43:08.815Z</time></trkpt><trkpt lat="45.6574283" lon="12.5339783"><ele>3.0</ele><time>2026-04-27T08:43:09.816Z</time></trkpt><trkpt lat="45.6575233" lon="12.53386"><ele>3.0</ele><time>2026-04-27T08:43:10.815Z</time></trkpt><trkpt lat="45.657615" lon="12.5337467"><ele>3.0</ele><time>2026-04-27T08:43:11.815Z</time></trkpt><trkpt lat="45.6577067" lon="12.5336333"><ele>3.0</ele><time>2026-04-27T08:43:12.816Z</time></trkpt><trkpt lat="45.6577967" lon="12.5335217"><ele>3.0</ele><time>2026-04-27T08:43:13.815Z</time></trkpt><trkpt lat="45.6578833" lon="12.5334117"><ele>3.0</ele><time>2026-04-27T08:43:14.815Z</time></trkpt><trkpt lat="45.6579667" lon="12.5333083"><ele>3.0</ele><time>2026-04-27T08:43:15.815Z</time></trkpt><trkpt lat="45.6580467" lon="12.53321"><ele>3.0</ele><time>2026-04-27T08:43:16.815Z</time></trkpt><trkpt lat="45.65812" lon="12.5331217"><ele>3.0</ele><time>2026-04-27T08:43:17.815Z</time></trkpt><trkpt lat="45.658185" lon="12.5330367"><ele>3.0</ele><time>2026-04-27T08:43:18.815Z</time></trkpt><trkpt lat="45.6582417" lon="12.53296"><ele>3.0</ele><time>2026-04-27T08:43:19.815Z</time></trkpt><trkpt lat="45.6583" lon="12.5328917"><ele>3.0</ele><time>2026-04-27T08:43:20.815Z</time></trkpt><trkpt lat="45.6583583" lon="12.5328217"><ele>3.0</ele><time>2026-04-27T08:43:21.815Z</time></trkpt><trkpt lat="45.65843" lon="12.5327317"><ele>3.0</ele><time>2026-04-27T08:43:23.815Z</time></trkpt><trkpt lat="45.6585033" lon="12.5326517"><ele>3.0</ele><time>2026-04-27T08:43:25.815Z</time></trkpt><trkpt lat="45.6585867" lon="12.5325583"><ele>3.0</ele><time>2026-04-27T08:43:27.816Z</time></trkpt><trkpt lat="45.658635" lon="12.5324817"><ele>3.2</ele><time>2026-04-27T08:43:28.815Z</time></trkpt><trkpt lat="45.658695" lon="12.5323917"><ele>3.4</ele><time>2026-04-27T08:43:29.815Z</time></trkpt><trkpt lat="45.6587683" lon="12.5322967"><ele>3.6000000000000005</ele><time>2026-04-27T08:43:30.815Z</time></trkpt><trkpt lat="45.65886" lon="12.532185"><ele>3.8000000000000003</ele><time>2026-04-27T08:43:31.815Z</time></trkpt><trkpt lat="45.6589467" lon="12.5320767"><ele>4.0</ele><time>2026-04-27T08:43:32.815Z</time></trkpt><trkpt lat="45.6590433" lon="12.5319667"><ele>4.0</ele><time>2026-04-27T08:43:33.816Z</time></trkpt><trkpt lat="45.6591417" lon="12.5318433"><ele>4.0</ele><time>2026-04-27T08:43:34.816Z</time></trkpt><trkpt lat="45.6592517" lon="12.53171"><ele>4.0</ele><time>2026-04-27T08:43:35.815Z</time></trkpt><trkpt lat="45.659365" lon="12.5315683"><ele>4.0</ele><time>2026-04-27T08:43:36.815Z</time></trkpt><trkpt lat="45.659475" lon="12.53143"><ele>4.5</ele><time>2026-04-27T08:43:37.815Z</time></trkpt><trkpt lat="45.6595833" lon="12.5312983"><ele>5.0</ele><time>2026-04-27T08:43:38.816Z</time></trkpt><trkpt lat="45.659695" lon="12.53116"><ele>5.5</ele><time>2026-04-27T08:43:39.815Z</time></trkpt><trkpt lat="45.6598083" lon="12.531015"><ele>6.0</ele><time>2026-04-27T08:43:40.815Z</time></trkpt><trkpt lat="45.65992" lon="12.5308667"><ele>6.0</ele><time>2026-04-27T08:43:41.815Z</time></trkpt><trkpt lat="45.6600233" lon="12.53073"><ele>6.0</ele><time>2026-04-27T08:43:42.815Z</time></trkpt><trkpt lat="45.6601267" lon="12.53059"><ele>6.0</ele><time>2026-04-27T08:43:43.815Z</time></trkpt><trkpt lat="45.6602417" lon="12.5304633"><ele>6.0</ele><time>2026-04-27T08:43:44.815Z</time></trkpt><trkpt lat="45.660345" lon="12.53034"><ele>6.0</ele><time>2026-04-27T08:43:45.815Z</time></trkpt><trkpt lat="45.66044" lon="12.5302217"><ele>6.0</ele><time>2026-04-27T08:43:46.815Z</time></trkpt><trkpt lat="45.6605317" lon="12.5301017"><ele>6.0</ele><time>2026-04-27T08:43:47.815Z</time></trkpt><trkpt lat="45.6606267" lon="12.5299883"><ele>6.0</ele><time>2026-04-27T08:43:48.815Z</time></trkpt><trkpt lat="45.660725" lon="12.5298767"><ele>6.0</ele><time>2026-04-27T08:43:49.815Z</time></trkpt><trkpt lat="45.6608133" lon="12.5297567"><ele>6.0</ele><time>2026-04-27T08:43:50.816Z</time></trkpt><trkpt lat="45.6608967" lon="12.5296583"><ele>6.0</ele><time>2026-04-27T08:43:51.815Z</time></trkpt><trkpt lat="45.66099" lon="12.5295767"><ele>6.0</ele><time>2026-04-27T08:43:52.815Z</time></trkpt><trkpt lat="45.6610683" lon="12.5295083"><ele>6.0</ele><time>2026-04-27T08:43:53.815Z</time></trkpt><trkpt lat="45.6611533" lon="12.5294683"><ele>5.75</ele><time>2026-04-27T08:43:54.815Z</time></trkpt><trkpt lat="45.66125" lon="12.5294717"><ele>5.5</ele><time>2026-04-27T08:43:55.815Z</time></trkpt><trkpt lat="45.6613567" lon="12.52952"><ele>5.25</ele><time>2026-04-27T08:43:56.815Z</time></trkpt><trkpt lat="45.6614683" lon="12.5295967"><ele>5.0</ele><time>2026-04-27T08:43:57.815Z</time></trkpt><trkpt lat="45.66158" lon="12.52968"><ele>5.0</ele><time>2026-04-27T08:43:58.815Z</time></trkpt><trkpt lat="45.6616867" lon="12.52975"><ele>5.0</ele><time>2026-04-27T08:43:59.815Z</time></trkpt><trkpt lat="45.6617833" lon="12.5298067"><ele>5.0</ele><time>2026-04-27T08:44:00.815Z</time></trkpt><trkpt lat="45.6618767" lon="12.529865"><ele>5.0</ele><time>2026-04-27T08:44:01.815Z</time></trkpt><trkpt lat="45.6619583" lon="12.5298983"><ele>5.0</ele><time>2026-04-27T08:44:02.815Z</time></trkpt><trkpt lat="45.66203" lon="12.5299167"><ele>5.0</ele><time>2026-04-27T08:44:03.815Z</time></trkpt><trkpt lat="45.66213" lon="12.5298733"><ele>5.0</ele><time>2026-04-27T08:44:05.815Z</time></trkpt><trkpt lat="45.66217" lon="12.5297583"><ele>5.0</ele><time>2026-04-27T08:44:07.815Z</time></trkpt><trkpt lat="45.6621817" lon="12.5295833"><ele>5.0</ele><time>2026-04-27T08:44:09.815Z</time></trkpt><trkpt lat="45.6622167" lon="12.52948"><ele>5.0</ele><time>2026-04-27T08:44:10.815Z</time></trkpt><trkpt lat="45.6622717" lon="12.52937"><ele>5.0</ele><time>2026-04-27T08:44:11.815Z</time></trkpt><trkpt lat="45.6623367" lon="12.52925"><ele>5.0</ele><time>2026-04-27T08:44:12.815Z</time></trkpt><trkpt lat="45.6624117" lon="12.52912"><ele>5.0</ele><time>2026-04-27T08:44:13.815Z</time></trkpt><trkpt lat="45.66249" lon="12.5289883"><ele>5.0</ele><time>2026-04-27T08:44:14.815Z</time></trkpt><trkpt lat="45.6625717" lon="12.5288567"><ele>5.0</ele><time>2026-04-27T08:44:15.815Z</time></trkpt><trkpt lat="45.6626633" lon="12.528715"><ele>5.0</ele><time>2026-04-27T08:44:16.815Z</time></trkpt><trkpt lat="45.6627667" lon="12.52857"><ele>5.0</ele><time>2026-04-27T08:44:17.815Z</time></trkpt><trkpt lat="45.6628667" lon="12.5284217"><ele>5.0</ele><time>2026-04-27T08:44:18.815Z</time></trkpt><trkpt lat="45.662965" lon="12.52828"><ele>5.0</ele><time>2026-04-27T08:44:19.815Z</time></trkpt><trkpt lat="45.6630617" lon="12.52813"><ele>5.0</ele><time>2026-04-27T08:44:20.815Z</time></trkpt><trkpt lat="45.6631617" lon="12.5279833"><ele>5.0</ele><time>2026-04-27T08:44:21.815Z</time></trkpt><trkpt lat="45.6632567" lon="12.5278267"><ele>5.0</ele><time>2026-04-27T08:44:22.815Z</time></trkpt><trkpt lat="45.663355" lon="12.5276867"><ele>5.0</ele><time>2026-04-27T08:44:23.815Z</time></trkpt><trkpt lat="45.6634617" lon="12.5275283"><ele>5.0</ele><time>2026-04-27T08:44:24.815Z</time></trkpt><trkpt lat="45.6635667" lon="12.5273833"><ele>5.0</ele><time>2026-04-27T08:44:25.815Z</time></trkpt><trkpt lat="45.6636633" lon="12.5272417"><ele>5.0</ele><time>2026-04-27T08:44:26.815Z</time></trkpt><trkpt lat="45.6637633" lon="12.52711"><ele>4.25</ele><time>2026-04-27T08:44:27.815Z</time></trkpt><trkpt lat="45.6638517" lon="12.5269883"><ele>3.5</ele><time>2026-04-27T08:44:28.816Z</time></trkpt><trkpt lat="45.6639383" lon="12.52686"><ele>2.75</ele><time>2026-04-27T08:44:29.816Z</time></trkpt><trkpt lat="45.6640267" lon="12.5267233"><ele>2.0</ele><time>2026-04-27T08:44:30.815Z</time></trkpt><trkpt lat="45.6641167" lon="12.52659"><ele>2.0</ele><time>2026-04-27T08:44:31.815Z</time></trkpt><trkpt lat="45.6642067" lon="12.5264567"><ele>2.0</ele><time>2026-04-27T08:44:32.815Z</time></trkpt><trkpt lat="45.6642867" lon="12.5263233"><ele>2.0</ele><time>2026-04-27T08:44:33.815Z</time></trkpt><trkpt lat="45.6643617" lon="12.5262067"><ele>2.0</ele><time>2026-04-27T08:44:34.815Z</time></trkpt><trkpt lat="45.6644317" lon="12.5260983"><ele>1.6</ele><time>2026-04-27T08:44:35.815Z</time></trkpt><trkpt lat="45.6644933" lon="12.5259917"><ele>1.2000000000000002</ele><time>2026-04-27T08:44:36.815Z</time></trkpt><trkpt lat="45.66454" lon="12.5259033"><ele>0.8</ele><time>2026-04-27T08:44:37.815Z</time></trkpt><trkpt lat="45.664575" lon="12.5258217"><ele>0.4</ele><time>2026-04-27T08:44:38.815Z</time></trkpt><trkpt lat="45.664565" lon="12.52567"><ele>0.0</ele><time>2026-04-27T08:44:40.815Z</time></trkpt><trkpt lat="45.664465" lon="12.52554"><ele>0.4</ele><time>2026-04-27T08:44:42.815Z</time></trkpt><trkpt lat="45.66439" lon="12.5254933"><ele>0.8</ele><time>2026-04-27T08:44:43.815Z</time></trkpt><trkpt lat="45.6643117" lon="12.5254317"><ele>1.2000000000000002</ele><time>2026-04-27T08:44:44.816Z</time></trkpt><trkpt lat="45.6642283" lon="12.5253633"><ele>1.6</ele><time>2026-04-27T08:44:45.815Z</time></trkpt><trkpt lat="45.6641367" lon="12.5252867"><ele>2.0</ele><time>2026-04-27T08:44:46.815Z</time></trkpt><trkpt lat="45.6640433" lon="12.52521"><ele>2.0</ele><time>2026-04-27T08:44:47.815Z</time></trkpt><trkpt lat="45.66395" lon="12.5251283"><ele>2.0</ele><time>2026-04-27T08:44:48.816Z</time></trkpt><trkpt lat="45.66385" lon="12.52504"><ele>2.0</ele><time>2026-04-27T08:44:49.815Z</time></trkpt><trkpt lat="45.6637417" lon="12.524955"><ele>2.0</ele><time>2026-04-27T08:44:50.815Z</time></trkpt><trkpt lat="45.66363" lon="12.5248667"><ele>2.0</ele><time>2026-04-27T08:44:51.815Z</time></trkpt><trkpt lat="45.6635183" lon="12.524775"><ele>2.0</ele><time>2026-04-27T08:44:52.815Z</time></trkpt><trkpt lat="45.663405" lon="12.5246933"><ele>2.0</ele><time>2026-04-27T08:44:53.815Z</time></trkpt><trkpt lat="45.6632833" lon="12.524625"><ele>2.0</ele><time>2026-04-27T08:44:54.815Z</time></trkpt><trkpt lat="45.6631517" lon="12.5245783"><ele>2.25</ele><time>2026-04-27T08:44:55.815Z</time></trkpt><trkpt lat="45.6630117" lon="12.52456"><ele>2.5</ele><time>2026-04-27T08:44:56.815Z</time></trkpt><trkpt lat="45.6628783" lon="12.5245617"><ele>2.75</ele><time>2026-04-27T08:44:57.815Z</time></trkpt><trkpt lat="45.662745" lon="12.52457"><ele>3.0</ele><time>2026-04-27T08:44:58.815Z</time></trkpt><trkpt lat="45.6626367" lon="12.5245717"><ele>3.0</ele><time>2026-04-27T08:44:59.815Z</time></trkpt><trkpt lat="45.66254" lon="12.5245767"><ele>3.0</ele><time>2026-04-27T08:45:00.815Z</time></trkpt><trkpt lat="45.6624567" lon="12.5245783"><ele>3.0</ele><time>2026-04-27T08:45:01.815Z</time></trkpt><trkpt lat="45.6623533" lon="12.524545"><ele>3.0</ele><time>2026-04-27T08:45:03.815Z</time></trkpt><trkpt lat="45.6623267" lon="12.5244567"><ele>3.0</ele><time>2026-04-27T08:45:05.816Z</time></trkpt><trkpt lat="45.6623667" lon="12.52428"><ele>3.2</ele><time>2026-04-27T08:45:07.815Z</time></trkpt><trkpt lat="45.6623933" lon="12.5241633"><ele>3.4</ele><time>2026-04-27T08:45:08.815Z</time></trkpt><trkpt lat="45.6624167" lon="12.5240383"><ele>3.6000000000000005</ele><time>2026-04-27T08:45:09.815Z</time></trkpt><trkpt lat="45.6624417" lon="12.5238883"><ele>3.8000000000000003</ele><time>2026-04-27T08:45:10.816Z</time></trkpt><trkpt lat="45.66247" lon="12.523735"><ele>4.0</ele><time>2026-04-27T08:45:11.815Z</time></trkpt><trkpt lat="45.6625017" lon="12.523585"><ele>4.2</ele><time>2026-04-27T08:45:12.815Z</time></trkpt><trkpt lat="45.6625417" lon="12.5234383"><ele>4.4</ele><time>2026-04-27T08:45:13.815Z</time></trkpt><trkpt lat="45.6625833" lon="12.523305"><ele>4.6</ele><time>2026-04-27T08:45:14.816Z</time></trkpt><trkpt lat="45.662645" lon="12.5231667"><ele>4.8</ele><time>2026-04-27T08:45:15.815Z</time></trkpt><trkpt lat="45.6627133" lon="12.52304"><ele>5.0</ele><time>2026-04-27T08:45:16.815Z</time></trkpt><trkpt lat="45.6627967" lon="12.5229167"><ele>4.75</ele><time>2026-04-27T08:45:17.815Z</time></trkpt><trkpt lat="45.6628867" lon="12.5227883"><ele>4.5</ele><time>2026-04-27T08:45:18.815Z</time></trkpt><trkpt lat="45.662975" lon="12.5226767"><ele>4.25</ele><time>2026-04-27T08:45:19.815Z</time></trkpt><trkpt lat="45.6630567" lon="12.52256"><ele>4.0</ele><time>2026-04-27T08:45:20.815Z</time></trkpt><trkpt lat="45.6631483" lon="12.5224483"><ele>4.0</ele><time>2026-04-27T08:45:21.815Z</time></trkpt><trkpt lat="45.6632383" lon="12.5223367"><ele>4.0</ele><time>2026-04-27T08:45:22.815Z</time></trkpt><trkpt lat="45.6633283" lon="12.52221"><ele>4.0</ele><time>2026-04-27T08:45:23.815Z</time></trkpt><trkpt lat="45.6634083" lon="12.5220917"><ele>4.0</ele><time>2026-04-27T08:45:24.815Z</time></trkpt><trkpt lat="45.663485" lon="12.52199"><ele>3.8000000000000003</ele><time>2026-04-27T08:45:25.815Z</time></trkpt><trkpt lat="45.6635483" lon="12.5219"><ele>3.6000000000000005</ele><time>2026-04-27T08:45:26.816Z</time></trkpt><trkpt lat="45.6636017" lon="12.5218217"><ele>3.4</ele><time>2026-04-27T08:45:27.815Z</time></trkpt><trkpt lat="45.6636767" lon="12.52172"><ele>3.2</ele><time>2026-04-27T08:45:29.815Z</time></trkpt><trkpt lat="45.663755" lon="12.5216317"><ele>3.0</ele><time>2026-04-27T08:45:32.815Z</time></trkpt><trkpt lat="45.663835" lon="12.521505"><ele>3.4</ele><time>2026-04-27T08:45:34.815Z</time></trkpt><trkpt lat="45.6638783" lon="12.5213983"><ele>3.8</ele><time>2026-04-27T08:45:35.815Z</time></trkpt><trkpt lat="45.66392" lon="12.52126"><ele>4.2</ele><time>2026-04-27T08:45:36.815Z</time></trkpt><trkpt lat="45.6639483" lon="12.5211017"><ele>4.6</ele><time>2026-04-27T08:45:37.815Z</time></trkpt><trkpt lat="45.6639833" lon="12.52093"><ele>5.0</ele><time>2026-04-27T08:45:38.815Z</time></trkpt><trkpt lat="45.663985" lon="12.5207483"><ele>5.0</ele><time>2026-04-27T08:45:39.815Z</time></trkpt><trkpt lat="45.6639767" lon="12.5205583"><ele>5.0</ele><time>2026-04-27T08:45:40.815Z</time></trkpt><trkpt lat="45.66396" lon="12.5203883"><ele>5.0</ele><time>2026-04-27T08:45:41.815Z</time></trkpt><trkpt lat="45.6639483" lon="12.5202367"><ele>5.0</ele><time>2026-04-27T08:45:42.815Z</time></trkpt><trkpt lat="45.663945" lon="12.520115"><ele>5.0</ele><time>2026-04-27T08:45:43.815Z</time></trkpt><trkpt lat="45.663945" lon="12.52"><ele>5.166666666666667</ele><time>2026-04-27T08:45:44.815Z</time></trkpt><trkpt lat="45.66394" lon="12.5198917"><ele>5.333333333333334</ele><time>2026-04-27T08:45:45.815Z</time></trkpt><trkpt lat="45.663935" lon="12.5197917"><ele>5.5</ele><time>2026-04-27T08:45:46.816Z</time></trkpt><trkpt lat="45.6639217" lon="12.51968"><ele>5.666666666666667</ele><time>2026-04-27T08:45:47.815Z</time></trkpt><trkpt lat="45.6639167" lon="12.5195633"><ele>5.833333333333333</ele><time>2026-04-27T08:45:48.815Z</time></trkpt><trkpt lat="45.6639133" lon="12.5194433"><ele>6.0</ele><time>2026-04-27T08:45:49.815Z</time></trkpt><trkpt lat="45.66391" lon="12.5193133"><ele>6.333333333333333</ele><time>2026-04-27T08:45:50.815Z</time></trkpt><trkpt lat="45.66391" lon="12.519195"><ele>6.666666666666666</ele><time>2026-04-27T08:45:51.815Z</time></trkpt><trkpt lat="45.6639083" lon="12.51908"><ele>7.0</ele><time>2026-04-27T08:45:52.815Z</time></trkpt><trkpt lat="45.66391" lon="12.51898"><ele>7.333333333333333</ele><time>2026-04-27T08:45:53.815Z</time></trkpt><trkpt lat="45.6639133" lon="12.5188817"><ele>7.666666666666666</ele><time>2026-04-27T08:45:54.815Z</time></trkpt><trkpt lat="45.6639133" lon="12.5187817"><ele>8.0</ele><time>2026-04-27T08:45:55.815Z</time></trkpt><trkpt lat="45.6639367" lon="12.518605"><ele>8.0</ele><time>2026-04-27T08:45:57.815Z</time></trkpt><trkpt lat="45.6639367" lon="12.5184367"><ele>8.0</ele><time>2026-04-27T08:45:59.815Z</time></trkpt><trkpt lat="45.6639533" lon="12.5182817"><ele>8.0</ele><time>2026-04-27T08:46:01.815Z</time></trkpt><trkpt lat="45.663995" lon="12.51815"><ele>8.0</ele><time>2026-04-27T08:46:03.815Z</time></trkpt><trkpt lat="45.6640633" lon="12.51805"><ele>8.0</ele><time>2026-04-27T08:46:05.815Z</time></trkpt><trkpt lat="45.664185" lon="12.5179983"><ele>8.0</ele><time>2026-04-27T08:46:07.816Z</time></trkpt><trkpt lat="45.6642733" lon="12.5179967"><ele>8.0</ele><time>2026-04-27T08:46:08.815Z</time></trkpt><trkpt lat="45.6643717" lon="12.517995"><ele>8.0</ele><time>2026-04-27T08:46:09.816Z</time></trkpt><trkpt lat="45.6644783" lon="12.5179867"><ele>8.0</ele><time>2026-04-27T08:46:10.816Z</time></trkpt><trkpt lat="45.6645783" lon="12.51798"><ele>8.0</ele><time>2026-04-27T08:46:11.816Z</time></trkpt><trkpt lat="45.6646567" lon="12.517965"><ele>7.800000000000001</ele><time>2026-04-27T08:46:12.816Z</time></trkpt><trkpt lat="45.6647333" lon="12.5179367"><ele>7.6000000000000005</ele><time>2026-04-27T08:46:13.815Z</time></trkpt><trkpt lat="45.664815" lon="12.5179433"><ele>7.3999999999999995</ele><time>2026-04-27T08:46:14.815Z</time></trkpt><trkpt lat="45.664905" lon="12.51796"><ele>7.199999999999999</ele><time>2026-04-27T08:46:15.815Z</time></trkpt><trkpt lat="45.6650067" lon="12.517975"><ele>7.0</ele><time>2026-04-27T08:46:16.816Z</time></trkpt><trkpt lat="45.6651033" lon="12.518"><ele>7.0</ele><time>2026-04-27T08:46:17.815Z</time></trkpt><trkpt lat="45.6652" lon="12.5180517"><ele>6.999999999999999</ele><time>2026-04-27T08:46:18.815Z</time></trkpt><trkpt lat="45.6652933" lon="12.5180983"><ele>6.999999999999999</ele><time>2026-04-27T08:46:19.815Z</time></trkpt><trkpt lat="45.6653817" lon="12.5181417"><ele>7.0</ele><time>2026-04-27T08:46:20.815Z</time></trkpt><trkpt lat="45.6654667" lon="12.5181867"><ele>7.0</ele><time>2026-04-27T08:46:21.815Z</time></trkpt><trkpt lat="45.66556" lon="12.518215"><ele>7.6</ele><time>2026-04-27T08:46:22.815Z</time></trkpt><trkpt lat="45.6656667" lon="12.518235"><ele>8.2</ele><time>2026-04-27T08:46:23.815Z</time></trkpt><trkpt lat="45.6657683" lon="12.5182717"><ele>8.8</ele><time>2026-04-27T08:46:24.815Z</time></trkpt><trkpt lat="45.665855" lon="12.5183117"><ele>9.4</ele><time>2026-04-27T08:46:25.815Z</time></trkpt><trkpt lat="45.6659567" lon="12.5183233"><ele>10.0</ele><time>2026-04-27T08:46:26.815Z</time></trkpt><trkpt lat="45.6660717" lon="12.51834"><ele>8.75</ele><time>2026-04-27T08:46:27.815Z</time></trkpt><trkpt lat="45.6661883" lon="12.5183683"><ele>7.5</ele><time>2026-04-27T08:46:28.815Z</time></trkpt><trkpt lat="45.666295" lon="12.51837"><ele>6.25</ele><time>2026-04-27T08:46:29.815Z</time></trkpt><trkpt lat="45.6664083" lon="12.518365"><ele>5.0</ele><time>2026-04-27T08:46:30.815Z</time></trkpt><trkpt lat="45.6665217" lon="12.518365"><ele>5.0</ele><time>2026-04-27T08:46:31.815Z</time></trkpt><trkpt lat="45.6666367" lon="12.5183817"><ele>5.0</ele><time>2026-04-27T08:46:32.815Z</time></trkpt><trkpt lat="45.6667617" lon="12.5184117"><ele>5.0</ele><time>2026-04-27T08:46:33.815Z</time></trkpt><trkpt lat="45.6668867" lon="12.5184517"><ele>5.0</ele><time>2026-04-27T08:46:34.815Z</time></trkpt><trkpt lat="45.6670117" lon="12.5184983"><ele>4.0</ele><time>2026-04-27T08:46:35.815Z</time></trkpt><trkpt lat="45.6671333" lon="12.5185333"><ele>3.0</ele><time>2026-04-27T08:46:36.815Z</time></trkpt><trkpt lat="45.6672517" lon="12.5185667"><ele>2.0</ele><time>2026-04-27T08:46:37.815Z</time></trkpt><trkpt lat="45.6673683" lon="12.5186"><ele>1.0</ele><time>2026-04-27T08:46:38.815Z</time></trkpt><trkpt lat="45.667485" lon="12.5186283"><ele>1.0</ele><time>2026-04-27T08:46:39.815Z</time></trkpt><trkpt lat="45.667605" lon="12.51865"><ele>1.0</ele><time>2026-04-27T08:46:40.815Z</time></trkpt><trkpt lat="45.6677183" lon="12.5186583"><ele>1.0</ele><time>2026-04-27T08:46:41.815Z</time></trkpt><trkpt lat="45.6678383" lon="12.5186483"><ele>1.0</ele><time>2026-04-27T08:46:42.815Z</time></trkpt><trkpt lat="45.6679617" lon="12.518615"><ele>2.0</ele><time>2026-04-27T08:46:43.815Z</time></trkpt><trkpt lat="45.66808" lon="12.5185633"><ele>3.0</ele><time>2026-04-27T08:46:44.815Z</time></trkpt><trkpt lat="45.668195" lon="12.5185017"><ele>4.0</ele><time>2026-04-27T08:46:45.815Z</time></trkpt><trkpt lat="45.6683067" lon="12.5184333"><ele>5.0</ele><time>2026-04-27T08:46:46.815Z</time></trkpt><trkpt lat="45.6684183" lon="12.5183533"><ele>5.0</ele><time>2026-04-27T08:46:47.815Z</time></trkpt><trkpt lat="45.6685283" lon="12.5182717"><ele>5.0</ele><time>2026-04-27T08:46:48.815Z</time></trkpt><trkpt lat="45.6686367" lon="12.5181783"><ele>5.0</ele><time>2026-04-27T08:46:49.815Z</time></trkpt><trkpt lat="45.6687483" lon="12.5180833"><ele>5.0</ele><time>2026-04-27T08:46:50.815Z</time></trkpt><trkpt lat="45.6688567" lon="12.5179783"><ele>5.25</ele><time>2026-04-27T08:46:51.815Z</time></trkpt><trkpt lat="45.6689533" lon="12.5178583"><ele>5.5</ele><time>2026-04-27T08:46:52.815Z</time></trkpt><trkpt lat="45.6690433" lon="12.517725"><ele>5.75</ele><time>2026-04-27T08:46:53.815Z</time></trkpt><trkpt lat="45.6691283" lon="12.517585"><ele>6.0</ele><time>2026-04-27T08:46:54.815Z</time></trkpt><trkpt lat="45.6692117" lon="12.51743"><ele>6.0</ele><time>2026-04-27T08:46:55.815Z</time></trkpt><trkpt lat="45.669285" lon="12.51728"><ele>6.0</ele><time>2026-04-27T08:46:56.815Z</time></trkpt><trkpt lat="45.6693483" lon="12.517125"><ele>6.0</ele><time>2026-04-27T08:46:57.815Z</time></trkpt><trkpt lat="45.669405" lon="12.5169617"><ele>6.0</ele><time>2026-04-27T08:46:58.815Z</time></trkpt><trkpt lat="45.669455" lon="12.5167983"><ele>5.75</ele><time>2026-04-27T08:46:59.815Z</time></trkpt><trkpt lat="45.6694933" lon="12.5166233"><ele>5.5</ele><time>2026-04-27T08:47:00.815Z</time></trkpt><trkpt lat="45.66953" lon="12.5164367"><ele>5.25</ele><time>2026-04-27T08:47:01.815Z</time></trkpt><trkpt lat="45.6695567" lon="12.5162567"><ele>5.0</ele><time>2026-04-27T08:47:02.815Z</time></trkpt><trkpt lat="45.6695717" lon="12.516075"><ele>5.0</ele><time>2026-04-27T08:47:03.815Z</time></trkpt><trkpt lat="45.6695767" lon="12.5159017"><ele>5.0</ele><time>2026-04-27T08:47:04.815Z</time></trkpt><trkpt lat="45.66957" lon="12.5157183"><ele>5.0</ele><time>2026-04-27T08:47:05.815Z</time></trkpt><trkpt lat="45.669555" lon="12.5155283"><ele>5.0</ele><time>2026-04-27T08:47:06.815Z</time></trkpt><trkpt lat="45.6695317" lon="12.5153283"><ele>5.5</ele><time>2026-04-27T08:47:07.815Z</time></trkpt><trkpt lat="45.6694917" lon="12.5151183"><ele>6.0</ele><time>2026-04-27T08:47:08.815Z</time></trkpt><trkpt lat="45.6694483" lon="12.51492"><ele>6.5</ele><time>2026-04-27T08:47:09.815Z</time></trkpt><trkpt lat="45.66941" lon="12.5147317"><ele>7.0</ele><time>2026-04-27T08:47:10.815Z</time></trkpt><trkpt lat="45.6693717" lon="12.5145617"><ele>6.199999999999999</ele><time>2026-04-27T08:47:11.815Z</time></trkpt><trkpt lat="45.66934" lon="12.5144117"><ele>5.3999999999999995</ele><time>2026-04-27T08:47:12.815Z</time></trkpt><trkpt lat="45.669315" lon="12.5142833"><ele>4.6</ele><time>2026-04-27T08:47:13.815Z</time></trkpt><trkpt lat="45.669285" lon="12.51416"><ele>3.8</ele><time>2026-04-27T08:47:14.815Z</time></trkpt><trkpt lat="45.6692667" lon="12.5140617"><ele>3.0</ele><time>2026-04-27T08:47:15.815Z</time></trkpt><trkpt lat="45.6692367" lon="12.51392"><ele>3.0</ele><time>2026-04-27T08:47:17.816Z</time></trkpt><trkpt lat="45.6691967" lon="12.5138433"><ele>3.0</ele><time>2026-04-27T08:47:19.815Z</time></trkpt><trkpt lat="45.66913" lon="12.5137667"><ele>3.0</ele><time>2026-04-27T08:47:21.815Z</time></trkpt><trkpt lat="45.669065" lon="12.5136017"><ele>3.0</ele><time>2026-04-27T08:47:23.815Z</time></trkpt><trkpt lat="45.669025" lon="12.5134983"><ele>3.0</ele><time>2026-04-27T08:47:24.815Z</time></trkpt><trkpt lat="45.6689833" lon="12.5133817"><ele>3.75</ele><time>2026-04-27T08:47:25.815Z</time></trkpt><trkpt lat="45.6689483" lon="12.5132467"><ele>4.5</ele><time>2026-04-27T08:47:26.815Z</time></trkpt><trkpt lat="45.6689083" lon="12.5130933"><ele>5.25</ele><time>2026-04-27T08:47:27.815Z</time></trkpt><trkpt lat="45.6688683" lon="12.5129233"><ele>6.0</ele><time>2026-04-27T08:47:28.815Z</time></trkpt><trkpt lat="45.6688217" lon="12.512755"><ele>6.0</ele><time>2026-04-27T08:47:29.816Z</time></trkpt><trkpt lat="45.6687667" lon="12.512595"><ele>6.0</ele><time>2026-04-27T08:47:30.816Z</time></trkpt><trkpt lat="45.668715" lon="12.5124383"><ele>6.0</ele><time>2026-04-27T08:47:31.815Z</time></trkpt><trkpt lat="45.6686617" lon="12.5122833"><ele>6.0</ele><time>2026-04-27T08:47:32.815Z</time></trkpt><trkpt lat="45.6686017" lon="12.512125"><ele>5.5</ele><time>2026-04-27T08:47:33.815Z</time></trkpt><trkpt lat="45.6685333" lon="12.5119583"><ele>5.0</ele><time>2026-04-27T08:47:34.815Z</time></trkpt><trkpt lat="45.6684683" lon="12.51179"><ele>4.5</ele><time>2026-04-27T08:47:35.815Z</time></trkpt><trkpt lat="45.6684" lon="12.5116267"><ele>4.0</ele><time>2026-04-27T08:47:36.815Z</time></trkpt><trkpt lat="45.6683317" lon="12.51147"><ele>4.0</ele><time>2026-04-27T08:47:37.815Z</time></trkpt><trkpt lat="45.6682583" lon="12.5113167"><ele>4.0</ele><time>2026-04-27T08:47:38.815Z</time></trkpt><trkpt lat="45.6681817" lon="12.5111667"><ele>4.0</ele><time>2026-04-27T08:47:39.815Z</time></trkpt><trkpt lat="45.6681017" lon="12.5110217"><ele>4.0</ele><time>2026-04-27T08:47:40.815Z</time></trkpt><trkpt lat="45.6680133" lon="12.510875"><ele>4.25</ele><time>2026-04-27T08:47:41.815Z</time></trkpt><trkpt lat="45.6679267" lon="12.5107267"><ele>4.5</ele><time>2026-04-27T08:47:42.815Z</time></trkpt><trkpt lat="45.6678467" lon="12.5105733"><ele>4.75</ele><time>2026-04-27T08:47:43.816Z</time></trkpt><trkpt lat="45.6677633" lon="12.51041"><ele>5.0</ele><time>2026-04-27T08:47:44.815Z</time></trkpt><trkpt lat="45.6676883" lon="12.510255"><ele>4.5</ele><time>2026-04-27T08:47:45.815Z</time></trkpt><trkpt lat="45.6676117" lon="12.5101"><ele>4.0</ele><time>2026-04-27T08:47:46.816Z</time></trkpt><trkpt lat="45.667535" lon="12.50995"><ele>3.5</ele><time>2026-04-27T08:47:47.815Z</time></trkpt><trkpt lat="45.66746" lon="12.5097967"><ele>3.0</ele><time>2026-04-27T08:47:48.815Z</time></trkpt><trkpt lat="45.6673867" lon="12.5096383"><ele>2.25</ele><time>2026-04-27T08:47:49.815Z</time></trkpt><trkpt lat="45.667315" lon="12.5094817"><ele>1.5</ele><time>2026-04-27T08:47:50.815Z</time></trkpt><trkpt lat="45.6672383" lon="12.50932"><ele>0.75</ele><time>2026-04-27T08:47:51.815Z</time></trkpt><trkpt lat="45.667165" lon="12.50915"><ele>0.0</ele><time>2026-04-27T08:47:52.815Z</time></trkpt><trkpt lat="45.6670983" lon="12.50898"><ele>0.0</ele><time>2026-04-27T08:47:53.815Z</time></trkpt><trkpt lat="45.6670417" lon="12.50882"><ele>0.0</ele><time>2026-04-27T08:47:54.815Z</time></trkpt><trkpt lat="45.6669917" lon="12.5086467"><ele>0.0</ele><time>2026-04-27T08:47:55.815Z</time></trkpt><trkpt lat="45.6669467" lon="12.5084733"><ele>0.0</ele><time>2026-04-27T08:47:56.815Z</time></trkpt><trkpt lat="45.6669067" lon="12.5083133"><ele>1.0</ele><time>2026-04-27T08:47:57.815Z</time></trkpt><trkpt lat="45.666875" lon="12.508165"><ele>2.0</ele><time>2026-04-27T08:47:58.816Z</time></trkpt><trkpt lat="45.6668467" lon="12.508015"><ele>3.0</ele><time>2026-04-27T08:47:59.815Z</time></trkpt><trkpt lat="45.6668267" lon="12.507855"><ele>4.0</ele><time>2026-04-27T08:48:00.815Z</time></trkpt><trkpt lat="45.6668167" lon="12.5076967"><ele>5.0</ele><time>2026-04-27T08:48:01.815Z</time></trkpt><trkpt lat="45.6668117" lon="12.5075267"><ele>5.0</ele><time>2026-04-27T08:48:02.816Z</time></trkpt><trkpt lat="45.66681" lon="12.5073483"><ele>5.0</ele><time>2026-04-27T08:48:03.815Z</time></trkpt><trkpt lat="45.6668133" lon="12.507155"><ele>5.0</ele><time>2026-04-27T08:48:04.815Z</time></trkpt><trkpt lat="45.6668267" lon="12.5069617"><ele>5.0</ele><time>2026-04-27T08:48:05.815Z</time></trkpt><trkpt lat="45.6668483" lon="12.5067767"><ele>5.0</ele><time>2026-04-27T08:48:06.815Z</time></trkpt><trkpt lat="45.6668717" lon="12.5065983"><ele>5.0</ele><time>2026-04-27T08:48:07.815Z</time></trkpt><trkpt lat="45.6669017" lon="12.5064167"><ele>5.0</ele><time>2026-04-27T08:48:08.815Z</time></trkpt><trkpt lat="45.66694" lon="12.5062333"><ele>5.0</ele><time>2026-04-27T08:48:09.815Z</time></trkpt><trkpt lat="45.6669933" lon="12.506045"><ele>5.0</ele><time>2026-04-27T08:48:10.815Z</time></trkpt><trkpt lat="45.6670517" lon="12.5058483"><ele>5.0</ele><time>2026-04-27T08:48:11.815Z</time></trkpt><trkpt lat="45.6671183" lon="12.505665"><ele>5.0</ele><time>2026-04-27T08:48:12.815Z</time></trkpt><trkpt lat="45.667185" lon="12.5054933"><ele>5.0</ele><time>2026-04-27T08:48:13.816Z</time></trkpt><trkpt lat="45.667265" lon="12.50532"><ele>5.0</ele><time>2026-04-27T08:48:14.815Z</time></trkpt><trkpt lat="45.667335" lon="12.505175"><ele>5.0</ele><time>2026-04-27T08:48:15.815Z</time></trkpt><trkpt lat="45.667415" lon="12.5050333"><ele>5.0</ele><time>2026-04-27T08:48:16.815Z</time></trkpt><trkpt lat="45.667505" lon="12.504895"><ele>5.0</ele><time>2026-04-27T08:48:17.815Z</time></trkpt><trkpt lat="45.667595" lon="12.5047583"><ele>5.0</ele><time>2026-04-27T08:48:18.815Z</time></trkpt><trkpt lat="45.6677" lon="12.5046217"><ele>5.0</ele><time>2026-04-27T08:48:19.815Z</time></trkpt><trkpt lat="45.6678083" lon="12.5044817"><ele>5.0</ele><time>2026-04-27T08:48:20.815Z</time></trkpt><trkpt lat="45.667915" lon="12.50435"><ele>5.0</ele><time>2026-04-27T08:48:21.815Z</time></trkpt><trkpt lat="45.6680117" lon="12.504235"><ele>5.25</ele><time>2026-04-27T08:48:22.815Z</time></trkpt><trkpt lat="45.6681117" lon="12.50412"><ele>5.5</ele><time>2026-04-27T08:48:23.815Z</time></trkpt><trkpt lat="45.6682233" lon="12.504015"><ele>5.75</ele><time>2026-04-27T08:48:24.815Z</time></trkpt><trkpt lat="45.668335" lon="12.503895"><ele>6.0</ele><time>2026-04-27T08:48:25.815Z</time></trkpt><trkpt lat="45.66844" lon="12.5037733"><ele>5.75</ele><time>2026-04-27T08:48:26.815Z</time></trkpt><trkpt lat="45.6685367" lon="12.5036567"><ele>5.5</ele><time>2026-04-27T08:48:27.816Z</time></trkpt><trkpt lat="45.668635" lon="12.5035533"><ele>5.25</ele><time>2026-04-27T08:48:28.815Z</time></trkpt><trkpt lat="45.6687367" lon="12.503445"><ele>5.0</ele><time>2026-04-27T08:48:29.816Z</time></trkpt><trkpt lat="45.66884" lon="12.5033417"><ele>5.0</ele><time>2026-04-27T08:48:30.815Z</time></trkpt><trkpt lat="45.668945" lon="12.5032383"><ele>5.0</ele><time>2026-04-27T08:48:31.815Z</time></trkpt><trkpt lat="45.669055" lon="12.5031283"><ele>5.0</ele><time>2026-04-27T08:48:32.815Z</time></trkpt><trkpt lat="45.6691717" lon="12.50303"><ele>5.0</ele><time>2026-04-27T08:48:33.815Z</time></trkpt><trkpt lat="45.6692883" lon="12.5029183"><ele>5.0</ele><time>2026-04-27T08:48:34.815Z</time></trkpt><trkpt lat="45.6694067" lon="12.5028017"><ele>5.0</ele><time>2026-04-27T08:48:35.815Z</time></trkpt><trkpt lat="45.6695233" lon="12.5026833"><ele>5.0</ele><time>2026-04-27T08:48:36.815Z</time></trkpt><trkpt lat="45.6696417" lon="12.5025633"><ele>5.0</ele><time>2026-04-27T08:48:37.815Z</time></trkpt><trkpt lat="45.669755" lon="12.50245"><ele>5.0</ele><time>2026-04-27T08:48:38.815Z</time></trkpt><trkpt lat="45.6698617" lon="12.5023417"><ele>5.0</ele><time>2026-04-27T08:48:39.815Z</time></trkpt><trkpt lat="45.6699567" lon="12.5022383"><ele>5.0</ele><time>2026-04-27T08:48:40.815Z</time></trkpt><trkpt lat="45.6700567" lon="12.50213"><ele>5.0</ele><time>2026-04-27T08:48:41.815Z</time></trkpt><trkpt lat="45.6701617" lon="12.5020267"><ele>5.0</ele><time>2026-04-27T08:48:42.815Z</time></trkpt><trkpt lat="45.6702633" lon="12.5019233"><ele>5.0</ele><time>2026-04-27T08:48:43.816Z</time></trkpt><trkpt lat="45.6703717" lon="12.5018083"><ele>5.0</ele><time>2026-04-27T08:48:44.815Z</time></trkpt><trkpt lat="45.6704817" lon="12.5017"><ele>5.0</ele><time>2026-04-27T08:48:45.815Z</time></trkpt><trkpt lat="45.6705933" lon="12.5015867"><ele>5.0</ele><time>2026-04-27T08:48:46.815Z</time></trkpt><trkpt lat="45.6707117" lon="12.5014683"><ele>5.0</ele><time>2026-04-27T08:48:47.815Z</time></trkpt><trkpt lat="45.6708283" lon="12.5013533"><ele>5.0</ele><time>2026-04-27T08:48:48.815Z</time></trkpt><trkpt lat="45.6709467" lon="12.5012333"><ele>5.0</ele><time>2026-04-27T08:48:49.816Z</time></trkpt><trkpt lat="45.671065" lon="12.501125"><ele>5.0</ele><time>2026-04-27T08:48:50.816Z</time></trkpt><trkpt lat="45.6711683" lon="12.50102"><ele>5.0</ele><time>2026-04-27T08:48:51.815Z</time></trkpt><trkpt lat="45.6712717" lon="12.5009233"><ele>5.0</ele><time>2026-04-27T08:48:52.815Z</time></trkpt><trkpt lat="45.67137" lon="12.50082"><ele>5.0</ele><time>2026-04-27T08:48:53.815Z</time></trkpt><trkpt lat="45.6714733" lon="12.50072"><ele>5.0</ele><time>2026-04-27T08:48:54.815Z</time></trkpt><trkpt lat="45.6715783" lon="12.5006233"><ele>5.0</ele><time>2026-04-27T08:48:55.815Z</time></trkpt><trkpt lat="45.6716867" lon="12.5005333"><ele>5.0</ele><time>2026-04-27T08:48:56.815Z</time></trkpt><trkpt lat="45.6717933" lon="12.5004567"><ele>5.0</ele><time>2026-04-27T08:48:57.816Z</time></trkpt><trkpt lat="45.6718933" lon="12.5003917"><ele>5.2</ele><time>2026-04-27T08:48:58.815Z</time></trkpt><trkpt lat="45.671985" lon="12.50033"><ele>5.4</ele><time>2026-04-27T08:48:59.815Z</time></trkpt><trkpt lat="45.67208" lon="12.5002717"><ele>5.6</ele><time>2026-04-27T08:49:00.815Z</time></trkpt><trkpt lat="45.672165" lon="12.5002133"><ele>5.8</ele><time>2026-04-27T08:49:01.815Z</time></trkpt><trkpt lat="45.6722483" lon="12.500135"><ele>6.0</ele><time>2026-04-27T08:49:02.815Z</time></trkpt><trkpt lat="45.67234" lon="12.500045"><ele>6.0</ele><time>2026-04-27T08:49:03.815Z</time></trkpt><trkpt lat="45.67243" lon="12.4999483"><ele>6.0</ele><time>2026-04-27T08:49:04.816Z</time></trkpt><trkpt lat="45.6725217" lon="12.4998533"><ele>6.0</ele><time>2026-04-27T08:49:05.815Z</time></trkpt><trkpt lat="45.672625" lon="12.499745"><ele>6.0</ele><time>2026-04-27T08:49:06.815Z</time></trkpt><trkpt lat="45.6727333" lon="12.49964"><ele>6.25</ele><time>2026-04-27T08:49:07.815Z</time></trkpt><trkpt lat="45.672845" lon="12.4995267"><ele>6.5</ele><time>2026-04-27T08:49:08.815Z</time></trkpt><trkpt lat="45.6729483" lon="12.4994133"><ele>6.75</ele><time>2026-04-27T08:49:09.815Z</time></trkpt><trkpt lat="45.6730583" lon="12.4993"><ele>7.0</ele><time>2026-04-27T08:49:10.815Z</time></trkpt><trkpt lat="45.6731733" lon="12.499185"><ele>7.0</ele><time>2026-04-27T08:49:11.815Z</time></trkpt><trkpt lat="45.673285" lon="12.49907"><ele>7.0</ele><time>2026-04-27T08:49:12.815Z</time></trkpt><trkpt lat="45.67339" lon="12.4989667"><ele>7.0</ele><time>2026-04-27T08:49:13.815Z</time></trkpt><trkpt lat="45.6734933" lon="12.49887"><ele>7.0</ele><time>2026-04-27T08:49:14.815Z</time></trkpt><trkpt lat="45.6735983" lon="12.49878"><ele>7.0</ele><time>2026-04-27T08:49:15.815Z</time></trkpt><trkpt lat="45.6737067" lon="12.498695"><ele>7.0</ele><time>2026-04-27T08:49:16.815Z</time></trkpt><trkpt lat="45.6738217" lon="12.4986033"><ele>7.0</ele><time>2026-04-27T08:49:17.815Z</time></trkpt><trkpt lat="45.6739433" lon="12.4985183"><ele>7.0</ele><time>2026-04-27T08:49:18.815Z</time></trkpt><trkpt lat="45.6740667" lon="12.4984417"><ele>7.0</ele><time>2026-04-27T08:49:19.815Z</time></trkpt><trkpt lat="45.67419" lon="12.4983733"><ele>7.0</ele><time>2026-04-27T08:49:20.815Z</time></trkpt><trkpt lat="45.67432" lon="12.4983017"><ele>7.0</ele><time>2026-04-27T08:49:21.815Z</time></trkpt><trkpt lat="45.6744517" lon="12.4982367"><ele>7.0</ele><time>2026-04-27T08:49:22.815Z</time></trkpt><trkpt lat="45.6745867" lon="12.498175"><ele>7.0</ele><time>2026-04-27T08:49:23.815Z</time></trkpt><trkpt lat="45.6747233" lon="12.4981217"><ele>7.0</ele><time>2026-04-27T08:49:24.815Z</time></trkpt><trkpt lat="45.6748617" lon="12.49807"><ele>7.0</ele><time>2026-04-27T08:49:25.815Z</time></trkpt><trkpt lat="45.67501" lon="12.4980317"><ele>7.0</ele><time>2026-04-27T08:49:26.815Z</time></trkpt><trkpt lat="45.67517" lon="12.4980067"><ele>6.666666666666667</ele><time>2026-04-27T08:49:27.815Z</time></trkpt><trkpt lat="45.67533" lon="12.497985"><ele>6.333333333333334</ele><time>2026-04-27T08:49:28.815Z</time></trkpt><trkpt lat="45.6754833" lon="12.4979767"><ele>6.0</ele><time>2026-04-27T08:49:29.815Z</time></trkpt><trkpt lat="45.675625" lon="12.4979783"><ele>6.0</ele><time>2026-04-27T08:49:30.815Z</time></trkpt><trkpt lat="45.6757583" lon="12.4979867"><ele>6.0</ele><time>2026-04-27T08:49:31.815Z</time></trkpt><trkpt lat="45.6758917" lon="12.49801"><ele>6.0</ele><time>2026-04-27T08:49:32.815Z</time></trkpt><trkpt lat="45.676015" lon="12.4980333"><ele>6.0</ele><time>2026-04-27T08:49:33.815Z</time></trkpt><trkpt lat="45.6761267" lon="12.498065"><ele>6.4</ele><time>2026-04-27T08:49:34.815Z</time></trkpt><trkpt lat="45.676225" lon="12.4980967"><ele>6.8</ele><time>2026-04-27T08:49:35.815Z</time></trkpt><trkpt lat="45.676305" lon="12.4981233"><ele>7.200000000000001</ele><time>2026-04-27T08:49:36.815Z</time></trkpt><trkpt lat="45.6764183" lon="12.49812"><ele>7.6000000000000005</ele><time>2026-04-27T08:49:38.815Z</time></trkpt><trkpt lat="45.6765417" lon="12.4981"><ele>8.0</ele><time>2026-04-27T08:49:40.815Z</time></trkpt><trkpt lat="45.6766167" lon="12.4981017"><ele>8.0</ele><time>2026-04-27T08:49:41.815Z</time></trkpt><trkpt lat="45.676705" lon="12.4981083"><ele>8.0</ele><time>2026-04-27T08:49:42.815Z</time></trkpt><trkpt lat="45.6768033" lon="12.4981283"><ele>8.0</ele><time>2026-04-27T08:49:43.815Z</time></trkpt><trkpt lat="45.6769133" lon="12.4981667"><ele>8.0</ele><time>2026-04-27T08:49:44.815Z</time></trkpt><trkpt lat="45.677025" lon="12.4982233"><ele>8.0</ele><time>2026-04-27T08:49:45.815Z</time></trkpt><trkpt lat="45.6771317" lon="12.49828"><ele>7.75</ele><time>2026-04-27T08:49:46.815Z</time></trkpt><trkpt lat="45.6772317" lon="12.498345"><ele>7.5</ele><time>2026-04-27T08:49:47.815Z</time></trkpt><trkpt lat="45.6773333" lon="12.4984167"><ele>7.25</ele><time>2026-04-27T08:49:48.815Z</time></trkpt><trkpt lat="45.6774483" lon="12.4984967"><ele>7.0</ele><time>2026-04-27T08:49:49.815Z</time></trkpt><trkpt lat="45.6775733" lon="12.498585"><ele>7.0</ele><time>2026-04-27T08:49:50.815Z</time></trkpt><trkpt lat="45.677685" lon="12.49868"><ele>7.0</ele><time>2026-04-27T08:49:51.815Z</time></trkpt><trkpt lat="45.67779" lon="12.49878"><ele>7.0</ele><time>2026-04-27T08:49:52.815Z</time></trkpt><trkpt lat="45.6778983" lon="12.4988783"><ele>7.0</ele><time>2026-04-27T08:49:53.815Z</time></trkpt><trkpt lat="45.67799" lon="12.4989667"><ele>6.8</ele><time>2026-04-27T08:49:54.816Z</time></trkpt><trkpt lat="45.6780833" lon="12.4990533"><ele>6.6</ele><time>2026-04-27T08:49:55.815Z</time></trkpt><trkpt lat="45.6781667" lon="12.499145"><ele>6.3999999999999995</ele><time>2026-04-27T08:49:56.815Z</time></trkpt><trkpt lat="45.6782417" lon="12.4992483"><ele>6.199999999999999</ele><time>2026-04-27T08:49:57.815Z</time></trkpt><trkpt lat="45.678305" lon="12.4993783"><ele>6.0</ele><time>2026-04-27T08:49:58.815Z</time></trkpt><trkpt lat="45.6783583" lon="12.4995183"><ele>5.75</ele><time>2026-04-27T08:49:59.815Z</time></trkpt><trkpt lat="45.6784133" lon="12.4996783"><ele>5.5</ele><time>2026-04-27T08:50:00.815Z</time></trkpt><trkpt lat="45.67846" lon="12.4998417"><ele>5.25</ele><time>2026-04-27T08:50:01.815Z</time></trkpt><trkpt lat="45.6785117" lon="12.5000117"><ele>5.0</ele><time>2026-04-27T08:50:02.815Z</time></trkpt><trkpt lat="45.6785667" lon="12.5001967"><ele>5.0</ele><time>2026-04-27T08:50:03.815Z</time></trkpt><trkpt lat="45.67863" lon="12.5003733"><ele>5.0</ele><time>2026-04-27T08:50:04.815Z</time></trkpt><trkpt lat="45.6786933" lon="12.500545"><ele>5.0</ele><time>2026-04-27T08:50:05.815Z</time></trkpt><trkpt lat="45.67875" lon="12.5007133"><ele>5.0</ele><time>2026-04-27T08:50:06.815Z</time></trkpt><trkpt lat="45.6788083" lon="12.5008817"><ele>5.0</ele><time>2026-04-27T08:50:07.816Z</time></trkpt><trkpt lat="45.6788717" lon="12.5010567"><ele>5.0</ele><time>2026-04-27T08:50:08.816Z</time></trkpt><trkpt lat="45.6789383" lon="12.501235"><ele>5.0</ele><time>2026-04-27T08:50:09.815Z</time></trkpt><trkpt lat="45.6790017" lon="12.5013983"><ele>5.0</ele><time>2026-04-27T08:50:10.815Z</time></trkpt><trkpt lat="45.6790633" lon="12.501565"><ele>5.25</ele><time>2026-04-27T08:50:11.815Z</time></trkpt><trkpt lat="45.679115" lon="12.5017317"><ele>5.5</ele><time>2026-04-27T08:50:12.816Z</time></trkpt><trkpt lat="45.6791717" lon="12.5019067"><ele>5.75</ele><time>2026-04-27T08:50:13.815Z</time></trkpt><trkpt lat="45.6792233" lon="12.5020717"><ele>6.0</ele><time>2026-04-27T08:50:14.815Z</time></trkpt><trkpt lat="45.6792733" lon="12.50224"><ele>6.0</ele><time>2026-04-27T08:50:15.815Z</time></trkpt><trkpt lat="45.67933" lon="12.5024117"><ele>6.0</ele><time>2026-04-27T08:50:16.815Z</time></trkpt><trkpt lat="45.67939" lon="12.5025817"><ele>6.0</ele><time>2026-04-27T08:50:17.815Z</time></trkpt><trkpt lat="45.679455" lon="12.5027567"><ele>6.0</ele><time>2026-04-27T08:50:18.815Z</time></trkpt><trkpt lat="45.6795017" lon="12.5029183"><ele>5.6</ele><time>2026-04-27T08:50:19.816Z</time></trkpt><trkpt lat="45.6795517" lon="12.5030667"><ele>5.199999999999999</ele><time>2026-04-27T08:50:20.815Z</time></trkpt><trkpt lat="45.6796033" lon="12.503205"><ele>4.800000000000001</ele><time>2026-04-27T08:50:21.815Z</time></trkpt><trkpt lat="45.6796567" lon="12.5033383"><ele>4.4</ele><time>2026-04-27T08:50:22.815Z</time></trkpt><trkpt lat="45.6797067" lon="12.5034583"><ele>4.0</ele><time>2026-04-27T08:50:23.815Z</time></trkpt><trkpt lat="45.6797533" lon="12.5035683"><ele>4.0</ele><time>2026-04-27T08:50:24.815Z</time></trkpt><trkpt lat="45.6798017" lon="12.5036667"><ele>4.0</ele><time>2026-04-27T08:50:25.815Z</time></trkpt><trkpt lat="45.6798483" lon="12.5037733"><ele>4.0</ele><time>2026-04-27T08:50:26.815Z</time></trkpt><trkpt lat="45.67989" lon="12.503885"><ele>4.0</ele><time>2026-04-27T08:50:27.815Z</time></trkpt><trkpt lat="45.6799317" lon="12.5040083"><ele>4.0</ele><time>2026-04-27T08:50:28.815Z</time></trkpt><trkpt lat="45.6799783" lon="12.50414"><ele>4.0</ele><time>2026-04-27T08:50:29.815Z</time></trkpt><trkpt lat="45.6800283" lon="12.5042817"><ele>4.0</ele><time>2026-04-27T08:50:30.815Z</time></trkpt><trkpt lat="45.68009" lon="12.5044383"><ele>4.0</ele><time>2026-04-27T08:50:31.815Z</time></trkpt><trkpt lat="45.6801533" lon="12.504605"><ele>4.0</ele><time>2026-04-27T08:50:32.815Z</time></trkpt><trkpt lat="45.680235" lon="12.5047917"><ele>4.0</ele><time>2026-04-27T08:50:33.815Z</time></trkpt><trkpt lat="45.6803283" lon="12.5049533"><ele>4.0</ele><time>2026-04-27T08:50:34.815Z</time></trkpt><trkpt lat="45.6804333" lon="12.505145"><ele>4.0</ele><time>2026-04-27T08:50:35.815Z</time></trkpt><trkpt lat="45.6805583" lon="12.505345"><ele>3.6666666666666665</ele><time>2026-04-27T08:50:36.815Z</time></trkpt><trkpt lat="45.6806767" lon="12.5055233"><ele>3.333333333333333</ele><time>2026-04-27T08:50:37.815Z</time></trkpt><trkpt lat="45.6807867" lon="12.50568"><ele>3.0</ele><time>2026-04-27T08:50:38.816Z</time></trkpt><trkpt lat="45.6809" lon="12.5058333"><ele>3.0</ele><time>2026-04-27T08:50:39.815Z</time></trkpt><trkpt lat="45.6810317" lon="12.5059717"><ele>3.0</ele><time>2026-04-27T08:50:40.815Z</time></trkpt><trkpt lat="45.6811717" lon="12.5061067"><ele>3.0</ele><time>2026-04-27T08:50:41.815Z</time></trkpt><trkpt lat="45.681325" lon="12.506235"><ele>3.0</ele><time>2026-04-27T08:50:42.815Z</time></trkpt><trkpt lat="45.6814817" lon="12.506375"><ele>3.0</ele><time>2026-04-27T08:50:43.815Z</time></trkpt><trkpt lat="45.6816367" lon="12.5064917"><ele>3.0</ele><time>2026-04-27T08:50:44.815Z</time></trkpt><trkpt lat="45.681775" lon="12.5065867"><ele>3.0</ele><time>2026-04-27T08:50:45.815Z</time></trkpt><trkpt lat="45.6819133" lon="12.5066733"><ele>3.0</ele><time>2026-04-27T08:50:46.815Z</time></trkpt><trkpt lat="45.682055" lon="12.5067517"><ele>3.0</ele><time>2026-04-27T08:50:47.815Z</time></trkpt><trkpt lat="45.6821967" lon="12.50682"><ele>3.0</ele><time>2026-04-27T08:50:48.815Z</time></trkpt><trkpt lat="45.682335" lon="12.506875"><ele>3.0</ele><time>2026-04-27T08:50:49.815Z</time></trkpt><trkpt lat="45.6824833" lon="12.5069217"><ele>3.0</ele><time>2026-04-27T08:50:50.815Z</time></trkpt><trkpt lat="45.6826333" lon="12.50695"><ele>3.0</ele><time>2026-04-27T08:50:51.815Z</time></trkpt><trkpt lat="45.6827817" lon="12.50697"><ele>3.0</ele><time>2026-04-27T08:50:52.815Z</time></trkpt><trkpt lat="45.68293" lon="12.5069917"><ele>3.0</ele><time>2026-04-27T08:50:53.815Z</time></trkpt><trkpt lat="45.6830767" lon="12.5070283"><ele>3.0</ele><time>2026-04-27T08:50:54.815Z</time></trkpt><trkpt lat="45.6832267" lon="12.507065"><ele>3.666666666666667</ele><time>2026-04-27T08:50:55.815Z</time></trkpt><trkpt lat="45.6833767" lon="12.5071067"><ele>4.333333333333334</ele><time>2026-04-27T08:50:56.815Z</time></trkpt><trkpt lat="45.6835233" lon="12.5071517"><ele>5.0</ele><time>2026-04-27T08:50:57.815Z</time></trkpt><trkpt lat="45.6836817" lon="12.507185"><ele>5.0</ele><time>2026-04-27T08:50:58.815Z</time></trkpt><trkpt lat="45.6838283" lon="12.5072117"><ele>5.0</ele><time>2026-04-27T08:50:59.815Z</time></trkpt><trkpt lat="45.6839683" lon="12.5072267"><ele>5.0</ele><time>2026-04-27T08:51:00.815Z</time></trkpt><trkpt lat="45.68411" lon="12.5072417"><ele>5.0</ele><time>2026-04-27T08:51:01.815Z</time></trkpt><trkpt lat="45.6842533" lon="12.5072533"><ele>5.0</ele><time>2026-04-27T08:51:02.815Z</time></trkpt><trkpt lat="45.6843983" lon="12.5072617"><ele>5.0</ele><time>2026-04-27T08:51:03.815Z</time></trkpt><trkpt lat="45.6845417" lon="12.5072633"><ele>5.0</ele><time>2026-04-27T08:51:04.815Z</time></trkpt><trkpt lat="45.6846933" lon="12.507255"><ele>5.0</ele><time>2026-04-27T08:51:05.815Z</time></trkpt><trkpt lat="45.6848567" lon="12.507245"><ele>4.666666666666667</ele><time>2026-04-27T08:51:06.815Z</time></trkpt><trkpt lat="45.685025" lon="12.5072317"><ele>4.333333333333333</ele><time>2026-04-27T08:51:07.815Z</time></trkpt><trkpt lat="45.685195" lon="12.5072067"><ele>4.0</ele><time>2026-04-27T08:51:08.815Z</time></trkpt><trkpt lat="45.6853717" lon="12.507175"><ele>4.0</ele><time>2026-04-27T08:51:09.815Z</time></trkpt><trkpt lat="45.6855517" lon="12.5071267"><ele>4.0</ele><time>2026-04-27T08:51:10.816Z</time></trkpt><trkpt lat="45.685735" lon="12.5070833"><ele>4.0</ele><time>2026-04-27T08:51:11.815Z</time></trkpt><trkpt lat="45.6859" lon="12.5070367"><ele>4.333333333333333</ele><time>2026-04-27T08:51:12.815Z</time></trkpt><trkpt lat="45.6860533" lon="12.5069883"><ele>4.666666666666667</ele><time>2026-04-27T08:51:13.815Z</time></trkpt><trkpt lat="45.6862033" lon="12.50694"><ele>5.0</ele><time>2026-04-27T08:51:14.815Z</time></trkpt><trkpt lat="45.686355" lon="12.5068917"><ele>5.0</ele><time>2026-04-27T08:51:15.815Z</time></trkpt><trkpt lat="45.6865033" lon="12.5068417"><ele>5.0</ele><time>2026-04-27T08:51:16.815Z</time></trkpt><trkpt lat="45.6866583" lon="12.5067783"><ele>5.0</ele><time>2026-04-27T08:51:17.815Z</time></trkpt><trkpt lat="45.6868183" lon="12.5067067"><ele>5.0</ele><time>2026-04-27T08:51:18.815Z</time></trkpt><trkpt lat="45.6869717" lon="12.5066433"><ele>5.0</ele><time>2026-04-27T08:51:19.816Z</time></trkpt><trkpt lat="45.687125" lon="12.5065733"><ele>5.0</ele><time>2026-04-27T08:51:20.815Z</time></trkpt><trkpt lat="45.687275" lon="12.506495"><ele>5.0</ele><time>2026-04-27T08:51:21.815Z</time></trkpt><trkpt lat="45.6874267" lon="12.506425"><ele>5.0</ele><time>2026-04-27T08:51:22.815Z</time></trkpt><trkpt lat="45.687575" lon="12.5063533"><ele>5.0</ele><time>2026-04-27T08:51:23.815Z</time></trkpt><trkpt lat="45.6877167" lon="12.5062833"><ele>4.75</ele><time>2026-04-27T08:51:24.815Z</time></trkpt><trkpt lat="45.6878467" lon="12.5061967"><ele>4.5</ele><time>2026-04-27T08:51:25.815Z</time></trkpt><trkpt lat="45.687975" lon="12.506125"><ele>4.25</ele><time>2026-04-27T08:51:26.815Z</time></trkpt><trkpt lat="45.6881067" lon="12.5060483"><ele>4.0</ele><time>2026-04-27T08:51:27.815Z</time></trkpt><trkpt lat="45.6882333" lon="12.5059767"><ele>4.0</ele><time>2026-04-27T08:51:28.816Z</time></trkpt><trkpt lat="45.6883567" lon="12.505915"><ele>4.0</ele><time>2026-04-27T08:51:29.815Z</time></trkpt><trkpt lat="45.6884917" lon="12.5058467"><ele>4.0</ele><time>2026-04-27T08:51:30.815Z</time></trkpt><trkpt lat="45.68862" lon="12.5057767"><ele>4.0</ele><time>2026-04-27T08:51:31.815Z</time></trkpt><trkpt lat="45.6887533" lon="12.505705"><ele>4.25</ele><time>2026-04-27T08:51:32.815Z</time></trkpt><trkpt lat="45.6888883" lon="12.5056267"><ele>4.5</ele><time>2026-04-27T08:51:33.815Z</time></trkpt><trkpt lat="45.6890267" lon="12.5055433"><ele>4.75</ele><time>2026-04-27T08:51:34.815Z</time></trkpt><trkpt lat="45.6891667" lon="12.5054617"><ele>5.0</ele><time>2026-04-27T08:51:35.815Z</time></trkpt><trkpt lat="45.6893067" lon="12.5053667"><ele>4.666666666666667</ele><time>2026-04-27T08:51:36.815Z</time></trkpt><trkpt lat="45.689445" lon="12.5052683"><ele>4.333333333333333</ele><time>2026-04-27T08:51:37.815Z</time></trkpt><trkpt lat="45.6895833" lon="12.5051667"><ele>4.0</ele><time>2026-04-27T08:51:38.815Z</time></trkpt><trkpt lat="45.6897167" lon="12.50507"><ele>4.0</ele><time>2026-04-27T08:51:39.815Z</time></trkpt><trkpt lat="45.689845" lon="12.5049783"><ele>4.0</ele><time>2026-04-27T08:51:40.815Z</time></trkpt><trkpt lat="45.6899617" lon="12.5048917"><ele>4.0</ele><time>2026-04-27T08:51:41.815Z</time></trkpt><trkpt lat="45.69007" lon="12.5048067"><ele>4.0</ele><time>2026-04-27T08:51:42.815Z</time></trkpt><trkpt lat="45.69017" lon="12.50472"><ele>3.75</ele><time>2026-04-27T08:51:43.815Z</time></trkpt><trkpt lat="45.690265" lon="12.5046417"><ele>3.5</ele><time>2026-04-27T08:51:44.815Z</time></trkpt><trkpt lat="45.69036" lon="12.5045517"><ele>3.25</ele><time>2026-04-27T08:51:45.815Z</time></trkpt><trkpt lat="45.690465" lon="12.5044517"><ele>3.0</ele><time>2026-04-27T08:51:46.815Z</time></trkpt><trkpt lat="45.690565" lon="12.5043633"><ele>3.4</ele><time>2026-04-27T08:51:47.816Z</time></trkpt><trkpt lat="45.690665" lon="12.50428"><ele>3.8</ele><time>2026-04-27T08:51:48.815Z</time></trkpt><trkpt lat="45.69076" lon="12.5042033"><ele>4.2</ele><time>2026-04-27T08:51:49.815Z</time></trkpt><trkpt lat="45.6908533" lon="12.5041217"><ele>4.6</ele><time>2026-04-27T08:51:50.815Z</time></trkpt><trkpt lat="45.6909383" lon="12.5040533"><ele>5.0</ele><time>2026-04-27T08:51:51.815Z</time></trkpt><trkpt lat="45.69102" lon="12.5040117"><ele>5.0</ele><time>2026-04-27T08:51:52.815Z</time></trkpt><trkpt lat="45.6910983" lon="12.5039567"><ele>5.0</ele><time>2026-04-27T08:51:53.815Z</time></trkpt><trkpt lat="45.691175" lon="12.503875"><ele>5.0</ele><time>2026-04-27T08:51:54.815Z</time></trkpt><trkpt lat="45.6912483" lon="12.5037633"><ele>5.0</ele><time>2026-04-27T08:51:55.815Z</time></trkpt><trkpt lat="45.6913367" lon="12.5036267"><ele>5.0</ele><time>2026-04-27T08:51:56.815Z</time></trkpt><trkpt lat="45.6914433" lon="12.503485"><ele>5.0</ele><time>2026-04-27T08:51:57.815Z</time></trkpt><trkpt lat="45.6915583" lon="12.5033367"><ele>5.0</ele><time>2026-04-27T08:51:58.815Z</time></trkpt><trkpt lat="45.691685" lon="12.5031767"><ele>5.0</ele><time>2026-04-27T08:51:59.815Z</time></trkpt><trkpt lat="45.6918267" lon="12.5030117"><ele>4.666666666666667</ele><time>2026-04-27T08:52:00.815Z</time></trkpt><trkpt lat="45.6919633" lon="12.5028317"><ele>4.333333333333333</ele><time>2026-04-27T08:52:01.815Z</time></trkpt><trkpt lat="45.6920933" lon="12.5026583"><ele>4.0</ele><time>2026-04-27T08:52:02.816Z</time></trkpt><trkpt lat="45.69221" lon="12.502495"><ele>4.0</ele><time>2026-04-27T08:52:03.815Z</time></trkpt><trkpt lat="45.692305" lon="12.50235"><ele>4.0</ele><time>2026-04-27T08:52:04.816Z</time></trkpt><trkpt lat="45.69238" lon="12.50222"><ele>4.0</ele><time>2026-04-27T08:52:05.815Z</time></trkpt><trkpt lat="45.6924433" lon="12.5021"><ele>4.0</ele><time>2026-04-27T08:52:06.815Z</time></trkpt><trkpt lat="45.6924967" lon="12.50199"><ele>4.166666666666666</ele><time>2026-04-27T08:52:07.815Z</time></trkpt><trkpt lat="45.6925417" lon="12.501875"><ele>4.333333333333333</ele><time>2026-04-27T08:52:08.815Z</time></trkpt><trkpt lat="45.69259" lon="12.501775"><ele>4.5</ele><time>2026-04-27T08:52:09.815Z</time></trkpt><trkpt lat="45.692635" lon="12.501675"><ele>4.666666666666667</ele><time>2026-04-27T08:52:10.815Z</time></trkpt><trkpt lat="45.6926783" lon="12.5015817"><ele>4.833333333333334</ele><time>2026-04-27T08:52:11.815Z</time></trkpt><trkpt lat="45.6927133" lon="12.5014883"><ele>5.0</ele><time>2026-04-27T08:52:12.815Z</time></trkpt><trkpt lat="45.6927483" lon="12.5013967"><ele>4.833333333333334</ele><time>2026-04-27T08:52:13.815Z</time></trkpt><trkpt lat="45.6927833" lon="12.50131"><ele>4.666666666666667</ele><time>2026-04-27T08:52:14.815Z</time></trkpt><trkpt lat="45.6928133" lon="12.5012233"><ele>4.5</ele><time>2026-04-27T08:52:15.815Z</time></trkpt><trkpt lat="45.6928383" lon="12.5011383"><ele>4.333333333333333</ele><time>2026-04-27T08:52:16.815Z</time></trkpt><trkpt lat="45.6928883" lon="12.5009833"><ele>4.166666666666666</ele><time>2026-04-27T08:52:18.816Z</time></trkpt><trkpt lat="45.69295" lon="12.500825"><ele>4.0</ele><time>2026-04-27T08:52:20.815Z</time></trkpt><trkpt lat="45.69298" lon="12.5007433"><ele>4.0</ele><time>2026-04-27T08:52:21.815Z</time></trkpt><trkpt lat="45.693005" lon="12.50066"><ele>3.9999999999999996</ele><time>2026-04-27T08:52:22.815Z</time></trkpt><trkpt lat="45.6930283" lon="12.5005733"><ele>4.0</ele><time>2026-04-27T08:52:23.815Z</time></trkpt><trkpt lat="45.693055" lon="12.5004833"><ele>4.0</ele><time>2026-04-27T08:52:24.815Z</time></trkpt><trkpt lat="45.69308" lon="12.5003867"><ele>3.9999999999999996</ele><time>2026-04-27T08:52:25.815Z</time></trkpt><trkpt lat="45.6931033" lon="12.5003017"><ele>4.0</ele><time>2026-04-27T08:52:26.815Z</time></trkpt><trkpt lat="45.69313" lon="12.5002083"><ele>4.0</ele><time>2026-04-27T08:52:27.815Z</time></trkpt><trkpt lat="45.6931583" lon="12.5001217"><ele>3.9999999999999996</ele><time>2026-04-27T08:52:28.815Z</time></trkpt><trkpt lat="45.6931833" lon="12.5000283"><ele>4.0</ele><time>2026-04-27T08:52:29.815Z</time></trkpt><trkpt lat="45.69321" lon="12.499925"><ele>4.0</ele><time>2026-04-27T08:52:30.815Z</time></trkpt><trkpt lat="45.693235" lon="12.4998133"><ele>4.0</ele><time>2026-04-27T08:52:31.815Z</time></trkpt><trkpt lat="45.6932667" lon="12.4996883"><ele>3.9999999999999996</ele><time>2026-04-27T08:52:32.815Z</time></trkpt><trkpt lat="45.6932833" lon="12.4995567"><ele>4.0</ele><time>2026-04-27T08:52:33.815Z</time></trkpt><trkpt lat="45.6932917" lon="12.4994017"><ele>4.0</ele><time>2026-04-27T08:52:34.816Z</time></trkpt><trkpt lat="45.6933117" lon="12.4992367"><ele>4.0</ele><time>2026-04-27T08:52:35.816Z</time></trkpt><trkpt lat="45.69333" lon="12.499055"><ele>4.0</ele><time>2026-04-27T08:52:36.815Z</time></trkpt><trkpt lat="45.6933567" lon="12.4988517"><ele>4.0</ele><time>2026-04-27T08:52:37.815Z</time></trkpt><trkpt lat="45.6933917" lon="12.4986167"><ele>4.333333333333333</ele><time>2026-04-27T08:52:38.815Z</time></trkpt><trkpt lat="45.6934317" lon="12.4983883"><ele>4.666666666666667</ele><time>2026-04-27T08:52:39.815Z</time></trkpt><trkpt lat="45.6934617" lon="12.4981783"><ele>5.0</ele><time>2026-04-27T08:52:40.815Z</time></trkpt><trkpt lat="45.693485" lon="12.4979667"><ele>5.333333333333334</ele><time>2026-04-27T08:52:41.815Z</time></trkpt><trkpt lat="45.69351" lon="12.4977617"><ele>5.666666666666667</ele><time>2026-04-27T08:52:42.815Z</time></trkpt><trkpt lat="45.6935233" lon="12.497545"><ele>6.0</ele><time>2026-04-27T08:52:43.815Z</time></trkpt><trkpt lat="45.6935267" lon="12.497325"><ele>6.0</ele><time>2026-04-27T08:52:44.816Z</time></trkpt><trkpt lat="45.6935317" lon="12.4971067"><ele>6.0</ele><time>2026-04-27T08:52:45.815Z</time></trkpt><trkpt lat="45.6935317" lon="12.4968917"><ele>6.0</ele><time>2026-04-27T08:52:46.815Z</time></trkpt><trkpt lat="45.6935317" lon="12.496685"><ele>6.0</ele><time>2026-04-27T08:52:47.816Z</time></trkpt><trkpt lat="45.6935317" lon="12.496465"><ele>6.0</ele><time>2026-04-27T08:52:48.815Z</time></trkpt><trkpt lat="45.6935367" lon="12.4962417"><ele>6.0</ele><time>2026-04-27T08:52:49.815Z</time></trkpt><trkpt lat="45.6935433" lon="12.4960083"><ele>6.0</ele><time>2026-04-27T08:52:50.815Z</time></trkpt><trkpt lat="45.693545" lon="12.4957867"><ele>6.0</ele><time>2026-04-27T08:52:51.815Z</time></trkpt><trkpt lat="45.69355" lon="12.49557"><ele>6.0</ele><time>2026-04-27T08:52:52.816Z</time></trkpt><trkpt lat="45.6935583" lon="12.4953567"><ele>6.0</ele><time>2026-04-27T08:52:53.815Z</time></trkpt><trkpt lat="45.693565" lon="12.4951467"><ele>6.0</ele><time>2026-04-27T08:52:54.815Z</time></trkpt><trkpt lat="45.693575" lon="12.4949633"><ele>5.8</ele><time>2026-04-27T08:52:55.815Z</time></trkpt><trkpt lat="45.6935817" lon="12.4947933"><ele>5.6</ele><time>2026-04-27T08:52:56.816Z</time></trkpt><trkpt lat="45.6935833" lon="12.4946283"><ele>5.4</ele><time>2026-04-27T08:52:57.815Z</time></trkpt><trkpt lat="45.6935867" lon="12.4944717"><ele>5.2</ele><time>2026-04-27T08:52:58.815Z</time></trkpt><trkpt lat="45.6935867" lon="12.49433"><ele>5.0</ele><time>2026-04-27T08:52:59.815Z</time></trkpt><trkpt lat="45.6935833" lon="12.4941917"><ele>5.0</ele><time>2026-04-27T08:53:00.815Z</time></trkpt><trkpt lat="45.6935717" lon="12.4940683"><ele>5.0</ele><time>2026-04-27T08:53:01.815Z</time></trkpt><trkpt lat="45.693565" lon="12.49393"><ele>5.0</ele><time>2026-04-27T08:53:02.815Z</time></trkpt><trkpt lat="45.69357" lon="12.49377"><ele>5.0</ele><time>2026-04-27T08:53:03.815Z</time></trkpt><trkpt lat="45.69358" lon="12.4935933"><ele>5.0</ele><time>2026-04-27T08:53:04.815Z</time></trkpt><trkpt lat="45.6935867" lon="12.493375"><ele>5.0</ele><time>2026-04-27T08:53:05.815Z</time></trkpt><trkpt lat="45.6935983" lon="12.49313"><ele>5.0</ele><time>2026-04-27T08:53:06.815Z</time></trkpt><trkpt lat="45.69361" lon="12.4928617"><ele>5.0</ele><time>2026-04-27T08:53:07.815Z</time></trkpt><trkpt lat="45.693615" lon="12.49259"><ele>5.0</ele><time>2026-04-27T08:53:08.815Z</time></trkpt><trkpt lat="45.6936183" lon="12.492315"><ele>5.0</ele><time>2026-04-27T08:53:09.815Z</time></trkpt><trkpt lat="45.6936267" lon="12.492045"><ele>5.0</ele><time>2026-04-27T08:53:10.815Z</time></trkpt><trkpt lat="45.6936367" lon="12.4917933"><ele>5.333333333333334</ele><time>2026-04-27T08:53:11.815Z</time></trkpt><trkpt lat="45.69364" lon="12.491565"><ele>5.666666666666667</ele><time>2026-04-27T08:53:12.815Z</time></trkpt><trkpt lat="45.69365" lon="12.49133"><ele>6.0</ele><time>2026-04-27T08:53:13.815Z</time></trkpt><trkpt lat="45.693665" lon="12.4911067"><ele>6.25</ele><time>2026-04-27T08:53:14.815Z</time></trkpt><trkpt lat="45.6936667" lon="12.4908967"><ele>6.5</ele><time>2026-04-27T08:53:15.815Z</time></trkpt><trkpt lat="45.693675" lon="12.4906933"><ele>6.75</ele><time>2026-04-27T08:53:16.815Z</time></trkpt><trkpt lat="45.6936817" lon="12.4904867"><ele>7.0</ele><time>2026-04-27T08:53:17.815Z</time></trkpt><trkpt lat="45.69368" lon="12.4902767"><ele>7.0</ele><time>2026-04-27T08:53:18.815Z</time></trkpt><trkpt lat="45.6936783" lon="12.4900617"><ele>7.0</ele><time>2026-04-27T08:53:19.815Z</time></trkpt><trkpt lat="45.6936767" lon="12.4898483"><ele>7.0</ele><time>2026-04-27T08:53:20.815Z</time></trkpt><trkpt lat="45.6936783" lon="12.48965"><ele>7.0</ele><time>2026-04-27T08:53:21.815Z</time></trkpt><trkpt lat="45.6936833" lon="12.4894583"><ele>7.0</ele><time>2026-04-27T08:53:22.815Z</time></trkpt><trkpt lat="45.6936933" lon="12.4892717"><ele>7.0</ele><time>2026-04-27T08:53:23.815Z</time></trkpt><trkpt lat="45.693705" lon="12.489095"><ele>7.0</ele><time>2026-04-27T08:53:24.815Z</time></trkpt><trkpt lat="45.6937167" lon="12.4889317"><ele>7.0</ele><time>2026-04-27T08:53:25.815Z</time></trkpt><trkpt lat="45.6937317" lon="12.488775"><ele>7.0</ele><time>2026-04-27T08:53:26.816Z</time></trkpt><trkpt lat="45.6937517" lon="12.4886417"><ele>6.999999999999999</ele><time>2026-04-27T08:53:27.815Z</time></trkpt><trkpt lat="45.6937733" lon="12.488525"><ele>6.999999999999999</ele><time>2026-04-27T08:53:28.815Z</time></trkpt><trkpt lat="45.6937917" lon="12.4884267"><ele>7.0</ele><time>2026-04-27T08:53:29.815Z</time></trkpt><trkpt lat="45.69381" lon="12.48827"><ele>7.0</ele><time>2026-04-27T08:53:31.815Z</time></trkpt><trkpt lat="45.6938167" lon="12.4881"><ele>7.0</ele><time>2026-04-27T08:53:33.815Z</time></trkpt><trkpt lat="45.6938417" lon="12.487995"><ele>6.999999999999999</ele><time>2026-04-27T08:53:34.815Z</time></trkpt><trkpt lat="45.6938867" lon="12.4878717"><ele>6.999999999999999</ele><time>2026-04-27T08:53:35.815Z</time></trkpt><trkpt lat="45.6939417" lon="12.4877333"><ele>7.0</ele><time>2026-04-27T08:53:36.815Z</time></trkpt><trkpt lat="45.6940067" lon="12.487585"><ele>7.0</ele><time>2026-04-27T08:53:37.815Z</time></trkpt><trkpt lat="45.6940717" lon="12.4874333"><ele>7.25</ele><time>2026-04-27T08:53:38.816Z</time></trkpt><trkpt lat="45.6941467" lon="12.4872617"><ele>7.5</ele><time>2026-04-27T08:53:39.815Z</time></trkpt><trkpt lat="45.6942167" lon="12.4870733"><ele>7.75</ele><time>2026-04-27T08:53:40.815Z</time></trkpt><trkpt lat="45.69428" lon="12.486895"><ele>8.0</ele><time>2026-04-27T08:53:41.816Z</time></trkpt><trkpt lat="45.6943383" lon="12.4867283"><ele>7.75</ele><time>2026-04-27T08:53:42.815Z</time></trkpt><trkpt lat="45.6943967" lon="12.48655"><ele>7.5</ele><time>2026-04-27T08:53:43.815Z</time></trkpt><trkpt lat="45.69446" lon="12.486375"><ele>7.25</ele><time>2026-04-27T08:53:44.815Z</time></trkpt><trkpt lat="45.6945317" lon="12.4861867"><ele>7.0</ele><time>2026-04-27T08:53:45.816Z</time></trkpt><trkpt lat="45.6946017" lon="12.4859967"><ele>7.0</ele><time>2026-04-27T08:53:46.815Z</time></trkpt><trkpt lat="45.6946683" lon="12.48581"><ele>7.0</ele><time>2026-04-27T08:53:47.815Z</time></trkpt><trkpt lat="45.6947283" lon="12.4856233"><ele>7.0</ele><time>2026-04-27T08:53:48.815Z</time></trkpt><trkpt lat="45.6947983" lon="12.4854267"><ele>7.0</ele><time>2026-04-27T08:53:49.815Z</time></trkpt><trkpt lat="45.6948683" lon="12.485225"><ele>6.75</ele><time>2026-04-27T08:53:50.815Z</time></trkpt><trkpt lat="45.6949367" lon="12.4850317"><ele>6.5</ele><time>2026-04-27T08:53:51.815Z</time></trkpt><trkpt lat="45.6950017" lon="12.4848533"><ele>6.25</ele><time>2026-04-27T08:53:52.815Z</time></trkpt><trkpt lat="45.6950533" lon="12.4846783"><ele>6.0</ele><time>2026-04-27T08:53:53.816Z</time></trkpt><trkpt lat="45.6951033" lon="12.4845167"><ele>6.0</ele><time>2026-04-27T08:53:54.816Z</time></trkpt><trkpt lat="45.6951583" lon="12.4843583"><ele>6.0</ele><time>2026-04-27T08:53:55.815Z</time></trkpt><trkpt lat="45.6952133" lon="12.484205"><ele>6.0</ele><time>2026-04-27T08:53:56.815Z</time></trkpt><trkpt lat="45.6952667" lon="12.48407"><ele>6.0</ele><time>2026-04-27T08:53:57.815Z</time></trkpt><trkpt lat="45.6953183" lon="12.483945"><ele>6.0</ele><time>2026-04-27T08:53:58.815Z</time></trkpt><trkpt lat="45.6953767" lon="12.4838267"><ele>6.0</ele><time>2026-04-27T08:53:59.815Z</time></trkpt><trkpt lat="45.6954317" lon="12.4836983"><ele>6.0</ele><time>2026-04-27T08:54:00.815Z</time></trkpt><trkpt lat="45.6954783" lon="12.4835717"><ele>6.0</ele><time>2026-04-27T08:54:01.815Z</time></trkpt><trkpt lat="45.6955233" lon="12.48345"><ele>6.0</ele><time>2026-04-27T08:54:02.815Z</time></trkpt><trkpt lat="45.6955683" lon="12.4833117"><ele>6.0</ele><time>2026-04-27T08:54:03.815Z</time></trkpt><trkpt lat="45.6956133" lon="12.48317"><ele>6.0</ele><time>2026-04-27T08:54:04.815Z</time></trkpt><trkpt lat="45.6956583" lon="12.48303"><ele>6.0</ele><time>2026-04-27T08:54:05.815Z</time></trkpt><trkpt lat="45.6957117" lon="12.482885"><ele>6.0</ele><time>2026-04-27T08:54:06.815Z</time></trkpt><trkpt lat="45.6957683" lon="12.4827417"><ele>6.0</ele><time>2026-04-27T08:54:07.815Z</time></trkpt><trkpt lat="45.6958167" lon="12.4826117"><ele>6.0</ele><time>2026-04-27T08:54:08.815Z</time></trkpt><trkpt lat="45.69587" lon="12.4824783"><ele>6.0</ele><time>2026-04-27T08:54:09.816Z</time></trkpt><trkpt lat="45.695915" lon="12.482355"><ele>6.0</ele><time>2026-04-27T08:54:10.815Z</time></trkpt><trkpt lat="45.6959633" lon="12.4822167"><ele>6.0</ele><time>2026-04-27T08:54:11.815Z</time></trkpt><trkpt lat="45.69601" lon="12.4820833"><ele>6.0</ele><time>2026-04-27T08:54:12.815Z</time></trkpt><trkpt lat="45.696065" lon="12.4819517"><ele>6.0</ele><time>2026-04-27T08:54:13.815Z</time></trkpt><trkpt lat="45.6961283" lon="12.4818133"><ele>6.0</ele><time>2026-04-27T08:54:14.816Z</time></trkpt><trkpt lat="45.6961917" lon="12.4816883"><ele>6.0</ele><time>2026-04-27T08:54:15.815Z</time></trkpt><trkpt lat="45.69624" lon="12.48159"><ele>6.0</ele><time>2026-04-27T08:54:16.815Z</time></trkpt><trkpt lat="45.6962783" lon="12.4815083"><ele>6.0</ele><time>2026-04-27T08:54:17.815Z</time></trkpt><trkpt lat="45.6963117" lon="12.4814167"><ele>6.0</ele><time>2026-04-27T08:54:19.815Z</time></trkpt><trkpt lat="45.6962933" lon="12.4815083"><ele>6.0</ele><time>2026-04-27T08:54:45.816Z</time></trkpt><trkpt lat="45.696255" lon="12.4815917"><ele>6.0</ele><time>2026-04-27T08:55:04.815Z</time></trkpt><trkpt lat="45.69623" lon="12.48168"><ele>6.0</ele><time>2026-04-27T08:55:07.815Z</time></trkpt><trkpt lat="45.6961767" lon="12.48177"><ele>6.0</ele><time>2026-04-27T08:55:10.815Z</time></trkpt><trkpt lat="45.69611" lon="12.4819017"><ele>6.0</ele><time>2026-04-27T08:55:13.815Z</time></trkpt><trkpt lat="45.6960717" lon="12.4819867"><ele>6.0</ele><time>2026-04-27T08:55:14.815Z</time></trkpt><trkpt lat="45.6960233" lon="12.4820983"><ele>6.0</ele><time>2026-04-27T08:55:15.815Z</time></trkpt><trkpt lat="45.6959833" lon="12.4822217"><ele>6.0</ele><time>2026-04-27T08:55:16.815Z</time></trkpt><trkpt lat="45.6959333" lon="12.482345"><ele>6.0</ele><time>2026-04-27T08:55:17.815Z</time></trkpt><trkpt lat="45.6958917" lon="12.4824583"><ele>6.0</ele><time>2026-04-27T08:55:18.815Z</time></trkpt><trkpt lat="45.6958467" lon="12.482575"><ele>6.0</ele><time>2026-04-27T08:55:19.815Z</time></trkpt><trkpt lat="45.6958" lon="12.4826967"><ele>6.0</ele><time>2026-04-27T08:55:20.815Z</time></trkpt><trkpt lat="45.6957483" lon="12.482825"><ele>6.0</ele><time>2026-04-27T08:55:21.815Z</time></trkpt><trkpt lat="45.695705" lon="12.4829467"><ele>6.0</ele><time>2026-04-27T08:55:22.815Z</time></trkpt><trkpt lat="45.695655" lon="12.4830683"><ele>6.0</ele><time>2026-04-27T08:55:23.815Z</time></trkpt><trkpt lat="45.6956083" lon="12.483175"><ele>6.0</ele><time>2026-04-27T08:55:24.816Z</time></trkpt><trkpt lat="45.6955717" lon="12.4832817"><ele>6.0</ele><time>2026-04-27T08:55:25.815Z</time></trkpt><trkpt lat="45.6955417" lon="12.4833767"><ele>6.0</ele><time>2026-04-27T08:55:26.815Z</time></trkpt><trkpt lat="45.6955117" lon="12.4834783"><ele>6.0</ele><time>2026-04-27T08:55:27.815Z</time></trkpt><trkpt lat="45.6954767" lon="12.4835883"><ele>6.0</ele><time>2026-04-27T08:55:28.815Z</time></trkpt><trkpt lat="45.695445" lon="12.4836817"><ele>6.0</ele><time>2026-04-27T08:55:29.815Z</time></trkpt><trkpt lat="45.6954117" lon="12.4837583"><ele>6.0</ele><time>2026-04-27T08:55:30.815Z</time></trkpt><trkpt lat="45.695335" lon="12.4838233"><ele>6.0</ele><time>2026-04-27T08:55:32.815Z</time></trkpt><trkpt lat="45.6952367" lon="12.4837633"><ele>6.0</ele><time>2026-04-27T08:55:34.815Z</time></trkpt><trkpt lat="45.6951717" lon="12.4837083"><ele>6.0</ele><time>2026-04-27T08:55:35.816Z</time></trkpt><trkpt lat="45.69511" lon="12.483645"><ele>6.0</ele><time>2026-04-27T08:55:36.815Z</time></trkpt><trkpt lat="45.695045" lon="12.483595"><ele>6.0</ele><time>2026-04-27T08:55:37.815Z</time></trkpt><trkpt lat="45.6949833" lon="12.48354"><ele>6.0</ele><time>2026-04-27T08:55:38.815Z</time></trkpt><trkpt lat="45.69493" lon="12.4834867"><ele>6.0</ele><time>2026-04-27T08:55:39.815Z</time></trkpt><trkpt lat="45.69484" lon="12.4834"><ele>6.0</ele><time>2026-04-27T08:55:41.815Z</time></trkpt><trkpt lat="45.6947533" lon="12.48342"><ele>6.0</ele><time>2026-04-27T08:55:43.815Z</time></trkpt><trkpt lat="45.694705" lon="12.4834833"><ele>6.0</ele><time>2026-04-27T08:55:45.815Z</time></trkpt><trkpt lat="45.6946433" lon="12.4835817"><ele>6.0</ele><time>2026-04-27T08:55:47.815Z</time></trkpt><trkpt lat="45.6945467" lon="12.4837"><ele>6.0</ele><time>2026-04-27T08:55:49.815Z</time></trkpt><trkpt lat="45.6945083" lon="12.4837733"><ele>6.0</ele><time>2026-04-27T08:55:50.815Z</time></trkpt><trkpt lat="45.6944717" lon="12.483855"><ele>6.0</ele><time>2026-04-27T08:55:51.815Z</time></trkpt><trkpt lat="45.6944333" lon="12.4839333"><ele>6.0</ele><time>2026-04-27T08:55:52.815Z</time></trkpt><trkpt lat="45.69436" lon="12.4840683"><ele>6.0</ele><time>2026-04-27T08:55:54.815Z</time></trkpt><trkpt lat="45.6943" lon="12.4841667"><ele>6.0</ele><time>2026-04-27T08:55:56.815Z</time></trkpt><trkpt lat="45.6942783" lon="12.484275"><ele>6.0</ele><time>2026-04-27T08:55:59.815Z</time></trkpt><trkpt lat="45.6943167" lon="12.4841983"><ele>6.0</ele><time>2026-04-27T08:56:06.815Z</time></trkpt><trkpt lat="45.6943783" lon="12.4840583"><ele>6.0</ele><time>2026-04-27T08:56:08.815Z</time></trkpt><trkpt lat="45.6944167" lon="12.4839617"><ele>6.0</ele><time>2026-04-27T08:56:09.815Z</time></trkpt><trkpt lat="45.69447" lon="12.4838567"><ele>6.0</ele><time>2026-04-27T08:56:10.815Z</time></trkpt><trkpt lat="45.6945267" lon="12.4837483"><ele>6.0</ele><time>2026-04-27T08:56:11.815Z</time></trkpt><trkpt lat="45.69459" lon="12.4836483"><ele>6.0</ele><time>2026-04-27T08:56:12.815Z</time></trkpt><trkpt lat="45.6946483" lon="12.48355"><ele>6.0</ele><time>2026-04-27T08:56:13.815Z</time></trkpt><trkpt lat="45.6947133" lon="12.4834733"><ele>6.0</ele><time>2026-04-27T08:56:14.815Z</time></trkpt><trkpt lat="45.6947767" lon="12.4834417"><ele>6.0</ele><time>2026-04-27T08:56:15.815Z</time></trkpt><trkpt lat="45.69485" lon="12.483455"><ele>6.0</ele><time>2026-04-27T08:56:16.815Z</time></trkpt><trkpt lat="45.69492" lon="12.483495"><ele>6.0</ele><time>2026-04-27T08:56:17.815Z</time></trkpt><trkpt lat="45.6949833" lon="12.4835783"><ele>6.0</ele><time>2026-04-27T08:56:18.815Z</time></trkpt><trkpt lat="45.695065" lon="12.483655"><ele>6.0</ele><time>2026-04-27T08:56:19.815Z</time></trkpt><trkpt lat="45.6951467" lon="12.48373"><ele>6.0</ele><time>2026-04-27T08:56:20.816Z</time></trkpt><trkpt lat="45.69522" lon="12.4837917"><ele>6.0</ele><time>2026-04-27T08:56:21.815Z</time></trkpt><trkpt lat="45.6952817" lon="12.48382"><ele>6.0</ele><time>2026-04-27T08:56:22.815Z</time></trkpt><trkpt lat="45.6953767" lon="12.4838117"><ele>6.0</ele><time>2026-04-27T08:56:24.815Z</time></trkpt><trkpt lat="45.6954317" lon="12.4837117"><ele>6.0</ele><time>2026-04-27T08:56:26.815Z</time></trkpt><trkpt lat="45.6954917" lon="12.4835467"><ele>6.0</ele><time>2026-04-27T08:56:28.815Z</time></trkpt><trkpt lat="45.695525" lon="12.4834483"><ele>6.0</ele><time>2026-04-27T08:56:29.815Z</time></trkpt><trkpt lat="45.6955533" lon="12.483335"><ele>6.0</ele><time>2026-04-27T08:56:30.815Z</time></trkpt><trkpt lat="45.6955967" lon="12.4832017"><ele>6.0</ele><time>2026-04-27T08:56:31.815Z</time></trkpt><trkpt lat="45.6956483" lon="12.4830567"><ele>6.0</ele><time>2026-04-27T08:56:32.815Z</time></trkpt><trkpt lat="45.6956983" lon="12.4829117"><ele>6.0</ele><time>2026-04-27T08:56:33.815Z</time></trkpt><trkpt lat="45.6957517" lon="12.48278"><ele>6.0</ele><time>2026-04-27T08:56:34.815Z</time></trkpt><trkpt lat="45.6958033" lon="12.4826483"><ele>6.0</ele><time>2026-04-27T08:56:35.815Z</time></trkpt><trkpt lat="45.695855" lon="12.482525"><ele>6.0</ele><time>2026-04-27T08:56:36.815Z</time></trkpt><trkpt lat="45.6959067" lon="12.4824033"><ele>6.0</ele><time>2026-04-27T08:56:37.815Z</time></trkpt><trkpt lat="45.6959483" lon="12.4822783"><ele>6.0</ele><time>2026-04-27T08:56:38.815Z</time></trkpt><trkpt lat="45.6959933" lon="12.482155"><ele>6.0</ele><time>2026-04-27T08:56:39.815Z</time></trkpt><trkpt lat="45.6960383" lon="12.4820433"><ele>6.0</ele><time>2026-04-27T08:56:40.815Z</time></trkpt><trkpt lat="45.696085" lon="12.4819283"><ele>6.0</ele><time>2026-04-27T08:56:41.815Z</time></trkpt><trkpt lat="45.696135" lon="12.4818133"><ele>6.0</ele><time>2026-04-27T08:56:42.815Z</time></trkpt><trkpt lat="45.6961867" lon="12.481705"><ele>6.0</ele><time>2026-04-27T08:56:43.815Z</time></trkpt><trkpt lat="45.696235" lon="12.4816117"><ele>6.0</ele><time>2026-04-27T08:56:44.815Z</time></trkpt><trkpt lat="45.6962683" lon="12.4815317"><ele>6.0</ele><time>2026-04-27T08:56:45.815Z</time></trkpt><trkpt lat="45.6963017" lon="12.4814317"><ele>6.0</ele><time>2026-04-27T08:56:47.815Z</time></trkpt><trkpt lat="45.6962933" lon="12.4813367"><ele>6.0</ele><time>2026-04-27T08:56:49.815Z</time></trkpt><trkpt lat="45.6963333" lon="12.4810967"><ele>6.0</ele><time>2026-04-27T08:56:52.816Z</time></trkpt><trkpt lat="45.6963667" lon="12.480985"><ele>6.0</ele><time>2026-04-27T08:56:53.815Z</time></trkpt><trkpt lat="45.6964117" lon="12.4808533"><ele>6.0</ele><time>2026-04-27T08:56:54.815Z</time></trkpt><trkpt lat="45.69646" lon="12.48072"><ele>6.0</ele><time>2026-04-27T08:56:55.816Z</time></trkpt><trkpt lat="45.6965167" lon="12.4805817"><ele>6.0</ele><time>2026-04-27T08:56:56.816Z</time></trkpt><trkpt lat="45.6965683" lon="12.4804467"><ele>5.8</ele><time>2026-04-27T08:56:57.815Z</time></trkpt><trkpt lat="45.6966183" lon="12.4803117"><ele>5.6</ele><time>2026-04-27T08:56:58.815Z</time></trkpt><trkpt lat="45.6966733" lon="12.4801767"><ele>5.4</ele><time>2026-04-27T08:56:59.815Z</time></trkpt><trkpt lat="45.696735" lon="12.4800517"><ele>5.2</ele><time>2026-04-27T08:57:00.815Z</time></trkpt><trkpt lat="45.6967983" lon="12.47993"><ele>5.0</ele><time>2026-04-27T08:57:01.815Z</time></trkpt><trkpt lat="45.6968667" lon="12.4798"><ele>5.6</ele><time>2026-04-27T08:57:02.815Z</time></trkpt><trkpt lat="45.6969433" lon="12.479675"><ele>6.2</ele><time>2026-04-27T08:57:03.815Z</time></trkpt><trkpt lat="45.69701" lon="12.4795567"><ele>6.800000000000001</ele><time>2026-04-27T08:57:04.815Z</time></trkpt><trkpt lat="45.6970817" lon="12.4794417"><ele>7.4</ele><time>2026-04-27T08:57:05.815Z</time></trkpt><trkpt lat="45.6971483" lon="12.4793367"><ele>8.0</ele><time>2026-04-27T08:57:06.815Z</time></trkpt><trkpt lat="45.6972133" lon="12.4792317"><ele>8.166666666666666</ele><time>2026-04-27T08:57:07.815Z</time></trkpt><trkpt lat="45.6972767" lon="12.4791333"><ele>8.333333333333332</ele><time>2026-04-27T08:57:08.815Z</time></trkpt><trkpt lat="45.6973333" lon="12.4790483"><ele>8.5</ele><time>2026-04-27T08:57:09.815Z</time></trkpt><trkpt lat="45.6973917" lon="12.4789783"><ele>8.666666666666666</ele><time>2026-04-27T08:57:10.815Z</time></trkpt><trkpt lat="45.697455" lon="12.47891"><ele>8.833333333333334</ele><time>2026-04-27T08:57:11.815Z</time></trkpt><trkpt lat="45.6975217" lon="12.4788483"><ele>9.0</ele><time>2026-04-27T08:57:12.815Z</time></trkpt><trkpt lat="45.6976067" lon="12.4787883"><ele>8.833333333333334</ele><time>2026-04-27T08:57:13.815Z</time></trkpt><trkpt lat="45.6976883" lon="12.4787317"><ele>8.666666666666666</ele><time>2026-04-27T08:57:14.815Z</time></trkpt><trkpt lat="45.69775" lon="12.4786833"><ele>8.5</ele><time>2026-04-27T08:57:15.815Z</time></trkpt><trkpt lat="45.697855" lon="12.4786117"><ele>8.333333333333332</ele><time>2026-04-27T08:57:17.815Z</time></trkpt><trkpt lat="45.6979167" lon="12.4785683"><ele>8.166666666666666</ele><time>2026-04-27T08:57:18.815Z</time></trkpt><trkpt lat="45.6979833" lon="12.4785267"><ele>8.0</ele><time>2026-04-27T08:57:19.815Z</time></trkpt><trkpt lat="45.69805" lon="12.4784833"><ele>7.999999999999999</ele><time>2026-04-27T08:57:20.815Z</time></trkpt><trkpt lat="45.69812" lon="12.4784433"><ele>8.0</ele><time>2026-04-27T08:57:21.815Z</time></trkpt><trkpt lat="45.6981883" lon="12.4784033"><ele>8.0</ele><time>2026-04-27T08:57:22.816Z</time></trkpt><trkpt lat="45.6982583" lon="12.4783767"><ele>8.0</ele><time>2026-04-27T08:57:23.815Z</time></trkpt><trkpt lat="45.69832" lon="12.4783533"><ele>7.999999999999999</ele><time>2026-04-27T08:57:24.815Z</time></trkpt><trkpt lat="45.6983967" lon="12.4782917"><ele>8.0</ele><time>2026-04-27T08:57:26.815Z</time></trkpt><trkpt lat="45.6984867" lon="12.4782"><ele>8.0</ele><time>2026-04-27T08:57:28.815Z</time></trkpt><trkpt lat="45.6985533" lon="12.4781467"><ele>8.0</ele><time>2026-04-27T08:57:29.815Z</time></trkpt><trkpt lat="45.698635" lon="12.478095"><ele>8.0</ele><time>2026-04-27T08:57:30.815Z</time></trkpt><trkpt lat="45.6987183" lon="12.4780317"><ele>8.0</ele><time>2026-04-27T08:57:31.815Z</time></trkpt><trkpt lat="45.6988167" lon="12.4779517"><ele>8.0</ele><time>2026-04-27T08:57:32.815Z</time></trkpt><trkpt lat="45.6989217" lon="12.47787"><ele>8.0</ele><time>2026-04-27T08:57:33.815Z</time></trkpt><trkpt lat="45.6990217" lon="12.4778033"><ele>8.0</ele><time>2026-04-27T08:57:34.815Z</time></trkpt><trkpt lat="45.699115" lon="12.4777317"><ele>8.0</ele><time>2026-04-27T08:57:35.815Z</time></trkpt><trkpt lat="45.6992" lon="12.4776567"><ele>8.0</ele><time>2026-04-27T08:57:36.815Z</time></trkpt><trkpt lat="45.6992867" lon="12.477575"><ele>8.0</ele><time>2026-04-27T08:57:37.815Z</time></trkpt><trkpt lat="45.6993717" lon="12.4775"><ele>7.6000000000000005</ele><time>2026-04-27T08:57:38.815Z</time></trkpt><trkpt lat="45.6994633" lon="12.47743"><ele>7.200000000000001</ele><time>2026-04-27T08:57:39.815Z</time></trkpt><trkpt lat="45.6995583" lon="12.4773733"><ele>6.8</ele><time>2026-04-27T08:57:40.815Z</time></trkpt><trkpt lat="45.699665" lon="12.4773283"><ele>6.4</ele><time>2026-04-27T08:57:41.815Z</time></trkpt><trkpt lat="45.6997817" lon="12.4772817"><ele>6.0</ele><time>2026-04-27T08:57:42.815Z</time></trkpt><trkpt lat="45.6998983" lon="12.4772167"><ele>6.0</ele><time>2026-04-27T08:57:43.815Z</time></trkpt><trkpt lat="45.7000183" lon="12.4771383"><ele>6.0</ele><time>2026-04-27T08:57:44.815Z</time></trkpt><trkpt lat="45.700135" lon="12.4770633"><ele>6.0</ele><time>2026-04-27T08:57:45.815Z</time></trkpt><trkpt lat="45.7002567" lon="12.4769983"><ele>6.0</ele><time>2026-04-27T08:57:46.815Z</time></trkpt><trkpt lat="45.7003783" lon="12.476925"><ele>6.5</ele><time>2026-04-27T08:57:47.815Z</time></trkpt><trkpt lat="45.7005017" lon="12.4768467"><ele>7.0</ele><time>2026-04-27T08:57:48.816Z</time></trkpt><trkpt lat="45.7006233" lon="12.4767767"><ele>7.5</ele><time>2026-04-27T08:57:49.815Z</time></trkpt><trkpt lat="45.70076" lon="12.4767"><ele>8.0</ele><time>2026-04-27T08:57:50.815Z</time></trkpt><trkpt lat="45.7008817" lon="12.4766217"><ele>8.0</ele><time>2026-04-27T08:57:51.815Z</time></trkpt><trkpt lat="45.7009933" lon="12.47655"><ele>8.0</ele><time>2026-04-27T08:57:52.815Z</time></trkpt><trkpt lat="45.7011067" lon="12.4764817"><ele>8.0</ele><time>2026-04-27T08:57:53.815Z</time></trkpt><trkpt lat="45.70122" lon="12.476425"><ele>8.0</ele><time>2026-04-27T08:57:54.815Z</time></trkpt><trkpt lat="45.7013333" lon="12.4763767"><ele>8.0</ele><time>2026-04-27T08:57:55.815Z</time></trkpt><trkpt lat="45.7014467" lon="12.4763133"><ele>8.0</ele><time>2026-04-27T08:57:56.815Z</time></trkpt><trkpt lat="45.7015633" lon="12.4762533"><ele>8.0</ele><time>2026-04-27T08:57:57.815Z</time></trkpt><trkpt lat="45.7016733" lon="12.476195"><ele>8.0</ele><time>2026-04-27T08:57:58.815Z</time></trkpt><trkpt lat="45.7017867" lon="12.476135"><ele>8.0</ele><time>2026-04-27T08:57:59.815Z</time></trkpt><trkpt lat="45.701895" lon="12.47608"><ele>8.0</ele><time>2026-04-27T08:58:00.815Z</time></trkpt><trkpt lat="45.7020067" lon="12.4760183"><ele>8.0</ele><time>2026-04-27T08:58:01.815Z</time></trkpt><trkpt lat="45.7021183" lon="12.4759567"><ele>8.0</ele><time>2026-04-27T08:58:02.815Z</time></trkpt><trkpt lat="45.7022367" lon="12.4758983"><ele>8.0</ele><time>2026-04-27T08:58:03.815Z</time></trkpt><trkpt lat="45.70236" lon="12.47584"><ele>8.0</ele><time>2026-04-27T08:58:04.815Z</time></trkpt><trkpt lat="45.70249" lon="12.4757767"><ele>8.0</ele><time>2026-04-27T08:58:05.815Z</time></trkpt><trkpt lat="45.7026167" lon="12.4757133"><ele>8.0</ele><time>2026-04-27T08:58:06.815Z</time></trkpt><trkpt lat="45.7027467" lon="12.47565"><ele>7.5</ele><time>2026-04-27T08:58:07.815Z</time></trkpt><trkpt lat="45.7028717" lon="12.4755817"><ele>7.0</ele><time>2026-04-27T08:58:08.815Z</time></trkpt><trkpt lat="45.70299" lon="12.4755117"><ele>6.5</ele><time>2026-04-27T08:58:09.815Z</time></trkpt><trkpt lat="45.7030967" lon="12.475435"><ele>6.0</ele><time>2026-04-27T08:58:10.815Z</time></trkpt><trkpt lat="45.703195" lon="12.47536"><ele>6.0</ele><time>2026-04-27T08:58:11.815Z</time></trkpt><trkpt lat="45.7033" lon="12.475285"><ele>6.0</ele><time>2026-04-27T08:58:12.815Z</time></trkpt><trkpt lat="45.7034133" lon="12.4752183"><ele>6.0</ele><time>2026-04-27T08:58:13.815Z</time></trkpt><trkpt lat="45.7035317" lon="12.4751533"><ele>6.0</ele><time>2026-04-27T08:58:14.815Z</time></trkpt><trkpt lat="45.70365" lon="12.4750967"><ele>6.75</ele><time>2026-04-27T08:58:15.815Z</time></trkpt><trkpt lat="45.7037717" lon="12.4750283"><ele>7.5</ele><time>2026-04-27T08:58:16.815Z</time></trkpt><trkpt lat="45.7038933" lon="12.4749517"><ele>8.25</ele><time>2026-04-27T08:58:17.815Z</time></trkpt><trkpt lat="45.70401" lon="12.4748667"><ele>9.0</ele><time>2026-04-27T08:58:18.815Z</time></trkpt><trkpt lat="45.7041167" lon="12.474775"><ele>9.0</ele><time>2026-04-27T08:58:19.815Z</time></trkpt><trkpt lat="45.7042233" lon="12.47468"><ele>9.0</ele><time>2026-04-27T08:58:20.815Z</time></trkpt><trkpt lat="45.704325" lon="12.4745817"><ele>9.0</ele><time>2026-04-27T08:58:21.815Z</time></trkpt><trkpt lat="45.7044333" lon="12.47447"><ele>9.0</ele><time>2026-04-27T08:58:22.815Z</time></trkpt><trkpt lat="45.7045417" lon="12.4743567"><ele>8.5</ele><time>2026-04-27T08:58:23.815Z</time></trkpt><trkpt lat="45.7046467" lon="12.4742367"><ele>8.0</ele><time>2026-04-27T08:58:24.815Z</time></trkpt><trkpt lat="45.70475" lon="12.4741183"><ele>7.5</ele><time>2026-04-27T08:58:25.815Z</time></trkpt><trkpt lat="45.7048533" lon="12.4739983"><ele>7.0</ele><time>2026-04-27T08:58:26.815Z</time></trkpt><trkpt lat="45.7049517" lon="12.4738917"><ele>7.0</ele><time>2026-04-27T08:58:27.815Z</time></trkpt><trkpt lat="45.7050517" lon="12.4737883"><ele>7.0</ele><time>2026-04-27T08:58:28.815Z</time></trkpt><trkpt lat="45.7051533" lon="12.4736833"><ele>7.0</ele><time>2026-04-27T08:58:29.815Z</time></trkpt><trkpt lat="45.7052517" lon="12.47358"><ele>7.0</ele><time>2026-04-27T08:58:30.815Z</time></trkpt><trkpt lat="45.70535" lon="12.4734717"><ele>7.199999999999999</ele><time>2026-04-27T08:58:31.816Z</time></trkpt><trkpt lat="45.7054383" lon="12.4733767"><ele>7.3999999999999995</ele><time>2026-04-27T08:58:32.815Z</time></trkpt><trkpt lat="45.7055267" lon="12.4732833"><ele>7.6000000000000005</ele><time>2026-04-27T08:58:33.815Z</time></trkpt><trkpt lat="45.7056083" lon="12.4731917"><ele>7.800000000000001</ele><time>2026-04-27T08:58:34.815Z</time></trkpt><trkpt lat="45.70568" lon="12.4731083"><ele>8.0</ele><time>2026-04-27T08:58:35.815Z</time></trkpt><trkpt lat="45.705755" lon="12.4730383"><ele>8.0</ele><time>2026-04-27T08:58:36.815Z</time></trkpt><trkpt lat="45.7058333" lon="12.4729717"><ele>8.0</ele><time>2026-04-27T08:58:37.815Z</time></trkpt><trkpt lat="45.7059167" lon="12.4729017"><ele>8.0</ele><time>2026-04-27T08:58:38.815Z</time></trkpt><trkpt lat="45.7060017" lon="12.4728233"><ele>8.0</ele><time>2026-04-27T08:58:39.815Z</time></trkpt><trkpt lat="45.7060817" lon="12.4727567"><ele>8.0</ele><time>2026-04-27T08:58:40.815Z</time></trkpt><trkpt lat="45.706155" lon="12.4726883"><ele>7.833333333333333</ele><time>2026-04-27T08:58:41.815Z</time></trkpt><trkpt lat="45.70622" lon="12.4726283"><ele>7.666666666666666</ele><time>2026-04-27T08:58:42.816Z</time></trkpt><trkpt lat="45.7062867" lon="12.47255"><ele>7.5</ele><time>2026-04-27T08:58:43.815Z</time></trkpt><trkpt lat="45.7063483" lon="12.4724617"><ele>7.333333333333334</ele><time>2026-04-27T08:58:44.815Z</time></trkpt><trkpt lat="45.70641" lon="12.472375"><ele>7.166666666666667</ele><time>2026-04-27T08:58:45.815Z</time></trkpt><trkpt lat="45.7064617" lon="12.4722983"><ele>7.0</ele><time>2026-04-27T08:58:46.815Z</time></trkpt><trkpt lat="45.7065" lon="12.4721383"><ele>6.8</ele><time>2026-04-27T08:58:48.815Z</time></trkpt><trkpt lat="45.7064567" lon="12.471975"><ele>6.6</ele><time>2026-04-27T08:58:50.815Z</time></trkpt><trkpt lat="45.7064033" lon="12.4718817"><ele>6.3999999999999995</ele><time>2026-04-27T08:58:51.815Z</time></trkpt><trkpt lat="45.7063517" lon="12.4717633"><ele>6.199999999999999</ele><time>2026-04-27T08:58:52.815Z</time></trkpt><trkpt lat="45.706305" lon="12.4716333"><ele>6.0</ele><time>2026-04-27T08:58:53.815Z</time></trkpt><trkpt lat="45.7062683" lon="12.4714883"><ele>6.0</ele><time>2026-04-27T08:58:54.815Z</time></trkpt><trkpt lat="45.7062483" lon="12.47134"><ele>6.0</ele><time>2026-04-27T08:58:55.815Z</time></trkpt><trkpt lat="45.7062217" lon="12.4712017"><ele>6.0</ele><time>2026-04-27T08:58:56.816Z</time></trkpt><trkpt lat="45.7061933" lon="12.47107"><ele>6.0</ele><time>2026-04-27T08:58:57.815Z</time></trkpt><trkpt lat="45.7061583" lon="12.4709333"><ele>6.0</ele><time>2026-04-27T08:58:58.815Z</time></trkpt><trkpt lat="45.7061233" lon="12.4707933"><ele>6.0</ele><time>2026-04-27T08:58:59.815Z</time></trkpt><trkpt lat="45.70608" lon="12.47066"><ele>6.0</ele><time>2026-04-27T08:59:00.815Z</time></trkpt><trkpt lat="45.7060517" lon="12.470535"><ele>6.0</ele><time>2026-04-27T08:59:01.815Z</time></trkpt><trkpt lat="45.7060317" lon="12.470415"><ele>6.0</ele><time>2026-04-27T08:59:02.815Z</time></trkpt><trkpt lat="45.7060217" lon="12.4702867"><ele>6.0</ele><time>2026-04-27T08:59:03.815Z</time></trkpt><trkpt lat="45.7060333" lon="12.4701533"><ele>6.0</ele><time>2026-04-27T08:59:04.815Z</time></trkpt><trkpt lat="45.7060633" lon="12.4700183"><ele>6.0</ele><time>2026-04-27T08:59:05.815Z</time></trkpt><trkpt lat="45.7061133" lon="12.469905"><ele>6.0</ele><time>2026-04-27T08:59:06.815Z</time></trkpt><trkpt lat="45.70617" lon="12.469805"><ele>6.0</ele><time>2026-04-27T08:59:07.815Z</time></trkpt><trkpt lat="45.7062217" lon="12.4697117"><ele>6.0</ele><time>2026-04-27T08:59:08.816Z</time></trkpt><trkpt lat="45.7062617" lon="12.4696267"><ele>6.0</ele><time>2026-04-27T08:59:09.815Z</time></trkpt><trkpt lat="45.7063133" lon="12.4694783"><ele>6.0</ele><time>2026-04-27T08:59:11.815Z</time></trkpt><trkpt lat="45.7063017" lon="12.4693667"><ele>6.0</ele><time>2026-04-27T08:59:13.815Z</time></trkpt><trkpt lat="45.70624" lon="12.4693083"><ele>6.0</ele><time>2026-04-27T08:59:17.815Z</time></trkpt><trkpt lat="45.706155" lon="12.469275"><ele>6.0</ele><time>2026-04-27T08:59:20.815Z</time></trkpt><trkpt lat="45.7060533" lon="12.4692017"><ele>6.0</ele><time>2026-04-27T08:59:22.815Z</time></trkpt><trkpt lat="45.7059917" lon="12.4691733"><ele>6.0</ele><time>2026-04-27T08:59:23.815Z</time></trkpt><trkpt lat="45.7059167" lon="12.4691517"><ele>6.0</ele><time>2026-04-27T08:59:24.815Z</time></trkpt><trkpt lat="45.70584" lon="12.4691433"><ele>6.0</ele><time>2026-04-27T08:59:25.815Z</time></trkpt><trkpt lat="45.7057617" lon="12.4691417"><ele>6.0</ele><time>2026-04-27T08:59:26.815Z</time></trkpt><trkpt lat="45.7056883" lon="12.4691517"><ele>6.0</ele><time>2026-04-27T08:59:27.815Z</time></trkpt><trkpt lat="45.7056183" lon="12.4691633"><ele>6.0</ele><time>2026-04-27T08:59:28.815Z</time></trkpt><trkpt lat="45.70551" lon="12.46917"><ele>6.0</ele><time>2026-04-27T08:59:30.815Z</time></trkpt><trkpt lat="45.7054367" lon="12.469165"><ele>6.0</ele><time>2026-04-27T08:59:32.815Z</time></trkpt><trkpt lat="45.7053417" lon="12.469145"><ele>6.0</ele><time>2026-04-27T08:59:34.815Z</time></trkpt><trkpt lat="45.7052117" lon="12.4691033"><ele>6.0</ele><time>2026-04-27T08:59:36.815Z</time></trkpt><trkpt lat="45.7051383" lon="12.4690817"><ele>6.0</ele><time>2026-04-27T08:59:37.815Z</time></trkpt><trkpt lat="45.705055" lon="12.4690667"><ele>6.0</ele><time>2026-04-27T08:59:38.815Z</time></trkpt><trkpt lat="45.7049517" lon="12.4690533"><ele>6.0</ele><time>2026-04-27T08:59:39.815Z</time></trkpt><trkpt lat="45.7048433" lon="12.4690317"><ele>6.0</ele><time>2026-04-27T08:59:40.815Z</time></trkpt><trkpt lat="45.70473" lon="12.469"><ele>6.0</ele><time>2026-04-27T08:59:41.815Z</time></trkpt><trkpt lat="45.7046283" lon="12.46899"><ele>6.0</ele><time>2026-04-27T08:59:42.815Z</time></trkpt><trkpt lat="45.704525" lon="12.4690033"><ele>6.0</ele><time>2026-04-27T08:59:43.815Z</time></trkpt><trkpt lat="45.704425" lon="12.4690283"><ele>5.833333333333333</ele><time>2026-04-27T08:59:44.815Z</time></trkpt><trkpt lat="45.7043267" lon="12.4690517"><ele>5.666666666666667</ele><time>2026-04-27T08:59:45.815Z</time></trkpt><trkpt lat="45.7042333" lon="12.4690517"><ele>5.5</ele><time>2026-04-27T08:59:46.815Z</time></trkpt><trkpt lat="45.7041583" lon="12.46903"><ele>5.333333333333334</ele><time>2026-04-27T08:59:47.815Z</time></trkpt><trkpt lat="45.704085" lon="12.4689933"><ele>5.166666666666667</ele><time>2026-04-27T08:59:48.815Z</time></trkpt><trkpt lat="45.7040267" lon="12.4689517"><ele>5.0</ele><time>2026-04-27T08:59:49.815Z</time></trkpt><trkpt lat="45.703935" lon="12.4688517"><ele>5.0</ele><time>2026-04-27T08:59:51.815Z</time></trkpt><trkpt lat="45.7038867" lon="12.4687567"><ele>5.0</ele><time>2026-04-27T08:59:53.815Z</time></trkpt><trkpt lat="45.7038333" lon="12.4686817"><ele>5.0</ele><time>2026-04-27T08:59:56.815Z</time></trkpt><trkpt lat="45.703785" lon="12.4686133"><ele>5.0</ele><time>2026-04-27T08:59:58.816Z</time></trkpt><trkpt lat="45.70373" lon="12.4685267"><ele>5.0</ele><time>2026-04-27T09:00:00.815Z</time></trkpt><trkpt lat="45.7036783" lon="12.4684117"><ele>5.0</ele><time>2026-04-27T09:00:02.815Z</time></trkpt><trkpt lat="45.7036067" lon="12.46829"><ele>5.0</ele><time>2026-04-27T09:00:04.815Z</time></trkpt><trkpt lat="45.7035317" lon="12.46819"><ele>5.0</ele><time>2026-04-27T09:00:06.815Z</time></trkpt><trkpt lat="45.703455" lon="12.4681233"><ele>5.0</ele><time>2026-04-27T09:00:08.815Z</time></trkpt><trkpt lat="45.7034383" lon="12.4680133"><ele>5.0</ele><time>2026-04-27T09:00:12.815Z</time></trkpt><trkpt lat="45.7035083" lon="12.4679033"><ele>5.0</ele><time>2026-04-27T09:00:14.815Z</time></trkpt><trkpt lat="45.703565" lon="12.4678533"><ele>5.0</ele><time>2026-04-27T09:00:15.815Z</time></trkpt><trkpt lat="45.7036233" lon="12.4678133"><ele>5.0</ele><time>2026-04-27T09:00:16.815Z</time></trkpt><trkpt lat="45.7037267" lon="12.4676883"><ele>5.0</ele><time>2026-04-27T09:00:18.815Z</time></trkpt><trkpt lat="45.70377" lon="12.4675867"><ele>5.0</ele><time>2026-04-27T09:00:19.815Z</time></trkpt><trkpt lat="45.7038067" lon="12.4674833"><ele>5.0</ele><time>2026-04-27T09:00:20.815Z</time></trkpt><trkpt lat="45.7038467" lon="12.4673817"><ele>5.0</ele><time>2026-04-27T09:00:21.816Z</time></trkpt><trkpt lat="45.70389" lon="12.4672933"><ele>5.0</ele><time>2026-04-27T09:00:22.815Z</time></trkpt><trkpt lat="45.7039217" lon="12.4672067"><ele>5.0</ele><time>2026-04-27T09:00:23.816Z</time></trkpt><trkpt lat="45.7039517" lon="12.4670733"><ele>5.0</ele><time>2026-04-27T09:00:25.815Z</time></trkpt><trkpt lat="45.7039483" lon="12.4669467"><ele>5.0</ele><time>2026-04-27T09:00:28.815Z</time></trkpt><trkpt lat="45.7039683" lon="12.4668333"><ele>5.0</ele><time>2026-04-27T09:00:30.815Z</time></trkpt><trkpt lat="45.704" lon="12.4667233"><ele>5.0</ele><time>2026-04-27T09:00:32.815Z</time></trkpt><trkpt lat="45.703975" lon="12.4668417"><ele>5.0</ele><time>2026-04-27T09:01:22.815Z</time></trkpt><trkpt lat="45.7039633" lon="12.4669483"><ele>5.0</ele><time>2026-04-27T09:01:24.816Z</time></trkpt><trkpt lat="45.7039517" lon="12.4670633"><ele>5.0</ele><time>2026-04-27T09:01:26.816Z</time></trkpt><trkpt lat="45.7039717" lon="12.4671583"><ele>5.0</ele><time>2026-04-27T09:01:29.815Z</time></trkpt><trkpt lat="45.7040533" lon="12.46713"><ele>5.0</ele><time>2026-04-27T09:01:31.815Z</time></trkpt><trkpt lat="45.7041517" lon="12.4670367"><ele>5.0</ele><time>2026-04-27T09:01:33.815Z</time></trkpt><trkpt lat="45.7042483" lon="12.46692"><ele>4.833333333333334</ele><time>2026-04-27T09:01:35.815Z</time></trkpt><trkpt lat="45.7043183" lon="12.4668617"><ele>4.666666666666667</ele><time>2026-04-27T09:01:36.815Z</time></trkpt><trkpt lat="45.7043867" lon="12.4668383"><ele>4.5</ele><time>2026-04-27T09:01:37.815Z</time></trkpt><trkpt lat="45.7044567" lon="12.46684"><ele>4.333333333333333</ele><time>2026-04-27T09:01:38.815Z</time></trkpt><trkpt lat="45.70453" lon="12.4668667"><ele>4.166666666666666</ele><time>2026-04-27T09:01:39.815Z</time></trkpt><trkpt lat="45.7046067" lon="12.4668933"><ele>4.0</ele><time>2026-04-27T09:01:40.815Z</time></trkpt><trkpt lat="45.7046867" lon="12.4669167"><ele>3.9999999999999996</ele><time>2026-04-27T09:01:41.815Z</time></trkpt><trkpt lat="45.7047683" lon="12.46694"><ele>4.0</ele><time>2026-04-27T09:01:42.815Z</time></trkpt><trkpt lat="45.7048533" lon="12.4669667"><ele>4.0</ele><time>2026-04-27T09:01:43.815Z</time></trkpt><trkpt lat="45.7049317" lon="12.466995"><ele>4.0</ele><time>2026-04-27T09:01:44.815Z</time></trkpt><trkpt lat="45.7050083" lon="12.4670217"><ele>3.9999999999999996</ele><time>2026-04-27T09:01:45.815Z</time></trkpt><trkpt lat="45.705085" lon="12.4670467"><ele>4.0</ele><time>2026-04-27T09:01:46.815Z</time></trkpt><trkpt lat="45.705155" lon="12.4670867"><ele>3.833333333333333</ele><time>2026-04-27T09:01:47.815Z</time></trkpt><trkpt lat="45.7052283" lon="12.4671317"><ele>3.6666666666666665</ele><time>2026-04-27T09:01:48.815Z</time></trkpt><trkpt lat="45.7053083" lon="12.46718"><ele>3.5</ele><time>2026-04-27T09:01:49.815Z</time></trkpt><trkpt lat="45.7053867" lon="12.46723"><ele>3.333333333333333</ele><time>2026-04-27T09:01:50.815Z</time></trkpt><trkpt lat="45.7054583" lon="12.4672767"><ele>3.1666666666666665</ele><time>2026-04-27T09:01:51.815Z</time></trkpt><trkpt lat="45.7055233" lon="12.4673133"><ele>3.0</ele><time>2026-04-27T09:01:52.815Z</time></trkpt><trkpt lat="45.7055833" lon="12.4673483"><ele>3.714285714285714</ele><time>2026-04-27T09:01:53.815Z</time></trkpt><trkpt lat="45.705645" lon="12.46738"><ele>4.428571428571429</ele><time>2026-04-27T09:01:54.815Z</time></trkpt><trkpt lat="45.7057067" lon="12.4674117"><ele>5.142857142857142</ele><time>2026-04-27T09:01:55.815Z</time></trkpt><trkpt lat="45.7057717" lon="12.46745"><ele>5.857142857142857</ele><time>2026-04-27T09:01:56.815Z</time></trkpt><trkpt lat="45.7058383" lon="12.4674967"><ele>6.57142857142857</ele><time>2026-04-27T09:01:57.815Z</time></trkpt><trkpt lat="45.7059017" lon="12.4675433"><ele>7.285714285714286</ele><time>2026-04-27T09:01:58.815Z</time></trkpt><trkpt lat="45.70597" lon="12.4676517"><ele>8.0</ele><time>2026-04-27T09:02:00.815Z</time></trkpt><trkpt lat="45.7059783" lon="12.467845"><ele>7.499999999999999</ele><time>2026-04-27T09:02:02.815Z</time></trkpt><trkpt lat="45.7059783" lon="12.467955"><ele>7.0</ele><time>2026-04-27T09:02:03.815Z</time></trkpt><trkpt lat="45.705975" lon="12.468065"><ele>6.5</ele><time>2026-04-27T09:02:04.815Z</time></trkpt><trkpt lat="45.7059783" lon="12.468175"><ele>6.0</ele><time>2026-04-27T09:02:05.815Z</time></trkpt><trkpt lat="45.70598" lon="12.4682833"><ele>5.5</ele><time>2026-04-27T09:02:06.815Z</time></trkpt><trkpt lat="45.7059783" lon="12.4683817"><ele>5.0</ele><time>2026-04-27T09:02:07.815Z</time></trkpt><trkpt lat="45.705965" lon="12.4685567"><ele>5.0</ele><time>2026-04-27T09:02:09.815Z</time></trkpt><trkpt lat="45.7059767" lon="12.46871"><ele>5.0</ele><time>2026-04-27T09:02:11.815Z</time></trkpt><trkpt lat="45.70603" lon="12.4687867"><ele>5.0</ele><time>2026-04-27T09:02:13.815Z</time></trkpt><trkpt lat="45.70613" lon="12.4688067"><ele>5.0</ele><time>2026-04-27T09:02:15.815Z</time></trkpt><trkpt lat="45.706225" lon="12.4688083"><ele>5.0</ele><time>2026-04-27T09:02:17.815Z</time></trkpt><trkpt lat="45.7063033" lon="12.4688067"><ele>4.833333333333334</ele><time>2026-04-27T09:02:20.815Z</time></trkpt><trkpt lat="45.7063467" lon="12.468735"><ele>4.666666666666667</ele><time>2026-04-27T09:02:23.815Z</time></trkpt><trkpt lat="45.7063633" lon="12.46864"><ele>4.5</ele><time>2026-04-27T09:02:26.815Z</time></trkpt><trkpt lat="45.70638" lon="12.4684767"><ele>4.333333333333333</ele><time>2026-04-27T09:02:28.815Z</time></trkpt><trkpt lat="45.7064033" lon="12.46836"><ele>4.166666666666666</ele><time>2026-04-27T09:02:29.816Z</time></trkpt><trkpt lat="45.7064317" lon="12.4682267"><ele>4.0</ele><time>2026-04-27T09:02:30.815Z</time></trkpt><trkpt lat="45.7064633" lon="12.46807"><ele>4.4</ele><time>2026-04-27T09:02:31.815Z</time></trkpt><trkpt lat="45.70649" lon="12.4679183"><ele>4.800000000000001</ele><time>2026-04-27T09:02:32.815Z</time></trkpt><trkpt lat="45.706515" lon="12.4677633"><ele>5.199999999999999</ele><time>2026-04-27T09:02:33.815Z</time></trkpt><trkpt lat="45.7065317" lon="12.46763"><ele>5.6</ele><time>2026-04-27T09:02:34.815Z</time></trkpt><trkpt lat="45.7065483" lon="12.46749"><ele>6.0</ele><time>2026-04-27T09:02:35.815Z</time></trkpt><trkpt lat="45.70656" lon="12.4673533"><ele>6.0</ele><time>2026-04-27T09:02:36.815Z</time></trkpt><trkpt lat="45.7065733" lon="12.4672183"><ele>6.0</ele><time>2026-04-27T09:02:37.815Z</time></trkpt><trkpt lat="45.7065783" lon="12.4671"><ele>6.0</ele><time>2026-04-27T09:02:38.815Z</time></trkpt><trkpt lat="45.7065833" lon="12.466995"><ele>6.0</ele><time>2026-04-27T09:02:39.815Z</time></trkpt><trkpt lat="45.70657" lon="12.4668383"><ele>6.0</ele><time>2026-04-27T09:02:41.815Z</time></trkpt><trkpt lat="45.7064733" lon="12.4667583"><ele>6.0</ele><time>2026-04-27T09:02:43.815Z</time></trkpt><trkpt lat="45.7063933" lon="12.46675"><ele>6.0</ele><time>2026-04-27T09:02:44.816Z</time></trkpt><trkpt lat="45.706315" lon="12.4667317"><ele>6.0</ele><time>2026-04-27T09:02:45.815Z</time></trkpt><trkpt lat="45.706245" lon="12.4667067"><ele>6.0</ele><time>2026-04-27T09:02:46.815Z</time></trkpt><trkpt lat="45.7061617" lon="12.4666183"><ele>6.0</ele><time>2026-04-27T09:02:48.815Z</time></trkpt><trkpt lat="45.7061383" lon="12.46646"><ele>6.0</ele><time>2026-04-27T09:02:50.815Z</time></trkpt><trkpt lat="45.706155" lon="12.4663683"><ele>6.199999999999999</ele><time>2026-04-27T09:02:51.815Z</time></trkpt><trkpt lat="45.7061867" lon="12.4662683"><ele>6.3999999999999995</ele><time>2026-04-27T09:02:52.815Z</time></trkpt><trkpt lat="45.7062383" lon="12.4661517"><ele>6.6</ele><time>2026-04-27T09:02:53.815Z</time></trkpt><trkpt lat="45.70629" lon="12.4660217"><ele>6.8</ele><time>2026-04-27T09:02:54.816Z</time></trkpt><trkpt lat="45.7063467" lon="12.4658883"><ele>7.0</ele><time>2026-04-27T09:02:55.815Z</time></trkpt><trkpt lat="45.7063917" lon="12.4657367"><ele>7.0</ele><time>2026-04-27T09:02:56.815Z</time></trkpt><trkpt lat="45.70644" lon="12.4655817"><ele>6.999999999999999</ele><time>2026-04-27T09:02:57.815Z</time></trkpt><trkpt lat="45.7064867" lon="12.4654383"><ele>6.999999999999999</ele><time>2026-04-27T09:02:58.815Z</time></trkpt><trkpt lat="45.7065267" lon="12.4653033"><ele>7.0</ele><time>2026-04-27T09:02:59.816Z</time></trkpt><trkpt lat="45.70657" lon="12.4651733"><ele>7.0</ele><time>2026-04-27T09:03:00.815Z</time></trkpt><trkpt lat="45.7066167" lon="12.4650517"><ele>6.8</ele><time>2026-04-27T09:03:01.815Z</time></trkpt><trkpt lat="45.7066733" lon="12.46493"><ele>6.6</ele><time>2026-04-27T09:03:02.815Z</time></trkpt><trkpt lat="45.7067283" lon="12.4648167"><ele>6.3999999999999995</ele><time>2026-04-27T09:03:03.815Z</time></trkpt><trkpt lat="45.70679" lon="12.4647183"><ele>6.199999999999999</ele><time>2026-04-27T09:03:04.815Z</time></trkpt><trkpt lat="45.7068667" lon="12.4646433"><ele>6.0</ele><time>2026-04-27T09:03:05.815Z</time></trkpt><trkpt lat="45.7069533" lon="12.4645983"><ele>6.0</ele><time>2026-04-27T09:03:06.815Z</time></trkpt><trkpt lat="45.7070433" lon="12.4645733"><ele>6.0</ele><time>2026-04-27T09:03:07.815Z</time></trkpt><trkpt lat="45.7071517" lon="12.4645767"><ele>6.0</ele><time>2026-04-27T09:03:08.815Z</time></trkpt><trkpt lat="45.70726" lon="12.4646133"><ele>6.0</ele><time>2026-04-27T09:03:09.815Z</time></trkpt><trkpt lat="45.7073867" lon="12.46467"><ele>6.0</ele><time>2026-04-27T09:03:10.815Z</time></trkpt><trkpt lat="45.7075217" lon="12.4647133"><ele>6.0</ele><time>2026-04-27T09:03:11.815Z</time></trkpt><trkpt lat="45.7076617" lon="12.4647517"><ele>6.0</ele><time>2026-04-27T09:03:12.815Z</time></trkpt><trkpt lat="45.7078033" lon="12.46478"><ele>6.0</ele><time>2026-04-27T09:03:13.815Z</time></trkpt><trkpt lat="45.70794" lon="12.4648"><ele>6.0</ele><time>2026-04-27T09:03:14.815Z</time></trkpt><trkpt lat="45.7080717" lon="12.4648267"><ele>6.0</ele><time>2026-04-27T09:03:15.815Z</time></trkpt><trkpt lat="45.7082017" lon="12.4648483"><ele>6.0</ele><time>2026-04-27T09:03:16.815Z</time></trkpt><trkpt lat="45.7083233" lon="12.4648717"><ele>6.0</ele><time>2026-04-27T09:03:17.816Z</time></trkpt><trkpt lat="45.7084483" lon="12.464885"><ele>6.0</ele><time>2026-04-27T09:03:18.816Z</time></trkpt><trkpt lat="45.7085733" lon="12.4648917"><ele>5.5</ele><time>2026-04-27T09:03:19.815Z</time></trkpt><trkpt lat="45.70869" lon="12.46489"><ele>5.0</ele><time>2026-04-27T09:03:20.815Z</time></trkpt><trkpt lat="45.7088133" lon="12.464875"><ele>4.5</ele><time>2026-04-27T09:03:21.815Z</time></trkpt><trkpt lat="45.70894" lon="12.4648483"><ele>4.0</ele><time>2026-04-27T09:03:22.815Z</time></trkpt><trkpt lat="45.7090667" lon="12.4648067"><ele>4.0</ele><time>2026-04-27T09:03:23.815Z</time></trkpt><trkpt lat="45.7091783" lon="12.4647567"><ele>4.0</ele><time>2026-04-27T09:03:24.815Z</time></trkpt><trkpt lat="45.7092817" lon="12.4647083"><ele>4.0</ele><time>2026-04-27T09:03:25.815Z</time></trkpt><trkpt lat="45.7093667" lon="12.4646517"><ele>4.0</ele><time>2026-04-27T09:03:26.815Z</time></trkpt><trkpt lat="45.70944" lon="12.4646067"><ele>4.0</ele><time>2026-04-27T09:03:27.815Z</time></trkpt><trkpt lat="45.7095017" lon="12.46456"><ele>4.333333333333333</ele><time>2026-04-27T09:03:28.816Z</time></trkpt><trkpt lat="45.709575" lon="12.464485"><ele>4.666666666666666</ele><time>2026-04-27T09:03:30.815Z</time></trkpt><trkpt lat="45.709585" lon="12.464375"><ele>5.0</ele><time>2026-04-27T09:03:32.815Z</time></trkpt><trkpt lat="45.7095367" lon="12.4642717"><ele>5.333333333333333</ele><time>2026-04-27T09:03:35.815Z</time></trkpt><trkpt lat="45.7094833" lon="12.46422"><ele>5.666666666666667</ele><time>2026-04-27T09:03:37.815Z</time></trkpt><trkpt lat="45.70939" lon="12.4641433"><ele>6.0</ele><time>2026-04-27T09:03:39.815Z</time></trkpt><trkpt lat="45.70932" lon="12.46409"><ele>6.0</ele><time>2026-04-27T09:03:40.815Z</time></trkpt><trkpt lat="45.70924" lon="12.46403"><ele>6.0</ele><time>2026-04-27T09:03:41.815Z</time></trkpt><trkpt lat="45.7091467" lon="12.4639733"><ele>6.0</ele><time>2026-04-27T09:03:42.815Z</time></trkpt><trkpt lat="45.7090467" lon="12.4639217"><ele>6.0</ele><time>2026-04-27T09:03:43.815Z</time></trkpt><trkpt lat="45.7089367" lon="12.4638717"><ele>6.0</ele><time>2026-04-27T09:03:44.815Z</time></trkpt><trkpt lat="45.7088367" lon="12.46382"><ele>6.0</ele><time>2026-04-27T09:03:45.815Z</time></trkpt><trkpt lat="45.7087383" lon="12.46377"><ele>6.0</ele><time>2026-04-27T09:03:46.815Z</time></trkpt><trkpt lat="45.708655" lon="12.4637183"><ele>6.0</ele><time>2026-04-27T09:03:47.815Z</time></trkpt><trkpt lat="45.7085667" lon="12.4636683"><ele>6.0</ele><time>2026-04-27T09:03:48.816Z</time></trkpt><trkpt lat="45.708475" lon="12.4636083"><ele>6.0</ele><time>2026-04-27T09:03:49.815Z</time></trkpt><trkpt lat="45.70838" lon="12.4635483"><ele>6.0</ele><time>2026-04-27T09:03:50.815Z</time></trkpt><trkpt lat="45.7082783" lon="12.4634883"><ele>6.0</ele><time>2026-04-27T09:03:51.816Z</time></trkpt><trkpt lat="45.7081683" lon="12.463425"><ele>6.0</ele><time>2026-04-27T09:03:52.815Z</time></trkpt><trkpt lat="45.7080583" lon="12.4633617"><ele>6.0</ele><time>2026-04-27T09:03:53.815Z</time></trkpt><trkpt lat="45.7079567" lon="12.4632983"><ele>6.0</ele><time>2026-04-27T09:03:54.815Z</time></trkpt><trkpt lat="45.707855" lon="12.46324"><ele>6.0</ele><time>2026-04-27T09:03:55.815Z</time></trkpt><trkpt lat="45.707755" lon="12.4631867"><ele>6.0</ele><time>2026-04-27T09:03:56.815Z</time></trkpt><trkpt lat="45.70766" lon="12.463135"><ele>6.0</ele><time>2026-04-27T09:03:57.815Z</time></trkpt><trkpt lat="45.707575" lon="12.4630967"><ele>6.0</ele><time>2026-04-27T09:03:58.815Z</time></trkpt><trkpt lat="45.707505" lon="12.463055"><ele>5.8</ele><time>2026-04-27T09:03:59.815Z</time></trkpt><trkpt lat="45.70744" lon="12.4629617"><ele>5.6</ele><time>2026-04-27T09:04:01.815Z</time></trkpt><trkpt lat="45.7075" lon="12.4629"><ele>5.4</ele><time>2026-04-27T09:04:05.815Z</time></trkpt><trkpt lat="45.707565" lon="12.46279"><ele>5.2</ele><time>2026-04-27T09:04:08.815Z</time></trkpt><trkpt lat="45.7076417" lon="12.4626267"><ele>5.0</ele><time>2026-04-27T09:04:10.815Z</time></trkpt><trkpt lat="45.7076917" lon="12.462525"><ele>5.0</ele><time>2026-04-27T09:04:11.815Z</time></trkpt><trkpt lat="45.7077517" lon="12.462415"><ele>5.0</ele><time>2026-04-27T09:04:12.815Z</time></trkpt><trkpt lat="45.7078283" lon="12.4622783"><ele>5.0</ele><time>2026-04-27T09:04:13.815Z</time></trkpt><trkpt lat="45.707905" lon="12.462135"><ele>5.0</ele><time>2026-04-27T09:04:14.815Z</time></trkpt><trkpt lat="45.7079917" lon="12.4619833"><ele>5.25</ele><time>2026-04-27T09:04:15.816Z</time></trkpt><trkpt lat="45.708075" lon="12.4618367"><ele>5.5</ele><time>2026-04-27T09:04:16.815Z</time></trkpt><trkpt lat="45.7081483" lon="12.4616983"><ele>5.75</ele><time>2026-04-27T09:04:17.815Z</time></trkpt><trkpt lat="45.7082183" lon="12.461555"><ele>6.0</ele><time>2026-04-27T09:04:18.816Z</time></trkpt><trkpt lat="45.7082867" lon="12.4614267"><ele>6.0</ele><time>2026-04-27T09:04:19.816Z</time></trkpt><trkpt lat="45.7083533" lon="12.4612917"><ele>6.0</ele><time>2026-04-27T09:04:20.816Z</time></trkpt><trkpt lat="45.708425" lon="12.46115"><ele>6.0</ele><time>2026-04-27T09:04:21.816Z</time></trkpt><trkpt lat="45.7084983" lon="12.4610083"><ele>6.0</ele><time>2026-04-27T09:04:22.816Z</time></trkpt><trkpt lat="45.7085733" lon="12.4608683"><ele>6.0</ele><time>2026-04-27T09:04:23.816Z</time></trkpt><trkpt lat="45.708645" lon="12.4607383"><ele>6.0</ele><time>2026-04-27T09:04:24.816Z</time></trkpt><trkpt lat="45.7087183" lon="12.4606217"><ele>6.0</ele><time>2026-04-27T09:04:25.816Z</time></trkpt><trkpt lat="45.7087917" lon="12.460505"><ele>6.0</ele><time>2026-04-27T09:04:26.816Z</time></trkpt><trkpt lat="45.7088517" lon="12.4603967"><ele>6.0</ele><time>2026-04-27T09:04:27.816Z</time></trkpt><trkpt lat="45.7089067" lon="12.46031"><ele>5.2</ele><time>2026-04-27T09:04:28.816Z</time></trkpt><trkpt lat="45.7089667" lon="12.4602483"><ele>4.3999999999999995</ele><time>2026-04-27T09:04:29.816Z</time></trkpt><trkpt lat="45.7090367" lon="12.4601783"><ele>3.6</ele><time>2026-04-27T09:04:30.816Z</time></trkpt><trkpt lat="45.7090967" lon="12.46011"><ele>2.8</ele><time>2026-04-27T09:04:31.816Z</time></trkpt><trkpt lat="45.7091967" lon="12.4600267"><ele>2.0</ele><time>2026-04-27T09:04:33.816Z</time></trkpt><trkpt lat="45.709315" lon="12.4599383"><ele>2.0</ele><time>2026-04-27T09:04:35.816Z</time></trkpt><trkpt lat="45.7093817" lon="12.459865"><ele>2.0</ele><time>2026-04-27T09:04:36.816Z</time></trkpt><trkpt lat="45.7094483" lon="12.459785"><ele>2.0</ele><time>2026-04-27T09:04:37.816Z</time></trkpt><trkpt lat="45.70953" lon="12.4597"><ele>2.0</ele><time>2026-04-27T09:04:38.816Z</time></trkpt><trkpt lat="45.7096167" lon="12.459605"><ele>2.0</ele><time>2026-04-27T09:04:39.816Z</time></trkpt><trkpt lat="45.7097017" lon="12.4595217"><ele>2.4000000000000004</ele><time>2026-04-27T09:04:40.817Z</time></trkpt><trkpt lat="45.7097783" lon="12.4594383"><ele>2.8000000000000003</ele><time>2026-04-27T09:04:41.816Z</time></trkpt><trkpt lat="45.70984" lon="12.4593633"><ele>3.2</ele><time>2026-04-27T09:04:42.816Z</time></trkpt><trkpt lat="45.7098817" lon="12.4592933"><ele>3.6</ele><time>2026-04-27T09:04:43.816Z</time></trkpt><trkpt lat="45.709955" lon="12.45917"><ele>4.0</ele><time>2026-04-27T09:04:45.816Z</time></trkpt><trkpt lat="45.7100417" lon="12.4590667"><ele>3.9999999999999996</ele><time>2026-04-27T09:04:47.816Z</time></trkpt><trkpt lat="45.7101433" lon="12.4589833"><ele>4.0</ele><time>2026-04-27T09:04:49.816Z</time></trkpt><trkpt lat="45.7102433" lon="12.4589483"><ele>4.0</ele><time>2026-04-27T09:04:51.816Z</time></trkpt><trkpt lat="45.7103167" lon="12.4589267"><ele>4.0</ele><time>2026-04-27T09:04:53.816Z</time></trkpt><trkpt lat="45.7103833" lon="12.4588633"><ele>3.9999999999999996</ele><time>2026-04-27T09:04:56.816Z</time></trkpt><trkpt lat="45.710435" lon="12.4588"><ele>4.0</ele><time>2026-04-27T09:04:58.816Z</time></trkpt><trkpt lat="45.7105017" lon="12.45867"><ele>4.333333333333333</ele><time>2026-04-27T09:05:00.816Z</time></trkpt><trkpt lat="45.710535" lon="12.458585"><ele>4.666666666666666</ele><time>2026-04-27T09:05:01.816Z</time></trkpt><trkpt lat="45.7105833" lon="12.4584517"><ele>5.0</ele><time>2026-04-27T09:05:03.816Z</time></trkpt><trkpt lat="45.710625" lon="12.4583283"><ele>5.333333333333333</ele><time>2026-04-27T09:05:05.816Z</time></trkpt><trkpt lat="45.71067" lon="12.4582033"><ele>5.666666666666667</ele><time>2026-04-27T09:05:07.817Z</time></trkpt><trkpt lat="45.7107033" lon="12.4581033"><ele>6.0</ele><time>2026-04-27T09:05:09.816Z</time></trkpt><trkpt lat="45.7107667" lon="12.4579617"><ele>5.8</ele><time>2026-04-27T09:05:11.816Z</time></trkpt><trkpt lat="45.7107967" lon="12.45788"><ele>5.6</ele><time>2026-04-27T09:05:12.816Z</time></trkpt><trkpt lat="45.7108317" lon="12.457795"><ele>5.4</ele><time>2026-04-27T09:05:13.816Z</time></trkpt><trkpt lat="45.7108617" lon="12.4577117"><ele>5.2</ele><time>2026-04-27T09:05:14.816Z</time></trkpt><trkpt lat="45.7109183" lon="12.45755"><ele>5.0</ele><time>2026-04-27T09:05:16.816Z</time></trkpt><trkpt lat="45.7109683" lon="12.4573833"><ele>5.0</ele><time>2026-04-27T09:05:18.816Z</time></trkpt><trkpt lat="45.7110067" lon="12.4572233"><ele>5.0</ele><time>2026-04-27T09:05:20.816Z</time></trkpt><trkpt lat="45.7110283" lon="12.4571383"><ele>5.0</ele><time>2026-04-27T09:05:21.816Z</time></trkpt><trkpt lat="45.71106" lon="12.4569767"><ele>5.0</ele><time>2026-04-27T09:05:23.816Z</time></trkpt><trkpt lat="45.7110883" lon="12.456805"><ele>5.0</ele><time>2026-04-27T09:05:25.816Z</time></trkpt><trkpt lat="45.7111117" lon="12.45671"><ele>5.0</ele><time>2026-04-27T09:05:26.816Z</time></trkpt><trkpt lat="45.7111533" lon="12.456605"><ele>5.0</ele><time>2026-04-27T09:05:27.816Z</time></trkpt><trkpt lat="45.7112133" lon="12.456485"><ele>5.0</ele><time>2026-04-27T09:05:28.816Z</time></trkpt><trkpt lat="45.71127" lon="12.4563617"><ele>5.0</ele><time>2026-04-27T09:05:29.816Z</time></trkpt><trkpt lat="45.7113267" lon="12.4562283"><ele>5.0</ele><time>2026-04-27T09:05:30.816Z</time></trkpt><trkpt lat="45.711385" lon="12.4561183"><ele>5.0</ele><time>2026-04-27T09:05:31.816Z</time></trkpt><trkpt lat="45.7114383" lon="12.45601"><ele>5.0</ele><time>2026-04-27T09:05:32.816Z</time></trkpt><trkpt lat="45.7114867" lon="12.4559"><ele>5.0</ele><time>2026-04-27T09:05:33.816Z</time></trkpt><trkpt lat="45.7115283" lon="12.455805"><ele>5.0</ele><time>2026-04-27T09:05:34.816Z</time></trkpt><trkpt lat="45.7115683" lon="12.4557217"><ele>5.0</ele><time>2026-04-27T09:05:35.817Z</time></trkpt><trkpt lat="45.7115717" lon="12.4555833"><ele>5.0</ele><time>2026-04-27T09:05:37.816Z</time></trkpt><trkpt lat="45.71154" lon="12.455435"><ele>4.75</ele><time>2026-04-27T09:05:39.817Z</time></trkpt><trkpt lat="45.7115483" lon="12.4552617"><ele>4.5</ele><time>2026-04-27T09:05:41.816Z</time></trkpt><trkpt lat="45.7115917" lon="12.4551467"><ele>4.25</ele><time>2026-04-27T09:05:43.816Z</time></trkpt><trkpt lat="45.7116533" lon="12.4550417"><ele>4.0</ele><time>2026-04-27T09:05:45.816Z</time></trkpt><trkpt lat="45.711705" lon="12.4547467"><ele>4.0</ele><time>2026-04-27T09:06:43.816Z</time></trkpt><trkpt lat="45.71168" lon="12.4548417"><ele>4.0</ele><time>2026-04-27T09:10:05.815Z</time></trkpt><trkpt lat="45.7117333" lon="12.4547283"><ele>4.0</ele><time>2026-04-27T09:10:07.816Z</time></trkpt><trkpt lat="45.7117967" lon="12.4545817"><ele>4.0</ele><time>2026-04-27T09:10:09.815Z</time></trkpt><trkpt lat="45.7118517" lon="12.4544367"><ele>4.0</ele><time>2026-04-27T09:10:11.815Z</time></trkpt><trkpt lat="45.7119317" lon="12.4543217"><ele>3.8000000000000003</ele><time>2026-04-27T09:10:13.815Z</time></trkpt><trkpt lat="45.7119967" lon="12.4542567"><ele>3.6000000000000005</ele><time>2026-04-27T09:10:14.816Z</time></trkpt><trkpt lat="45.712085" lon="12.4541683"><ele>3.4</ele><time>2026-04-27T09:10:16.815Z</time></trkpt><trkpt lat="45.7121667" lon="12.45402"><ele>3.2</ele><time>2026-04-27T09:10:18.815Z</time></trkpt><trkpt lat="45.7122067" lon="12.453935"><ele>3.0</ele><time>2026-04-27T09:10:19.815Z</time></trkpt><trkpt lat="45.712245" lon="12.453855"><ele>3.571428571428571</ele><time>2026-04-27T09:10:20.815Z</time></trkpt><trkpt lat="45.7122767" lon="12.45377"><ele>4.142857142857142</ele><time>2026-04-27T09:10:21.815Z</time></trkpt><trkpt lat="45.7123167" lon="12.45368"><ele>4.714285714285714</ele><time>2026-04-27T09:10:22.815Z</time></trkpt><trkpt lat="45.7123583" lon="12.453595"><ele>5.285714285714286</ele><time>2026-04-27T09:10:23.815Z</time></trkpt><trkpt lat="45.7123967" lon="12.45351"><ele>5.857142857142857</ele><time>2026-04-27T09:10:24.815Z</time></trkpt><trkpt lat="45.7124333" lon="12.4534267"><ele>6.428571428571429</ele><time>2026-04-27T09:10:25.815Z</time></trkpt><trkpt lat="45.71247" lon="12.4533433"><ele>7.0</ele><time>2026-04-27T09:10:26.815Z</time></trkpt><trkpt lat="45.7125083" lon="12.4532633"><ele>7.0</ele><time>2026-04-27T09:10:27.816Z</time></trkpt><trkpt lat="45.7125683" lon="12.453115"><ele>6.999999999999999</ele><time>2026-04-27T09:10:29.815Z</time></trkpt><trkpt lat="45.712625" lon="12.4529583"><ele>6.999999999999999</ele><time>2026-04-27T09:10:31.815Z</time></trkpt><trkpt lat="45.71266" lon="12.4528767"><ele>7.0</ele><time>2026-04-27T09:10:32.815Z</time></trkpt><trkpt lat="45.712705" lon="12.45279"><ele>7.0</ele><time>2026-04-27T09:10:33.815Z</time></trkpt><trkpt lat="45.7127467" lon="12.4527"><ele>7.000000000000001</ele><time>2026-04-27T09:10:34.815Z</time></trkpt><trkpt lat="45.7127867" lon="12.452605"><ele>7.0</ele><time>2026-04-27T09:10:35.815Z</time></trkpt><trkpt lat="45.7128217" lon="12.452525"><ele>7.0</ele><time>2026-04-27T09:10:36.815Z</time></trkpt><trkpt lat="45.7128733" lon="12.4524033"><ele>7.0</ele><time>2026-04-27T09:10:38.815Z</time></trkpt><trkpt lat="45.712865" lon="12.4523117"><ele>7.000000000000001</ele><time>2026-04-27T09:10:40.815Z</time></trkpt><trkpt lat="45.7127983" lon="12.4522067"><ele>7.0</ele><time>2026-04-27T09:10:42.815Z</time></trkpt><trkpt lat="45.7127233" lon="12.4520917"><ele>7.333333333333334</ele><time>2026-04-27T09:10:44.815Z</time></trkpt><trkpt lat="45.71269" lon="12.45198"><ele>7.666666666666667</ele><time>2026-04-27T09:10:46.815Z</time></trkpt><trkpt lat="45.7126983" lon="12.451885"><ele>8.0</ele><time>2026-04-27T09:10:48.815Z</time></trkpt><trkpt lat="45.7127283" lon="12.4517667"><ele>8.333333333333334</ele><time>2026-04-27T09:10:50.815Z</time></trkpt><trkpt lat="45.7127783" lon="12.4516083"><ele>8.666666666666666</ele><time>2026-04-27T09:10:52.815Z</time></trkpt><trkpt lat="45.7128183" lon="12.4515183"><ele>9.0</ele><time>2026-04-27T09:10:53.815Z</time></trkpt><trkpt lat="45.7128533" lon="12.4514233"><ele>8.4</ele><time>2026-04-27T09:10:54.815Z</time></trkpt><trkpt lat="45.7128833" lon="12.4513167"><ele>7.800000000000001</ele><time>2026-04-27T09:10:55.815Z</time></trkpt><trkpt lat="45.71291" lon="12.45121"><ele>7.199999999999999</ele><time>2026-04-27T09:10:56.815Z</time></trkpt><trkpt lat="45.7129517" lon="12.4510783"><ele>6.6</ele><time>2026-04-27T09:10:57.815Z</time></trkpt><trkpt lat="45.7129933" lon="12.4509267"><ele>6.0</ele><time>2026-04-27T09:10:59.815Z</time></trkpt><trkpt lat="45.713035" lon="12.4507683"><ele>6.0</ele><time>2026-04-27T09:11:01.815Z</time></trkpt><trkpt lat="45.7130667" lon="12.4506267"><ele>6.0</ele><time>2026-04-27T09:11:03.815Z</time></trkpt><trkpt lat="45.7131067" lon="12.450545"><ele>6.0</ele><time>2026-04-27T09:11:05.815Z</time></trkpt><trkpt lat="45.7131467" lon="12.450435"><ele>6.0</ele><time>2026-04-27T09:11:08.815Z</time></trkpt><trkpt lat="45.7131883" lon="12.45029"><ele>6.0</ele><time>2026-04-27T09:11:10.815Z</time></trkpt><trkpt lat="45.713225" lon="12.4501833"><ele>6.0</ele><time>2026-04-27T09:11:11.815Z</time></trkpt><trkpt lat="45.7132633" lon="12.4500783"><ele>6.0</ele><time>2026-04-27T09:11:12.815Z</time></trkpt><trkpt lat="45.7133083" lon="12.4499583"><ele>6.0</ele><time>2026-04-27T09:11:13.815Z</time></trkpt><trkpt lat="45.7133583" lon="12.4498467"><ele>6.0</ele><time>2026-04-27T09:11:14.815Z</time></trkpt><trkpt lat="45.7134067" lon="12.4497417"><ele>6.0</ele><time>2026-04-27T09:11:15.815Z</time></trkpt><trkpt lat="45.7134533" lon="12.4496417"><ele>6.0</ele><time>2026-04-27T09:11:16.815Z</time></trkpt><trkpt lat="45.7134883" lon="12.4495417"><ele>6.0</ele><time>2026-04-27T09:11:17.815Z</time></trkpt><trkpt lat="45.7135283" lon="12.449435"><ele>6.0</ele><time>2026-04-27T09:11:18.815Z</time></trkpt><trkpt lat="45.7135717" lon="12.449325"><ele>6.0</ele><time>2026-04-27T09:11:19.815Z</time></trkpt><trkpt lat="45.7136183" lon="12.44921"><ele>6.0</ele><time>2026-04-27T09:11:20.815Z</time></trkpt><trkpt lat="45.7136717" lon="12.4490867"><ele>6.0</ele><time>2026-04-27T09:11:21.815Z</time></trkpt><trkpt lat="45.7137183" lon="12.44897"><ele>6.199999999999999</ele><time>2026-04-27T09:11:22.815Z</time></trkpt><trkpt lat="45.7137633" lon="12.4488533"><ele>6.3999999999999995</ele><time>2026-04-27T09:11:23.815Z</time></trkpt><trkpt lat="45.7138067" lon="12.4487417"><ele>6.6</ele><time>2026-04-27T09:11:24.815Z</time></trkpt><trkpt lat="45.7138467" lon="12.4486333"><ele>6.8</ele><time>2026-04-27T09:11:25.816Z</time></trkpt><trkpt lat="45.7138917" lon="12.4485183"><ele>7.0</ele><time>2026-04-27T09:11:26.815Z</time></trkpt><trkpt lat="45.7139367" lon="12.4483933"><ele>6.833333333333334</ele><time>2026-04-27T09:11:27.815Z</time></trkpt><trkpt lat="45.7139783" lon="12.4482733"><ele>6.666666666666667</ele><time>2026-04-27T09:11:28.815Z</time></trkpt><trkpt lat="45.71402" lon="12.4481583"><ele>6.5</ele><time>2026-04-27T09:11:29.815Z</time></trkpt><trkpt lat="45.71406" lon="12.4480517"><ele>6.333333333333334</ele><time>2026-04-27T09:11:30.815Z</time></trkpt><trkpt lat="45.7141" lon="12.4479617"><ele>6.166666666666667</ele><time>2026-04-27T09:11:31.815Z</time></trkpt><trkpt lat="45.714135" lon="12.4478317"><ele>6.0</ele><time>2026-04-27T09:11:33.815Z</time></trkpt><trkpt lat="45.7140967" lon="12.447735"><ele>6.0</ele><time>2026-04-27T09:11:36.816Z</time></trkpt><trkpt lat="45.7140867" lon="12.4476283"><ele>6.0</ele><time>2026-04-27T09:11:39.815Z</time></trkpt><trkpt lat="45.7141183" lon="12.4474783"><ele>6.0</ele><time>2026-04-27T09:11:42.815Z</time></trkpt><trkpt lat="45.71415" lon="12.4473833"><ele>6.0</ele><time>2026-04-27T09:11:43.815Z</time></trkpt><trkpt lat="45.7141767" lon="12.4472733"><ele>6.0</ele><time>2026-04-27T09:11:44.816Z</time></trkpt><trkpt lat="45.7142233" lon="12.44716"><ele>6.0</ele><time>2026-04-27T09:11:45.815Z</time></trkpt><trkpt lat="45.7142683" lon="12.4470417"><ele>6.0</ele><time>2026-04-27T09:11:46.815Z</time></trkpt><trkpt lat="45.7143117" lon="12.4469317"><ele>6.0</ele><time>2026-04-27T09:11:47.815Z</time></trkpt><trkpt lat="45.714365" lon="12.4468033"><ele>6.0</ele><time>2026-04-27T09:11:48.815Z</time></trkpt><trkpt lat="45.7144117" lon="12.446685"><ele>6.0</ele><time>2026-04-27T09:11:49.815Z</time></trkpt><trkpt lat="45.7144467" lon="12.4465967"><ele>6.0</ele><time>2026-04-27T09:11:50.815Z</time></trkpt><trkpt lat="45.7144833" lon="12.4465033"><ele>6.0</ele><time>2026-04-27T09:11:51.815Z</time></trkpt><trkpt lat="45.7145233" lon="12.446375"><ele>6.0</ele><time>2026-04-27T09:11:53.815Z</time></trkpt><trkpt lat="45.7145333" lon="12.4462783"><ele>6.0</ele><time>2026-04-27T09:11:55.815Z</time></trkpt><trkpt lat="45.71451" lon="12.4461633"><ele>6.0</ele><time>2026-04-27T09:11:57.815Z</time></trkpt><trkpt lat="45.71444" lon="12.4460333"><ele>6.0</ele><time>2026-04-27T09:11:59.815Z</time></trkpt><trkpt lat="45.7144167" lon="12.4459383"><ele>6.0</ele><time>2026-04-27T09:12:00.815Z</time></trkpt><trkpt lat="45.7143967" lon="12.445825"><ele>6.0</ele><time>2026-04-27T09:12:01.815Z</time></trkpt><trkpt lat="45.7143883" lon="12.4456967"><ele>6.0</ele><time>2026-04-27T09:12:02.815Z</time></trkpt><trkpt lat="45.714395" lon="12.4455683"><ele>6.0</ele><time>2026-04-27T09:12:03.815Z</time></trkpt><trkpt lat="45.7144017" lon="12.4454433"><ele>6.0</ele><time>2026-04-27T09:12:04.815Z</time></trkpt><trkpt lat="45.71441" lon="12.44533"><ele>6.0</ele><time>2026-04-27T09:12:05.815Z</time></trkpt><trkpt lat="45.7144017" lon="12.44523"><ele>6.0</ele><time>2026-04-27T09:12:06.815Z</time></trkpt><trkpt lat="45.7143583" lon="12.4450683"><ele>6.0</ele><time>2026-04-27T09:12:08.815Z</time></trkpt><trkpt lat="45.7143133" lon="12.4449967"><ele>6.0</ele><time>2026-04-27T09:12:09.816Z</time></trkpt><trkpt lat="45.71425" lon="12.4449167"><ele>6.0</ele><time>2026-04-27T09:12:10.815Z</time></trkpt><trkpt lat="45.7141683" lon="12.4448317"><ele>6.0</ele><time>2026-04-27T09:12:11.815Z</time></trkpt><trkpt lat="45.7140883" lon="12.4447483"><ele>6.0</ele><time>2026-04-27T09:12:12.815Z</time></trkpt><trkpt lat="45.71402" lon="12.4446783"><ele>6.0</ele><time>2026-04-27T09:12:13.815Z</time></trkpt><trkpt lat="45.7139517" lon="12.4445817"><ele>6.199999999999999</ele><time>2026-04-27T09:12:15.815Z</time></trkpt><trkpt lat="45.7139933" lon="12.4445"><ele>6.3999999999999995</ele><time>2026-04-27T09:12:18.816Z</time></trkpt><trkpt lat="45.71412" lon="12.444455"><ele>6.6</ele><time>2026-04-27T09:12:20.815Z</time></trkpt><trkpt lat="45.7142167" lon="12.4444167"><ele>6.8</ele><time>2026-04-27T09:12:21.815Z</time></trkpt><trkpt lat="45.7143217" lon="12.444375"><ele>7.0</ele><time>2026-04-27T09:12:22.816Z</time></trkpt><trkpt lat="45.7144333" lon="12.4443317"><ele>6.500000000000001</ele><time>2026-04-27T09:12:23.815Z</time></trkpt><trkpt lat="45.7145317" lon="12.4442833"><ele>6.0</ele><time>2026-04-27T09:12:24.815Z</time></trkpt><trkpt lat="45.714615" lon="12.4442383"><ele>5.5</ele><time>2026-04-27T09:12:25.816Z</time></trkpt><trkpt lat="45.7146933" lon="12.4441767"><ele>5.0</ele><time>2026-04-27T09:12:26.816Z</time></trkpt><trkpt lat="45.7147533" lon="12.4441017"><ele>4.5</ele><time>2026-04-27T09:12:27.816Z</time></trkpt><trkpt lat="45.7147983" lon="12.4440183"><ele>4.0</ele><time>2026-04-27T09:12:28.817Z</time></trkpt><trkpt lat="45.7148233" lon="12.4439183"><ele>3.9999999999999996</ele><time>2026-04-27T09:12:29.817Z</time></trkpt><trkpt lat="45.7148317" lon="12.4438117"><ele>4.0</ele><time>2026-04-27T09:12:30.816Z</time></trkpt><trkpt lat="45.7148183" lon="12.4436967"><ele>4.0</ele><time>2026-04-27T09:12:31.816Z</time></trkpt><trkpt lat="45.7148033" lon="12.4435867"><ele>4.0</ele><time>2026-04-27T09:12:32.816Z</time></trkpt><trkpt lat="45.7147967" lon="12.4434817"><ele>3.9999999999999996</ele><time>2026-04-27T09:12:33.817Z</time></trkpt><trkpt lat="45.7148017" lon="12.443385"><ele>4.0</ele><time>2026-04-27T09:12:34.817Z</time></trkpt><trkpt lat="45.7148233" lon="12.4432833"><ele>4.166666666666666</ele><time>2026-04-27T09:12:35.816Z</time></trkpt><trkpt lat="45.714865" lon="12.44318"><ele>4.333333333333333</ele><time>2026-04-27T09:12:36.816Z</time></trkpt><trkpt lat="45.7149267" lon="12.44308"><ele>4.5</ele><time>2026-04-27T09:12:37.816Z</time></trkpt><trkpt lat="45.715" lon="12.442995"><ele>4.666666666666667</ele><time>2026-04-27T09:12:38.816Z</time></trkpt><trkpt lat="45.7150683" lon="12.4429333"><ele>4.833333333333334</ele><time>2026-04-27T09:12:39.816Z</time></trkpt><trkpt lat="45.715135" lon="12.44288"><ele>5.0</ele><time>2026-04-27T09:12:40.816Z</time></trkpt><trkpt lat="45.7152" lon="12.442835"><ele>5.8</ele><time>2026-04-27T09:12:41.816Z</time></trkpt><trkpt lat="45.7152617" lon="12.4427983"><ele>6.6</ele><time>2026-04-27T09:12:42.816Z</time></trkpt><trkpt lat="45.7153367" lon="12.44274"><ele>7.4</ele><time>2026-04-27T09:12:43.816Z</time></trkpt><trkpt lat="45.715425" lon="12.4426683"><ele>8.2</ele><time>2026-04-27T09:12:44.816Z</time></trkpt><trkpt lat="45.7155217" lon="12.44258"><ele>9.0</ele><time>2026-04-27T09:12:45.816Z</time></trkpt><trkpt lat="45.71562" lon="12.44248"><ele>9.0</ele><time>2026-04-27T09:12:46.816Z</time></trkpt><trkpt lat="45.7157267" lon="12.4423767"><ele>9.0</ele><time>2026-04-27T09:12:47.816Z</time></trkpt><trkpt lat="45.7158283" lon="12.4422883"><ele>9.0</ele><time>2026-04-27T09:12:48.816Z</time></trkpt><trkpt lat="45.7159283" lon="12.4421967"><ele>9.0</ele><time>2026-04-27T09:12:49.816Z</time></trkpt><trkpt lat="45.7160283" lon="12.4421183"><ele>9.0</ele><time>2026-04-27T09:12:50.816Z</time></trkpt><trkpt lat="45.7161317" lon="12.4420483"><ele>9.0</ele><time>2026-04-27T09:12:51.816Z</time></trkpt><trkpt lat="45.7162183" lon="12.442"><ele>9.0</ele><time>2026-04-27T09:12:52.816Z</time></trkpt><trkpt lat="45.716295" lon="12.4419667"><ele>9.0</ele><time>2026-04-27T09:12:53.816Z</time></trkpt><trkpt lat="45.71636" lon="12.44194"><ele>9.0</ele><time>2026-04-27T09:12:54.816Z</time></trkpt><trkpt lat="45.71645" lon="12.4419117"><ele>9.0</ele><time>2026-04-27T09:12:56.816Z</time></trkpt><trkpt lat="45.716465" lon="12.441815"><ele>9.0</ele><time>2026-04-27T09:13:01.816Z</time></trkpt><trkpt lat="45.7164017" lon="12.4417383"><ele>9.0</ele><time>2026-04-27T09:13:05.816Z</time></trkpt><trkpt lat="45.716355" lon="12.44167"><ele>9.0</ele><time>2026-04-27T09:13:08.816Z</time></trkpt><trkpt lat="45.7163317" lon="12.44156"><ele>9.0</ele><time>2026-04-27T09:13:12.816Z</time></trkpt><trkpt lat="45.71628" lon="12.44143"><ele>9.0</ele><time>2026-04-27T09:13:14.816Z</time></trkpt><trkpt lat="45.7162333" lon="12.4413483"><ele>9.0</ele><time>2026-04-27T09:13:15.816Z</time></trkpt><trkpt lat="45.7161783" lon="12.441265"><ele>9.0</ele><time>2026-04-27T09:13:16.817Z</time></trkpt><trkpt lat="45.716135" lon="12.441185"><ele>9.0</ele><time>2026-04-27T09:13:17.816Z</time></trkpt><trkpt lat="45.7160967" lon="12.44107"><ele>9.0</ele><time>2026-04-27T09:13:19.816Z</time></trkpt><trkpt lat="45.7160483" lon="12.4409983"><ele>9.0</ele><time>2026-04-27T09:13:22.817Z</time></trkpt><trkpt lat="45.7160717" lon="12.4410983"><ele>9.0</ele><time>2026-04-27T09:13:25.816Z</time></trkpt><trkpt lat="45.71617" lon="12.441245"><ele>9.0</ele><time>2026-04-27T09:13:27.816Z</time></trkpt><trkpt lat="45.71622" lon="12.441335"><ele>9.0</ele><time>2026-04-27T09:13:28.816Z</time></trkpt><trkpt lat="45.716265" lon="12.4414183"><ele>9.0</ele><time>2026-04-27T09:13:29.817Z</time></trkpt><trkpt lat="45.7163083" lon="12.4414917"><ele>9.0</ele><time>2026-04-27T09:13:30.817Z</time></trkpt><trkpt lat="45.71637" lon="12.441635"><ele>9.0</ele><time>2026-04-27T09:13:32.816Z</time></trkpt><trkpt lat="45.71641" lon="12.44174"><ele>9.0</ele><time>2026-04-27T09:13:34.817Z</time></trkpt><trkpt lat="45.71648" lon="12.442095"><ele>9.0</ele><time>2026-04-27T09:14:08.816Z</time></trkpt><trkpt lat="45.7164917" lon="12.4419017"><ele>9.0</ele><time>2026-04-27T09:14:10.816Z</time></trkpt><trkpt lat="45.7164067" lon="12.442145"><ele>9.0</ele><time>2026-04-27T09:14:14.816Z</time></trkpt><trkpt lat="45.71643" lon="12.4420317"><ele>9.0</ele><time>2026-04-27T09:15:34.815Z</time></trkpt><trkpt lat="45.7164917" lon="12.44205"><ele>9.0</ele><time>2026-04-27T09:15:39.815Z</time></trkpt><trkpt lat="45.7164783" lon="12.44193"><ele>9.0</ele><time>2026-04-27T09:15:41.815Z</time></trkpt><trkpt lat="45.7164083" lon="12.4417283"><ele>9.0</ele><time>2026-04-27T09:15:44.815Z</time></trkpt><trkpt lat="45.7163483" lon="12.44165"><ele>9.0</ele><time>2026-04-27T09:15:46.815Z</time></trkpt><trkpt lat="45.7162383" lon="12.4416783"><ele>9.0</ele><time>2026-04-27T09:15:48.815Z</time></trkpt><trkpt lat="45.7161683" lon="12.4417217"><ele>9.0</ele><time>2026-04-27T09:15:49.815Z</time></trkpt><trkpt lat="45.7160867" lon="12.4417767"><ele>9.0</ele><time>2026-04-27T09:15:50.815Z</time></trkpt><trkpt lat="45.7160017" lon="12.441835"><ele>9.0</ele><time>2026-04-27T09:15:51.815Z</time></trkpt><trkpt lat="45.7159217" lon="12.4418933"><ele>9.0</ele><time>2026-04-27T09:15:52.815Z</time></trkpt><trkpt lat="45.7158483" lon="12.4419467"><ele>9.0</ele><time>2026-04-27T09:15:53.816Z</time></trkpt><trkpt lat="45.7157783" lon="12.4420067"><ele>9.0</ele><time>2026-04-27T09:15:54.815Z</time></trkpt><trkpt lat="45.7157083" lon="12.4420767"><ele>9.0</ele><time>2026-04-27T09:15:55.815Z</time></trkpt><trkpt lat="45.71564" lon="12.442145"><ele>9.0</ele><time>2026-04-27T09:15:56.815Z</time></trkpt><trkpt lat="45.7155617" lon="12.4422117"><ele>9.0</ele><time>2026-04-27T09:15:57.815Z</time></trkpt><trkpt lat="45.7154817" lon="12.442275"><ele>9.0</ele><time>2026-04-27T09:15:58.815Z</time></trkpt><trkpt lat="45.715385" lon="12.4423317"><ele>9.0</ele><time>2026-04-27T09:15:59.815Z</time></trkpt><trkpt lat="45.71529" lon="12.4423867"><ele>8.6</ele><time>2026-04-27T09:16:00.815Z</time></trkpt><trkpt lat="45.7152033" lon="12.44244"><ele>8.2</ele><time>2026-04-27T09:16:01.815Z</time></trkpt><trkpt lat="45.715125" lon="12.4425"><ele>7.799999999999999</ele><time>2026-04-27T09:16:02.815Z</time></trkpt><trkpt lat="45.7150517" lon="12.4425633"><ele>7.3999999999999995</ele><time>2026-04-27T09:16:03.815Z</time></trkpt><trkpt lat="45.7149767" lon="12.44264"><ele>7.0</ele><time>2026-04-27T09:16:04.816Z</time></trkpt><trkpt lat="45.714905" lon="12.44272"><ele>7.0</ele><time>2026-04-27T09:16:05.815Z</time></trkpt><trkpt lat="45.71484" lon="12.4428067"><ele>6.999999999999999</ele><time>2026-04-27T09:16:06.815Z</time></trkpt><trkpt lat="45.7147833" lon="12.4429"><ele>6.999999999999999</ele><time>2026-04-27T09:16:07.816Z</time></trkpt><trkpt lat="45.7147233" lon="12.4430083"><ele>7.0</ele><time>2026-04-27T09:16:08.815Z</time></trkpt><trkpt lat="45.714675" lon="12.44313"><ele>7.0</ele><time>2026-04-27T09:16:09.815Z</time></trkpt><trkpt lat="45.7146317" lon="12.4432667"><ele>6.666666666666667</ele><time>2026-04-27T09:16:10.815Z</time></trkpt><trkpt lat="45.7145967" lon="12.4433967"><ele>6.333333333333334</ele><time>2026-04-27T09:16:11.815Z</time></trkpt><trkpt lat="45.7145667" lon="12.443515"><ele>6.0</ele><time>2026-04-27T09:16:12.815Z</time></trkpt><trkpt lat="45.7145433" lon="12.4436233"><ele>5.666666666666667</ele><time>2026-04-27T09:16:13.815Z</time></trkpt><trkpt lat="45.7145217" lon="12.4437233"><ele>5.333333333333334</ele><time>2026-04-27T09:16:14.815Z</time></trkpt><trkpt lat="45.7144917" lon="12.4438133"><ele>5.0</ele><time>2026-04-27T09:16:15.815Z</time></trkpt><trkpt lat="45.7144267" lon="12.4439433"><ele>5.333333333333334</ele><time>2026-04-27T09:16:17.815Z</time></trkpt><trkpt lat="45.7143367" lon="12.444035"><ele>5.666666666666667</ele><time>2026-04-27T09:16:19.815Z</time></trkpt><trkpt lat="45.714275" lon="12.444075"><ele>6.0</ele><time>2026-04-27T09:16:20.815Z</time></trkpt><trkpt lat="45.7142067" lon="12.4441167"><ele>6.333333333333334</ele><time>2026-04-27T09:16:21.815Z</time></trkpt><trkpt lat="45.714135" lon="12.444165"><ele>6.666666666666667</ele><time>2026-04-27T09:16:22.815Z</time></trkpt><trkpt lat="45.7140567" lon="12.44421"><ele>7.0</ele><time>2026-04-27T09:16:23.815Z</time></trkpt><trkpt lat="45.7139733" lon="12.4442533"><ele>7.000000000000001</ele><time>2026-04-27T09:16:24.815Z</time></trkpt><trkpt lat="45.7138983" lon="12.4442983"><ele>7.0</ele><time>2026-04-27T09:16:25.815Z</time></trkpt><trkpt lat="45.7138283" lon="12.4443517"><ele>7.0</ele><time>2026-04-27T09:16:26.815Z</time></trkpt><trkpt lat="45.71377" lon="12.4444183"><ele>7.0</ele><time>2026-04-27T09:16:27.815Z</time></trkpt><trkpt lat="45.713715" lon="12.4444917"><ele>7.000000000000001</ele><time>2026-04-27T09:16:28.816Z</time></trkpt><trkpt lat="45.7136567" lon="12.4446183"><ele>7.0</ele><time>2026-04-27T09:16:30.815Z</time></trkpt><trkpt lat="45.7136567" lon="12.4447317"><ele>6.833333333333334</ele><time>2026-04-27T09:16:32.815Z</time></trkpt><trkpt lat="45.71373" lon="12.4448133"><ele>6.666666666666667</ele><time>2026-04-27T09:16:34.815Z</time></trkpt><trkpt lat="45.7137983" lon="12.44486"><ele>6.5</ele><time>2026-04-27T09:16:35.815Z</time></trkpt><trkpt lat="45.71387" lon="12.4449033"><ele>6.333333333333334</ele><time>2026-04-27T09:16:36.815Z</time></trkpt><trkpt lat="45.7139367" lon="12.4449483"><ele>6.166666666666667</ele><time>2026-04-27T09:16:37.816Z</time></trkpt><trkpt lat="45.71399" lon="12.44501"><ele>6.0</ele><time>2026-04-27T09:16:38.815Z</time></trkpt><trkpt lat="45.71404" lon="12.4450733"><ele>6.0</ele><time>2026-04-27T09:16:39.815Z</time></trkpt><trkpt lat="45.7140933" lon="12.4452333"><ele>6.0</ele><time>2026-04-27T09:16:41.815Z</time></trkpt><trkpt lat="45.7140933" lon="12.4453383"><ele>6.0</ele><time>2026-04-27T09:16:42.815Z</time></trkpt><trkpt lat="45.7140867" lon="12.4454483"><ele>6.0</ele><time>2026-04-27T09:16:43.815Z</time></trkpt><trkpt lat="45.7140717" lon="12.44555"><ele>6.0</ele><time>2026-04-27T09:16:44.815Z</time></trkpt><trkpt lat="45.71404" lon="12.4456583"><ele>6.0</ele><time>2026-04-27T09:16:45.815Z</time></trkpt><trkpt lat="45.714005" lon="12.4457783"><ele>6.0</ele><time>2026-04-27T09:16:46.815Z</time></trkpt><trkpt lat="45.713965" lon="12.4459167"><ele>6.0</ele><time>2026-04-27T09:16:47.815Z</time></trkpt><trkpt lat="45.7139267" lon="12.4460617"><ele>6.0</ele><time>2026-04-27T09:16:48.815Z</time></trkpt><trkpt lat="45.713895" lon="12.4461983"><ele>6.0</ele><time>2026-04-27T09:16:49.815Z</time></trkpt><trkpt lat="45.7138683" lon="12.4463367"><ele>6.0</ele><time>2026-04-27T09:16:50.815Z</time></trkpt><trkpt lat="45.7138467" lon="12.4464583"><ele>6.0</ele><time>2026-04-27T09:16:51.815Z</time></trkpt><trkpt lat="45.7138317" lon="12.4465817"><ele>6.0</ele><time>2026-04-27T09:16:52.815Z</time></trkpt><trkpt lat="45.71381" lon="12.44671"><ele>6.0</ele><time>2026-04-27T09:16:53.815Z</time></trkpt><trkpt lat="45.7137883" lon="12.4468483"><ele>6.0</ele><time>2026-04-27T09:16:54.815Z</time></trkpt><trkpt lat="45.7137633" lon="12.4470067"><ele>6.0</ele><time>2026-04-27T09:16:55.815Z</time></trkpt><trkpt lat="45.7137367" lon="12.44717"><ele>6.0</ele><time>2026-04-27T09:16:56.816Z</time></trkpt><trkpt lat="45.7137083" lon="12.447315"><ele>6.0</ele><time>2026-04-27T09:16:57.815Z</time></trkpt><trkpt lat="45.71368" lon="12.4474617"><ele>6.0</ele><time>2026-04-27T09:16:58.815Z</time></trkpt><trkpt lat="45.7136617" lon="12.44759"><ele>6.0</ele><time>2026-04-27T09:16:59.815Z</time></trkpt><trkpt lat="45.713645" lon="12.4477217"><ele>6.0</ele><time>2026-04-27T09:17:00.816Z</time></trkpt><trkpt lat="45.7136367" lon="12.4478467"><ele>5.8</ele><time>2026-04-27T09:17:01.815Z</time></trkpt><trkpt lat="45.713625" lon="12.44797"><ele>5.6</ele><time>2026-04-27T09:17:02.815Z</time></trkpt><trkpt lat="45.7135967" lon="12.4480833"><ele>5.4</ele><time>2026-04-27T09:17:03.815Z</time></trkpt><trkpt lat="45.71356" lon="12.448215"><ele>5.2</ele><time>2026-04-27T09:17:04.815Z</time></trkpt><trkpt lat="45.71353" lon="12.4483533"><ele>5.0</ele><time>2026-04-27T09:17:05.815Z</time></trkpt><trkpt lat="45.71351" lon="12.4484983"><ele>5.0</ele><time>2026-04-27T09:17:06.815Z</time></trkpt><trkpt lat="45.71349" lon="12.44864"><ele>5.0</ele><time>2026-04-27T09:17:07.815Z</time></trkpt><trkpt lat="45.7134683" lon="12.44878"><ele>5.0</ele><time>2026-04-27T09:17:08.815Z</time></trkpt><trkpt lat="45.7134317" lon="12.4489133"><ele>5.0</ele><time>2026-04-27T09:17:09.815Z</time></trkpt><trkpt lat="45.7133833" lon="12.44903"><ele>5.0</ele><time>2026-04-27T09:17:10.815Z</time></trkpt><trkpt lat="45.7133367" lon="12.4491433"><ele>5.2</ele><time>2026-04-27T09:17:11.815Z</time></trkpt><trkpt lat="45.7132833" lon="12.4492567"><ele>5.4</ele><time>2026-04-27T09:17:12.815Z</time></trkpt><trkpt lat="45.71323" lon="12.449365"><ele>5.6</ele><time>2026-04-27T09:17:13.815Z</time></trkpt><trkpt lat="45.7131867" lon="12.4494833"><ele>5.8</ele><time>2026-04-27T09:17:14.815Z</time></trkpt><trkpt lat="45.7131383" lon="12.44961"><ele>6.0</ele><time>2026-04-27T09:17:15.815Z</time></trkpt><trkpt lat="45.71309" lon="12.4497367"><ele>6.0</ele><time>2026-04-27T09:17:16.815Z</time></trkpt><trkpt lat="45.713045" lon="12.44986"><ele>6.0</ele><time>2026-04-27T09:17:17.816Z</time></trkpt><trkpt lat="45.713" lon="12.4499867"><ele>6.0</ele><time>2026-04-27T09:17:18.815Z</time></trkpt><trkpt lat="45.7129533" lon="12.4501117"><ele>6.0</ele><time>2026-04-27T09:17:19.815Z</time></trkpt><trkpt lat="45.712905" lon="12.4502417"><ele>6.0</ele><time>2026-04-27T09:17:20.815Z</time></trkpt><trkpt lat="45.71285" lon="12.4503683"><ele>6.0</ele><time>2026-04-27T09:17:21.815Z</time></trkpt><trkpt lat="45.7128017" lon="12.4504983"><ele>6.0</ele><time>2026-04-27T09:17:22.815Z</time></trkpt><trkpt lat="45.71276" lon="12.4506267"><ele>6.0</ele><time>2026-04-27T09:17:23.815Z</time></trkpt><trkpt lat="45.71271" lon="12.450755"><ele>6.0</ele><time>2026-04-27T09:17:24.816Z</time></trkpt><trkpt lat="45.7126567" lon="12.4508733"><ele>6.0</ele><time>2026-04-27T09:17:25.815Z</time></trkpt><trkpt lat="45.7126017" lon="12.4509817"><ele>6.5</ele><time>2026-04-27T09:17:26.815Z</time></trkpt><trkpt lat="45.7125467" lon="12.45109"><ele>7.0</ele><time>2026-04-27T09:17:27.815Z</time></trkpt><trkpt lat="45.7124883" lon="12.45118"><ele>7.5</ele><time>2026-04-27T09:17:28.815Z</time></trkpt><trkpt lat="45.7124317" lon="12.45127"><ele>8.0</ele><time>2026-04-27T09:17:29.815Z</time></trkpt><trkpt lat="45.712375" lon="12.4513483"><ele>8.5</ele><time>2026-04-27T09:17:30.815Z</time></trkpt><trkpt lat="45.712325" lon="12.4514083"><ele>9.0</ele><time>2026-04-27T09:17:31.815Z</time></trkpt><trkpt lat="45.712245" lon="12.4514833"><ele>9.0</ele><time>2026-04-27T09:17:33.815Z</time></trkpt><trkpt lat="45.7121833" lon="12.4515067"><ele>9.0</ele><time>2026-04-27T09:17:35.815Z</time></trkpt><trkpt lat="45.712145" lon="12.4513767"><ele>9.0</ele><time>2026-04-27T09:17:55.815Z</time></trkpt><trkpt lat="45.71214" lon="12.4512817"><ele>9.0</ele><time>2026-04-27T09:17:56.815Z</time></trkpt><trkpt lat="45.7121367" lon="12.4511683"><ele>9.0</ele><time>2026-04-27T09:17:57.815Z</time></trkpt><trkpt lat="45.7121333" lon="12.4510433"><ele>9.0</ele><time>2026-04-27T09:17:58.815Z</time></trkpt><trkpt lat="45.7121333" lon="12.450925"><ele>9.0</ele><time>2026-04-27T09:17:59.815Z</time></trkpt><trkpt lat="45.712135" lon="12.4508167"><ele>9.0</ele><time>2026-04-27T09:18:00.815Z</time></trkpt><trkpt lat="45.712135" lon="12.4507067"><ele>9.0</ele><time>2026-04-27T09:18:01.815Z</time></trkpt><trkpt lat="45.71214" lon="12.450595"><ele>9.0</ele><time>2026-04-27T09:18:02.815Z</time></trkpt><trkpt lat="45.7121467" lon="12.4504833"><ele>9.0</ele><time>2026-04-27T09:18:03.815Z</time></trkpt><trkpt lat="45.712155" lon="12.45037"><ele>9.0</ele><time>2026-04-27T09:18:04.815Z</time></trkpt><trkpt lat="45.7121583" lon="12.4502617"><ele>8.666666666666666</ele><time>2026-04-27T09:18:05.815Z</time></trkpt><trkpt lat="45.7121517" lon="12.4501583"><ele>8.333333333333334</ele><time>2026-04-27T09:18:06.815Z</time></trkpt><trkpt lat="45.7121417" lon="12.4500583"><ele>8.0</ele><time>2026-04-27T09:18:07.815Z</time></trkpt><trkpt lat="45.71213" lon="12.4499467"><ele>7.666666666666667</ele><time>2026-04-27T09:18:08.815Z</time></trkpt><trkpt lat="45.7121267" lon="12.4498383"><ele>7.333333333333334</ele><time>2026-04-27T09:18:09.815Z</time></trkpt><trkpt lat="45.712115" lon="12.4497233"><ele>7.0</ele><time>2026-04-27T09:18:10.815Z</time></trkpt><trkpt lat="45.7121133" lon="12.449605"><ele>6.833333333333334</ele><time>2026-04-27T09:18:11.815Z</time></trkpt><trkpt lat="45.71211" lon="12.4494883"><ele>6.666666666666667</ele><time>2026-04-27T09:18:12.815Z</time></trkpt><trkpt lat="45.71211" lon="12.4493783"><ele>6.5</ele><time>2026-04-27T09:18:13.815Z</time></trkpt><trkpt lat="45.7121117" lon="12.449285"><ele>6.333333333333334</ele><time>2026-04-27T09:18:14.815Z</time></trkpt><trkpt lat="45.7121033" lon="12.449135"><ele>6.166666666666667</ele><time>2026-04-27T09:18:16.816Z</time></trkpt><trkpt lat="45.712115" lon="12.44903"><ele>6.0</ele><time>2026-04-27T09:18:18.815Z</time></trkpt><trkpt lat="45.71216" lon="12.44891"><ele>6.0</ele><time>2026-04-27T09:18:21.815Z</time></trkpt><trkpt lat="45.7121917" lon="12.4488033"><ele>6.0</ele><time>2026-04-27T09:18:23.815Z</time></trkpt><trkpt lat="45.712235" lon="12.4486217"><ele>6.0</ele><time>2026-04-27T09:18:25.815Z</time></trkpt><trkpt lat="45.71226" lon="12.4485217"><ele>6.0</ele><time>2026-04-27T09:18:26.815Z</time></trkpt><trkpt lat="45.7122817" lon="12.448405"><ele>6.0</ele><time>2026-04-27T09:18:27.815Z</time></trkpt><trkpt lat="45.71231" lon="12.4482983"><ele>5.8</ele><time>2026-04-27T09:18:28.816Z</time></trkpt><trkpt lat="45.7123483" lon="12.4481783"><ele>5.6</ele><time>2026-04-27T09:18:29.815Z</time></trkpt><trkpt lat="45.7123817" lon="12.44805"><ele>5.4</ele><time>2026-04-27T09:18:30.815Z</time></trkpt><trkpt lat="45.71241" lon="12.4479133"><ele>5.2</ele><time>2026-04-27T09:18:31.815Z</time></trkpt><trkpt lat="45.7124433" lon="12.44777"><ele>5.0</ele><time>2026-04-27T09:18:32.816Z</time></trkpt><trkpt lat="45.7124783" lon="12.4476267"><ele>5.0</ele><time>2026-04-27T09:18:33.815Z</time></trkpt><trkpt lat="45.7125183" lon="12.4474833"><ele>5.0</ele><time>2026-04-27T09:18:34.815Z</time></trkpt><trkpt lat="45.712555" lon="12.4473533"><ele>5.0</ele><time>2026-04-27T09:18:35.815Z</time></trkpt><trkpt lat="45.7125817" lon="12.4472283"><ele>5.0</ele><time>2026-04-27T09:18:36.815Z</time></trkpt><trkpt lat="45.7126017" lon="12.447095"><ele>5.0</ele><time>2026-04-27T09:18:37.815Z</time></trkpt><trkpt lat="45.7126033" lon="12.4469517"><ele>5.2</ele><time>2026-04-27T09:18:38.815Z</time></trkpt><trkpt lat="45.7125933" lon="12.4467933"><ele>5.4</ele><time>2026-04-27T09:18:39.815Z</time></trkpt><trkpt lat="45.7125633" lon="12.4466283"><ele>5.6</ele><time>2026-04-27T09:18:40.815Z</time></trkpt><trkpt lat="45.7125383" lon="12.4464717"><ele>5.8</ele><time>2026-04-27T09:18:41.815Z</time></trkpt><trkpt lat="45.7125133" lon="12.44633"><ele>6.0</ele><time>2026-04-27T09:18:42.815Z</time></trkpt><trkpt lat="45.7124783" lon="12.44622"><ele>6.166666666666667</ele><time>2026-04-27T09:18:43.815Z</time></trkpt><trkpt lat="45.7124417" lon="12.446135"><ele>6.333333333333334</ele><time>2026-04-27T09:18:44.815Z</time></trkpt><trkpt lat="45.7124017" lon="12.446065"><ele>6.5</ele><time>2026-04-27T09:18:45.816Z</time></trkpt><trkpt lat="45.7123633" lon="12.445975"><ele>6.666666666666667</ele><time>2026-04-27T09:18:46.815Z</time></trkpt><trkpt lat="45.7123317" lon="12.4458617"><ele>6.833333333333334</ele><time>2026-04-27T09:18:47.815Z</time></trkpt><trkpt lat="45.7122983" lon="12.4457367"><ele>7.0</ele><time>2026-04-27T09:18:48.815Z</time></trkpt><trkpt lat="45.7122867" lon="12.445595"><ele>7.000000000000001</ele><time>2026-04-27T09:18:49.815Z</time></trkpt><trkpt lat="45.71228" lon="12.4454517"><ele>7.0</ele><time>2026-04-27T09:18:50.815Z</time></trkpt><trkpt lat="45.7122783" lon="12.4453183"><ele>7.0</ele><time>2026-04-27T09:18:51.815Z</time></trkpt><trkpt lat="45.7122817" lon="12.4452033"><ele>7.0</ele><time>2026-04-27T09:18:52.815Z</time></trkpt><trkpt lat="45.7122833" lon="12.4451"><ele>7.000000000000001</ele><time>2026-04-27T09:18:53.815Z</time></trkpt><trkpt lat="45.71229" lon="12.4450017"><ele>7.0</ele><time>2026-04-27T09:18:54.815Z</time></trkpt><trkpt lat="45.7123267" lon="12.4448433"><ele>7.0</ele><time>2026-04-27T09:18:56.815Z</time></trkpt><trkpt lat="45.7123783" lon="12.4447217"><ele>6.999999999999999</ele><time>2026-04-27T09:18:58.815Z</time></trkpt><trkpt lat="45.7124483" lon="12.44459"><ele>6.999999999999999</ele><time>2026-04-27T09:19:00.815Z</time></trkpt><trkpt lat="45.712495" lon="12.4445083"><ele>7.0</ele><time>2026-04-27T09:19:01.816Z</time></trkpt><trkpt lat="45.71255" lon="12.4444167"><ele>7.0</ele><time>2026-04-27T09:19:02.815Z</time></trkpt><trkpt lat="45.7126133" lon="12.44432"><ele>7.0</ele><time>2026-04-27T09:19:03.815Z</time></trkpt><trkpt lat="45.7126717" lon="12.4442267"><ele>6.999999999999999</ele><time>2026-04-27T09:19:04.815Z</time></trkpt><trkpt lat="45.7127217" lon="12.4441217"><ele>6.999999999999999</ele><time>2026-04-27T09:19:05.815Z</time></trkpt><trkpt lat="45.712765" lon="12.4440033"><ele>7.0</ele><time>2026-04-27T09:19:06.815Z</time></trkpt><trkpt lat="45.7128133" lon="12.4438767"><ele>7.0</ele><time>2026-04-27T09:19:07.815Z</time></trkpt><trkpt lat="45.71286" lon="12.4437367"><ele>7.0</ele><time>2026-04-27T09:19:08.815Z</time></trkpt><trkpt lat="45.7129067" lon="12.44361"><ele>6.999999999999999</ele><time>2026-04-27T09:19:09.815Z</time></trkpt><trkpt lat="45.712955" lon="12.4434867"><ele>6.999999999999999</ele><time>2026-04-27T09:19:10.815Z</time></trkpt><trkpt lat="45.71301" lon="12.44337"><ele>7.0</ele><time>2026-04-27T09:19:11.815Z</time></trkpt><trkpt lat="45.7130667" lon="12.4432583"><ele>7.0</ele><time>2026-04-27T09:19:12.815Z</time></trkpt><trkpt lat="45.7131133" lon="12.4431483"><ele>7.0</ele><time>2026-04-27T09:19:13.815Z</time></trkpt><trkpt lat="45.713155" lon="12.4430433"><ele>6.999999999999999</ele><time>2026-04-27T09:19:14.815Z</time></trkpt><trkpt lat="45.7131883" lon="12.4429367"><ele>6.999999999999999</ele><time>2026-04-27T09:19:15.815Z</time></trkpt><trkpt lat="45.7132083" lon="12.4428083"><ele>7.0</ele><time>2026-04-27T09:19:16.815Z</time></trkpt><trkpt lat="45.71323" lon="12.4426633"><ele>7.0</ele><time>2026-04-27T09:19:17.816Z</time></trkpt><trkpt lat="45.7132433" lon="12.4425167"><ele>7.0</ele><time>2026-04-27T09:19:18.815Z</time></trkpt><trkpt lat="45.7132533" lon="12.442365"><ele>6.999999999999999</ele><time>2026-04-27T09:19:19.815Z</time></trkpt><trkpt lat="45.71326" lon="12.4422217"><ele>6.999999999999999</ele><time>2026-04-27T09:19:20.815Z</time></trkpt><trkpt lat="45.71325" lon="12.44208"><ele>7.0</ele><time>2026-04-27T09:19:21.815Z</time></trkpt><trkpt lat="45.713235" lon="12.4419367"><ele>7.0</ele><time>2026-04-27T09:19:22.815Z</time></trkpt><trkpt lat="45.7132067" lon="12.4418017"><ele>7.0</ele><time>2026-04-27T09:19:23.815Z</time></trkpt><trkpt lat="45.71317" lon="12.4416667"><ele>6.999999999999999</ele><time>2026-04-27T09:19:24.815Z</time></trkpt><trkpt lat="45.7131267" lon="12.44153"><ele>6.999999999999999</ele><time>2026-04-27T09:19:25.815Z</time></trkpt><trkpt lat="45.7130817" lon="12.4413967"><ele>7.0</ele><time>2026-04-27T09:19:26.815Z</time></trkpt><trkpt lat="45.7130333" lon="12.4412783"><ele>7.0</ele><time>2026-04-27T09:19:27.815Z</time></trkpt><trkpt lat="45.7129933" lon="12.4411583"><ele>7.000000000000001</ele><time>2026-04-27T09:19:28.815Z</time></trkpt><trkpt lat="45.71296" lon="12.4410433"><ele>7.0</ele><time>2026-04-27T09:19:29.816Z</time></trkpt><trkpt lat="45.7129333" lon="12.44093"><ele>7.0</ele><time>2026-04-27T09:19:30.816Z</time></trkpt><trkpt lat="45.7129167" lon="12.440815"><ele>7.0</ele><time>2026-04-27T09:19:31.815Z</time></trkpt><trkpt lat="45.7129017" lon="12.440695"><ele>7.000000000000001</ele><time>2026-04-27T09:19:32.815Z</time></trkpt><trkpt lat="45.7128967" lon="12.4405817"><ele>7.0</ele><time>2026-04-27T09:19:33.815Z</time></trkpt><trkpt lat="45.7128933" lon="12.4404683"><ele>7.166666666666667</ele><time>2026-04-27T09:19:34.815Z</time></trkpt><trkpt lat="45.7128917" lon="12.4403483"><ele>7.333333333333334</ele><time>2026-04-27T09:19:35.815Z</time></trkpt><trkpt lat="45.7129017" lon="12.4402267"><ele>7.5</ele><time>2026-04-27T09:19:36.815Z</time></trkpt><trkpt lat="45.71292" lon="12.4401283"><ele>7.666666666666666</ele><time>2026-04-27T09:19:37.815Z</time></trkpt><trkpt lat="45.712955" lon="12.4400417"><ele>7.833333333333333</ele><time>2026-04-27T09:19:38.815Z</time></trkpt><trkpt lat="45.7130267" lon="12.4399367"><ele>8.0</ele><time>2026-04-27T09:19:40.815Z</time></trkpt><trkpt lat="45.7131033" lon="12.4399167"><ele>8.0</ele><time>2026-04-27T09:19:42.815Z</time></trkpt><trkpt lat="45.713175" lon="12.4399567"><ele>8.0</ele><time>2026-04-27T09:19:44.815Z</time></trkpt><trkpt lat="45.7131967" lon="12.4398417"><ele>8.0</ele><time>2026-04-27T09:19:48.815Z</time></trkpt><trkpt lat="45.7131167" lon="12.4397183"><ele>8.0</ele><time>2026-04-27T09:19:50.815Z</time></trkpt><trkpt lat="45.7130367" lon="12.4395883"><ele>8.0</ele><time>2026-04-27T09:19:52.815Z</time></trkpt><trkpt lat="45.7129767" lon="12.4394617"><ele>7.833333333333333</ele><time>2026-04-27T09:19:54.815Z</time></trkpt><trkpt lat="45.7129683" lon="12.4393633"><ele>7.666666666666666</ele><time>2026-04-27T09:19:56.815Z</time></trkpt><trkpt lat="45.712985" lon="12.4392517"><ele>7.5</ele><time>2026-04-27T09:19:58.816Z</time></trkpt><trkpt lat="45.7130267" lon="12.43908"><ele>7.333333333333334</ele><time>2026-04-27T09:20:00.815Z</time></trkpt><trkpt lat="45.7130583" lon="12.438985"><ele>7.166666666666667</ele><time>2026-04-27T09:20:01.816Z</time></trkpt><trkpt lat="45.7131117" lon="12.4388883"><ele>7.0</ele><time>2026-04-27T09:20:02.815Z</time></trkpt><trkpt lat="45.713165" lon="12.4388133"><ele>6.833333333333334</ele><time>2026-04-27T09:20:03.815Z</time></trkpt><trkpt lat="45.7132233" lon="12.438755"><ele>6.666666666666667</ele><time>2026-04-27T09:20:04.815Z</time></trkpt><trkpt lat="45.7133067" lon="12.4386667"><ele>6.5</ele><time>2026-04-27T09:20:06.815Z</time></trkpt><trkpt lat="45.713375" lon="12.4386433"><ele>6.333333333333334</ele><time>2026-04-27T09:20:08.815Z</time></trkpt><trkpt lat="45.7133383" lon="12.4387333"><ele>6.166666666666667</ele><time>2026-04-27T09:20:12.815Z</time></trkpt><trkpt lat="45.713285" lon="12.43866"><ele>6.0</ele><time>2026-04-27T09:20:15.815Z</time></trkpt><trkpt lat="45.71328" lon="12.438555"><ele>6.0</ele><time>2026-04-27T09:20:18.816Z</time></trkpt><trkpt lat="45.7132833" lon="12.43843"><ele>6.0</ele><time>2026-04-27T09:20:21.815Z</time></trkpt><trkpt lat="45.71329" lon="12.4383067"><ele>6.0</ele><time>2026-04-27T09:20:23.815Z</time></trkpt><trkpt lat="45.7133017" lon="12.43815"><ele>6.0</ele><time>2026-04-27T09:20:25.815Z</time></trkpt><trkpt lat="45.71334" lon="12.4379733"><ele>6.0</ele><time>2026-04-27T09:20:27.815Z</time></trkpt><trkpt lat="45.713355" lon="12.4378817"><ele>5.666666666666667</ele><time>2026-04-27T09:20:28.815Z</time></trkpt><trkpt lat="45.713365" lon="12.437785"><ele>5.333333333333333</ele><time>2026-04-27T09:20:29.815Z</time></trkpt><trkpt lat="45.71336" lon="12.4376133"><ele>5.0</ele><time>2026-04-27T09:20:31.815Z</time></trkpt><trkpt lat="45.71338" lon="12.43749"><ele>4.666666666666666</ele><time>2026-04-27T09:20:33.815Z</time></trkpt><trkpt lat="45.713395" lon="12.4373833"><ele>4.333333333333333</ele><time>2026-04-27T09:20:35.815Z</time></trkpt><trkpt lat="45.7133683" lon="12.4372633"><ele>4.0</ele><time>2026-04-27T09:20:38.815Z</time></trkpt><trkpt lat="45.7133217" lon="12.437155"><ele>3.9999999999999996</ele><time>2026-04-27T09:20:41.815Z</time></trkpt><trkpt lat="45.7133183" lon="12.4370633"><ele>4.0</ele><time>2026-04-27T09:20:43.815Z</time></trkpt><trkpt lat="45.7133333" lon="12.43695"><ele>4.0</ele><time>2026-04-27T09:20:46.815Z</time></trkpt><trkpt lat="45.7133233" lon="12.436805"><ele>4.0</ele><time>2026-04-27T09:20:49.815Z</time></trkpt><trkpt lat="45.71333" lon="12.4366767"><ele>3.9999999999999996</ele><time>2026-04-27T09:20:51.815Z</time></trkpt><trkpt lat="45.71334" lon="12.43657"><ele>4.0</ele><time>2026-04-27T09:20:53.815Z</time></trkpt><trkpt lat="45.713325" lon="12.4364667"><ele>3.9999999999999996</ele><time>2026-04-27T09:20:56.815Z</time></trkpt><trkpt lat="45.7132817" lon="12.4363567"><ele>4.0</ele><time>2026-04-27T09:20:59.815Z</time></trkpt><trkpt lat="45.7132733" lon="12.4362417"><ele>4.0</ele><time>2026-04-27T09:21:07.815Z</time></trkpt><trkpt lat="45.7132767" lon="12.436125"><ele>4.0</ele><time>2026-04-27T09:21:10.815Z</time></trkpt><trkpt lat="45.7133" lon="12.4360233"><ele>3.9999999999999996</ele><time>2026-04-27T09:21:13.815Z</time></trkpt><trkpt lat="45.71333" lon="12.4359417"><ele>4.0</ele><time>2026-04-27T09:21:15.815Z</time></trkpt><trkpt lat="45.7133067" lon="12.4358467"><ele>3.571428571428571</ele><time>2026-04-27T09:21:18.815Z</time></trkpt><trkpt lat="45.7133217" lon="12.435755"><ele>3.1428571428571423</ele><time>2026-04-27T09:21:23.815Z</time></trkpt><trkpt lat="45.7133717" lon="12.4356767"><ele>2.714285714285714</ele><time>2026-04-27T09:21:32.815Z</time></trkpt><trkpt lat="45.7134267" lon="12.4355933"><ele>2.2857142857142856</ele><time>2026-04-27T09:21:35.815Z</time></trkpt><trkpt lat="45.7134483" lon="12.4355067"><ele>1.857142857142857</ele><time>2026-04-27T09:21:37.816Z</time></trkpt><trkpt lat="45.7134667" lon="12.4354"><ele>1.4285714285714284</ele><time>2026-04-27T09:21:40.815Z</time></trkpt><trkpt lat="45.7134967" lon="12.435285"><ele>1.0</ele><time>2026-04-27T09:21:44.815Z</time></trkpt><trkpt lat="45.71352" lon="12.4351967"><ele>0.9999999999999999</ele><time>2026-04-27T09:21:47.815Z</time></trkpt><trkpt lat="45.7135533" lon="12.4350817"><ele>1.0</ele><time>2026-04-27T09:21:51.815Z</time></trkpt><trkpt lat="45.7135683" lon="12.4349917"><ele>1.0</ele><time>2026-04-27T09:21:53.815Z</time></trkpt><trkpt lat="45.713575" lon="12.4348917"><ele>1.0</ele><time>2026-04-27T09:21:55.815Z</time></trkpt><trkpt lat="45.7135767" lon="12.4348"><ele>0.9999999999999999</ele><time>2026-04-27T09:21:57.815Z</time></trkpt><trkpt lat="45.7136183" lon="12.43467"><ele>1.0</ele><time>2026-04-27T09:22:04.815Z</time></trkpt><trkpt lat="45.71364" lon="12.4345533"><ele>2.0</ele><time>2026-04-27T09:22:07.815Z</time></trkpt><trkpt lat="45.7136833" lon="12.4344833"><ele>3.0</ele><time>2026-04-27T09:22:10.815Z</time></trkpt><trkpt lat="45.71375" lon="12.4344217"><ele>4.0</ele><time>2026-04-27T09:22:13.815Z</time></trkpt><trkpt lat="45.7138367" lon="12.4343783"><ele>5.0</ele><time>2026-04-27T09:22:15.815Z</time></trkpt><trkpt lat="45.713935" lon="12.4343317"><ele>6.000000000000001</ele><time>2026-04-27T09:22:17.815Z</time></trkpt><trkpt lat="45.7140017" lon="12.43427"><ele>7.0</ele><time>2026-04-27T09:22:19.815Z</time></trkpt><trkpt lat="45.7140333" lon="12.4341533"><ele>7.000000000000001</ele><time>2026-04-27T09:22:22.815Z</time></trkpt><trkpt lat="45.714025" lon="12.4340383"><ele>7.0</ele><time>2026-04-27T09:22:25.815Z</time></trkpt><trkpt lat="45.7140167" lon="12.4339317"><ele>7.0</ele><time>2026-04-27T09:22:28.815Z</time></trkpt><trkpt lat="45.7139917" lon="12.4338167"><ele>7.0</ele><time>2026-04-27T09:22:32.815Z</time></trkpt><trkpt lat="45.7139583" lon="12.433705"><ele>7.000000000000001</ele><time>2026-04-27T09:22:35.816Z</time></trkpt><trkpt lat="45.71399" lon="12.4336133"><ele>7.0</ele><time>2026-04-27T09:22:38.816Z</time></trkpt><trkpt lat="45.71404" lon="12.4335533"><ele>6.833333333333334</ele><time>2026-04-27T09:22:40.815Z</time></trkpt><trkpt lat="45.7140867" lon="12.4334617"><ele>6.666666666666667</ele><time>2026-04-27T09:22:43.815Z</time></trkpt><trkpt lat="45.7141283" lon="12.433365"><ele>6.5</ele><time>2026-04-27T09:22:47.816Z</time></trkpt><trkpt lat="45.7142017" lon="12.4332883"><ele>6.333333333333334</ele><time>2026-04-27T09:23:52.816Z</time></trkpt><trkpt lat="45.714265" lon="12.4332683"><ele>6.166666666666667</ele><time>2026-04-27T09:23:55.815Z</time></trkpt><trkpt lat="45.71433" lon="12.4332217"><ele>6.0</ele><time>2026-04-27T09:24:00.815Z</time></trkpt><trkpt lat="45.7143817" lon="12.4331583"><ele>6.142857142857142</ele><time>2026-04-27T09:24:02.815Z</time></trkpt><trkpt lat="45.7144467" lon="12.4331183"><ele>6.285714285714286</ele><time>2026-04-27T09:24:04.815Z</time></trkpt><trkpt lat="45.7145133" lon="12.433075"><ele>6.428571428571429</ele><time>2026-04-27T09:24:06.815Z</time></trkpt><trkpt lat="45.71457" lon="12.4330183"><ele>6.571428571428571</ele><time>2026-04-27T09:24:08.815Z</time></trkpt><trkpt lat="45.7146133" lon="12.43294"><ele>6.714285714285714</ele><time>2026-04-27T09:24:10.815Z</time></trkpt><trkpt lat="45.714655" lon="12.4328467"><ele>6.857142857142857</ele><time>2026-04-27T09:24:13.815Z</time></trkpt><trkpt lat="45.7146933" lon="12.432775"><ele>7.0</ele><time>2026-04-27T09:24:15.815Z</time></trkpt><trkpt lat="45.7147617" lon="12.4327117"><ele>7.000000000000001</ele><time>2026-04-27T09:24:19.815Z</time></trkpt><trkpt lat="45.7148033" lon="12.4326433"><ele>7.0</ele><time>2026-04-27T09:24:23.815Z</time></trkpt><trkpt lat="45.71488" lon="12.432615"><ele>7.0</ele><time>2026-04-27T09:24:26.815Z</time></trkpt><trkpt lat="45.7149517" lon="12.4325867"><ele>7.0</ele><time>2026-04-27T09:24:28.815Z</time></trkpt><trkpt lat="45.7150167" lon="12.4325067"><ele>7.000000000000001</ele><time>2026-04-27T09:24:30.815Z</time></trkpt><trkpt lat="45.71505" lon="12.4324283"><ele>7.0</ele><time>2026-04-27T09:24:31.815Z</time></trkpt><trkpt lat="45.7150867" lon="12.43231"><ele>7.0</ele><time>2026-04-27T09:24:32.815Z</time></trkpt><trkpt lat="45.71511" lon="12.4321517"><ele>7.0</ele><time>2026-04-27T09:24:33.815Z</time></trkpt><trkpt lat="45.7151317" lon="12.43195"><ele>7.0</ele><time>2026-04-27T09:24:34.815Z</time></trkpt><trkpt lat="45.7151533" lon="12.4317317"><ele>7.0</ele><time>2026-04-27T09:24:35.815Z</time></trkpt><trkpt lat="45.7151817" lon="12.4315267"><ele>6.75</ele><time>2026-04-27T09:24:36.815Z</time></trkpt><trkpt lat="45.715215" lon="12.43133"><ele>6.5</ele><time>2026-04-27T09:24:37.815Z</time></trkpt><trkpt lat="45.715245" lon="12.431135"><ele>6.25</ele><time>2026-04-27T09:24:38.815Z</time></trkpt><trkpt lat="45.71528" lon="12.4309617"><ele>6.0</ele><time>2026-04-27T09:24:39.815Z</time></trkpt><trkpt lat="45.7153117" lon="12.4308033"><ele>6.0</ele><time>2026-04-27T09:24:40.815Z</time></trkpt><trkpt lat="45.715335" lon="12.4306517"><ele>6.0</ele><time>2026-04-27T09:24:41.815Z</time></trkpt><trkpt lat="45.7153467" lon="12.430485"><ele>6.0</ele><time>2026-04-27T09:24:42.815Z</time></trkpt><trkpt lat="45.7153633" lon="12.4303133"><ele>6.0</ele><time>2026-04-27T09:24:43.815Z</time></trkpt><trkpt lat="45.715385" lon="12.4301667"><ele>6.4</ele><time>2026-04-27T09:24:44.815Z</time></trkpt><trkpt lat="45.71542" lon="12.4300233"><ele>6.8</ele><time>2026-04-27T09:24:45.815Z</time></trkpt><trkpt lat="45.7154817" lon="12.42989"><ele>7.200000000000001</ele><time>2026-04-27T09:24:46.815Z</time></trkpt><trkpt lat="45.71555" lon="12.429755"><ele>7.6000000000000005</ele><time>2026-04-27T09:24:47.815Z</time></trkpt><trkpt lat="45.715635" lon="12.429645"><ele>8.0</ele><time>2026-04-27T09:24:48.815Z</time></trkpt><trkpt lat="45.71572" lon="12.4295567"><ele>8.0</ele><time>2026-04-27T09:24:49.815Z</time></trkpt><trkpt lat="45.715805" lon="12.429475"><ele>8.0</ele><time>2026-04-27T09:24:50.815Z</time></trkpt><trkpt lat="45.7158817" lon="12.4293967"><ele>8.0</ele><time>2026-04-27T09:24:51.815Z</time></trkpt><trkpt lat="45.7159533" lon="12.429315"><ele>8.0</ele><time>2026-04-27T09:24:52.815Z</time></trkpt><trkpt lat="45.7160283" lon="12.4292333"><ele>8.0</ele><time>2026-04-27T09:24:53.815Z</time></trkpt><trkpt lat="45.7161" lon="12.4291567"><ele>8.0</ele><time>2026-04-27T09:24:54.815Z</time></trkpt><trkpt lat="45.7161683" lon="12.4291017"><ele>8.0</ele><time>2026-04-27T09:24:55.815Z</time></trkpt><trkpt lat="45.7162433" lon="12.4290567"><ele>8.0</ele><time>2026-04-27T09:24:56.815Z</time></trkpt><trkpt lat="45.7163317" lon="12.429015"><ele>8.0</ele><time>2026-04-27T09:24:57.815Z</time></trkpt><trkpt lat="45.7164267" lon="12.4289817"><ele>8.0</ele><time>2026-04-27T09:24:58.815Z</time></trkpt><trkpt lat="45.7165267" lon="12.4289383"><ele>8.0</ele><time>2026-04-27T09:24:59.815Z</time></trkpt><trkpt lat="45.71663" lon="12.4288933"><ele>8.0</ele><time>2026-04-27T09:25:00.815Z</time></trkpt><trkpt lat="45.7167283" lon="12.4288333"><ele>8.0</ele><time>2026-04-27T09:25:01.815Z</time></trkpt><trkpt lat="45.7168267" lon="12.4287717"><ele>8.0</ele><time>2026-04-27T09:25:02.815Z</time></trkpt><trkpt lat="45.7169367" lon="12.428715"><ele>8.0</ele><time>2026-04-27T09:25:03.815Z</time></trkpt><trkpt lat="45.71705" lon="12.4286583"><ele>8.8</ele><time>2026-04-27T09:25:04.816Z</time></trkpt><trkpt lat="45.7171583" lon="12.4285933"><ele>9.600000000000001</ele><time>2026-04-27T09:25:05.815Z</time></trkpt><trkpt lat="45.7172583" lon="12.428525"><ele>10.399999999999999</ele><time>2026-04-27T09:25:06.816Z</time></trkpt><trkpt lat="45.717355" lon="12.42845"><ele>11.2</ele><time>2026-04-27T09:25:07.815Z</time></trkpt><trkpt lat="45.7174467" lon="12.428395"><ele>12.0</ele><time>2026-04-27T09:25:08.815Z</time></trkpt><trkpt lat="45.7175217" lon="12.42835"><ele>11.999999999999998</ele><time>2026-04-27T09:25:09.815Z</time></trkpt><trkpt lat="45.7175933" lon="12.4283133"><ele>12.0</ele><time>2026-04-27T09:25:10.815Z</time></trkpt><trkpt lat="45.7176633" lon="12.4282833"><ele>12.0</ele><time>2026-04-27T09:25:11.815Z</time></trkpt><trkpt lat="45.7177317" lon="12.42828"><ele>12.0</ele><time>2026-04-27T09:25:12.815Z</time></trkpt><trkpt lat="45.717795" lon="12.4283033"><ele>12.0</ele><time>2026-04-27T09:25:13.815Z</time></trkpt><trkpt lat="45.7178633" lon="12.428345"><ele>11.999999999999998</ele><time>2026-04-27T09:25:14.816Z</time></trkpt><trkpt lat="45.7179283" lon="12.4283683"><ele>12.0</ele><time>2026-04-27T09:25:15.815Z</time></trkpt><trkpt lat="45.718045" lon="12.4283633"><ele>12.166666666666666</ele><time>2026-04-27T09:25:17.816Z</time></trkpt><trkpt lat="45.71813" lon="12.428315"><ele>12.333333333333332</ele><time>2026-04-27T09:25:19.815Z</time></trkpt><trkpt lat="45.7181733" lon="12.4282483"><ele>12.5</ele><time>2026-04-27T09:25:20.815Z</time></trkpt><trkpt lat="45.7182217" lon="12.4281617"><ele>12.666666666666666</ele><time>2026-04-27T09:25:21.816Z</time></trkpt><trkpt lat="45.718265" lon="12.42806"><ele>12.833333333333332</ele><time>2026-04-27T09:25:22.815Z</time></trkpt><trkpt lat="45.7183083" lon="12.4279767"><ele>13.0</ele><time>2026-04-27T09:25:23.815Z</time></trkpt><trkpt lat="45.7183667" lon="12.4279017"><ele>13.0</ele><time>2026-04-27T09:25:24.815Z</time></trkpt><trkpt lat="45.7184433" lon="12.42783"><ele>13.0</ele><time>2026-04-27T09:25:25.816Z</time></trkpt><trkpt lat="45.7185433" lon="12.427755"><ele>13.0</ele><time>2026-04-27T09:25:26.815Z</time></trkpt><trkpt lat="45.7186433" lon="12.42769"><ele>13.0</ele><time>2026-04-27T09:25:27.815Z</time></trkpt><trkpt lat="45.71874" lon="12.4276233"><ele>13.0</ele><time>2026-04-27T09:25:28.815Z</time></trkpt><trkpt lat="45.7188433" lon="12.427555"><ele>12.600000000000001</ele><time>2026-04-27T09:25:29.815Z</time></trkpt><trkpt lat="45.7189567" lon="12.4274733"><ele>12.200000000000001</ele><time>2026-04-27T09:25:30.815Z</time></trkpt><trkpt lat="45.7190583" lon="12.4273833"><ele>11.8</ele><time>2026-04-27T09:25:31.816Z</time></trkpt><trkpt lat="45.7191467" lon="12.4273133"><ele>11.4</ele><time>2026-04-27T09:25:32.815Z</time></trkpt><trkpt lat="45.7192233" lon="12.4272317"><ele>11.0</ele><time>2026-04-27T09:25:33.815Z</time></trkpt><trkpt lat="45.7193017" lon="12.4271417"><ele>11.0</ele><time>2026-04-27T09:25:34.815Z</time></trkpt><trkpt lat="45.719385" lon="12.4270283"><ele>11.0</ele><time>2026-04-27T09:25:35.815Z</time></trkpt><trkpt lat="45.7194583" lon="12.4269167"><ele>11.0</ele><time>2026-04-27T09:25:36.815Z</time></trkpt><trkpt lat="45.7195283" lon="12.426805"><ele>11.0</ele><time>2026-04-27T09:25:37.815Z</time></trkpt><trkpt lat="45.7195983" lon="12.4266933"><ele>11.0</ele><time>2026-04-27T09:25:38.815Z</time></trkpt><trkpt lat="45.7196733" lon="12.426565"><ele>11.0</ele><time>2026-04-27T09:25:39.815Z</time></trkpt><trkpt lat="45.7197533" lon="12.4264317"><ele>11.0</ele><time>2026-04-27T09:25:40.816Z</time></trkpt><trkpt lat="45.7198333" lon="12.42629"><ele>11.0</ele><time>2026-04-27T09:25:41.816Z</time></trkpt><trkpt lat="45.719915" lon="12.426145"><ele>11.0</ele><time>2026-04-27T09:25:42.815Z</time></trkpt><trkpt lat="45.71999" lon="12.4260117"><ele>11.0</ele><time>2026-04-27T09:25:43.815Z</time></trkpt><trkpt lat="45.7200733" lon="12.425885"><ele>11.0</ele><time>2026-04-27T09:25:44.815Z</time></trkpt><trkpt lat="45.720155" lon="12.4257533"><ele>11.0</ele><time>2026-04-27T09:25:45.815Z</time></trkpt><trkpt lat="45.7202417" lon="12.4256267"><ele>11.0</ele><time>2026-04-27T09:25:46.815Z</time></trkpt><trkpt lat="45.7203233" lon="12.4255067"><ele>11.0</ele><time>2026-04-27T09:25:47.815Z</time></trkpt><trkpt lat="45.720395" lon="12.425395"><ele>11.0</ele><time>2026-04-27T09:25:48.815Z</time></trkpt><trkpt lat="45.72046" lon="12.42529"><ele>11.0</ele><time>2026-04-27T09:25:49.816Z</time></trkpt><trkpt lat="45.72052" lon="12.4251933"><ele>11.0</ele><time>2026-04-27T09:25:50.815Z</time></trkpt><trkpt lat="45.7205717" lon="12.42512"><ele>11.0</ele><time>2026-04-27T09:25:51.816Z</time></trkpt><trkpt lat="45.7206267" lon="12.425065"><ele>11.0</ele><time>2026-04-27T09:25:52.815Z</time></trkpt><trkpt lat="45.7206817" lon="12.4250183"><ele>11.0</ele><time>2026-04-27T09:25:53.816Z</time></trkpt><trkpt lat="45.7207767" lon="12.4249617"><ele>11.0</ele><time>2026-04-27T09:25:55.816Z</time></trkpt><trkpt lat="45.7207083" lon="12.4250517"><ele>11.0</ele><time>2026-04-27T09:26:01.815Z</time></trkpt><trkpt lat="45.7206167" lon="12.425135"><ele>11.0</ele><time>2026-04-27T09:26:03.815Z</time></trkpt><trkpt lat="45.720555" lon="12.4252"><ele>11.0</ele><time>2026-04-27T09:26:05.815Z</time></trkpt><trkpt lat="45.720495" lon="12.4252833"><ele>11.0</ele><time>2026-04-27T09:26:08.815Z</time></trkpt><trkpt lat="45.7204317" lon="12.42523"><ele>11.0</ele><time>2026-04-27T09:26:11.815Z</time></trkpt><trkpt lat="45.720415" lon="12.425095"><ele>11.0</ele><time>2026-04-27T09:26:13.815Z</time></trkpt><trkpt lat="45.72046" lon="12.424945"><ele>11.0</ele><time>2026-04-27T09:26:15.815Z</time></trkpt><trkpt lat="45.7205183" lon="12.4248183"><ele>11.0</ele><time>2026-04-27T09:26:17.815Z</time></trkpt><trkpt lat="45.7205633" lon="12.4247217"><ele>10.5</ele><time>2026-04-27T09:26:19.815Z</time></trkpt><trkpt lat="45.720655" lon="12.4246333"><ele>10.0</ele><time>2026-04-27T09:26:33.815Z</time></trkpt><trkpt lat="45.7207133" lon="12.424575"><ele>9.5</ele><time>2026-04-27T09:26:34.815Z</time></trkpt><trkpt lat="45.7207767" lon="12.4245183"><ele>9.0</ele><time>2026-04-27T09:26:35.815Z</time></trkpt><trkpt lat="45.7208417" lon="12.4244533"><ele>8.5</ele><time>2026-04-27T09:26:36.815Z</time></trkpt><trkpt lat="45.7208983" lon="12.4243833"><ele>8.0</ele><time>2026-04-27T09:26:37.815Z</time></trkpt><trkpt lat="45.7209567" lon="12.4243217"><ele>7.999999999999999</ele><time>2026-04-27T09:26:38.815Z</time></trkpt><trkpt lat="45.721055" lon="12.4242233"><ele>8.0</ele><time>2026-04-27T09:26:40.815Z</time></trkpt><trkpt lat="45.7211083" lon="12.4241667"><ele>8.0</ele><time>2026-04-27T09:26:41.815Z</time></trkpt><trkpt lat="45.7211583" lon="12.4241"><ele>8.0</ele><time>2026-04-27T09:26:42.815Z</time></trkpt><trkpt lat="45.721215" lon="12.424035"><ele>7.999999999999999</ele><time>2026-04-27T09:26:43.815Z</time></trkpt><trkpt lat="45.7212917" lon="12.4239267"><ele>8.0</ele><time>2026-04-27T09:26:45.815Z</time></trkpt><trkpt lat="45.7213383" lon="12.4238533"><ele>7.999999999999999</ele><time>2026-04-27T09:26:47.815Z</time></trkpt><trkpt lat="45.7213283" lon="12.42398"><ele>8.0</ele><time>2026-04-27T09:27:30.815Z</time></trkpt><trkpt lat="45.7212583" lon="12.4240417"><ele>8.0</ele><time>2026-04-27T09:27:31.815Z</time></trkpt><trkpt lat="45.7211883" lon="12.4241083"><ele>8.0</ele><time>2026-04-27T09:27:32.815Z</time></trkpt><trkpt lat="45.7211117" lon="12.4241783"><ele>7.999999999999999</ele><time>2026-04-27T09:27:33.815Z</time></trkpt><trkpt lat="45.7210517" lon="12.4242483"><ele>8.0</ele><time>2026-04-27T09:27:34.815Z</time></trkpt><trkpt lat="45.720995" lon="12.424315"><ele>7.999999999999999</ele><time>2026-04-27T09:27:35.815Z</time></trkpt><trkpt lat="45.7209317" lon="12.424385"><ele>8.0</ele><time>2026-04-27T09:27:36.815Z</time></trkpt><trkpt lat="45.7208683" lon="12.4244533"><ele>8.0</ele><time>2026-04-27T09:27:37.815Z</time></trkpt><trkpt lat="45.7208033" lon="12.4245183"><ele>8.0</ele><time>2026-04-27T09:27:38.815Z</time></trkpt><trkpt lat="45.72074" lon="12.42458"><ele>7.999999999999999</ele><time>2026-04-27T09:27:39.815Z</time></trkpt><trkpt lat="45.72068" lon="12.42464"><ele>8.0</ele><time>2026-04-27T09:27:40.815Z</time></trkpt><trkpt lat="45.720615" lon="12.4247067"><ele>8.5</ele><time>2026-04-27T09:27:41.815Z</time></trkpt><trkpt lat="45.72056" lon="12.4247867"><ele>9.0</ele><time>2026-04-27T09:27:42.815Z</time></trkpt><trkpt lat="45.7205067" lon="12.424875"><ele>9.5</ele><time>2026-04-27T09:27:43.815Z</time></trkpt><trkpt lat="45.72046" lon="12.4249733"><ele>10.0</ele><time>2026-04-27T09:27:44.815Z</time></trkpt><trkpt lat="45.7204267" lon="12.4250683"><ele>10.5</ele><time>2026-04-27T09:27:45.815Z</time></trkpt><trkpt lat="45.7204167" lon="12.4251983"><ele>11.0</ele><time>2026-04-27T09:27:47.816Z</time></trkpt><trkpt lat="45.7204367" lon="12.4253"><ele>11.0</ele><time>2026-04-27T09:27:49.815Z</time></trkpt><trkpt lat="45.720405" lon="12.4254283"><ele>11.0</ele><time>2026-04-27T09:27:51.815Z</time></trkpt><trkpt lat="45.7203617" lon="12.42552"><ele>11.0</ele><time>2026-04-27T09:27:52.815Z</time></trkpt><trkpt lat="45.7202967" lon="12.425625"><ele>11.0</ele><time>2026-04-27T09:27:53.815Z</time></trkpt><trkpt lat="45.72021" lon="12.4257417"><ele>11.0</ele><time>2026-04-27T09:27:54.815Z</time></trkpt><trkpt lat="45.7201067" lon="12.425885"><ele>11.0</ele><time>2026-04-27T09:27:55.815Z</time></trkpt><trkpt lat="45.7200183" lon="12.4260167"><ele>11.0</ele><time>2026-04-27T09:27:56.815Z</time></trkpt><trkpt lat="45.7199367" lon="12.4261583"><ele>11.0</ele><time>2026-04-27T09:27:57.815Z</time></trkpt><trkpt lat="45.7198667" lon="12.4262867"><ele>11.0</ele><time>2026-04-27T09:27:58.815Z</time></trkpt><trkpt lat="45.7197933" lon="12.4264"><ele>10.4</ele><time>2026-04-27T09:27:59.815Z</time></trkpt><trkpt lat="45.7197267" lon="12.42651"><ele>9.8</ele><time>2026-04-27T09:28:00.815Z</time></trkpt><trkpt lat="45.7196533" lon="12.4266267"><ele>9.200000000000001</ele><time>2026-04-27T09:28:01.815Z</time></trkpt><trkpt lat="45.7195783" lon="12.4267467"><ele>8.600000000000001</ele><time>2026-04-27T09:28:02.816Z</time></trkpt><trkpt lat="45.7195033" lon="12.4268683"><ele>8.0</ele><time>2026-04-27T09:28:03.815Z</time></trkpt><trkpt lat="45.7194267" lon="12.426985"><ele>8.4</ele><time>2026-04-27T09:28:04.815Z</time></trkpt><trkpt lat="45.7193533" lon="12.4270933"><ele>8.8</ele><time>2026-04-27T09:28:05.815Z</time></trkpt><trkpt lat="45.7192833" lon="12.4271867"><ele>9.2</ele><time>2026-04-27T09:28:06.815Z</time></trkpt><trkpt lat="45.7192033" lon="12.4272767"><ele>9.6</ele><time>2026-04-27T09:28:07.815Z</time></trkpt><trkpt lat="45.7191117" lon="12.4273683"><ele>10.0</ele><time>2026-04-27T09:28:08.815Z</time></trkpt><trkpt lat="45.7190067" lon="12.42745"><ele>10.0</ele><time>2026-04-27T09:28:09.815Z</time></trkpt><trkpt lat="45.7189083" lon="12.4275367"><ele>10.0</ele><time>2026-04-27T09:28:10.816Z</time></trkpt><trkpt lat="45.718805" lon="12.4276083"><ele>10.0</ele><time>2026-04-27T09:28:11.815Z</time></trkpt><trkpt lat="45.7187083" lon="12.42766"><ele>10.0</ele><time>2026-04-27T09:28:12.815Z</time></trkpt><trkpt lat="45.7186183" lon="12.42772"><ele>10.0</ele><time>2026-04-27T09:28:13.815Z</time></trkpt><trkpt lat="45.7185333" lon="12.4277833"><ele>10.0</ele><time>2026-04-27T09:28:14.815Z</time></trkpt><trkpt lat="45.7184483" lon="12.42786"><ele>10.0</ele><time>2026-04-27T09:28:15.815Z</time></trkpt><trkpt lat="45.7183717" lon="12.42794"><ele>10.0</ele><time>2026-04-27T09:28:16.815Z</time></trkpt><trkpt lat="45.718305" lon="12.42802"><ele>10.0</ele><time>2026-04-27T09:28:17.815Z</time></trkpt><trkpt lat="45.7182533" lon="12.4280933"><ele>10.0</ele><time>2026-04-27T09:28:18.815Z</time></trkpt><trkpt lat="45.7182133" lon="12.4281733"><ele>10.0</ele><time>2026-04-27T09:28:19.815Z</time></trkpt><trkpt lat="45.7181833" lon="12.4282583"><ele>10.0</ele><time>2026-04-27T09:28:20.815Z</time></trkpt><trkpt lat="45.71812" lon="12.4283667"><ele>10.0</ele><time>2026-04-27T09:28:22.816Z</time></trkpt><trkpt lat="45.718" lon="12.42839"><ele>10.0</ele><time>2026-04-27T09:28:24.815Z</time></trkpt><trkpt lat="45.7179083" lon="12.428365"><ele>10.0</ele><time>2026-04-27T09:28:25.815Z</time></trkpt><trkpt lat="45.71782" lon="12.428325"><ele>10.0</ele><time>2026-04-27T09:28:26.815Z</time></trkpt><trkpt lat="45.71773" lon="12.4283017"><ele>10.4</ele><time>2026-04-27T09:28:27.816Z</time></trkpt><trkpt lat="45.7176367" lon="12.4283067"><ele>10.8</ele><time>2026-04-27T09:28:28.815Z</time></trkpt><trkpt lat="45.71754" lon="12.4283417"><ele>11.2</ele><time>2026-04-27T09:28:29.816Z</time></trkpt><trkpt lat="45.7174333" lon="12.4284083"><ele>11.6</ele><time>2026-04-27T09:28:30.815Z</time></trkpt><trkpt lat="45.7173183" lon="12.4284967"><ele>12.0</ele><time>2026-04-27T09:28:31.815Z</time></trkpt><trkpt lat="45.7172033" lon="12.4285817"><ele>12.0</ele><time>2026-04-27T09:28:32.815Z</time></trkpt><trkpt lat="45.7170917" lon="12.42865"><ele>12.0</ele><time>2026-04-27T09:28:33.815Z</time></trkpt><trkpt lat="45.7169717" lon="12.428715"><ele>12.0</ele><time>2026-04-27T09:28:34.815Z</time></trkpt><trkpt lat="45.7168617" lon="12.4287783"><ele>12.0</ele><time>2026-04-27T09:28:35.816Z</time></trkpt><trkpt lat="45.7167617" lon="12.42884"><ele>11.333333333333334</ele><time>2026-04-27T09:28:36.815Z</time></trkpt><trkpt lat="45.71667" lon="12.4288967"><ele>10.666666666666666</ele><time>2026-04-27T09:28:37.815Z</time></trkpt><trkpt lat="45.7165867" lon="12.4289467"><ele>10.0</ele><time>2026-04-27T09:28:38.815Z</time></trkpt><trkpt lat="45.7165033" lon="12.4289783"><ele>9.333333333333332</ele><time>2026-04-27T09:28:39.815Z</time></trkpt><trkpt lat="45.7164217" lon="12.4290017"><ele>8.666666666666666</ele><time>2026-04-27T09:28:40.815Z</time></trkpt><trkpt lat="45.7163383" lon="12.4290233"><ele>8.0</ele><time>2026-04-27T09:28:41.816Z</time></trkpt><trkpt lat="45.71626" lon="12.429055"><ele>7.999999999999999</ele><time>2026-04-27T09:28:42.815Z</time></trkpt><trkpt lat="45.7161933" lon="12.4290917"><ele>8.0</ele><time>2026-04-27T09:28:43.815Z</time></trkpt><trkpt lat="45.7161267" lon="12.4291467"><ele>8.0</ele><time>2026-04-27T09:28:44.815Z</time></trkpt><trkpt lat="45.71606" lon="12.4292183"><ele>8.0</ele><time>2026-04-27T09:28:45.815Z</time></trkpt><trkpt lat="45.7159933" lon="12.4292933"><ele>7.999999999999999</ele><time>2026-04-27T09:28:46.815Z</time></trkpt><trkpt lat="45.715925" lon="12.429365"><ele>8.0</ele><time>2026-04-27T09:28:47.816Z</time></trkpt><trkpt lat="45.71586" lon="12.4294283"><ele>8.0</ele><time>2026-04-27T09:28:48.815Z</time></trkpt><trkpt lat="45.715785" lon="12.4295017"><ele>8.0</ele><time>2026-04-27T09:28:49.815Z</time></trkpt><trkpt lat="45.715705" lon="12.42959"><ele>8.0</ele><time>2026-04-27T09:28:50.815Z</time></trkpt><trkpt lat="45.7156267" lon="12.4296883"><ele>8.0</ele><time>2026-04-27T09:28:51.815Z</time></trkpt><trkpt lat="45.7155617" lon="12.4297883"><ele>8.0</ele><time>2026-04-27T09:28:52.815Z</time></trkpt><trkpt lat="45.7155083" lon="12.429895"><ele>8.0</ele><time>2026-04-27T09:28:53.815Z</time></trkpt><trkpt lat="45.7154517" lon="12.4300067"><ele>8.0</ele><time>2026-04-27T09:28:54.815Z</time></trkpt><trkpt lat="45.7154017" lon="12.4301217"><ele>8.0</ele><time>2026-04-27T09:28:55.816Z</time></trkpt><trkpt lat="45.7153633" lon="12.4302383"><ele>8.0</ele><time>2026-04-27T09:28:56.815Z</time></trkpt><trkpt lat="45.7153467" lon="12.430355"><ele>8.0</ele><time>2026-04-27T09:28:57.815Z</time></trkpt><trkpt lat="45.71533" lon="12.430485"><ele>8.0</ele><time>2026-04-27T09:28:58.815Z</time></trkpt><trkpt lat="45.7153167" lon="12.430625"><ele>8.0</ele><time>2026-04-27T09:28:59.815Z</time></trkpt><trkpt lat="45.7153017" lon="12.4307683"><ele>8.0</ele><time>2026-04-27T09:29:00.815Z</time></trkpt><trkpt lat="45.7152833" lon="12.4309067"><ele>8.0</ele><time>2026-04-27T09:29:01.815Z</time></trkpt><trkpt lat="45.7152567" lon="12.4310583"><ele>8.0</ele><time>2026-04-27T09:29:02.815Z</time></trkpt><trkpt lat="45.71523" lon="12.431215"><ele>7.4</ele><time>2026-04-27T09:29:03.815Z</time></trkpt><trkpt lat="45.7152083" lon="12.4313667"><ele>6.800000000000001</ele><time>2026-04-27T09:29:04.815Z</time></trkpt><trkpt lat="45.715185" lon="12.4315067"><ele>6.2</ele><time>2026-04-27T09:29:05.815Z</time></trkpt><trkpt lat="45.715165" lon="12.4316267"><ele>5.6</ele><time>2026-04-27T09:29:06.815Z</time></trkpt><trkpt lat="45.71515" lon="12.4317383"><ele>5.0</ele><time>2026-04-27T09:29:07.815Z</time></trkpt><trkpt lat="45.7151317" lon="12.4318433"><ele>5.0</ele><time>2026-04-27T09:29:08.815Z</time></trkpt><trkpt lat="45.71512" lon="12.4319467"><ele>5.0</ele><time>2026-04-27T09:29:09.815Z</time></trkpt><trkpt lat="45.7151117" lon="12.4320583"><ele>5.0</ele><time>2026-04-27T09:29:10.815Z</time></trkpt><trkpt lat="45.7150983" lon="12.432165"><ele>5.0</ele><time>2026-04-27T09:29:11.815Z</time></trkpt><trkpt lat="45.7150967" lon="12.4322767"><ele>5.0</ele><time>2026-04-27T09:29:12.815Z</time></trkpt><trkpt lat="45.7150867" lon="12.4323767"><ele>5.0</ele><time>2026-04-27T09:29:13.815Z</time></trkpt><trkpt lat="45.715065" lon="12.4325233"><ele>5.333333333333334</ele><time>2026-04-27T09:29:15.816Z</time></trkpt><trkpt lat="45.7150583" lon="12.4326233"><ele>5.666666666666667</ele><time>2026-04-27T09:29:17.815Z</time></trkpt><trkpt lat="45.7151033" lon="12.4327167"><ele>6.0</ele><time>2026-04-27T09:29:19.815Z</time></trkpt><trkpt lat="45.7151467" lon="12.4328417"><ele>6.333333333333334</ele><time>2026-04-27T09:29:21.815Z</time></trkpt><trkpt lat="45.7151067" lon="12.4327017"><ele>6.666666666666667</ele><time>2026-04-27T09:29:40.815Z</time></trkpt><trkpt lat="45.7150733" lon="12.43259"><ele>7.0</ele><time>2026-04-27T09:29:42.815Z</time></trkpt><trkpt lat="45.7150133" lon="12.4325483"><ele>7.0</ele><time>2026-04-27T09:29:45.815Z</time></trkpt><trkpt lat="45.714935" lon="12.43258"><ele>7.0</ele><time>2026-04-27T09:29:48.815Z</time></trkpt><trkpt lat="45.71486" lon="12.43259"><ele>7.0</ele><time>2026-04-27T09:29:56.816Z</time></trkpt><trkpt lat="45.7148083" lon="12.4326483"><ele>7.0</ele><time>2026-04-27T09:30:01.816Z</time></trkpt><trkpt lat="45.714775" lon="12.432725"><ele>7.0</ele><time>2026-04-27T09:30:03.815Z</time></trkpt><trkpt lat="45.7147233" lon="12.4327867"><ele>7.0</ele><time>2026-04-27T09:30:05.815Z</time></trkpt><trkpt lat="45.714675" lon="12.4328717"><ele>7.0</ele><time>2026-04-27T09:30:08.815Z</time></trkpt><trkpt lat="45.7146417" lon="12.4329933"><ele>7.0</ele><time>2026-04-27T09:30:11.815Z</time></trkpt><trkpt lat="45.7145817" lon="12.4330433"><ele>7.0</ele><time>2026-04-27T09:30:13.815Z</time></trkpt><trkpt lat="45.7145233" lon="12.4330933"><ele>7.0</ele><time>2026-04-27T09:30:16.815Z</time></trkpt><trkpt lat="45.7144583" lon="12.4331867"><ele>7.0</ele><time>2026-04-27T09:30:19.815Z</time></trkpt><trkpt lat="45.71439" lon="12.433235"><ele>7.0</ele><time>2026-04-27T09:30:28.815Z</time></trkpt><trkpt lat="45.7143217" lon="12.433245"><ele>7.0</ele><time>2026-04-27T09:30:31.815Z</time></trkpt><trkpt lat="45.714255" lon="12.4332933"><ele>7.0</ele><time>2026-04-27T09:30:33.815Z</time></trkpt><trkpt lat="45.7142033" lon="12.4333783"><ele>7.000000000000001</ele><time>2026-04-27T09:30:35.816Z</time></trkpt><trkpt lat="45.71413" lon="12.4334383"><ele>7.0</ele><time>2026-04-27T09:30:37.815Z</time></trkpt><trkpt lat="45.714055" lon="12.4334933"><ele>7.0</ele><time>2026-04-27T09:30:39.815Z</time></trkpt><trkpt lat="45.7140183" lon="12.43359"><ele>7.0</ele><time>2026-04-27T09:30:42.815Z</time></trkpt><trkpt lat="45.7140533" lon="12.4336883"><ele>7.000000000000001</ele><time>2026-04-27T09:30:45.815Z</time></trkpt><trkpt lat="45.71406" lon="12.43379"><ele>7.0</ele><time>2026-04-27T09:30:49.815Z</time></trkpt><trkpt lat="45.7140767" lon="12.4338883"><ele>7.000000000000001</ele><time>2026-04-27T09:30:54.815Z</time></trkpt><trkpt lat="45.71407" lon="12.434015"><ele>7.0</ele><time>2026-04-27T09:30:57.815Z</time></trkpt><trkpt lat="45.7140033" lon="12.4341183"><ele>7.0</ele><time>2026-04-27T09:31:00.815Z</time></trkpt><trkpt lat="45.71395" lon="12.43417"><ele>7.0</ele><time>2026-04-27T09:31:02.815Z</time></trkpt><trkpt lat="45.71388" lon="12.4342333"><ele>7.000000000000001</ele><time>2026-04-27T09:31:05.815Z</time></trkpt><trkpt lat="45.7138383" lon="12.4343067"><ele>7.0</ele><time>2026-04-27T09:31:07.815Z</time></trkpt><trkpt lat="45.7138083" lon="12.4343883"><ele>7.000000000000001</ele><time>2026-04-27T09:31:09.815Z</time></trkpt><trkpt lat="45.7137733" lon="12.4344633"><ele>7.0</ele><time>2026-04-27T09:31:12.815Z</time></trkpt><trkpt lat="45.7137183" lon="12.4345083"><ele>7.0</ele><time>2026-04-27T09:31:15.815Z</time></trkpt><trkpt lat="45.7137117" lon="12.4346317"><ele>7.0</ele><time>2026-04-27T09:31:18.816Z</time></trkpt><trkpt lat="45.7136867" lon="12.4347367"><ele>7.000000000000001</ele><time>2026-04-27T09:31:21.815Z</time></trkpt><trkpt lat="45.7136567" lon="12.43486"><ele>7.0</ele><time>2026-04-27T09:31:24.815Z</time></trkpt><trkpt lat="45.7136333" lon="12.43497"><ele>6.833333333333334</ele><time>2026-04-27T09:31:27.815Z</time></trkpt><trkpt lat="45.7136083" lon="12.4350883"><ele>6.666666666666667</ele><time>2026-04-27T09:31:30.815Z</time></trkpt><trkpt lat="45.713595" lon="12.43521"><ele>6.5</ele><time>2026-04-27T09:31:33.816Z</time></trkpt><trkpt lat="45.7135467" lon="12.4353033"><ele>6.333333333333334</ele><time>2026-04-27T09:31:35.815Z</time></trkpt><trkpt lat="45.7134783" lon="12.435375"><ele>6.166666666666667</ele><time>2026-04-27T09:31:37.815Z</time></trkpt><trkpt lat="45.7134367" lon="12.4354467"><ele>6.0</ele><time>2026-04-27T09:31:39.815Z</time></trkpt><trkpt lat="45.713415" lon="12.4355567"><ele>5.166666666666667</ele><time>2026-04-27T09:31:43.815Z</time></trkpt><trkpt lat="45.7133717" lon="12.435685"><ele>4.333333333333333</ele><time>2026-04-27T09:31:46.815Z</time></trkpt><trkpt lat="45.7133367" lon="12.435785"><ele>3.5</ele><time>2026-04-27T09:31:48.815Z</time></trkpt><trkpt lat="45.7133083" lon="12.4358867"><ele>2.6666666666666665</ele><time>2026-04-27T09:31:50.815Z</time></trkpt><trkpt lat="45.713285" lon="12.435975"><ele>1.8333333333333333</ele><time>2026-04-27T09:31:52.815Z</time></trkpt><trkpt lat="45.713295" lon="12.4360917"><ele>1.0</ele><time>2026-04-27T09:31:55.816Z</time></trkpt><trkpt lat="45.71333" lon="12.4362067"><ele>1.6</ele><time>2026-04-27T09:31:58.815Z</time></trkpt><trkpt lat="45.7133217" lon="12.4363283"><ele>2.2</ele><time>2026-04-27T09:32:00.815Z</time></trkpt><trkpt lat="45.7133233" lon="12.4364733"><ele>2.8000000000000003</ele><time>2026-04-27T09:32:02.815Z</time></trkpt><trkpt lat="45.7133167" lon="12.4366283"><ele>3.4000000000000004</ele><time>2026-04-27T09:32:04.815Z</time></trkpt><trkpt lat="45.713295" lon="12.4367767"><ele>4.0</ele><time>2026-04-27T09:32:06.815Z</time></trkpt><trkpt lat="45.7132917" lon="12.4368967"><ele>4.0</ele><time>2026-04-27T09:32:08.815Z</time></trkpt><trkpt lat="45.7133067" lon="12.4369983"><ele>4.0</ele><time>2026-04-27T09:32:10.816Z</time></trkpt><trkpt lat="45.71333" lon="12.4371767"><ele>4.0</ele><time>2026-04-27T09:32:12.815Z</time></trkpt><trkpt lat="45.713345" lon="12.43727"><ele>4.0</ele><time>2026-04-27T09:32:13.815Z</time></trkpt><trkpt lat="45.7133483" lon="12.4374567"><ele>4.0</ele><time>2026-04-27T09:32:15.815Z</time></trkpt><trkpt lat="45.7133533" lon="12.4375783"><ele>3.9999999999999996</ele><time>2026-04-27T09:32:16.815Z</time></trkpt><trkpt lat="45.71336" lon="12.43771"><ele>4.0</ele><time>2026-04-27T09:32:17.815Z</time></trkpt><trkpt lat="45.71336" lon="12.4378283"><ele>4.0</ele><time>2026-04-27T09:32:18.815Z</time></trkpt><trkpt lat="45.71336" lon="12.437925"><ele>4.0</ele><time>2026-04-27T09:32:19.815Z</time></trkpt><trkpt lat="45.7133317" lon="12.43808"><ele>3.9999999999999996</ele><time>2026-04-27T09:32:21.815Z</time></trkpt><trkpt lat="45.7133183" lon="12.438185"><ele>4.0</ele><time>2026-04-27T09:32:23.815Z</time></trkpt><trkpt lat="45.7133183" lon="12.4382833"><ele>4.333333333333333</ele><time>2026-04-27T09:32:25.815Z</time></trkpt><trkpt lat="45.7133083" lon="12.4384017"><ele>4.666666666666666</ele><time>2026-04-27T09:32:27.815Z</time></trkpt><trkpt lat="45.7133133" lon="12.4385167"><ele>5.0</ele><time>2026-04-27T09:32:29.815Z</time></trkpt><trkpt lat="45.713295" lon="12.4386733"><ele>5.333333333333333</ele><time>2026-04-27T09:32:31.815Z</time></trkpt><trkpt lat="45.7132583" lon="12.4387533"><ele>5.666666666666667</ele><time>2026-04-27T09:32:32.815Z</time></trkpt><trkpt lat="45.7132" lon="12.4388483"><ele>6.0</ele><time>2026-04-27T09:32:33.815Z</time></trkpt><trkpt lat="45.713145" lon="12.43896"><ele>6.199999999999999</ele><time>2026-04-27T09:32:34.816Z</time></trkpt><trkpt lat="45.7130817" lon="12.4390767"><ele>6.3999999999999995</ele><time>2026-04-27T09:32:35.815Z</time></trkpt><trkpt lat="45.7130267" lon="12.439185"><ele>6.6</ele><time>2026-04-27T09:32:36.815Z</time></trkpt><trkpt lat="45.71299" lon="12.43928"><ele>6.8</ele><time>2026-04-27T09:32:37.815Z</time></trkpt><trkpt lat="45.7129617" lon="12.43943"><ele>7.0</ele><time>2026-04-27T09:32:39.815Z</time></trkpt><trkpt lat="45.7129967" lon="12.439555"><ele>7.0</ele><time>2026-04-27T09:32:41.815Z</time></trkpt><trkpt lat="45.7130433" lon="12.4396167"><ele>7.0</ele><time>2026-04-27T09:32:42.815Z</time></trkpt><trkpt lat="45.7131017" lon="12.439675"><ele>7.0</ele><time>2026-04-27T09:32:43.815Z</time></trkpt><trkpt lat="45.7131567" lon="12.439745"><ele>7.0</ele><time>2026-04-27T09:32:44.815Z</time></trkpt><trkpt lat="45.7132017" lon="12.4398167"><ele>7.0</ele><time>2026-04-27T09:32:45.815Z</time></trkpt><trkpt lat="45.713245" lon="12.4399117"><ele>7.0</ele><time>2026-04-27T09:32:47.816Z</time></trkpt><trkpt lat="45.713165" lon="12.4399633"><ele>7.0</ele><time>2026-04-27T09:32:50.815Z</time></trkpt><trkpt lat="45.7130533" lon="12.44001"><ele>7.0</ele><time>2026-04-27T09:32:52.815Z</time></trkpt><trkpt lat="45.71297" lon="12.4401483"><ele>6.999999999999999</ele><time>2026-04-27T09:32:54.815Z</time></trkpt><trkpt lat="45.7129467" lon="12.4402367"><ele>6.999999999999999</ele><time>2026-04-27T09:32:55.815Z</time></trkpt><trkpt lat="45.7129233" lon="12.440395"><ele>7.0</ele><time>2026-04-27T09:32:57.816Z</time></trkpt><trkpt lat="45.7129217" lon="12.4405767"><ele>7.0</ele><time>2026-04-27T09:32:59.815Z</time></trkpt><trkpt lat="45.7129267" lon="12.4406667"><ele>7.000000000000001</ele><time>2026-04-27T09:33:00.815Z</time></trkpt><trkpt lat="45.7129317" lon="12.4407733"><ele>7.0</ele><time>2026-04-27T09:33:01.815Z</time></trkpt><trkpt lat="45.71294" lon="12.44088"><ele>7.0</ele><time>2026-04-27T09:33:02.815Z</time></trkpt><trkpt lat="45.712955" lon="12.4409867"><ele>7.0</ele><time>2026-04-27T09:33:03.815Z</time></trkpt><trkpt lat="45.71298" lon="12.4411033"><ele>7.000000000000001</ele><time>2026-04-27T09:33:04.815Z</time></trkpt><trkpt lat="45.7130217" lon="12.4412317"><ele>7.0</ele><time>2026-04-27T09:33:05.815Z</time></trkpt><trkpt lat="45.7130717" lon="12.44137"><ele>7.199999999999999</ele><time>2026-04-27T09:33:06.814Z</time></trkpt><trkpt lat="45.7131217" lon="12.4415183"><ele>7.3999999999999995</ele><time>2026-04-27T09:33:07.815Z</time></trkpt><trkpt lat="45.71317" lon="12.4416567"><ele>7.6000000000000005</ele><time>2026-04-27T09:33:08.815Z</time></trkpt><trkpt lat="45.7131983" lon="12.44178"><ele>7.800000000000001</ele><time>2026-04-27T09:33:09.815Z</time></trkpt><trkpt lat="45.7132167" lon="12.4419117"><ele>8.0</ele><time>2026-04-27T09:33:10.815Z</time></trkpt><trkpt lat="45.7132333" lon="12.4420517"><ele>7.800000000000001</ele><time>2026-04-27T09:33:11.815Z</time></trkpt><trkpt lat="45.7132517" lon="12.4421867"><ele>7.6000000000000005</ele><time>2026-04-27T09:33:12.815Z</time></trkpt><trkpt lat="45.71326" lon="12.4423217"><ele>7.3999999999999995</ele><time>2026-04-27T09:33:13.815Z</time></trkpt><trkpt lat="45.7132583" lon="12.4424583"><ele>7.199999999999999</ele><time>2026-04-27T09:33:14.815Z</time></trkpt><trkpt lat="45.7132533" lon="12.4425933"><ele>7.0</ele><time>2026-04-27T09:33:15.815Z</time></trkpt><trkpt lat="45.7132367" lon="12.442745"><ele>7.0</ele><time>2026-04-27T09:33:16.815Z</time></trkpt><trkpt lat="45.7132167" lon="12.4428933"><ele>6.999999999999999</ele><time>2026-04-27T09:33:17.815Z</time></trkpt><trkpt lat="45.713185" lon="12.44302"><ele>6.999999999999999</ele><time>2026-04-27T09:33:18.815Z</time></trkpt><trkpt lat="45.7131467" lon="12.44313"><ele>7.0</ele><time>2026-04-27T09:33:19.815Z</time></trkpt><trkpt lat="45.7130983" lon="12.4432433"><ele>7.0</ele><time>2026-04-27T09:33:20.815Z</time></trkpt><trkpt lat="45.71304" lon="12.443365"><ele>7.0</ele><time>2026-04-27T09:33:21.815Z</time></trkpt><trkpt lat="45.7129783" lon="12.4434967"><ele>6.999999999999999</ele><time>2026-04-27T09:33:22.815Z</time></trkpt><trkpt lat="45.7129233" lon="12.4436283"><ele>6.999999999999999</ele><time>2026-04-27T09:33:23.815Z</time></trkpt><trkpt lat="45.7128833" lon="12.4437533"><ele>7.0</ele><time>2026-04-27T09:33:24.815Z</time></trkpt><trkpt lat="45.712845" lon="12.4438767"><ele>7.0</ele><time>2026-04-27T09:33:25.816Z</time></trkpt><trkpt lat="45.712805" lon="12.4439933"><ele>7.0</ele><time>2026-04-27T09:33:26.816Z</time></trkpt><trkpt lat="45.7127517" lon="12.4441067"><ele>6.999999999999999</ele><time>2026-04-27T09:33:27.815Z</time></trkpt><trkpt lat="45.71269" lon="12.44422"><ele>6.999999999999999</ele><time>2026-04-27T09:33:28.815Z</time></trkpt><trkpt lat="45.7126217" lon="12.4443417"><ele>7.0</ele><time>2026-04-27T09:33:29.816Z</time></trkpt><trkpt lat="45.7125533" lon="12.4444583"><ele>7.0</ele><time>2026-04-27T09:33:30.815Z</time></trkpt><trkpt lat="45.712485" lon="12.4445717"><ele>7.0</ele><time>2026-04-27T09:33:31.815Z</time></trkpt><trkpt lat="45.7124217" lon="12.4446817"><ele>6.999999999999999</ele><time>2026-04-27T09:33:32.815Z</time></trkpt><trkpt lat="45.712365" lon="12.4447967"><ele>6.999999999999999</ele><time>2026-04-27T09:33:33.815Z</time></trkpt><trkpt lat="45.71232" lon="12.44491"><ele>7.0</ele><time>2026-04-27T09:33:34.815Z</time></trkpt><trkpt lat="45.7122983" lon="12.4450333"><ele>7.0</ele><time>2026-04-27T09:33:35.815Z</time></trkpt><trkpt lat="45.712285" lon="12.445165"><ele>7.0</ele><time>2026-04-27T09:33:36.815Z</time></trkpt><trkpt lat="45.7122833" lon="12.4453083"><ele>6.999999999999999</ele><time>2026-04-27T09:33:37.815Z</time></trkpt><trkpt lat="45.7122867" lon="12.445465"><ele>6.999999999999999</ele><time>2026-04-27T09:33:38.815Z</time></trkpt><trkpt lat="45.7122933" lon="12.445625"><ele>7.0</ele><time>2026-04-27T09:33:39.815Z</time></trkpt><trkpt lat="45.7122967" lon="12.4457683"><ele>7.0</ele><time>2026-04-27T09:33:40.815Z</time></trkpt><trkpt lat="45.7123117" lon="12.4458883"><ele>7.0</ele><time>2026-04-27T09:33:41.815Z</time></trkpt><trkpt lat="45.7123317" lon="12.44598"><ele>6.999999999999999</ele><time>2026-04-27T09:33:42.816Z</time></trkpt><trkpt lat="45.7124033" lon="12.4460983"><ele>6.999999999999999</ele><time>2026-04-27T09:33:44.815Z</time></trkpt><trkpt lat="45.7125367" lon="12.446155"><ele>7.0</ele><time>2026-04-27T09:33:46.815Z</time></trkpt><trkpt lat="45.7126283" lon="12.4461683"><ele>7.0</ele><time>2026-04-27T09:33:47.816Z</time></trkpt><trkpt lat="45.7127367" lon="12.4461883"><ele>6.5</ele><time>2026-04-27T09:33:48.815Z</time></trkpt><trkpt lat="45.712855" lon="12.4462117"><ele>6.0</ele><time>2026-04-27T09:33:49.815Z</time></trkpt><trkpt lat="45.7129833" lon="12.4462433"><ele>5.5</ele><time>2026-04-27T09:33:50.815Z</time></trkpt><trkpt lat="45.7131183" lon="12.4462667"><ele>5.0</ele><time>2026-04-27T09:33:51.816Z</time></trkpt><trkpt lat="45.71325" lon="12.44629"><ele>5.0</ele><time>2026-04-27T09:33:52.815Z</time></trkpt><trkpt lat="45.7133683" lon="12.44631"><ele>5.0</ele><time>2026-04-27T09:33:53.815Z</time></trkpt><trkpt lat="45.713475" lon="12.4463317"><ele>5.0</ele><time>2026-04-27T09:33:54.816Z</time></trkpt><trkpt lat="45.7135683" lon="12.4463483"><ele>5.0</ele><time>2026-04-27T09:33:55.815Z</time></trkpt><trkpt lat="45.7136483" lon="12.4463667"><ele>5.0</ele><time>2026-04-27T09:33:56.815Z</time></trkpt><trkpt lat="45.713715" lon="12.44639"><ele>5.2</ele><time>2026-04-27T09:33:57.815Z</time></trkpt><trkpt lat="45.7138217" lon="12.4464033"><ele>5.4</ele><time>2026-04-27T09:33:59.815Z</time></trkpt><trkpt lat="45.7139017" lon="12.4463217"><ele>5.6</ele><time>2026-04-27T09:34:01.815Z</time></trkpt><trkpt lat="45.7139283" lon="12.446225"><ele>5.8</ele><time>2026-04-27T09:34:02.815Z</time></trkpt><trkpt lat="45.7139533" lon="12.4461"><ele>6.0</ele><time>2026-04-27T09:34:03.815Z</time></trkpt><trkpt lat="45.7139783" lon="12.4459483"><ele>6.0</ele><time>2026-04-27T09:34:04.815Z</time></trkpt><trkpt lat="45.7140067" lon="12.4457983"><ele>6.0</ele><time>2026-04-27T09:34:05.816Z</time></trkpt><trkpt lat="45.7140333" lon="12.4456633"><ele>6.0</ele><time>2026-04-27T09:34:06.815Z</time></trkpt><trkpt lat="45.7140633" lon="12.4455567"><ele>6.0</ele><time>2026-04-27T09:34:07.815Z</time></trkpt><trkpt lat="45.7140867" lon="12.4454567"><ele>6.0</ele><time>2026-04-27T09:34:08.815Z</time></trkpt><trkpt lat="45.7141" lon="12.4453567"><ele>6.0</ele><time>2026-04-27T09:34:09.815Z</time></trkpt><trkpt lat="45.71409" lon="12.4451867"><ele>6.0</ele><time>2026-04-27T09:34:11.815Z</time></trkpt><trkpt lat="45.7140267" lon="12.4450217"><ele>6.0</ele><time>2026-04-27T09:34:13.815Z</time></trkpt><trkpt lat="45.7139183" lon="12.444905"><ele>6.0</ele><time>2026-04-27T09:34:15.815Z</time></trkpt><trkpt lat="45.7138467" lon="12.4448633"><ele>6.0</ele><time>2026-04-27T09:34:16.815Z</time></trkpt><trkpt lat="45.71378" lon="12.4448367"><ele>6.0</ele><time>2026-04-27T09:34:17.815Z</time></trkpt><trkpt lat="45.7137217" lon="12.4447967"><ele>6.0</ele><time>2026-04-27T09:34:18.815Z</time></trkpt><trkpt lat="45.7136617" lon="12.4446883"><ele>6.0</ele><time>2026-04-27T09:34:20.815Z</time></trkpt><trkpt lat="45.71368" lon="12.4445367"><ele>6.0</ele><time>2026-04-27T09:34:22.815Z</time></trkpt><trkpt lat="45.7137183" lon="12.4444583"><ele>6.0</ele><time>2026-04-27T09:34:23.815Z</time></trkpt><trkpt lat="45.71378" lon="12.4443817"><ele>6.0</ele><time>2026-04-27T09:34:24.815Z</time></trkpt><trkpt lat="45.7138483" lon="12.44432"><ele>6.0</ele><time>2026-04-27T09:34:25.815Z</time></trkpt><trkpt lat="45.7139233" lon="12.4442733"><ele>6.166666666666667</ele><time>2026-04-27T09:34:26.815Z</time></trkpt><trkpt lat="45.7139967" lon="12.4442367"><ele>6.333333333333334</ele><time>2026-04-27T09:34:27.815Z</time></trkpt><trkpt lat="45.7140683" lon="12.444195"><ele>6.5</ele><time>2026-04-27T09:34:28.815Z</time></trkpt><trkpt lat="45.7141417" lon="12.4441617"><ele>6.666666666666667</ele><time>2026-04-27T09:34:29.815Z</time></trkpt><trkpt lat="45.714225" lon="12.4441083"><ele>6.833333333333334</ele><time>2026-04-27T09:34:30.815Z</time></trkpt><trkpt lat="45.7143117" lon="12.44405"><ele>7.0</ele><time>2026-04-27T09:34:31.815Z</time></trkpt><trkpt lat="45.7143817" lon="12.4439867"><ele>6.666666666666667</ele><time>2026-04-27T09:34:32.815Z</time></trkpt><trkpt lat="45.7144417" lon="12.44392"><ele>6.333333333333334</ele><time>2026-04-27T09:34:33.815Z</time></trkpt><trkpt lat="45.7144933" lon="12.4438267"><ele>6.0</ele><time>2026-04-27T09:34:34.815Z</time></trkpt><trkpt lat="45.714525" lon="12.443705"><ele>5.666666666666667</ele><time>2026-04-27T09:34:35.815Z</time></trkpt><trkpt lat="45.71455" lon="12.4435717"><ele>5.333333333333334</ele><time>2026-04-27T09:34:36.815Z</time></trkpt><trkpt lat="45.7145783" lon="12.4434317"><ele>5.0</ele><time>2026-04-27T09:34:37.815Z</time></trkpt><trkpt lat="45.7146183" lon="12.443285"><ele>5.0</ele><time>2026-04-27T09:34:38.815Z</time></trkpt><trkpt lat="45.714665" lon="12.4431533"><ele>5.0</ele><time>2026-04-27T09:34:39.815Z</time></trkpt><trkpt lat="45.7147183" lon="12.443025"><ele>5.0</ele><time>2026-04-27T09:34:40.815Z</time></trkpt><trkpt lat="45.7147733" lon="12.4429067"><ele>5.0</ele><time>2026-04-27T09:34:41.816Z</time></trkpt><trkpt lat="45.7148367" lon="12.4428"><ele>5.0</ele><time>2026-04-27T09:34:42.815Z</time></trkpt><trkpt lat="45.7149117" lon="12.442705"><ele>5.4</ele><time>2026-04-27T09:34:43.815Z</time></trkpt><trkpt lat="45.7149867" lon="12.4426233"><ele>5.8</ele><time>2026-04-27T09:34:44.815Z</time></trkpt><trkpt lat="45.715065" lon="12.4425483"><ele>6.199999999999999</ele><time>2026-04-27T09:34:45.815Z</time></trkpt><trkpt lat="45.71515" lon="12.442485"><ele>6.6</ele><time>2026-04-27T09:34:46.816Z</time></trkpt><trkpt lat="45.7152433" lon="12.4424283"><ele>7.0</ele><time>2026-04-27T09:34:47.815Z</time></trkpt><trkpt lat="45.7153467" lon="12.4423683"><ele>7.199999999999999</ele><time>2026-04-27T09:34:48.815Z</time></trkpt><trkpt lat="45.7154433" lon="12.4423067"><ele>7.3999999999999995</ele><time>2026-04-27T09:34:49.815Z</time></trkpt><trkpt lat="45.715535" lon="12.44223"><ele>7.6000000000000005</ele><time>2026-04-27T09:34:50.815Z</time></trkpt><trkpt lat="45.7156267" lon="12.4421383"><ele>7.800000000000001</ele><time>2026-04-27T09:34:51.815Z</time></trkpt><trkpt lat="45.7157117" lon="12.4420583"><ele>8.0</ele><time>2026-04-27T09:34:52.815Z</time></trkpt><trkpt lat="45.7158" lon="12.441985"><ele>7.999999999999999</ele><time>2026-04-27T09:34:53.815Z</time></trkpt><trkpt lat="45.7158917" lon="12.4419167"><ele>8.0</ele><time>2026-04-27T09:34:54.815Z</time></trkpt><trkpt lat="45.71598" lon="12.44184"><ele>8.0</ele><time>2026-04-27T09:34:55.815Z</time></trkpt><trkpt lat="45.7160533" lon="12.44178"><ele>8.0</ele><time>2026-04-27T09:34:56.815Z</time></trkpt><trkpt lat="45.716125" lon="12.4417233"><ele>7.999999999999999</ele><time>2026-04-27T09:34:57.815Z</time></trkpt><trkpt lat="45.7161833" lon="12.4416783"><ele>8.0</ele><time>2026-04-27T09:34:58.816Z</time></trkpt><trkpt lat="45.716295" lon="12.441625"><ele>8.200000000000001</ele><time>2026-04-27T09:35:00.815Z</time></trkpt><trkpt lat="45.7163867" lon="12.4416517"><ele>8.4</ele><time>2026-04-27T09:35:02.815Z</time></trkpt><trkpt lat="45.7164467" lon="12.4417383"><ele>8.600000000000001</ele><time>2026-04-27T09:35:04.815Z</time></trkpt><trkpt lat="45.7164933" lon="12.4419183"><ele>8.8</ele><time>2026-04-27T09:45:45.814Z</time></trkpt><trkpt lat="45.7164267" lon="12.4419633"><ele>9.0</ele><time>2026-04-27T09:45:47.814Z</time></trkpt><trkpt lat="45.7163083" lon="12.4419783"><ele>9.0</ele><time>2026-04-27T09:45:49.814Z</time></trkpt><trkpt lat="45.716225" lon="12.4419983"><ele>9.0</ele><time>2026-04-27T09:45:50.814Z</time></trkpt><trkpt lat="45.7161383" lon="12.442045"><ele>9.0</ele><time>2026-04-27T09:45:51.814Z</time></trkpt><trkpt lat="45.71604" lon="12.4421233"><ele>9.0</ele><time>2026-04-27T09:45:52.814Z</time></trkpt><trkpt lat="45.715925" lon="12.4422283"><ele>9.0</ele><time>2026-04-27T09:45:53.814Z</time></trkpt><trkpt lat="45.7158" lon="12.4423483"><ele>9.0</ele><time>2026-04-27T09:45:54.814Z</time></trkpt><trkpt lat="45.7156767" lon="12.4424517"><ele>9.0</ele><time>2026-04-27T09:45:55.814Z</time></trkpt><trkpt lat="45.7155667" lon="12.4425417"><ele>9.0</ele><time>2026-04-27T09:45:56.814Z</time></trkpt><trkpt lat="45.7154633" lon="12.4426233"><ele>9.0</ele><time>2026-04-27T09:45:57.814Z</time></trkpt><trkpt lat="45.7153667" lon="12.4427017"><ele>9.0</ele><time>2026-04-27T09:45:58.814Z</time></trkpt><trkpt lat="45.7152683" lon="12.4427667"><ele>9.0</ele><time>2026-04-27T09:45:59.814Z</time></trkpt><trkpt lat="45.715185" lon="12.4428267"><ele>9.0</ele><time>2026-04-27T09:46:00.814Z</time></trkpt><trkpt lat="45.7151017" lon="12.4428983"><ele>9.0</ele><time>2026-04-27T09:46:01.814Z</time></trkpt><trkpt lat="45.715035" lon="12.4429733"><ele>9.0</ele><time>2026-04-27T09:46:02.814Z</time></trkpt><trkpt lat="45.7149683" lon="12.4430517"><ele>8.333333333333334</ele><time>2026-04-27T09:46:03.815Z</time></trkpt><trkpt lat="45.714915" lon="12.443135"><ele>7.666666666666667</ele><time>2026-04-27T09:46:04.814Z</time></trkpt><trkpt lat="45.7148717" lon="12.4432233"><ele>7.0</ele><time>2026-04-27T09:46:05.814Z</time></trkpt><trkpt lat="45.7148333" lon="12.4433267"><ele>6.333333333333334</ele><time>2026-04-27T09:46:06.814Z</time></trkpt><trkpt lat="45.71481" lon="12.4434383"><ele>5.666666666666667</ele><time>2026-04-27T09:46:07.814Z</time></trkpt><trkpt lat="45.7148" lon="12.443565"><ele>5.0</ele><time>2026-04-27T09:46:08.814Z</time></trkpt><trkpt lat="45.7148017" lon="12.4436967"><ele>4.833333333333334</ele><time>2026-04-27T09:46:09.814Z</time></trkpt><trkpt lat="45.7148117" lon="12.443825"><ele>4.666666666666667</ele><time>2026-04-27T09:46:10.814Z</time></trkpt><trkpt lat="45.7148117" lon="12.4439417"><ele>4.5</ele><time>2026-04-27T09:46:11.814Z</time></trkpt><trkpt lat="45.7148" lon="12.4440433"><ele>4.333333333333333</ele><time>2026-04-27T09:46:12.814Z</time></trkpt><trkpt lat="45.7147683" lon="12.4441383"><ele>4.166666666666666</ele><time>2026-04-27T09:46:13.814Z</time></trkpt><trkpt lat="45.7147117" lon="12.4442183"><ele>4.0</ele><time>2026-04-27T09:46:14.814Z</time></trkpt><trkpt lat="45.7146317" lon="12.4442733"><ele>4.0</ele><time>2026-04-27T09:46:15.814Z</time></trkpt><trkpt lat="45.7145167" lon="12.44432"><ele>4.0</ele><time>2026-04-27T09:46:16.814Z</time></trkpt><trkpt lat="45.7143883" lon="12.4443667"><ele>4.0</ele><time>2026-04-27T09:46:17.814Z</time></trkpt><trkpt lat="45.71426" lon="12.4444067"><ele>4.0</ele><time>2026-04-27T09:46:18.814Z</time></trkpt><trkpt lat="45.7141483" lon="12.444445"><ele>4.4</ele><time>2026-04-27T09:46:19.815Z</time></trkpt><trkpt lat="45.714065" lon="12.4444683"><ele>4.800000000000001</ele><time>2026-04-27T09:46:20.814Z</time></trkpt><trkpt lat="45.71398" lon="12.444525"><ele>5.199999999999999</ele><time>2026-04-27T09:46:22.814Z</time></trkpt><trkpt lat="45.7139967" lon="12.4446333"><ele>5.6</ele><time>2026-04-27T09:46:25.814Z</time></trkpt><trkpt lat="45.7141033" lon="12.4447267"><ele>6.0</ele><time>2026-04-27T09:46:27.814Z</time></trkpt><trkpt lat="45.714165" lon="12.444795"><ele>6.0</ele><time>2026-04-27T09:46:28.814Z</time></trkpt><trkpt lat="45.714225" lon="12.4448733"><ele>6.0</ele><time>2026-04-27T09:46:29.814Z</time></trkpt><trkpt lat="45.71428" lon="12.4449467"><ele>6.0</ele><time>2026-04-27T09:46:30.814Z</time></trkpt><trkpt lat="45.7143317" lon="12.4450183"><ele>6.0</ele><time>2026-04-27T09:46:31.814Z</time></trkpt><trkpt lat="45.71439" lon="12.4451717"><ele>6.0</ele><time>2026-04-27T09:46:33.814Z</time></trkpt><trkpt lat="45.714405" lon="12.44528"><ele>6.0</ele><time>2026-04-27T09:46:34.814Z</time></trkpt><trkpt lat="45.7144067" lon="12.4454"><ele>6.0</ele><time>2026-04-27T09:46:35.814Z</time></trkpt><trkpt lat="45.714395" lon="12.4455333"><ele>6.0</ele><time>2026-04-27T09:46:36.815Z</time></trkpt><trkpt lat="45.7143867" lon="12.4456617"><ele>6.0</ele><time>2026-04-27T09:46:37.814Z</time></trkpt><trkpt lat="45.7143883" lon="12.44578"><ele>6.0</ele><time>2026-04-27T09:46:38.814Z</time></trkpt><trkpt lat="45.7143933" lon="12.4458833"><ele>6.0</ele><time>2026-04-27T09:46:39.814Z</time></trkpt><trkpt lat="45.7144433" lon="12.44603"><ele>6.0</ele><time>2026-04-27T09:46:41.814Z</time></trkpt><trkpt lat="45.71454" lon="12.4460983"><ele>6.0</ele><time>2026-04-27T09:46:43.814Z</time></trkpt><trkpt lat="45.7146167" lon="12.4461367"><ele>6.0</ele><time>2026-04-27T09:46:46.814Z</time></trkpt><trkpt lat="45.7146883" lon="12.4461433"><ele>6.0</ele><time>2026-04-27T09:46:49.814Z</time></trkpt><trkpt lat="45.7147567" lon="12.4462067"><ele>6.0</ele><time>2026-04-27T09:46:51.814Z</time></trkpt><trkpt lat="45.7148117" lon="12.4462517"><ele>6.0</ele><time>2026-04-27T09:46:52.814Z</time></trkpt><trkpt lat="45.7148767" lon="12.4462967"><ele>6.0</ele><time>2026-04-27T09:46:53.814Z</time></trkpt><trkpt lat="45.7149383" lon="12.4463467"><ele>6.0</ele><time>2026-04-27T09:46:54.814Z</time></trkpt><trkpt lat="45.71499" lon="12.4463983"><ele>6.0</ele><time>2026-04-27T09:46:55.814Z</time></trkpt><trkpt lat="45.7150717" lon="12.44647"><ele>6.0</ele><time>2026-04-27T09:46:57.814Z</time></trkpt><trkpt lat="45.71501" lon="12.4463733"><ele>6.0</ele><time>2026-04-27T09:47:02.815Z</time></trkpt><trkpt lat="45.7149367" lon="12.44632"><ele>6.0</ele><time>2026-04-27T09:47:03.814Z</time></trkpt><trkpt lat="45.7148567" lon="12.446265"><ele>6.0</ele><time>2026-04-27T09:47:04.814Z</time></trkpt><trkpt lat="45.7147833" lon="12.4462133"><ele>6.0</ele><time>2026-04-27T09:47:05.814Z</time></trkpt><trkpt lat="45.7146767" lon="12.4461667"><ele>6.0</ele><time>2026-04-27T09:47:07.815Z</time></trkpt><trkpt lat="45.7146133" lon="12.4461733"><ele>6.0</ele><time>2026-04-27T09:47:09.814Z</time></trkpt><trkpt lat="45.714555" lon="12.446295"><ele>6.0</ele><time>2026-04-27T09:47:12.815Z</time></trkpt><trkpt lat="45.71449" lon="12.446465"><ele>6.0</ele><time>2026-04-27T09:47:14.814Z</time></trkpt><trkpt lat="45.71446" lon="12.446575"><ele>6.0</ele><time>2026-04-27T09:47:15.815Z</time></trkpt><trkpt lat="45.7144267" lon="12.446685"><ele>6.0</ele><time>2026-04-27T09:47:16.814Z</time></trkpt><trkpt lat="45.7143933" lon="12.4467983"><ele>6.0</ele><time>2026-04-27T09:47:17.814Z</time></trkpt><trkpt lat="45.7143617" lon="12.4469083"><ele>6.0</ele><time>2026-04-27T09:47:18.814Z</time></trkpt><trkpt lat="45.7143317" lon="12.44702"><ele>6.0</ele><time>2026-04-27T09:47:19.814Z</time></trkpt><trkpt lat="45.7142983" lon="12.44713"><ele>6.0</ele><time>2026-04-27T09:47:20.814Z</time></trkpt><trkpt lat="45.71427" lon="12.4472317"><ele>6.0</ele><time>2026-04-27T09:47:21.814Z</time></trkpt><trkpt lat="45.71424" lon="12.4473267"><ele>6.0</ele><time>2026-04-27T09:47:22.814Z</time></trkpt><trkpt lat="45.7142117" lon="12.4474083"><ele>6.0</ele><time>2026-04-27T09:47:23.814Z</time></trkpt><trkpt lat="45.7141817" lon="12.4475433"><ele>6.0</ele><time>2026-04-27T09:47:25.814Z</time></trkpt><trkpt lat="45.7141817" lon="12.4476583"><ele>6.0</ele><time>2026-04-27T09:47:27.814Z</time></trkpt><trkpt lat="45.7141867" lon="12.44778"><ele>6.0</ele><time>2026-04-27T09:47:29.814Z</time></trkpt><trkpt lat="45.7141517" lon="12.4479217"><ele>6.0</ele><time>2026-04-27T09:47:31.814Z</time></trkpt><trkpt lat="45.7141167" lon="12.448015"><ele>6.0</ele><time>2026-04-27T09:47:32.814Z</time></trkpt><trkpt lat="45.7140717" lon="12.4481217"><ele>6.0</ele><time>2026-04-27T09:47:33.814Z</time></trkpt><trkpt lat="45.7140267" lon="12.4482483"><ele>6.0</ele><time>2026-04-27T09:47:34.814Z</time></trkpt><trkpt lat="45.7139783" lon="12.4483733"><ele>6.199999999999999</ele><time>2026-04-27T09:47:35.814Z</time></trkpt><trkpt lat="45.7139283" lon="12.4484983"><ele>6.3999999999999995</ele><time>2026-04-27T09:47:36.815Z</time></trkpt><trkpt lat="45.7138883" lon="12.448625"><ele>6.6</ele><time>2026-04-27T09:47:37.814Z</time></trkpt><trkpt lat="45.713845" lon="12.4487617"><ele>6.8</ele><time>2026-04-27T09:47:38.814Z</time></trkpt><trkpt lat="45.7137917" lon="12.44891"><ele>7.0</ele><time>2026-04-27T09:47:39.814Z</time></trkpt><trkpt lat="45.7137283" lon="12.4490633"><ele>7.0</ele><time>2026-04-27T09:47:40.814Z</time></trkpt><trkpt lat="45.71367" lon="12.449205"><ele>6.999999999999999</ele><time>2026-04-27T09:47:41.814Z</time></trkpt><trkpt lat="45.7136133" lon="12.44933"><ele>6.999999999999999</ele><time>2026-04-27T09:47:42.814Z</time></trkpt><trkpt lat="45.7135667" lon="12.449445"><ele>7.0</ele><time>2026-04-27T09:47:43.814Z</time></trkpt><trkpt lat="45.713525" lon="12.4495517"><ele>7.0</ele><time>2026-04-27T09:47:44.814Z</time></trkpt><trkpt lat="45.713475" lon="12.4496683"><ele>6.833333333333334</ele><time>2026-04-27T09:47:45.814Z</time></trkpt><trkpt lat="45.7134317" lon="12.4497833"><ele>6.666666666666667</ele><time>2026-04-27T09:47:46.814Z</time></trkpt><trkpt lat="45.713395" lon="12.449895"><ele>6.5</ele><time>2026-04-27T09:47:47.814Z</time></trkpt><trkpt lat="45.7133583" lon="12.45"><ele>6.333333333333334</ele><time>2026-04-27T09:47:48.814Z</time></trkpt><trkpt lat="45.7133183" lon="12.450095"><ele>6.166666666666667</ele><time>2026-04-27T09:47:49.814Z</time></trkpt><trkpt lat="45.7132817" lon="12.450175"><ele>6.0</ele><time>2026-04-27T09:47:50.814Z</time></trkpt><trkpt lat="45.7132267" lon="12.45032"><ele>6.0</ele><time>2026-04-27T09:47:52.814Z</time></trkpt><trkpt lat="45.7131717" lon="12.450455"><ele>6.0</ele><time>2026-04-27T09:47:54.814Z</time></trkpt><trkpt lat="45.7131067" lon="12.4505917"><ele>6.0</ele><time>2026-04-27T09:47:56.814Z</time></trkpt><trkpt lat="45.71308" lon="12.450675"><ele>6.0</ele><time>2026-04-27T09:47:57.814Z</time></trkpt><trkpt lat="45.71305" lon="12.4507667"><ele>6.0</ele><time>2026-04-27T09:47:58.814Z</time></trkpt><trkpt lat="45.71303" lon="12.4508733"><ele>6.0</ele><time>2026-04-27T09:47:59.814Z</time></trkpt><trkpt lat="45.713005" lon="12.4509767"><ele>6.0</ele><time>2026-04-27T09:48:00.814Z</time></trkpt><trkpt lat="45.712985" lon="12.4510767"><ele>6.0</ele><time>2026-04-27T09:48:01.814Z</time></trkpt><trkpt lat="45.7129633" lon="12.45118"><ele>6.0</ele><time>2026-04-27T09:48:02.814Z</time></trkpt><trkpt lat="45.712935" lon="12.4512883"><ele>6.0</ele><time>2026-04-27T09:48:03.814Z</time></trkpt><trkpt lat="45.7129" lon="12.4514067"><ele>6.0</ele><time>2026-04-27T09:48:04.814Z</time></trkpt><trkpt lat="45.7128583" lon="12.4515133"><ele>6.0</ele><time>2026-04-27T09:48:05.814Z</time></trkpt><trkpt lat="45.7128183" lon="12.4516017"><ele>6.166666666666667</ele><time>2026-04-27T09:48:06.814Z</time></trkpt><trkpt lat="45.7127883" lon="12.4516817"><ele>6.333333333333334</ele><time>2026-04-27T09:48:07.815Z</time></trkpt><trkpt lat="45.7127483" lon="12.451825"><ele>6.5</ele><time>2026-04-27T09:48:09.814Z</time></trkpt><trkpt lat="45.712745" lon="12.4519533"><ele>6.666666666666667</ele><time>2026-04-27T09:48:11.815Z</time></trkpt><trkpt lat="45.7128033" lon="12.45208"><ele>6.833333333333334</ele><time>2026-04-27T09:48:13.815Z</time></trkpt><trkpt lat="45.712835" lon="12.4521767"><ele>7.0</ele><time>2026-04-27T09:48:14.814Z</time></trkpt><trkpt lat="45.7128883" lon="12.4523083"><ele>7.000000000000001</ele><time>2026-04-27T09:48:16.814Z</time></trkpt><trkpt lat="45.7128667" lon="12.45247"><ele>7.0</ele><time>2026-04-27T09:48:18.814Z</time></trkpt><trkpt lat="45.7128283" lon="12.4525667"><ele>7.0</ele><time>2026-04-27T09:48:19.814Z</time></trkpt><trkpt lat="45.712785" lon="12.452665"><ele>7.0</ele><time>2026-04-27T09:48:20.814Z</time></trkpt><trkpt lat="45.7127433" lon="12.4527517"><ele>7.000000000000001</ele><time>2026-04-27T09:48:21.814Z</time></trkpt><trkpt lat="45.7127" lon="12.4528383"><ele>7.0</ele><time>2026-04-27T09:48:22.814Z</time></trkpt><trkpt lat="45.7126567" lon="12.452935"><ele>7.0</ele><time>2026-04-27T09:48:23.814Z</time></trkpt><trkpt lat="45.7126083" lon="12.4530467"><ele>6.999999999999999</ele><time>2026-04-27T09:48:24.814Z</time></trkpt><trkpt lat="45.712555" lon="12.4531667"><ele>6.999999999999999</ele><time>2026-04-27T09:48:25.814Z</time></trkpt><trkpt lat="45.7124917" lon="12.4532967"><ele>7.0</ele><time>2026-04-27T09:48:26.815Z</time></trkpt><trkpt lat="45.712435" lon="12.4534583"><ele>7.0</ele><time>2026-04-27T09:48:27.814Z</time></trkpt><trkpt lat="45.7123683" lon="12.4536167"><ele>7.0</ele><time>2026-04-27T09:48:28.814Z</time></trkpt><trkpt lat="45.7122983" lon="12.4537533"><ele>6.999999999999999</ele><time>2026-04-27T09:48:29.815Z</time></trkpt><trkpt lat="45.712235" lon="12.4538933"><ele>6.999999999999999</ele><time>2026-04-27T09:48:30.814Z</time></trkpt><trkpt lat="45.712185" lon="12.4540133"><ele>7.0</ele><time>2026-04-27T09:48:31.815Z</time></trkpt><trkpt lat="45.7121417" lon="12.4541"><ele>7.0</ele><time>2026-04-27T09:48:32.814Z</time></trkpt><trkpt lat="45.7120683" lon="12.454205"><ele>7.0</ele><time>2026-04-27T09:48:34.814Z</time></trkpt><trkpt lat="45.7119717" lon="12.4543067"><ele>6.999999999999999</ele><time>2026-04-27T09:48:36.814Z</time></trkpt><trkpt lat="45.711925" lon="12.454375"><ele>6.999999999999999</ele><time>2026-04-27T09:48:37.814Z</time></trkpt><trkpt lat="45.7118767" lon="12.4544567"><ele>7.0</ele><time>2026-04-27T09:48:38.814Z</time></trkpt><trkpt lat="45.71183" lon="12.4545767"><ele>7.0</ele><time>2026-04-27T09:48:39.814Z</time></trkpt><trkpt lat="45.7117833" lon="12.4547183"><ele>6.500000000000001</ele><time>2026-04-27T09:48:40.814Z</time></trkpt><trkpt lat="45.7117333" lon="12.454855"><ele>6.0</ele><time>2026-04-27T09:48:41.814Z</time></trkpt><trkpt lat="45.7116833" lon="12.4549633"><ele>5.5</ele><time>2026-04-27T09:48:42.814Z</time></trkpt><trkpt lat="45.7116367" lon="12.455065"><ele>5.0</ele><time>2026-04-27T09:48:43.814Z</time></trkpt><trkpt lat="45.7116" lon="12.455155"><ele>4.5</ele><time>2026-04-27T09:48:44.815Z</time></trkpt><trkpt lat="45.71157" lon="12.45525"><ele>4.0</ele><time>2026-04-27T09:48:45.814Z</time></trkpt><trkpt lat="45.7115567" lon="12.45534"><ele>4.2</ele><time>2026-04-27T09:48:46.814Z</time></trkpt><trkpt lat="45.7115683" lon="12.45548"><ele>4.4</ele><time>2026-04-27T09:48:48.814Z</time></trkpt><trkpt lat="45.711575" lon="12.4556267"><ele>4.6</ele><time>2026-04-27T09:48:50.814Z</time></trkpt><trkpt lat="45.7115333" lon="12.45582"><ele>4.8</ele><time>2026-04-27T09:48:52.814Z</time></trkpt><trkpt lat="45.71149" lon="12.4559433"><ele>5.0</ele><time>2026-04-27T09:48:53.814Z</time></trkpt><trkpt lat="45.7114333" lon="12.45607"><ele>5.0</ele><time>2026-04-27T09:48:54.815Z</time></trkpt><trkpt lat="45.71137" lon="12.4561817"><ele>5.0</ele><time>2026-04-27T09:48:55.814Z</time></trkpt><trkpt lat="45.7113067" lon="12.4562967"><ele>5.0</ele><time>2026-04-27T09:48:56.815Z</time></trkpt><trkpt lat="45.7112483" lon="12.4564167"><ele>5.0</ele><time>2026-04-27T09:48:57.814Z</time></trkpt><trkpt lat="45.7111917" lon="12.4565383"><ele>5.0</ele><time>2026-04-27T09:48:58.814Z</time></trkpt><trkpt lat="45.7111467" lon="12.4566467"><ele>5.0</ele><time>2026-04-27T09:48:59.814Z</time></trkpt><trkpt lat="45.711115" lon="12.4567433"><ele>5.0</ele><time>2026-04-27T09:49:00.814Z</time></trkpt><trkpt lat="45.7110983" lon="12.4568367"><ele>5.0</ele><time>2026-04-27T09:49:01.814Z</time></trkpt><trkpt lat="45.7110967" lon="12.4570067"><ele>5.0</ele><time>2026-04-27T09:49:03.814Z</time></trkpt><trkpt lat="45.7110817" lon="12.457095"><ele>5.0</ele><time>2026-04-27T09:49:04.814Z</time></trkpt><trkpt lat="45.7110517" lon="12.45727"><ele>5.0</ele><time>2026-04-27T09:49:06.814Z</time></trkpt><trkpt lat="45.7110317" lon="12.4573683"><ele>5.0</ele><time>2026-04-27T09:49:07.814Z</time></trkpt><trkpt lat="45.710995" lon="12.4574617"><ele>5.0</ele><time>2026-04-27T09:49:08.814Z</time></trkpt><trkpt lat="45.71096" lon="12.4575483"><ele>5.0</ele><time>2026-04-27T09:49:09.814Z</time></trkpt><trkpt lat="45.7109333" lon="12.45764"><ele>5.0</ele><time>2026-04-27T09:49:10.814Z</time></trkpt><trkpt lat="45.7109033" lon="12.4577367"><ele>5.0</ele><time>2026-04-27T09:49:11.814Z</time></trkpt><trkpt lat="45.7108717" lon="12.4578383"><ele>5.0</ele><time>2026-04-27T09:49:12.814Z</time></trkpt><trkpt lat="45.710835" lon="12.4579317"><ele>5.166666666666667</ele><time>2026-04-27T09:49:13.814Z</time></trkpt><trkpt lat="45.7108033" lon="12.4580117"><ele>5.333333333333334</ele><time>2026-04-27T09:49:14.814Z</time></trkpt><trkpt lat="45.7107567" lon="12.45815"><ele>5.5</ele><time>2026-04-27T09:49:16.814Z</time></trkpt><trkpt lat="45.7107" lon="12.4583083"><ele>5.666666666666667</ele><time>2026-04-27T09:49:18.815Z</time></trkpt><trkpt lat="45.710665" lon="12.4583933"><ele>5.833333333333333</ele><time>2026-04-27T09:49:19.814Z</time></trkpt><trkpt lat="45.71063" lon="12.4584733"><ele>6.0</ele><time>2026-04-27T09:49:20.814Z</time></trkpt><trkpt lat="45.7106033" lon="12.45856"><ele>6.0</ele><time>2026-04-27T09:49:21.814Z</time></trkpt><trkpt lat="45.710575" lon="12.4586417"><ele>6.0</ele><time>2026-04-27T09:49:22.814Z</time></trkpt><trkpt lat="45.7105217" lon="12.4587633"><ele>6.0</ele><time>2026-04-27T09:49:24.814Z</time></trkpt><trkpt lat="45.7104667" lon="12.45883"><ele>6.0</ele><time>2026-04-27T09:49:26.814Z</time></trkpt><trkpt lat="45.7104083" lon="12.4589117"><ele>6.0</ele><time>2026-04-27T09:49:29.814Z</time></trkpt><trkpt lat="45.710315" lon="12.4589233"><ele>6.0</ele><time>2026-04-27T09:49:31.814Z</time></trkpt><trkpt lat="45.71025" lon="12.45895"><ele>5.666666666666667</ele><time>2026-04-27T09:49:32.814Z</time></trkpt><trkpt lat="45.7101867" lon="12.458975"><ele>5.333333333333333</ele><time>2026-04-27T09:49:33.814Z</time></trkpt><trkpt lat="45.7101233" lon="12.4590133"><ele>5.0</ele><time>2026-04-27T09:49:34.814Z</time></trkpt><trkpt lat="45.71006" lon="12.4590733"><ele>4.666666666666666</ele><time>2026-04-27T09:49:35.814Z</time></trkpt><trkpt lat="45.7099883" lon="12.4591467"><ele>4.333333333333333</ele><time>2026-04-27T09:49:36.814Z</time></trkpt><trkpt lat="45.70992" lon="12.4592467"><ele>4.0</ele><time>2026-04-27T09:49:37.814Z</time></trkpt><trkpt lat="45.709845" lon="12.4593517"><ele>4.0</ele><time>2026-04-27T09:49:38.814Z</time></trkpt><trkpt lat="45.709755" lon="12.4594517"><ele>4.0</ele><time>2026-04-27T09:49:39.814Z</time></trkpt><trkpt lat="45.7096483" lon="12.45955"><ele>4.0</ele><time>2026-04-27T09:49:40.814Z</time></trkpt><trkpt lat="45.70955" lon="12.4596567"><ele>4.0</ele><time>2026-04-27T09:49:41.814Z</time></trkpt><trkpt lat="45.7094717" lon="12.4597533"><ele>3.6666666666666665</ele><time>2026-04-27T09:49:42.814Z</time></trkpt><trkpt lat="45.7093933" lon="12.45984"><ele>3.333333333333333</ele><time>2026-04-27T09:49:43.814Z</time></trkpt><trkpt lat="45.70932" lon="12.45992"><ele>3.0</ele><time>2026-04-27T09:49:44.814Z</time></trkpt><trkpt lat="45.709245" lon="12.45998"><ele>2.6666666666666665</ele><time>2026-04-27T09:49:45.814Z</time></trkpt><trkpt lat="45.7091667" lon="12.4600233"><ele>2.333333333333333</ele><time>2026-04-27T09:49:46.814Z</time></trkpt><trkpt lat="45.7090933" lon="12.4600683"><ele>2.0</ele><time>2026-04-27T09:49:47.814Z</time></trkpt><trkpt lat="45.7090383" lon="12.4601183"><ele>1.9999999999999998</ele><time>2026-04-27T09:49:48.814Z</time></trkpt><trkpt lat="45.7089833" lon="12.4601933"><ele>2.0</ele><time>2026-04-27T09:49:49.814Z</time></trkpt><trkpt lat="45.708925" lon="12.460265"><ele>2.0</ele><time>2026-04-27T09:49:50.815Z</time></trkpt><trkpt lat="45.7088567" lon="12.46035"><ele>2.0</ele><time>2026-04-27T09:49:51.814Z</time></trkpt><trkpt lat="45.7087883" lon="12.4604517"><ele>1.9999999999999998</ele><time>2026-04-27T09:49:52.814Z</time></trkpt><trkpt lat="45.7087233" lon="12.460565"><ele>2.0</ele><time>2026-04-27T09:49:53.814Z</time></trkpt><trkpt lat="45.7086517" lon="12.4606867"><ele>2.75</ele><time>2026-04-27T09:49:54.814Z</time></trkpt><trkpt lat="45.7085783" lon="12.4608167"><ele>3.5</ele><time>2026-04-27T09:49:55.814Z</time></trkpt><trkpt lat="45.7085" lon="12.4609583"><ele>4.25</ele><time>2026-04-27T09:49:56.814Z</time></trkpt><trkpt lat="45.7084267" lon="12.461105"><ele>5.0</ele><time>2026-04-27T09:49:57.814Z</time></trkpt><trkpt lat="45.7083583" lon="12.4612517"><ele>5.2</ele><time>2026-04-27T09:49:58.814Z</time></trkpt><trkpt lat="45.7082983" lon="12.461385"><ele>5.4</ele><time>2026-04-27T09:49:59.814Z</time></trkpt><trkpt lat="45.7082367" lon="12.4615133"><ele>5.6</ele><time>2026-04-27T09:50:00.814Z</time></trkpt><trkpt lat="45.7081717" lon="12.4616467"><ele>5.8</ele><time>2026-04-27T09:50:01.814Z</time></trkpt><trkpt lat="45.7080983" lon="12.461775"><ele>6.0</ele><time>2026-04-27T09:50:02.814Z</time></trkpt><trkpt lat="45.7080283" lon="12.461905"><ele>6.0</ele><time>2026-04-27T09:50:03.815Z</time></trkpt><trkpt lat="45.7079667" lon="12.4620383"><ele>6.0</ele><time>2026-04-27T09:50:04.814Z</time></trkpt><trkpt lat="45.7078983" lon="12.4621683"><ele>6.0</ele><time>2026-04-27T09:50:05.814Z</time></trkpt><trkpt lat="45.70783" lon="12.4622967"><ele>6.0</ele><time>2026-04-27T09:50:06.814Z</time></trkpt><trkpt lat="45.70776" lon="12.4624267"><ele>5.75</ele><time>2026-04-27T09:50:07.814Z</time></trkpt><trkpt lat="45.7076867" lon="12.4625567"><ele>5.5</ele><time>2026-04-27T09:50:08.814Z</time></trkpt><trkpt lat="45.7076033" lon="12.462685"><ele>5.25</ele><time>2026-04-27T09:50:09.814Z</time></trkpt><trkpt lat="45.7075333" lon="12.4628233"><ele>5.0</ele><time>2026-04-27T09:50:10.814Z</time></trkpt><trkpt lat="45.7074617" lon="12.462965"><ele>5.0</ele><time>2026-04-27T09:50:11.814Z</time></trkpt><trkpt lat="45.707385" lon="12.4631033"><ele>5.0</ele><time>2026-04-27T09:50:12.814Z</time></trkpt><trkpt lat="45.7073133" lon="12.46324"><ele>5.0</ele><time>2026-04-27T09:50:13.814Z</time></trkpt><trkpt lat="45.707245" lon="12.4633833"><ele>5.0</ele><time>2026-04-27T09:50:14.814Z</time></trkpt><trkpt lat="45.707175" lon="12.463525"><ele>5.0</ele><time>2026-04-27T09:50:15.814Z</time></trkpt><trkpt lat="45.707115" lon="12.4636483"><ele>5.0</ele><time>2026-04-27T09:50:16.814Z</time></trkpt><trkpt lat="45.7070667" lon="12.4637567"><ele>5.0</ele><time>2026-04-27T09:50:17.814Z</time></trkpt><trkpt lat="45.7070383" lon="12.4638483"><ele>5.0</ele><time>2026-04-27T09:50:18.814Z</time></trkpt><trkpt lat="45.7070383" lon="12.46398"><ele>5.0</ele><time>2026-04-27T09:50:20.814Z</time></trkpt><trkpt lat="45.7071183" lon="12.4640767"><ele>5.166666666666667</ele><time>2026-04-27T09:50:22.814Z</time></trkpt><trkpt lat="45.7071783" lon="12.4641183"><ele>5.333333333333334</ele><time>2026-04-27T09:50:23.814Z</time></trkpt><trkpt lat="45.707255" lon="12.4641617"><ele>5.5</ele><time>2026-04-27T09:50:24.814Z</time></trkpt><trkpt lat="45.7073417" lon="12.4642117"><ele>5.666666666666667</ele><time>2026-04-27T09:50:25.814Z</time></trkpt><trkpt lat="45.7074383" lon="12.4642567"><ele>5.833333333333333</ele><time>2026-04-27T09:50:26.814Z</time></trkpt><trkpt lat="45.7075317" lon="12.4642917"><ele>6.0</ele><time>2026-04-27T09:50:27.814Z</time></trkpt><trkpt lat="45.707615" lon="12.46432"><ele>6.0</ele><time>2026-04-27T09:50:28.814Z</time></trkpt><trkpt lat="45.7076983" lon="12.4643383"><ele>6.0</ele><time>2026-04-27T09:50:29.814Z</time></trkpt><trkpt lat="45.7077883" lon="12.4643433"><ele>6.0</ele><time>2026-04-27T09:50:30.814Z</time></trkpt><trkpt lat="45.7078817" lon="12.4643467"><ele>6.0</ele><time>2026-04-27T09:50:31.814Z</time></trkpt><trkpt lat="45.70798" lon="12.464355"><ele>6.0</ele><time>2026-04-27T09:50:32.814Z</time></trkpt><trkpt lat="45.70808" lon="12.46438"><ele>6.0</ele><time>2026-04-27T09:50:33.814Z</time></trkpt><trkpt lat="45.70818" lon="12.46441"><ele>6.0</ele><time>2026-04-27T09:50:34.814Z</time></trkpt><trkpt lat="45.708275" lon="12.4644417"><ele>6.0</ele><time>2026-04-27T09:50:35.814Z</time></trkpt><trkpt lat="45.7083767" lon="12.4644733"><ele>6.0</ele><time>2026-04-27T09:50:36.814Z</time></trkpt><trkpt lat="45.7084767" lon="12.464495"><ele>6.0</ele><time>2026-04-27T09:50:37.814Z</time></trkpt><trkpt lat="45.708575" lon="12.4645067"><ele>6.0</ele><time>2026-04-27T09:50:38.814Z</time></trkpt><trkpt lat="45.7086683" lon="12.4645133"><ele>6.0</ele><time>2026-04-27T09:50:39.814Z</time></trkpt><trkpt lat="45.7087617" lon="12.4645167"><ele>6.0</ele><time>2026-04-27T09:50:40.814Z</time></trkpt><trkpt lat="45.7088567" lon="12.464505"><ele>6.0</ele><time>2026-04-27T09:50:41.814Z</time></trkpt><trkpt lat="45.7089533" lon="12.464485"><ele>6.0</ele><time>2026-04-27T09:50:42.814Z</time></trkpt><trkpt lat="45.7090533" lon="12.464455"><ele>6.0</ele><time>2026-04-27T09:50:43.815Z</time></trkpt><trkpt lat="45.7091483" lon="12.4644167"><ele>6.0</ele><time>2026-04-27T09:50:44.815Z</time></trkpt><trkpt lat="45.7092367" lon="12.4643717"><ele>6.0</ele><time>2026-04-27T09:50:45.815Z</time></trkpt><trkpt lat="45.7093167" lon="12.46432"><ele>6.0</ele><time>2026-04-27T09:50:46.814Z</time></trkpt><trkpt lat="45.709385" lon="12.464265"><ele>6.0</ele><time>2026-04-27T09:50:47.814Z</time></trkpt><trkpt lat="45.7094817" lon="12.4641983"><ele>6.0</ele><time>2026-04-27T09:50:49.814Z</time></trkpt><trkpt lat="45.709545" lon="12.4642217"><ele>6.0</ele><time>2026-04-27T09:50:51.814Z</time></trkpt><trkpt lat="45.7095867" lon="12.4643167"><ele>6.0</ele><time>2026-04-27T09:50:53.814Z</time></trkpt><trkpt lat="45.7095733" lon="12.4644133"><ele>6.0</ele><time>2026-04-27T09:50:55.814Z</time></trkpt><trkpt lat="45.7094667" lon="12.4645233"><ele>6.0</ele><time>2026-04-27T09:50:57.814Z</time></trkpt><trkpt lat="45.7093783" lon="12.46459"><ele>6.0</ele><time>2026-04-27T09:50:58.814Z</time></trkpt><trkpt lat="45.7092733" lon="12.4646617"><ele>5.5</ele><time>2026-04-27T09:50:59.814Z</time></trkpt><trkpt lat="45.7091583" lon="12.46473"><ele>5.0</ele><time>2026-04-27T09:51:00.815Z</time></trkpt><trkpt lat="45.709025" lon="12.4647967"><ele>4.5</ele><time>2026-04-27T09:51:01.814Z</time></trkpt><trkpt lat="45.7088883" lon="12.4648417"><ele>4.0</ele><time>2026-04-27T09:51:02.814Z</time></trkpt><trkpt lat="45.7087533" lon="12.4648733"><ele>4.0</ele><time>2026-04-27T09:51:03.814Z</time></trkpt><trkpt lat="45.708615" lon="12.4648833"><ele>4.0</ele><time>2026-04-27T09:51:04.815Z</time></trkpt><trkpt lat="45.7084683" lon="12.4648783"><ele>4.0</ele><time>2026-04-27T09:51:05.814Z</time></trkpt><trkpt lat="45.70832" lon="12.4648633"><ele>4.0</ele><time>2026-04-27T09:51:06.814Z</time></trkpt><trkpt lat="45.7081783" lon="12.4648317"><ele>4.5</ele><time>2026-04-27T09:51:07.815Z</time></trkpt><trkpt lat="45.7080367" lon="12.464805"><ele>5.0</ele><time>2026-04-27T09:51:08.814Z</time></trkpt><trkpt lat="45.7078983" lon="12.464785"><ele>5.5</ele><time>2026-04-27T09:51:09.815Z</time></trkpt><trkpt lat="45.7077667" lon="12.4647717"><ele>6.0</ele><time>2026-04-27T09:51:10.814Z</time></trkpt><trkpt lat="45.7076467" lon="12.464745"><ele>6.0</ele><time>2026-04-27T09:51:11.814Z</time></trkpt><trkpt lat="45.707535" lon="12.4647167"><ele>6.0</ele><time>2026-04-27T09:51:12.814Z</time></trkpt><trkpt lat="45.70743" lon="12.4646817"><ele>6.0</ele><time>2026-04-27T09:51:13.814Z</time></trkpt><trkpt lat="45.7073317" lon="12.4646417"><ele>6.0</ele><time>2026-04-27T09:51:14.814Z</time></trkpt><trkpt lat="45.7072333" lon="12.46461"><ele>6.0</ele><time>2026-04-27T09:51:15.815Z</time></trkpt><trkpt lat="45.7071417" lon="12.4645817"><ele>6.0</ele><time>2026-04-27T09:51:16.814Z</time></trkpt><trkpt lat="45.7070533" lon="12.4645733"><ele>6.0</ele><time>2026-04-27T09:51:17.814Z</time></trkpt><trkpt lat="45.7069667" lon="12.4645967"><ele>6.0</ele><time>2026-04-27T09:51:18.814Z</time></trkpt><trkpt lat="45.7068867" lon="12.46464"><ele>6.0</ele><time>2026-04-27T09:51:19.814Z</time></trkpt><trkpt lat="45.70681" lon="12.4646967"><ele>6.0</ele><time>2026-04-27T09:51:20.814Z</time></trkpt><trkpt lat="45.7067417" lon="12.4647717"><ele>6.0</ele><time>2026-04-27T09:51:21.814Z</time></trkpt><trkpt lat="45.7066833" lon="12.4648667"><ele>6.199999999999999</ele><time>2026-04-27T09:51:22.814Z</time></trkpt><trkpt lat="45.7066317" lon="12.4649767"><ele>6.3999999999999995</ele><time>2026-04-27T09:51:23.814Z</time></trkpt><trkpt lat="45.706585" lon="12.465105"><ele>6.6</ele><time>2026-04-27T09:51:24.814Z</time></trkpt><trkpt lat="45.7065417" lon="12.4652433"><ele>6.8</ele><time>2026-04-27T09:51:25.814Z</time></trkpt><trkpt lat="45.7065" lon="12.4653983"><ele>7.0</ele><time>2026-04-27T09:51:26.814Z</time></trkpt><trkpt lat="45.7064483" lon="12.4655717"><ele>7.0</ele><time>2026-04-27T09:51:27.814Z</time></trkpt><trkpt lat="45.70639" lon="12.4657617"><ele>7.0</ele><time>2026-04-27T09:51:28.814Z</time></trkpt><trkpt lat="45.7063233" lon="12.4659367"><ele>7.0</ele><time>2026-04-27T09:51:29.814Z</time></trkpt><trkpt lat="45.706265" lon="12.4660883"><ele>7.0</ele><time>2026-04-27T09:51:30.814Z</time></trkpt><trkpt lat="45.7062167" lon="12.4662167"><ele>6.833333333333334</ele><time>2026-04-27T09:51:31.815Z</time></trkpt><trkpt lat="45.70618" lon="12.46633"><ele>6.666666666666667</ele><time>2026-04-27T09:51:32.814Z</time></trkpt><trkpt lat="45.7061467" lon="12.4664317"><ele>6.5</ele><time>2026-04-27T09:51:33.814Z</time></trkpt><trkpt lat="45.7061217" lon="12.466515"><ele>6.333333333333334</ele><time>2026-04-27T09:51:34.814Z</time></trkpt><trkpt lat="45.706105" lon="12.4666183"><ele>6.166666666666667</ele><time>2026-04-27T09:51:36.814Z</time></trkpt><trkpt lat="45.706165" lon="12.46669"><ele>6.0</ele><time>2026-04-27T09:51:38.814Z</time></trkpt><trkpt lat="45.7062867" lon="12.4667117"><ele>6.0</ele><time>2026-04-27T09:51:40.814Z</time></trkpt><trkpt lat="45.7063583" lon="12.466715"><ele>6.0</ele><time>2026-04-27T09:51:41.814Z</time></trkpt><trkpt lat="45.70647" lon="12.4667267"><ele>6.0</ele><time>2026-04-27T09:51:43.814Z</time></trkpt><trkpt lat="45.7065417" lon="12.4667833"><ele>6.0</ele><time>2026-04-27T09:51:45.814Z</time></trkpt><trkpt lat="45.7065917" lon="12.4669367"><ele>6.0</ele><time>2026-04-27T09:51:47.814Z</time></trkpt><trkpt lat="45.7066033" lon="12.4670533"><ele>6.0</ele><time>2026-04-27T09:51:48.814Z</time></trkpt><trkpt lat="45.706605" lon="12.4671933"><ele>6.0</ele><time>2026-04-27T09:51:49.814Z</time></trkpt><trkpt lat="45.7066" lon="12.4673383"><ele>6.0</ele><time>2026-04-27T09:51:50.814Z</time></trkpt><trkpt lat="45.706585" lon="12.467495"><ele>6.0</ele><time>2026-04-27T09:51:51.814Z</time></trkpt><trkpt lat="45.7065617" lon="12.46765"><ele>6.0</ele><time>2026-04-27T09:51:52.814Z</time></trkpt><trkpt lat="45.706535" lon="12.4678"><ele>6.0</ele><time>2026-04-27T09:51:53.814Z</time></trkpt><trkpt lat="45.7065117" lon="12.4679367"><ele>6.0</ele><time>2026-04-27T09:51:54.814Z</time></trkpt><trkpt lat="45.70649" lon="12.4680717"><ele>6.0</ele><time>2026-04-27T09:51:55.814Z</time></trkpt><trkpt lat="45.7064767" lon="12.4681967"><ele>6.0</ele><time>2026-04-27T09:51:56.814Z</time></trkpt><trkpt lat="45.7064633" lon="12.4683083"><ele>6.0</ele><time>2026-04-27T09:51:57.814Z</time></trkpt><trkpt lat="45.7064483" lon="12.4684067"><ele>6.0</ele><time>2026-04-27T09:51:58.814Z</time></trkpt><trkpt lat="45.7064183" lon="12.4685567"><ele>6.0</ele><time>2026-04-27T09:52:00.814Z</time></trkpt><trkpt lat="45.7064067" lon="12.4686583"><ele>6.0</ele><time>2026-04-27T09:52:02.814Z</time></trkpt><trkpt lat="45.7063767" lon="12.4687433"><ele>6.0</ele><time>2026-04-27T09:52:06.814Z</time></trkpt><trkpt lat="45.7063267" lon="12.4688483"><ele>6.0</ele><time>2026-04-27T09:52:10.814Z</time></trkpt><trkpt lat="45.7062717" lon="12.4689583"><ele>6.0</ele><time>2026-04-27T09:52:12.814Z</time></trkpt><trkpt lat="45.7062433" lon="12.4690817"><ele>6.0</ele><time>2026-04-27T09:52:14.814Z</time></trkpt><trkpt lat="45.7062617" lon="12.46923"><ele>6.0</ele><time>2026-04-27T09:52:16.814Z</time></trkpt><trkpt lat="45.7062683" lon="12.469375"><ele>6.0</ele><time>2026-04-27T09:52:18.814Z</time></trkpt><trkpt lat="45.7062433" lon="12.4695633"><ele>6.0</ele><time>2026-04-27T09:52:20.814Z</time></trkpt><trkpt lat="45.7062233" lon="12.4697133"><ele>6.0</ele><time>2026-04-27T09:52:21.814Z</time></trkpt><trkpt lat="45.7061717" lon="12.469845"><ele>6.0</ele><time>2026-04-27T09:52:22.814Z</time></trkpt><trkpt lat="45.7061033" lon="12.46998"><ele>6.0</ele><time>2026-04-27T09:52:23.814Z</time></trkpt><trkpt lat="45.7060533" lon="12.470105"><ele>6.0</ele><time>2026-04-27T09:52:24.814Z</time></trkpt><trkpt lat="45.7060167" lon="12.4702267"><ele>6.0</ele><time>2026-04-27T09:52:25.814Z</time></trkpt><trkpt lat="45.7060083" lon="12.4703583"><ele>6.0</ele><time>2026-04-27T09:52:26.814Z</time></trkpt><trkpt lat="45.70602" lon="12.470485"><ele>6.0</ele><time>2026-04-27T09:52:27.815Z</time></trkpt><trkpt lat="45.7060517" lon="12.4706117"><ele>6.0</ele><time>2026-04-27T09:52:28.814Z</time></trkpt><trkpt lat="45.7060967" lon="12.47074"><ele>6.0</ele><time>2026-04-27T09:52:29.814Z</time></trkpt><trkpt lat="45.706135" lon="12.4708683"><ele>6.0</ele><time>2026-04-27T09:52:30.814Z</time></trkpt><trkpt lat="45.7061683" lon="12.4710167"><ele>6.0</ele><time>2026-04-27T09:52:31.815Z</time></trkpt><trkpt lat="45.7062" lon="12.471155"><ele>6.0</ele><time>2026-04-27T09:52:32.814Z</time></trkpt><trkpt lat="45.7062283" lon="12.4712983"><ele>6.0</ele><time>2026-04-27T09:52:33.814Z</time></trkpt><trkpt lat="45.70625" lon="12.4714383"><ele>6.0</ele><time>2026-04-27T09:52:34.814Z</time></trkpt><trkpt lat="45.70628" lon="12.4715717"><ele>6.0</ele><time>2026-04-27T09:52:35.814Z</time></trkpt><trkpt lat="45.7063033" lon="12.4717067"><ele>6.0</ele><time>2026-04-27T09:52:36.814Z</time></trkpt><trkpt lat="45.7063433" lon="12.4718133"><ele>6.0</ele><time>2026-04-27T09:52:37.814Z</time></trkpt><trkpt lat="45.7063967" lon="12.4719083"><ele>6.0</ele><time>2026-04-27T09:52:38.814Z</time></trkpt><trkpt lat="45.706445" lon="12.4719833"><ele>6.0</ele><time>2026-04-27T09:52:39.814Z</time></trkpt><trkpt lat="45.706485" lon="12.472055"><ele>6.0</ele><time>2026-04-27T09:52:40.814Z</time></trkpt><trkpt lat="45.7064867" lon="12.47221"><ele>6.0</ele><time>2026-04-27T09:52:42.814Z</time></trkpt><trkpt lat="45.7064533" lon="12.4722933"><ele>6.0</ele><time>2026-04-27T09:52:43.814Z</time></trkpt><trkpt lat="45.7063917" lon="12.4723733"><ele>6.0</ele><time>2026-04-27T09:52:44.814Z</time></trkpt><trkpt lat="45.706315" lon="12.4724683"><ele>6.0</ele><time>2026-04-27T09:52:45.814Z</time></trkpt><trkpt lat="45.7062383" lon="12.4725567"><ele>6.0</ele><time>2026-04-27T09:52:46.814Z</time></trkpt><trkpt lat="45.70615" lon="12.47265"><ele>6.0</ele><time>2026-04-27T09:52:47.814Z</time></trkpt><trkpt lat="45.70606" lon="12.4727367"><ele>6.0</ele><time>2026-04-27T09:52:48.814Z</time></trkpt><trkpt lat="45.70597" lon="12.4728233"><ele>6.0</ele><time>2026-04-27T09:52:49.814Z</time></trkpt><trkpt lat="45.7058817" lon="12.4729017"><ele>6.4</ele><time>2026-04-27T09:52:50.814Z</time></trkpt><trkpt lat="45.7057983" lon="12.4729817"><ele>6.8</ele><time>2026-04-27T09:52:51.814Z</time></trkpt><trkpt lat="45.7057133" lon="12.4730533"><ele>7.200000000000001</ele><time>2026-04-27T09:52:52.814Z</time></trkpt><trkpt lat="45.7056217" lon="12.4731183"><ele>7.6000000000000005</ele><time>2026-04-27T09:52:53.814Z</time></trkpt><trkpt lat="45.7055233" lon="12.473195"><ele>8.0</ele><time>2026-04-27T09:52:54.814Z</time></trkpt><trkpt lat="45.7054317" lon="12.4732817"><ele>8.0</ele><time>2026-04-27T09:52:55.814Z</time></trkpt><trkpt lat="45.7053433" lon="12.4733817"><ele>8.0</ele><time>2026-04-27T09:52:56.814Z</time></trkpt><trkpt lat="45.7052533" lon="12.473475"><ele>8.0</ele><time>2026-04-27T09:52:57.815Z</time></trkpt><trkpt lat="45.7051733" lon="12.4735583"><ele>8.0</ele><time>2026-04-27T09:52:58.814Z</time></trkpt><trkpt lat="45.7051067" lon="12.473625"><ele>8.0</ele><time>2026-04-27T09:52:59.814Z</time></trkpt><trkpt lat="45.7050483" lon="12.473715"><ele>7.833333333333333</ele><time>2026-04-27T09:53:01.814Z</time></trkpt><trkpt lat="45.705005" lon="12.473795"><ele>7.666666666666666</ele><time>2026-04-27T09:53:04.814Z</time></trkpt><trkpt lat="45.7049483" lon="12.4738617"><ele>7.5</ele><time>2026-04-27T09:53:06.814Z</time></trkpt><trkpt lat="45.7048667" lon="12.473955"><ele>7.333333333333334</ele><time>2026-04-27T09:53:08.814Z</time></trkpt><trkpt lat="45.7048033" lon="12.4740283"><ele>7.166666666666667</ele><time>2026-04-27T09:53:09.814Z</time></trkpt><trkpt lat="45.7047367" lon="12.4741033"><ele>7.0</ele><time>2026-04-27T09:53:10.814Z</time></trkpt><trkpt lat="45.7046617" lon="12.4741967"><ele>7.0</ele><time>2026-04-27T09:53:11.814Z</time></trkpt><trkpt lat="45.704575" lon="12.4742967"><ele>6.999999999999999</ele><time>2026-04-27T09:53:12.814Z</time></trkpt><trkpt lat="45.7044867" lon="12.4743933"><ele>6.999999999999999</ele><time>2026-04-27T09:53:13.814Z</time></trkpt><trkpt lat="45.7044067" lon="12.4744783"><ele>7.0</ele><time>2026-04-27T09:53:14.814Z</time></trkpt><trkpt lat="45.704325" lon="12.47456"><ele>7.0</ele><time>2026-04-27T09:53:15.814Z</time></trkpt><trkpt lat="45.7042417" lon="12.4746417"><ele>7.3999999999999995</ele><time>2026-04-27T09:53:16.815Z</time></trkpt><trkpt lat="45.704155" lon="12.4747233"><ele>7.799999999999999</ele><time>2026-04-27T09:53:17.814Z</time></trkpt><trkpt lat="45.7040683" lon="12.4747983"><ele>8.2</ele><time>2026-04-27T09:53:18.815Z</time></trkpt><trkpt lat="45.7039817" lon="12.4748683"><ele>8.6</ele><time>2026-04-27T09:53:19.814Z</time></trkpt><trkpt lat="45.7038983" lon="12.4749317"><ele>9.0</ele><time>2026-04-27T09:53:20.814Z</time></trkpt><trkpt lat="45.7038067" lon="12.4749917"><ele>9.0</ele><time>2026-04-27T09:53:21.815Z</time></trkpt><trkpt lat="45.7037083" lon="12.4750467"><ele>9.0</ele><time>2026-04-27T09:53:22.815Z</time></trkpt><trkpt lat="45.70361" lon="12.4750983"><ele>9.0</ele><time>2026-04-27T09:53:23.814Z</time></trkpt><trkpt lat="45.7035133" lon="12.4751433"><ele>9.0</ele><time>2026-04-27T09:53:24.814Z</time></trkpt><trkpt lat="45.7034233" lon="12.4751983"><ele>9.0</ele><time>2026-04-27T09:53:25.814Z</time></trkpt><trkpt lat="45.7033333" lon="12.4752583"><ele>8.4</ele><time>2026-04-27T09:53:26.814Z</time></trkpt><trkpt lat="45.703245" lon="12.4753167"><ele>7.800000000000001</ele><time>2026-04-27T09:53:27.814Z</time></trkpt><trkpt lat="45.7031567" lon="12.4753833"><ele>7.199999999999999</ele><time>2026-04-27T09:53:28.814Z</time></trkpt><trkpt lat="45.703065" lon="12.4754467"><ele>6.6</ele><time>2026-04-27T09:53:29.814Z</time></trkpt><trkpt lat="45.7029583" lon="12.4755117"><ele>6.0</ele><time>2026-04-27T09:53:30.814Z</time></trkpt><trkpt lat="45.7028267" lon="12.475585"><ele>6.666666666666666</ele><time>2026-04-27T09:53:31.814Z</time></trkpt><trkpt lat="45.7026767" lon="12.4756567"><ele>7.333333333333333</ele><time>2026-04-27T09:53:32.814Z</time></trkpt><trkpt lat="45.70251" lon="12.4757433"><ele>8.0</ele><time>2026-04-27T09:53:33.814Z</time></trkpt><trkpt lat="45.70233" lon="12.475825"><ele>8.0</ele><time>2026-04-27T09:53:34.814Z</time></trkpt><trkpt lat="45.7021483" lon="12.4759117"><ele>8.0</ele><time>2026-04-27T09:53:35.814Z</time></trkpt><trkpt lat="45.701955" lon="12.4760233"><ele>8.0</ele><time>2026-04-27T09:53:36.814Z</time></trkpt><trkpt lat="45.7017517" lon="12.476125"><ele>8.0</ele><time>2026-04-27T09:53:37.814Z</time></trkpt><trkpt lat="45.70155" lon="12.4762317"><ele>8.0</ele><time>2026-04-27T09:53:38.814Z</time></trkpt><trkpt lat="45.7013717" lon="12.476325"><ele>8.0</ele><time>2026-04-27T09:53:39.814Z</time></trkpt><trkpt lat="45.7012" lon="12.4764133"><ele>8.0</ele><time>2026-04-27T09:53:40.814Z</time></trkpt><trkpt lat="45.7010383" lon="12.4765067"><ele>8.0</ele><time>2026-04-27T09:53:41.814Z</time></trkpt><trkpt lat="45.70089" lon="12.47659"><ele>8.0</ele><time>2026-04-27T09:53:42.815Z</time></trkpt><trkpt lat="45.7007383" lon="12.4766817"><ele>8.0</ele><time>2026-04-27T09:53:43.814Z</time></trkpt><trkpt lat="45.7005867" lon="12.47677"><ele>8.0</ele><time>2026-04-27T09:53:44.814Z</time></trkpt><trkpt lat="45.7004333" lon="12.47686"><ele>8.0</ele><time>2026-04-27T09:53:45.814Z</time></trkpt><trkpt lat="45.7002833" lon="12.476955"><ele>7.5</ele><time>2026-04-27T09:53:46.814Z</time></trkpt><trkpt lat="45.700145" lon="12.4770433"><ele>7.0</ele><time>2026-04-27T09:53:47.814Z</time></trkpt><trkpt lat="45.700015" lon="12.4771233"><ele>6.5</ele><time>2026-04-27T09:53:48.814Z</time></trkpt><trkpt lat="45.6998917" lon="12.4771933"><ele>6.0</ele><time>2026-04-27T09:53:49.814Z</time></trkpt><trkpt lat="45.6997717" lon="12.4772533"><ele>6.0</ele><time>2026-04-27T09:53:50.814Z</time></trkpt><trkpt lat="45.6996617" lon="12.4773033"><ele>6.0</ele><time>2026-04-27T09:53:51.814Z</time></trkpt><trkpt lat="45.6995583" lon="12.4773433"><ele>6.0</ele><time>2026-04-27T09:53:52.815Z</time></trkpt><trkpt lat="45.69945" lon="12.477405"><ele>6.0</ele><time>2026-04-27T09:53:53.814Z</time></trkpt><trkpt lat="45.69934" lon="12.4775"><ele>6.5</ele><time>2026-04-27T09:53:54.814Z</time></trkpt><trkpt lat="45.6992333" lon="12.4775967"><ele>7.0</ele><time>2026-04-27T09:53:55.814Z</time></trkpt><trkpt lat="45.6991167" lon="12.4776967"><ele>7.5</ele><time>2026-04-27T09:53:56.814Z</time></trkpt><trkpt lat="45.69899" lon="12.477805"><ele>8.0</ele><time>2026-04-27T09:53:57.814Z</time></trkpt><trkpt lat="45.698875" lon="12.4779083"><ele>8.0</ele><time>2026-04-27T09:53:58.814Z</time></trkpt><trkpt lat="45.6987633" lon="12.478"><ele>8.0</ele><time>2026-04-27T09:53:59.814Z</time></trkpt><trkpt lat="45.6986483" lon="12.4780967"><ele>8.0</ele><time>2026-04-27T09:54:00.814Z</time></trkpt><trkpt lat="45.69854" lon="12.4781867"><ele>8.0</ele><time>2026-04-27T09:54:01.814Z</time></trkpt><trkpt lat="45.6984283" lon="12.478265"><ele>8.0</ele><time>2026-04-27T09:54:02.815Z</time></trkpt><trkpt lat="45.69831" lon="12.4783383"><ele>8.0</ele><time>2026-04-27T09:54:03.814Z</time></trkpt><trkpt lat="45.6981883" lon="12.4784083"><ele>8.0</ele><time>2026-04-27T09:54:04.814Z</time></trkpt><trkpt lat="45.698065" lon="12.4784733"><ele>8.0</ele><time>2026-04-27T09:54:05.814Z</time></trkpt><trkpt lat="45.6979433" lon="12.47855"><ele>8.0</ele><time>2026-04-27T09:54:06.814Z</time></trkpt><trkpt lat="45.697825" lon="12.4786283"><ele>8.0</ele><time>2026-04-27T09:54:07.814Z</time></trkpt><trkpt lat="45.69772" lon="12.4787083"><ele>8.0</ele><time>2026-04-27T09:54:08.814Z</time></trkpt><trkpt lat="45.6976233" lon="12.4787817"><ele>8.0</ele><time>2026-04-27T09:54:09.814Z</time></trkpt><trkpt lat="45.697535" lon="12.4788617"><ele>8.200000000000001</ele><time>2026-04-27T09:54:10.814Z</time></trkpt><trkpt lat="45.69745" lon="12.47895"><ele>8.4</ele><time>2026-04-27T09:54:11.814Z</time></trkpt><trkpt lat="45.697365" lon="12.4790417"><ele>8.600000000000001</ele><time>2026-04-27T09:54:12.815Z</time></trkpt><trkpt lat="45.69728" lon="12.4791417"><ele>8.8</ele><time>2026-04-27T09:54:13.814Z</time></trkpt><trkpt lat="45.6972017" lon="12.4792583"><ele>9.0</ele><time>2026-04-27T09:54:14.814Z</time></trkpt><trkpt lat="45.69713" lon="12.4793733"><ele>9.0</ele><time>2026-04-27T09:54:15.814Z</time></trkpt><trkpt lat="45.69704" lon="12.4794733"><ele>9.0</ele><time>2026-04-27T09:54:16.814Z</time></trkpt><trkpt lat="45.6969767" lon="12.4795867"><ele>9.0</ele><time>2026-04-27T09:54:17.814Z</time></trkpt><trkpt lat="45.6969083" lon="12.4797117"><ele>9.0</ele><time>2026-04-27T09:54:18.814Z</time></trkpt><trkpt lat="45.6968467" lon="12.4798383"><ele>9.0</ele><time>2026-04-27T09:54:19.814Z</time></trkpt><trkpt lat="45.6967833" lon="12.4799717"><ele>8.25</ele><time>2026-04-27T09:54:20.814Z</time></trkpt><trkpt lat="45.6967067" lon="12.4801183"><ele>7.5</ele><time>2026-04-27T09:54:21.814Z</time></trkpt><trkpt lat="45.6966383" lon="12.48027"><ele>6.75</ele><time>2026-04-27T09:54:22.814Z</time></trkpt><trkpt lat="45.6965817" lon="12.480415"><ele>6.0</ele><time>2026-04-27T09:54:23.815Z</time></trkpt><trkpt lat="45.6965233" lon="12.4805517"><ele>6.0</ele><time>2026-04-27T09:54:24.814Z</time></trkpt><trkpt lat="45.6964767" lon="12.4806717"><ele>6.0</ele><time>2026-04-27T09:54:25.814Z</time></trkpt><trkpt lat="45.69643" lon="12.4807933"><ele>6.0</ele><time>2026-04-27T09:54:26.814Z</time></trkpt><trkpt lat="45.696395" lon="12.4809"><ele>6.0</ele><time>2026-04-27T09:54:27.814Z</time></trkpt><trkpt lat="45.696365" lon="12.4809983"><ele>6.0</ele><time>2026-04-27T09:54:28.815Z</time></trkpt><trkpt lat="45.69633" lon="12.4810883"><ele>6.0</ele><time>2026-04-27T09:54:29.814Z</time></trkpt><trkpt lat="45.6962983" lon="12.4811667"><ele>6.0</ele><time>2026-04-27T09:54:30.814Z</time></trkpt><trkpt lat="45.6962633" lon="12.481295"><ele>6.0</ele><time>2026-04-27T09:54:32.814Z</time></trkpt><trkpt lat="45.6962683" lon="12.4814067"><ele>6.0</ele><time>2026-04-27T09:54:34.814Z</time></trkpt><trkpt lat="45.69628" lon="12.4815067"><ele>6.0</ele><time>2026-04-27T09:54:36.814Z</time></trkpt><trkpt lat="45.69621" lon="12.48167"><ele>6.0</ele><time>2026-04-27T09:54:38.814Z</time></trkpt><trkpt lat="45.6961567" lon="12.4817683"><ele>5.999999999999999</ele><time>2026-04-27T09:54:39.814Z</time></trkpt><trkpt lat="45.6961117" lon="12.4818583"><ele>6.0</ele><time>2026-04-27T09:54:40.814Z</time></trkpt><trkpt lat="45.6960683" lon="12.48194"><ele>6.0</ele><time>2026-04-27T09:54:41.814Z</time></trkpt><trkpt lat="45.6960333" lon="12.4820267"><ele>6.0</ele><time>2026-04-27T09:54:42.814Z</time></trkpt><trkpt lat="45.696005" lon="12.4821117"><ele>6.0</ele><time>2026-04-27T09:54:43.814Z</time></trkpt><trkpt lat="45.69598" lon="12.482195"><ele>5.999999999999999</ele><time>2026-04-27T09:54:44.814Z</time></trkpt><trkpt lat="45.6959467" lon="12.4822783"><ele>6.0</ele><time>2026-04-27T09:54:45.814Z</time></trkpt><trkpt lat="45.695905" lon="12.4823783"><ele>6.0</ele><time>2026-04-27T09:54:46.814Z</time></trkpt><trkpt lat="45.6958633" lon="12.482495"><ele>6.0</ele><time>2026-04-27T09:54:47.814Z</time></trkpt><trkpt lat="45.6958017" lon="12.4826233"><ele>6.0</ele><time>2026-04-27T09:54:48.814Z</time></trkpt><trkpt lat="45.69575" lon="12.4827583"><ele>6.0</ele><time>2026-04-27T09:54:49.814Z</time></trkpt><trkpt lat="45.6956983" lon="12.4829167"><ele>6.0</ele><time>2026-04-27T09:54:50.814Z</time></trkpt><trkpt lat="45.6956433" lon="12.4830733"><ele>6.0</ele><time>2026-04-27T09:54:51.814Z</time></trkpt><trkpt lat="45.6955983" lon="12.48321"><ele>6.0</ele><time>2026-04-27T09:54:52.814Z</time></trkpt><trkpt lat="45.6955567" lon="12.48334"><ele>6.0</ele><time>2026-04-27T09:54:53.814Z</time></trkpt><trkpt lat="45.6955167" lon="12.483475"><ele>6.0</ele><time>2026-04-27T09:54:54.814Z</time></trkpt><trkpt lat="45.6954717" lon="12.4836217"><ele>6.0</ele><time>2026-04-27T09:54:55.814Z</time></trkpt><trkpt lat="45.6954183" lon="12.4837633"><ele>6.0</ele><time>2026-04-27T09:54:56.814Z</time></trkpt><trkpt lat="45.6953517" lon="12.48391"><ele>6.0</ele><time>2026-04-27T09:54:57.814Z</time></trkpt><trkpt lat="45.6952833" lon="12.4840567"><ele>6.0</ele><time>2026-04-27T09:54:58.814Z</time></trkpt><trkpt lat="45.695215" lon="12.4842133"><ele>6.0</ele><time>2026-04-27T09:54:59.815Z</time></trkpt><trkpt lat="45.6951533" lon="12.4843833"><ele>6.0</ele><time>2026-04-27T09:55:00.814Z</time></trkpt><trkpt lat="45.6950917" lon="12.4845633"><ele>6.0</ele><time>2026-04-27T09:55:01.814Z</time></trkpt><trkpt lat="45.6950333" lon="12.4847467"><ele>6.0</ele><time>2026-04-27T09:55:02.814Z</time></trkpt><trkpt lat="45.6949717" lon="12.4849283"><ele>6.0</ele><time>2026-04-27T09:55:03.814Z</time></trkpt><trkpt lat="45.6949133" lon="12.4850933"><ele>6.0</ele><time>2026-04-27T09:55:04.814Z</time></trkpt><trkpt lat="45.6948583" lon="12.4852533"><ele>6.0</ele><time>2026-04-27T09:55:05.814Z</time></trkpt><trkpt lat="45.6947983" lon="12.4854217"><ele>6.0</ele><time>2026-04-27T09:55:06.814Z</time></trkpt><trkpt lat="45.6947367" lon="12.4855933"><ele>6.0</ele><time>2026-04-27T09:55:07.814Z</time></trkpt><trkpt lat="45.6946733" lon="12.4857667"><ele>6.0</ele><time>2026-04-27T09:55:08.814Z</time></trkpt><trkpt lat="45.6946167" lon="12.4859317"><ele>6.0</ele><time>2026-04-27T09:55:09.814Z</time></trkpt><trkpt lat="45.6945583" lon="12.4860967"><ele>6.0</ele><time>2026-04-27T09:55:10.814Z</time></trkpt><trkpt lat="45.6945017" lon="12.4862617"><ele>6.0</ele><time>2026-04-27T09:55:11.814Z</time></trkpt><trkpt lat="45.69444" lon="12.4864317"><ele>6.0</ele><time>2026-04-27T09:55:12.814Z</time></trkpt><trkpt lat="45.6943783" lon="12.4865983"><ele>6.0</ele><time>2026-04-27T09:55:13.814Z</time></trkpt><trkpt lat="45.6943183" lon="12.4867583"><ele>6.0</ele><time>2026-04-27T09:55:14.814Z</time></trkpt><trkpt lat="45.694265" lon="12.486905"><ele>6.0</ele><time>2026-04-27T09:55:15.814Z</time></trkpt><trkpt lat="45.6942067" lon="12.4870583"><ele>6.5</ele><time>2026-04-27T09:55:16.814Z</time></trkpt><trkpt lat="45.694155" lon="12.4872117"><ele>7.0</ele><time>2026-04-27T09:55:17.814Z</time></trkpt><trkpt lat="45.6940983" lon="12.4873567"><ele>7.5</ele><time>2026-04-27T09:55:18.814Z</time></trkpt><trkpt lat="45.694035" lon="12.4875017"><ele>8.0</ele><time>2026-04-27T09:55:19.815Z</time></trkpt><trkpt lat="45.6939783" lon="12.487635"><ele>8.0</ele><time>2026-04-27T09:55:20.814Z</time></trkpt><trkpt lat="45.6939233" lon="12.4877617"><ele>8.0</ele><time>2026-04-27T09:55:21.814Z</time></trkpt><trkpt lat="45.6938733" lon="12.4878783"><ele>8.0</ele><time>2026-04-27T09:55:22.814Z</time></trkpt><trkpt lat="45.693835" lon="12.4879733"><ele>8.0</ele><time>2026-04-27T09:55:23.814Z</time></trkpt><trkpt lat="45.6938017" lon="12.48812"><ele>8.0</ele><time>2026-04-27T09:55:25.814Z</time></trkpt><trkpt lat="45.6938067" lon="12.4882867"><ele>7.800000000000001</ele><time>2026-04-27T09:55:27.814Z</time></trkpt><trkpt lat="45.693795" lon="12.48839"><ele>7.6000000000000005</ele><time>2026-04-27T09:55:28.814Z</time></trkpt><trkpt lat="45.693765" lon="12.4884983"><ele>7.3999999999999995</ele><time>2026-04-27T09:55:29.814Z</time></trkpt><trkpt lat="45.6937383" lon="12.4886367"><ele>7.199999999999999</ele><time>2026-04-27T09:55:30.814Z</time></trkpt><trkpt lat="45.6937167" lon="12.4888067"><ele>7.0</ele><time>2026-04-27T09:55:31.814Z</time></trkpt><trkpt lat="45.6937" lon="12.4890183"><ele>7.0</ele><time>2026-04-27T09:55:32.814Z</time></trkpt><trkpt lat="45.693695" lon="12.4892483"><ele>7.0</ele><time>2026-04-27T09:55:33.814Z</time></trkpt><trkpt lat="45.69369" lon="12.4894883"><ele>7.0</ele><time>2026-04-27T09:55:34.814Z</time></trkpt><trkpt lat="45.6936867" lon="12.4897467"><ele>7.0</ele><time>2026-04-27T09:55:35.814Z</time></trkpt><trkpt lat="45.6936833" lon="12.4899983"><ele>7.0</ele><time>2026-04-27T09:55:36.814Z</time></trkpt><trkpt lat="45.693675" lon="12.490235"><ele>7.0</ele><time>2026-04-27T09:55:37.814Z</time></trkpt><trkpt lat="45.6936717" lon="12.49047"><ele>7.333333333333334</ele><time>2026-04-27T09:55:38.814Z</time></trkpt><trkpt lat="45.6936717" lon="12.4907"><ele>7.666666666666666</ele><time>2026-04-27T09:55:39.814Z</time></trkpt><trkpt lat="45.69367" lon="12.490915"><ele>8.0</ele><time>2026-04-27T09:55:40.814Z</time></trkpt><trkpt lat="45.693665" lon="12.4911283"><ele>7.333333333333333</ele><time>2026-04-27T09:55:41.814Z</time></trkpt><trkpt lat="45.69366" lon="12.4913417"><ele>6.666666666666666</ele><time>2026-04-27T09:55:42.814Z</time></trkpt><trkpt lat="45.6936467" lon="12.4915567"><ele>6.0</ele><time>2026-04-27T09:55:43.814Z</time></trkpt><trkpt lat="45.69364" lon="12.4918"><ele>6.0</ele><time>2026-04-27T09:55:44.814Z</time></trkpt><trkpt lat="45.6936317" lon="12.4920567"><ele>6.0</ele><time>2026-04-27T09:55:45.814Z</time></trkpt><trkpt lat="45.6936383" lon="12.492325"><ele>6.0</ele><time>2026-04-27T09:55:46.814Z</time></trkpt><trkpt lat="45.6936367" lon="12.4925683"><ele>6.0</ele><time>2026-04-27T09:55:47.814Z</time></trkpt><trkpt lat="45.6936317" lon="12.4927767"><ele>6.0</ele><time>2026-04-27T09:55:48.814Z</time></trkpt><trkpt lat="45.6936267" lon="12.49297"><ele>6.0</ele><time>2026-04-27T09:55:49.814Z</time></trkpt><trkpt lat="45.6936183" lon="12.4931483"><ele>6.0</ele><time>2026-04-27T09:55:50.814Z</time></trkpt><trkpt lat="45.6936117" lon="12.493315"><ele>6.0</ele><time>2026-04-27T09:55:51.814Z</time></trkpt><trkpt lat="45.693605" lon="12.49347"><ele>6.0</ele><time>2026-04-27T09:55:52.814Z</time></trkpt><trkpt lat="45.6936033" lon="12.49362"><ele>6.0</ele><time>2026-04-27T09:55:53.814Z</time></trkpt><trkpt lat="45.6935967" lon="12.4937683"><ele>6.0</ele><time>2026-04-27T09:55:54.814Z</time></trkpt><trkpt lat="45.6935933" lon="12.493915"><ele>6.0</ele><time>2026-04-27T09:55:55.814Z</time></trkpt><trkpt lat="45.6935917" lon="12.4940583"><ele>6.0</ele><time>2026-04-27T09:55:56.814Z</time></trkpt><trkpt lat="45.6935983" lon="12.4942117"><ele>6.0</ele><time>2026-04-27T09:55:57.814Z</time></trkpt><trkpt lat="45.6936033" lon="12.4943733"><ele>6.0</ele><time>2026-04-27T09:55:58.814Z</time></trkpt><trkpt lat="45.6935933" lon="12.4945383"><ele>6.0</ele><time>2026-04-27T09:55:59.814Z</time></trkpt><trkpt lat="45.693585" lon="12.4947117"><ele>6.0</ele><time>2026-04-27T09:56:00.814Z</time></trkpt><trkpt lat="45.6935783" lon="12.4948967"><ele>6.0</ele><time>2026-04-27T09:56:01.814Z</time></trkpt><trkpt lat="45.69357" lon="12.4951"><ele>6.0</ele><time>2026-04-27T09:56:02.814Z</time></trkpt><trkpt lat="45.69357" lon="12.4953117"><ele>6.0</ele><time>2026-04-27T09:56:03.814Z</time></trkpt><trkpt lat="45.6935667" lon="12.4955233"><ele>6.0</ele><time>2026-04-27T09:56:04.814Z</time></trkpt><trkpt lat="45.6935667" lon="12.49572"><ele>6.0</ele><time>2026-04-27T09:56:05.814Z</time></trkpt><trkpt lat="45.69357" lon="12.495895"><ele>6.0</ele><time>2026-04-27T09:56:06.815Z</time></trkpt><trkpt lat="45.69357" lon="12.4960717"><ele>6.0</ele><time>2026-04-27T09:56:07.814Z</time></trkpt><trkpt lat="45.6935667" lon="12.4962467"><ele>5.75</ele><time>2026-04-27T09:56:08.814Z</time></trkpt><trkpt lat="45.693565" lon="12.4964217"><ele>5.5</ele><time>2026-04-27T09:56:09.814Z</time></trkpt><trkpt lat="45.6935617" lon="12.4965983"><ele>5.25</ele><time>2026-04-27T09:56:10.814Z</time></trkpt><trkpt lat="45.6935583" lon="12.4967767"><ele>5.0</ele><time>2026-04-27T09:56:11.814Z</time></trkpt><trkpt lat="45.6935517" lon="12.4969567"><ele>5.25</ele><time>2026-04-27T09:56:12.814Z</time></trkpt><trkpt lat="45.6935483" lon="12.4971483"><ele>5.5</ele><time>2026-04-27T09:56:13.814Z</time></trkpt><trkpt lat="45.6935467" lon="12.4973433"><ele>5.75</ele><time>2026-04-27T09:56:14.814Z</time></trkpt><trkpt lat="45.6935417" lon="12.4975383"><ele>6.0</ele><time>2026-04-27T09:56:15.814Z</time></trkpt><trkpt lat="45.6935283" lon="12.497735"><ele>5.75</ele><time>2026-04-27T09:56:16.814Z</time></trkpt><trkpt lat="45.6935083" lon="12.4979383"><ele>5.5</ele><time>2026-04-27T09:56:17.814Z</time></trkpt><trkpt lat="45.6934867" lon="12.4981317"><ele>5.25</ele><time>2026-04-27T09:56:18.814Z</time></trkpt><trkpt lat="45.6934617" lon="12.4983083"><ele>5.0</ele><time>2026-04-27T09:56:19.814Z</time></trkpt><trkpt lat="45.6934333" lon="12.4984617"><ele>5.0</ele><time>2026-04-27T09:56:20.814Z</time></trkpt><trkpt lat="45.693415" lon="12.498605"><ele>5.0</ele><time>2026-04-27T09:56:21.815Z</time></trkpt><trkpt lat="45.6933883" lon="12.4987383"><ele>5.0</ele><time>2026-04-27T09:56:22.814Z</time></trkpt><trkpt lat="45.6933633" lon="12.498865"><ele>5.0</ele><time>2026-04-27T09:56:23.814Z</time></trkpt><trkpt lat="45.69334" lon="12.4989767"><ele>5.0</ele><time>2026-04-27T09:56:24.814Z</time></trkpt><trkpt lat="45.6933233" lon="12.4990983"><ele>4.833333333333334</ele><time>2026-04-27T09:56:25.814Z</time></trkpt><trkpt lat="45.69331" lon="12.499215"><ele>4.666666666666667</ele><time>2026-04-27T09:56:26.815Z</time></trkpt><trkpt lat="45.6932983" lon="12.4993383"><ele>4.5</ele><time>2026-04-27T09:56:27.814Z</time></trkpt><trkpt lat="45.6932917" lon="12.499455"><ele>4.333333333333333</ele><time>2026-04-27T09:56:28.814Z</time></trkpt><trkpt lat="45.6932883" lon="12.4995733"><ele>4.166666666666666</ele><time>2026-04-27T09:56:29.814Z</time></trkpt><trkpt lat="45.6932717" lon="12.4997017"><ele>4.0</ele><time>2026-04-27T09:56:30.814Z</time></trkpt><trkpt lat="45.693245" lon="12.4998417"><ele>4.0</ele><time>2026-04-27T09:56:31.815Z</time></trkpt><trkpt lat="45.69321" lon="12.500005"><ele>4.0</ele><time>2026-04-27T09:56:32.814Z</time></trkpt><trkpt lat="45.693165" lon="12.5001833"><ele>4.0</ele><time>2026-04-27T09:56:33.814Z</time></trkpt><trkpt lat="45.6931133" lon="12.5003817"><ele>4.0</ele><time>2026-04-27T09:56:34.815Z</time></trkpt><trkpt lat="45.6930483" lon="12.500585"><ele>4.0</ele><time>2026-04-27T09:56:35.814Z</time></trkpt><trkpt lat="45.6929883" lon="12.5007733"><ele>4.0</ele><time>2026-04-27T09:56:36.814Z</time></trkpt><trkpt lat="45.6929267" lon="12.50095"><ele>4.0</ele><time>2026-04-27T09:56:37.815Z</time></trkpt><trkpt lat="45.6928617" lon="12.5011083"><ele>4.0</ele><time>2026-04-27T09:56:38.814Z</time></trkpt><trkpt lat="45.692805" lon="12.5012667"><ele>4.25</ele><time>2026-04-27T09:56:39.814Z</time></trkpt><trkpt lat="45.69275" lon="12.501425"><ele>4.5</ele><time>2026-04-27T09:56:40.814Z</time></trkpt><trkpt lat="45.6926867" lon="12.5015867"><ele>4.75</ele><time>2026-04-27T09:56:41.814Z</time></trkpt><trkpt lat="45.6926133" lon="12.50175"><ele>5.0</ele><time>2026-04-27T09:56:42.814Z</time></trkpt><trkpt lat="45.6925283" lon="12.5019217"><ele>4.75</ele><time>2026-04-27T09:56:43.814Z</time></trkpt><trkpt lat="45.6924533" lon="12.5020833"><ele>4.5</ele><time>2026-04-27T09:56:44.815Z</time></trkpt><trkpt lat="45.6923783" lon="12.5022283"><ele>4.25</ele><time>2026-04-27T09:56:45.814Z</time></trkpt><trkpt lat="45.6922983" lon="12.502355"><ele>4.0</ele><time>2026-04-27T09:56:46.814Z</time></trkpt><trkpt lat="45.692205" lon="12.5024783"><ele>4.0</ele><time>2026-04-27T09:56:47.814Z</time></trkpt><trkpt lat="45.69211" lon="12.502615"><ele>4.0</ele><time>2026-04-27T09:56:48.814Z</time></trkpt><trkpt lat="45.6919933" lon="12.5027783"><ele>4.0</ele><time>2026-04-27T09:56:49.814Z</time></trkpt><trkpt lat="45.6918667" lon="12.5029533"><ele>4.333333333333333</ele><time>2026-04-27T09:56:50.814Z</time></trkpt><trkpt lat="45.6917367" lon="12.5031217"><ele>4.666666666666667</ele><time>2026-04-27T09:56:51.814Z</time></trkpt><trkpt lat="45.6916117" lon="12.50329"><ele>5.0</ele><time>2026-04-27T09:56:52.814Z</time></trkpt><trkpt lat="45.6915017" lon="12.5034433"><ele>5.0</ele><time>2026-04-27T09:56:53.814Z</time></trkpt><trkpt lat="45.6914" lon="12.50358"><ele>5.0</ele><time>2026-04-27T09:56:54.815Z</time></trkpt><trkpt lat="45.691315" lon="12.5036917"><ele>5.0</ele><time>2026-04-27T09:56:55.814Z</time></trkpt><trkpt lat="45.6912483" lon="12.5037933"><ele>5.0</ele><time>2026-04-27T09:56:56.814Z</time></trkpt><trkpt lat="45.6911867" lon="12.5038817"><ele>5.0</ele><time>2026-04-27T09:56:57.814Z</time></trkpt><trkpt lat="45.691125" lon="12.503955"><ele>5.0</ele><time>2026-04-27T09:56:58.814Z</time></trkpt><trkpt lat="45.6910517" lon="12.5040133"><ele>5.0</ele><time>2026-04-27T09:56:59.814Z</time></trkpt><trkpt lat="45.69096" lon="12.5040633"><ele>5.0</ele><time>2026-04-27T09:57:00.814Z</time></trkpt><trkpt lat="45.6908717" lon="12.5041117"><ele>5.0</ele><time>2026-04-27T09:57:01.814Z</time></trkpt><trkpt lat="45.6907833" lon="12.5041817"><ele>5.0</ele><time>2026-04-27T09:57:02.814Z</time></trkpt><trkpt lat="45.6906817" lon="12.504265"><ele>5.0</ele><time>2026-04-27T09:57:03.814Z</time></trkpt><trkpt lat="45.6905717" lon="12.5043583"><ele>5.0</ele><time>2026-04-27T09:57:04.814Z</time></trkpt><trkpt lat="45.6904567" lon="12.50446"><ele>5.0</ele><time>2026-04-27T09:57:05.814Z</time></trkpt><trkpt lat="45.6903367" lon="12.5045783"><ele>5.0</ele><time>2026-04-27T09:57:06.814Z</time></trkpt><trkpt lat="45.69021" lon="12.5046967"><ele>4.75</ele><time>2026-04-27T09:57:07.814Z</time></trkpt><trkpt lat="45.690085" lon="12.5048"><ele>4.5</ele><time>2026-04-27T09:57:08.814Z</time></trkpt><trkpt lat="45.6899667" lon="12.504895"><ele>4.25</ele><time>2026-04-27T09:57:09.814Z</time></trkpt><trkpt lat="45.6898533" lon="12.5049733"><ele>4.0</ele><time>2026-04-27T09:57:10.814Z</time></trkpt><trkpt lat="45.6897383" lon="12.50505"><ele>4.0</ele><time>2026-04-27T09:57:11.814Z</time></trkpt><trkpt lat="45.6896267" lon="12.5051317"><ele>4.0</ele><time>2026-04-27T09:57:12.814Z</time></trkpt><trkpt lat="45.6895133" lon="12.5052133"><ele>4.0</ele><time>2026-04-27T09:57:13.814Z</time></trkpt><trkpt lat="45.6894033" lon="12.5052933"><ele>4.0</ele><time>2026-04-27T09:57:14.814Z</time></trkpt><trkpt lat="45.6892933" lon="12.5053683"><ele>4.25</ele><time>2026-04-27T09:57:15.814Z</time></trkpt><trkpt lat="45.689175" lon="12.5054467"><ele>4.5</ele><time>2026-04-27T09:57:16.814Z</time></trkpt><trkpt lat="45.6890583" lon="12.5055233"><ele>4.75</ele><time>2026-04-27T09:57:17.814Z</time></trkpt><trkpt lat="45.6889433" lon="12.5055983"><ele>5.0</ele><time>2026-04-27T09:57:18.815Z</time></trkpt><trkpt lat="45.6888283" lon="12.5056717"><ele>5.0</ele><time>2026-04-27T09:57:19.814Z</time></trkpt><trkpt lat="45.6887033" lon="12.5057383"><ele>5.0</ele><time>2026-04-27T09:57:20.814Z</time></trkpt><trkpt lat="45.6885717" lon="12.50581"><ele>5.0</ele><time>2026-04-27T09:57:21.814Z</time></trkpt><trkpt lat="45.6884467" lon="12.5058733"><ele>5.0</ele><time>2026-04-27T09:57:22.815Z</time></trkpt><trkpt lat="45.6883333" lon="12.5059367"><ele>4.75</ele><time>2026-04-27T09:57:23.815Z</time></trkpt><trkpt lat="45.688225" lon="12.5059983"><ele>4.5</ele><time>2026-04-27T09:57:24.815Z</time></trkpt><trkpt lat="45.68811" lon="12.5060617"><ele>4.25</ele><time>2026-04-27T09:57:25.814Z</time></trkpt><trkpt lat="45.688" lon="12.5061267"><ele>4.0</ele><time>2026-04-27T09:57:26.814Z</time></trkpt><trkpt lat="45.687885" lon="12.5061883"><ele>4.0</ele><time>2026-04-27T09:57:27.814Z</time></trkpt><trkpt lat="45.687765" lon="12.5062633"><ele>4.0</ele><time>2026-04-27T09:57:28.814Z</time></trkpt><trkpt lat="45.6876433" lon="12.5063317"><ele>4.0</ele><time>2026-04-27T09:57:29.814Z</time></trkpt><trkpt lat="45.6875167" lon="12.5063967"><ele>4.0</ele><time>2026-04-27T09:57:30.814Z</time></trkpt><trkpt lat="45.687385" lon="12.5064667"><ele>4.25</ele><time>2026-04-27T09:57:31.814Z</time></trkpt><trkpt lat="45.6872517" lon="12.5065317"><ele>4.5</ele><time>2026-04-27T09:57:32.814Z</time></trkpt><trkpt lat="45.6871083" lon="12.5066"><ele>4.75</ele><time>2026-04-27T09:57:33.814Z</time></trkpt><trkpt lat="45.6869633" lon="12.50666"><ele>5.0</ele><time>2026-04-27T09:57:34.814Z</time></trkpt><trkpt lat="45.6868133" lon="12.5067267"><ele>5.0</ele><time>2026-04-27T09:57:35.814Z</time></trkpt><trkpt lat="45.68666" lon="12.5067967"><ele>5.0</ele><time>2026-04-27T09:57:36.814Z</time></trkpt><trkpt lat="45.6865017" lon="12.5068567"><ele>5.0</ele><time>2026-04-27T09:57:37.814Z</time></trkpt><trkpt lat="45.6863533" lon="12.506915"><ele>5.0</ele><time>2026-04-27T09:57:38.814Z</time></trkpt><trkpt lat="45.6862083" lon="12.5069683"><ele>5.0</ele><time>2026-04-27T09:57:39.814Z</time></trkpt><trkpt lat="45.68606" lon="12.507015"><ele>5.0</ele><time>2026-04-27T09:57:40.814Z</time></trkpt><trkpt lat="45.6859133" lon="12.5070617"><ele>4.666666666666667</ele><time>2026-04-27T09:57:41.815Z</time></trkpt><trkpt lat="45.6857617" lon="12.5070983"><ele>4.333333333333333</ele><time>2026-04-27T09:57:42.814Z</time></trkpt><trkpt lat="45.6856083" lon="12.5071317"><ele>4.0</ele><time>2026-04-27T09:57:43.814Z</time></trkpt><trkpt lat="45.6854567" lon="12.507155"><ele>4.0</ele><time>2026-04-27T09:57:44.814Z</time></trkpt><trkpt lat="45.6853067" lon="12.5071817"><ele>4.0</ele><time>2026-04-27T09:57:45.814Z</time></trkpt><trkpt lat="45.6851583" lon="12.5072133"><ele>4.0</ele><time>2026-04-27T09:57:46.814Z</time></trkpt><trkpt lat="45.6850067" lon="12.507235"><ele>4.0</ele><time>2026-04-27T09:57:47.814Z</time></trkpt><trkpt lat="45.6848483" lon="12.5072517"><ele>4.0</ele><time>2026-04-27T09:57:48.814Z</time></trkpt><trkpt lat="45.68469" lon="12.50727"><ele>4.0</ele><time>2026-04-27T09:57:49.815Z</time></trkpt><trkpt lat="45.6845317" lon="12.5072767"><ele>4.333333333333333</ele><time>2026-04-27T09:57:50.814Z</time></trkpt><trkpt lat="45.6843717" lon="12.50728"><ele>4.666666666666667</ele><time>2026-04-27T09:57:51.814Z</time></trkpt><trkpt lat="45.6842083" lon="12.5072767"><ele>5.0</ele><time>2026-04-27T09:57:52.814Z</time></trkpt><trkpt lat="45.6840517" lon="12.507265"><ele>5.0</ele><time>2026-04-27T09:57:53.814Z</time></trkpt><trkpt lat="45.6839033" lon="12.5072467"><ele>5.0</ele><time>2026-04-27T09:57:54.815Z</time></trkpt><trkpt lat="45.683755" lon="12.5072217"><ele>5.0</ele><time>2026-04-27T09:57:55.814Z</time></trkpt><trkpt lat="45.6836067" lon="12.507185"><ele>5.0</ele><time>2026-04-27T09:57:56.814Z</time></trkpt><trkpt lat="45.6834517" lon="12.5071317"><ele>5.0</ele><time>2026-04-27T09:57:57.814Z</time></trkpt><trkpt lat="45.6832983" lon="12.507085"><ele>5.0</ele><time>2026-04-27T09:57:58.814Z</time></trkpt><trkpt lat="45.6831517" lon="12.5070467"><ele>5.0</ele><time>2026-04-27T09:57:59.815Z</time></trkpt><trkpt lat="45.6830133" lon="12.5070267"><ele>5.0</ele><time>2026-04-27T09:58:00.814Z</time></trkpt><trkpt lat="45.6828883" lon="12.5070117"><ele>4.75</ele><time>2026-04-27T09:58:01.814Z</time></trkpt><trkpt lat="45.682775" lon="12.5069983"><ele>4.5</ele><time>2026-04-27T09:58:02.814Z</time></trkpt><trkpt lat="45.6826567" lon="12.5069833"><ele>4.25</ele><time>2026-04-27T09:58:03.814Z</time></trkpt><trkpt lat="45.6825283" lon="12.5069667"><ele>4.0</ele><time>2026-04-27T09:58:04.814Z</time></trkpt><trkpt lat="45.6824" lon="12.5069383"><ele>4.0</ele><time>2026-04-27T09:58:05.815Z</time></trkpt><trkpt lat="45.68227" lon="12.5068883"><ele>4.0</ele><time>2026-04-27T09:58:06.814Z</time></trkpt><trkpt lat="45.6821383" lon="12.5068333"><ele>4.0</ele><time>2026-04-27T09:58:07.814Z</time></trkpt><trkpt lat="45.6820067" lon="12.5067583"><ele>4.0</ele><time>2026-04-27T09:58:08.814Z</time></trkpt><trkpt lat="45.681875" lon="12.506675"><ele>3.6666666666666665</ele><time>2026-04-27T09:58:09.814Z</time></trkpt><trkpt lat="45.6817383" lon="12.5065783"><ele>3.333333333333333</ele><time>2026-04-27T09:58:10.815Z</time></trkpt><trkpt lat="45.6816017" lon="12.5064783"><ele>3.0</ele><time>2026-04-27T09:58:11.814Z</time></trkpt><trkpt lat="45.6814483" lon="12.50636"><ele>3.0</ele><time>2026-04-27T09:58:12.814Z</time></trkpt><trkpt lat="45.681295" lon="12.5062283"><ele>3.0</ele><time>2026-04-27T09:58:13.814Z</time></trkpt><trkpt lat="45.681145" lon="12.5060933"><ele>3.0</ele><time>2026-04-27T09:58:14.814Z</time></trkpt><trkpt lat="45.68101" lon="12.5059517"><ele>3.0</ele><time>2026-04-27T09:58:15.814Z</time></trkpt><trkpt lat="45.6808817" lon="12.5058067"><ele>3.0</ele><time>2026-04-27T09:58:16.814Z</time></trkpt><trkpt lat="45.6807583" lon="12.5056483"><ele>3.0</ele><time>2026-04-27T09:58:17.814Z</time></trkpt><trkpt lat="45.6806383" lon="12.5054833"><ele>3.333333333333333</ele><time>2026-04-27T09:58:18.814Z</time></trkpt><trkpt lat="45.6805283" lon="12.5053033"><ele>3.6666666666666665</ele><time>2026-04-27T09:58:19.815Z</time></trkpt><trkpt lat="45.6804217" lon="12.5051267"><ele>4.0</ele><time>2026-04-27T09:58:20.814Z</time></trkpt><trkpt lat="45.6803233" lon="12.50494"><ele>4.0</ele><time>2026-04-27T09:58:21.814Z</time></trkpt><trkpt lat="45.6802317" lon="12.5047533"><ele>4.0</ele><time>2026-04-27T09:58:22.814Z</time></trkpt><trkpt lat="45.68015" lon="12.50457"><ele>4.0</ele><time>2026-04-27T09:58:23.814Z</time></trkpt><trkpt lat="45.6800717" lon="12.5043867"><ele>4.0</ele><time>2026-04-27T09:58:24.814Z</time></trkpt><trkpt lat="45.6800017" lon="12.5042067"><ele>4.0</ele><time>2026-04-27T09:58:25.814Z</time></trkpt><trkpt lat="45.67994" lon="12.5040283"><ele>4.0</ele><time>2026-04-27T09:58:26.814Z</time></trkpt><trkpt lat="45.6798783" lon="12.5038617"><ele>4.0</ele><time>2026-04-27T09:58:27.814Z</time></trkpt><trkpt lat="45.6798117" lon="12.50369"><ele>4.0</ele><time>2026-04-27T09:58:28.814Z</time></trkpt><trkpt lat="45.6797433" lon="12.5035133"><ele>4.0</ele><time>2026-04-27T09:58:29.814Z</time></trkpt><trkpt lat="45.67967" lon="12.5033367"><ele>4.0</ele><time>2026-04-27T09:58:30.814Z</time></trkpt><trkpt lat="45.67959" lon="12.50316"><ele>4.0</ele><time>2026-04-27T09:58:31.814Z</time></trkpt><trkpt lat="45.6795267" lon="12.50298"><ele>4.25</ele><time>2026-04-27T09:58:32.814Z</time></trkpt><trkpt lat="45.6794617" lon="12.5028033"><ele>4.5</ele><time>2026-04-27T09:58:33.814Z</time></trkpt><trkpt lat="45.6794" lon="12.5026217"><ele>4.75</ele><time>2026-04-27T09:58:34.814Z</time></trkpt><trkpt lat="45.6793417" lon="12.5024317"><ele>5.0</ele><time>2026-04-27T09:58:35.815Z</time></trkpt><trkpt lat="45.6792783" lon="12.5022283"><ele>5.333333333333334</ele><time>2026-04-27T09:58:36.814Z</time></trkpt><trkpt lat="45.6792167" lon="12.5020133"><ele>5.666666666666667</ele><time>2026-04-27T09:58:37.814Z</time></trkpt><trkpt lat="45.6791433" lon="12.5017967"><ele>6.0</ele><time>2026-04-27T09:58:38.814Z</time></trkpt><trkpt lat="45.6790683" lon="12.5015967"><ele>6.0</ele><time>2026-04-27T09:58:39.814Z</time></trkpt><trkpt lat="45.6789883" lon="12.50138"><ele>6.0</ele><time>2026-04-27T09:58:40.814Z</time></trkpt><trkpt lat="45.6789067" lon="12.50117"><ele>6.0</ele><time>2026-04-27T09:58:41.814Z</time></trkpt><trkpt lat="45.6788267" lon="12.5009633"><ele>5.666666666666667</ele><time>2026-04-27T09:58:42.814Z</time></trkpt><trkpt lat="45.6787583" lon="12.5007617"><ele>5.333333333333334</ele><time>2026-04-27T09:58:43.814Z</time></trkpt><trkpt lat="45.6786867" lon="12.50056"><ele>5.0</ele><time>2026-04-27T09:58:44.814Z</time></trkpt><trkpt lat="45.6786233" lon="12.5003733"><ele>5.0</ele><time>2026-04-27T09:58:45.814Z</time></trkpt><trkpt lat="45.6785617" lon="12.5002033"><ele>5.0</ele><time>2026-04-27T09:58:46.815Z</time></trkpt><trkpt lat="45.678505" lon="12.50004"><ele>5.0</ele><time>2026-04-27T09:58:47.814Z</time></trkpt><trkpt lat="45.6784483" lon="12.4998867"><ele>5.0</ele><time>2026-04-27T09:58:48.814Z</time></trkpt><trkpt lat="45.678395" lon="12.4997533"><ele>5.0</ele><time>2026-04-27T09:58:49.814Z</time></trkpt><trkpt lat="45.6783383" lon="12.4996233"><ele>5.0</ele><time>2026-04-27T09:58:50.814Z</time></trkpt><trkpt lat="45.6782767" lon="12.4995017"><ele>5.0</ele><time>2026-04-27T09:58:51.814Z</time></trkpt><trkpt lat="45.678215" lon="12.49938"><ele>5.0</ele><time>2026-04-27T09:58:52.814Z</time></trkpt><trkpt lat="45.67815" lon="12.49927"><ele>5.0</ele><time>2026-04-27T09:58:53.814Z</time></trkpt><trkpt lat="45.67808" lon="12.4991667"><ele>5.25</ele><time>2026-04-27T09:58:54.814Z</time></trkpt><trkpt lat="45.677995" lon="12.4990683"><ele>5.5</ele><time>2026-04-27T09:58:55.814Z</time></trkpt><trkpt lat="45.677905" lon="12.4989667"><ele>5.75</ele><time>2026-04-27T09:58:56.814Z</time></trkpt><trkpt lat="45.6778083" lon="12.498865"><ele>6.0</ele><time>2026-04-27T09:58:57.814Z</time></trkpt><trkpt lat="45.677705" lon="12.498765"><ele>6.25</ele><time>2026-04-27T09:58:58.814Z</time></trkpt><trkpt lat="45.6775983" lon="12.49867"><ele>6.5</ele><time>2026-04-27T09:58:59.814Z</time></trkpt><trkpt lat="45.6774967" lon="12.4985683"><ele>6.75</ele><time>2026-04-27T09:59:00.814Z</time></trkpt><trkpt lat="45.6773833" lon="12.4984683"><ele>7.0</ele><time>2026-04-27T09:59:01.815Z</time></trkpt><trkpt lat="45.677265" lon="12.4983767"><ele>7.0</ele><time>2026-04-27T09:59:02.814Z</time></trkpt><trkpt lat="45.6771467" lon="12.49829"><ele>6.999999999999999</ele><time>2026-04-27T09:59:03.814Z</time></trkpt><trkpt lat="45.67704" lon="12.4982183"><ele>6.999999999999999</ele><time>2026-04-27T09:59:04.814Z</time></trkpt><trkpt lat="45.6769467" lon="12.4981817"><ele>7.0</ele><time>2026-04-27T09:59:05.815Z</time></trkpt><trkpt lat="45.6768733" lon="12.498155"><ele>7.0</ele><time>2026-04-27T09:59:06.815Z</time></trkpt><trkpt lat="45.67681" lon="12.4981367"><ele>7.166666666666667</ele><time>2026-04-27T09:59:07.815Z</time></trkpt><trkpt lat="45.6766867" lon="12.4981183"><ele>7.333333333333334</ele><time>2026-04-27T09:59:09.814Z</time></trkpt><trkpt lat="45.67662" lon="12.498115"><ele>7.5</ele><time>2026-04-27T09:59:10.814Z</time></trkpt><trkpt lat="45.6765483" lon="12.49811"><ele>7.666666666666666</ele><time>2026-04-27T09:59:11.815Z</time></trkpt><trkpt lat="45.6764767" lon="12.4981067"><ele>7.833333333333333</ele><time>2026-04-27T09:59:12.814Z</time></trkpt><trkpt lat="45.6763883" lon="12.49811"><ele>8.0</ele><time>2026-04-27T09:59:13.815Z</time></trkpt><trkpt lat="45.6763067" lon="12.49811"><ele>8.0</ele><time>2026-04-27T09:59:14.814Z</time></trkpt><trkpt lat="45.676215" lon="12.4980917"><ele>8.0</ele><time>2026-04-27T09:59:15.814Z</time></trkpt><trkpt lat="45.6761183" lon="12.4980567"><ele>8.0</ele><time>2026-04-27T09:59:16.814Z</time></trkpt><trkpt lat="45.6760133" lon="12.4980217"><ele>8.0</ele><time>2026-04-27T09:59:17.814Z</time></trkpt><trkpt lat="45.6759" lon="12.4979917"><ele>8.0</ele><time>2026-04-27T09:59:18.814Z</time></trkpt><trkpt lat="45.6757783" lon="12.4979767"><ele>7.800000000000001</ele><time>2026-04-27T09:59:19.814Z</time></trkpt><trkpt lat="45.67566" lon="12.497965"><ele>7.6000000000000005</ele><time>2026-04-27T09:59:20.814Z</time></trkpt><trkpt lat="45.6755517" lon="12.49796"><ele>7.3999999999999995</ele><time>2026-04-27T09:59:21.814Z</time></trkpt><trkpt lat="45.6754483" lon="12.49796"><ele>7.199999999999999</ele><time>2026-04-27T09:59:22.814Z</time></trkpt><trkpt lat="45.6753433" lon="12.497975"><ele>7.0</ele><time>2026-04-27T09:59:23.814Z</time></trkpt><trkpt lat="45.6752367" lon="12.4979917"><ele>7.0</ele><time>2026-04-27T09:59:24.814Z</time></trkpt><trkpt lat="45.6751267" lon="12.4980067"><ele>6.999999999999999</ele><time>2026-04-27T09:59:25.814Z</time></trkpt><trkpt lat="45.675015" lon="12.4980283"><ele>6.999999999999999</ele><time>2026-04-27T09:59:26.814Z</time></trkpt><trkpt lat="45.6749067" lon="12.4980533"><ele>7.0</ele><time>2026-04-27T09:59:27.815Z</time></trkpt><trkpt lat="45.6747933" lon="12.4980833"><ele>7.0</ele><time>2026-04-27T09:59:28.814Z</time></trkpt><trkpt lat="45.67468" lon="12.4981133"><ele>7.0</ele><time>2026-04-27T09:59:29.814Z</time></trkpt><trkpt lat="45.6745633" lon="12.4981517"><ele>7.0</ele><time>2026-04-27T09:59:30.814Z</time></trkpt><trkpt lat="45.6744417" lon="12.4982067"><ele>7.0</ele><time>2026-04-27T09:59:31.814Z</time></trkpt><trkpt lat="45.6743267" lon="12.498255"><ele>7.0</ele><time>2026-04-27T09:59:32.814Z</time></trkpt><trkpt lat="45.67421" lon="12.4983133"><ele>7.0</ele><time>2026-04-27T09:59:33.815Z</time></trkpt><trkpt lat="45.6740983" lon="12.4983717"><ele>7.0</ele><time>2026-04-27T09:59:34.814Z</time></trkpt><trkpt lat="45.6739867" lon="12.49843"><ele>7.0</ele><time>2026-04-27T09:59:35.815Z</time></trkpt><trkpt lat="45.673875" lon="12.4985"><ele>7.0</ele><time>2026-04-27T09:59:36.814Z</time></trkpt><trkpt lat="45.6737633" lon="12.498575"><ele>7.0</ele><time>2026-04-27T09:59:37.814Z</time></trkpt><trkpt lat="45.6736617" lon="12.4986633"><ele>7.0</ele><time>2026-04-27T09:59:38.814Z</time></trkpt><trkpt lat="45.6735467" lon="12.4987467"><ele>7.0</ele><time>2026-04-27T09:59:39.814Z</time></trkpt><trkpt lat="45.6734317" lon="12.4988417"><ele>7.0</ele><time>2026-04-27T09:59:40.814Z</time></trkpt><trkpt lat="45.67332" lon="12.498955"><ele>7.0</ele><time>2026-04-27T09:59:41.814Z</time></trkpt><trkpt lat="45.67321" lon="12.4990667"><ele>7.0</ele><time>2026-04-27T09:59:42.814Z</time></trkpt><trkpt lat="45.6731" lon="12.49918"><ele>7.0</ele><time>2026-04-27T09:59:43.814Z</time></trkpt><trkpt lat="45.6729933" lon="12.4992933"><ele>7.0</ele><time>2026-04-27T09:59:44.814Z</time></trkpt><trkpt lat="45.6728817" lon="12.499405"><ele>7.0</ele><time>2026-04-27T09:59:45.814Z</time></trkpt><trkpt lat="45.6727733" lon="12.49952"><ele>7.0</ele><time>2026-04-27T09:59:46.814Z</time></trkpt><trkpt lat="45.6726583" lon="12.4996367"><ele>7.0</ele><time>2026-04-27T09:59:47.814Z</time></trkpt><trkpt lat="45.6725433" lon="12.4997517"><ele>7.0</ele><time>2026-04-27T09:59:48.815Z</time></trkpt><trkpt lat="45.67243" lon="12.4998717"><ele>6.75</ele><time>2026-04-27T09:59:49.814Z</time></trkpt><trkpt lat="45.6723183" lon="12.499985"><ele>6.5</ele><time>2026-04-27T09:59:50.815Z</time></trkpt><trkpt lat="45.672215" lon="12.500095"><ele>6.25</ele><time>2026-04-27T09:59:51.814Z</time></trkpt><trkpt lat="45.672105" lon="12.5002033"><ele>6.0</ele><time>2026-04-27T09:59:52.814Z</time></trkpt><trkpt lat="45.6719967" lon="12.5003117"><ele>5.75</ele><time>2026-04-27T09:59:53.814Z</time></trkpt><trkpt lat="45.6718983" lon="12.50042"><ele>5.5</ele><time>2026-04-27T09:59:54.814Z</time></trkpt><trkpt lat="45.6717933" lon="12.5005267"><ele>5.25</ele><time>2026-04-27T09:59:55.814Z</time></trkpt><trkpt lat="45.6716883" lon="12.5006283"><ele>5.0</ele><time>2026-04-27T09:59:56.814Z</time></trkpt><trkpt lat="45.6715817" lon="12.5007433"><ele>5.0</ele><time>2026-04-27T09:59:57.814Z</time></trkpt><trkpt lat="45.6714683" lon="12.5008533"><ele>5.0</ele><time>2026-04-27T09:59:58.814Z</time></trkpt><trkpt lat="45.6713533" lon="12.5009683"><ele>5.0</ele><time>2026-04-27T09:59:59.814Z</time></trkpt><trkpt lat="45.6712383" lon="12.5010817"><ele>5.0</ele><time>2026-04-27T10:00:00.814Z</time></trkpt><trkpt lat="45.67112" lon="12.5012017"><ele>5.25</ele><time>2026-04-27T10:00:01.814Z</time></trkpt><trkpt lat="45.67101" lon="12.5013183"><ele>5.5</ele><time>2026-04-27T10:00:02.814Z</time></trkpt><trkpt lat="45.6709" lon="12.5014383"><ele>5.75</ele><time>2026-04-27T10:00:03.814Z</time></trkpt><trkpt lat="45.67079" lon="12.5015533"><ele>6.0</ele><time>2026-04-27T10:00:04.814Z</time></trkpt><trkpt lat="45.670675" lon="12.5016733"><ele>6.0</ele><time>2026-04-27T10:00:05.814Z</time></trkpt><trkpt lat="45.6705583" lon="12.5017883"><ele>6.0</ele><time>2026-04-27T10:00:06.814Z</time></trkpt><trkpt lat="45.670445" lon="12.5019"><ele>6.0</ele><time>2026-04-27T10:00:07.814Z</time></trkpt><trkpt lat="45.6703367" lon="12.5020083"><ele>6.0</ele><time>2026-04-27T10:00:08.814Z</time></trkpt><trkpt lat="45.67023" lon="12.5021167"><ele>5.5</ele><time>2026-04-27T10:00:09.814Z</time></trkpt><trkpt lat="45.6701267" lon="12.5022233"><ele>5.0</ele><time>2026-04-27T10:00:10.814Z</time></trkpt><trkpt lat="45.6700183" lon="12.5023383"><ele>4.5</ele><time>2026-04-27T10:00:11.814Z</time></trkpt><trkpt lat="45.6699033" lon="12.5024467"><ele>4.0</ele><time>2026-04-27T10:00:12.814Z</time></trkpt><trkpt lat="45.66979" lon="12.5025617"><ele>4.0</ele><time>2026-04-27T10:00:13.814Z</time></trkpt><trkpt lat="45.6696783" lon="12.502675"><ele>4.0</ele><time>2026-04-27T10:00:14.814Z</time></trkpt><trkpt lat="45.669565" lon="12.5027883"><ele>4.0</ele><time>2026-04-27T10:00:15.814Z</time></trkpt><trkpt lat="45.6694533" lon="12.5029033"><ele>4.0</ele><time>2026-04-27T10:00:16.814Z</time></trkpt><trkpt lat="45.669335" lon="12.5030167"><ele>4.25</ele><time>2026-04-27T10:00:17.814Z</time></trkpt><trkpt lat="45.669225" lon="12.503125"><ele>4.5</ele><time>2026-04-27T10:00:18.814Z</time></trkpt><trkpt lat="45.6691133" lon="12.5032417"><ele>4.75</ele><time>2026-04-27T10:00:19.814Z</time></trkpt><trkpt lat="45.6690033" lon="12.5033617"><ele>5.0</ele><time>2026-04-27T10:00:20.815Z</time></trkpt><trkpt lat="45.6688883" lon="12.5034817"><ele>5.0</ele><time>2026-04-27T10:00:21.814Z</time></trkpt><trkpt lat="45.6687717" lon="12.5036033"><ele>5.0</ele><time>2026-04-27T10:00:22.814Z</time></trkpt><trkpt lat="45.6686483" lon="12.5037267"><ele>5.0</ele><time>2026-04-27T10:00:23.814Z</time></trkpt><trkpt lat="45.6685267" lon="12.503855"><ele>5.0</ele><time>2026-04-27T10:00:24.814Z</time></trkpt><trkpt lat="45.66841" lon="12.5039783"><ele>5.25</ele><time>2026-04-27T10:00:25.814Z</time></trkpt><trkpt lat="45.6683017" lon="12.5040917"><ele>5.5</ele><time>2026-04-27T10:00:26.814Z</time></trkpt><trkpt lat="45.6681983" lon="12.5042033"><ele>5.75</ele><time>2026-04-27T10:00:27.814Z</time></trkpt><trkpt lat="45.6680967" lon="12.5043083"><ele>6.0</ele><time>2026-04-27T10:00:28.814Z</time></trkpt><trkpt lat="45.6679917" lon="12.5044217"><ele>6.0</ele><time>2026-04-27T10:00:29.814Z</time></trkpt><trkpt lat="45.6678917" lon="12.5045333"><ele>6.0</ele><time>2026-04-27T10:00:30.815Z</time></trkpt><trkpt lat="45.6677933" lon="12.5046517"><ele>6.0</ele><time>2026-04-27T10:00:31.814Z</time></trkpt><trkpt lat="45.667695" lon="12.504775"><ele>6.0</ele><time>2026-04-27T10:00:32.814Z</time></trkpt><trkpt lat="45.6676017" lon="12.5049117"><ele>5.75</ele><time>2026-04-27T10:00:33.814Z</time></trkpt><trkpt lat="45.667515" lon="12.5050533"><ele>5.5</ele><time>2026-04-27T10:00:34.814Z</time></trkpt><trkpt lat="45.6674317" lon="12.5052"><ele>5.25</ele><time>2026-04-27T10:00:35.814Z</time></trkpt><trkpt lat="45.66736" lon="12.505345"><ele>5.0</ele><time>2026-04-27T10:00:36.815Z</time></trkpt><trkpt lat="45.6672883" lon="12.5054967"><ele>5.0</ele><time>2026-04-27T10:00:37.814Z</time></trkpt><trkpt lat="45.6672267" lon="12.5056583"><ele>5.0</ele><time>2026-04-27T10:00:38.814Z</time></trkpt><trkpt lat="45.66717" lon="12.5058217"><ele>5.0</ele><time>2026-04-27T10:00:39.814Z</time></trkpt><trkpt lat="45.66712" lon="12.5059917"><ele>5.0</ele><time>2026-04-27T10:00:40.815Z</time></trkpt><trkpt lat="45.6670717" lon="12.5061467"><ele>5.0</ele><time>2026-04-27T10:00:41.814Z</time></trkpt><trkpt lat="45.66703" lon="12.5063067"><ele>5.0</ele><time>2026-04-27T10:00:42.814Z</time></trkpt><trkpt lat="45.6669967" lon="12.5064683"><ele>5.0</ele><time>2026-04-27T10:00:43.815Z</time></trkpt><trkpt lat="45.66697" lon="12.5066367"><ele>5.0</ele><time>2026-04-27T10:00:44.814Z</time></trkpt><trkpt lat="45.6669433" lon="12.5067983"><ele>5.0</ele><time>2026-04-27T10:00:45.814Z</time></trkpt><trkpt lat="45.6669283" lon="12.5069533"><ele>5.0</ele><time>2026-04-27T10:00:46.814Z</time></trkpt><trkpt lat="45.66692" lon="12.5071083"><ele>5.0</ele><time>2026-04-27T10:00:47.814Z</time></trkpt><trkpt lat="45.6669217" lon="12.5072767"><ele>5.0</ele><time>2026-04-27T10:00:48.814Z</time></trkpt><trkpt lat="45.666925" lon="12.50745"><ele>5.0</ele><time>2026-04-27T10:00:49.815Z</time></trkpt><trkpt lat="45.66694" lon="12.5076317"><ele>5.0</ele><time>2026-04-27T10:00:50.814Z</time></trkpt><trkpt lat="45.6669567" lon="12.507805"><ele>5.0</ele><time>2026-04-27T10:00:51.814Z</time></trkpt><trkpt lat="45.6669817" lon="12.507985"><ele>5.0</ele><time>2026-04-27T10:00:52.814Z</time></trkpt><trkpt lat="45.6670167" lon="12.508175"><ele>4.75</ele><time>2026-04-27T10:00:53.814Z</time></trkpt><trkpt lat="45.6670567" lon="12.508355"><ele>4.5</ele><time>2026-04-27T10:00:54.814Z</time></trkpt><trkpt lat="45.6671017" lon="12.5085433"><ele>4.25</ele><time>2026-04-27T10:00:55.814Z</time></trkpt><trkpt lat="45.6671533" lon="12.50873"><ele>4.0</ele><time>2026-04-27T10:00:56.814Z</time></trkpt><trkpt lat="45.66721" lon="12.5088983"><ele>3.0</ele><time>2026-04-27T10:00:57.814Z</time></trkpt><trkpt lat="45.6672683" lon="12.509075"><ele>2.0</ele><time>2026-04-27T10:00:58.814Z</time></trkpt><trkpt lat="45.6673383" lon="12.5092383"><ele>1.0</ele><time>2026-04-27T10:00:59.814Z</time></trkpt><trkpt lat="45.6674083" lon="12.5094017"><ele>0.0</ele><time>2026-04-27T10:01:00.814Z</time></trkpt><trkpt lat="45.66749" lon="12.5095617"><ele>0.75</ele><time>2026-04-27T10:01:01.814Z</time></trkpt><trkpt lat="45.66757" lon="12.50972"><ele>1.5</ele><time>2026-04-27T10:01:02.814Z</time></trkpt><trkpt lat="45.667645" lon="12.50988"><ele>2.25</ele><time>2026-04-27T10:01:03.814Z</time></trkpt><trkpt lat="45.66772" lon="12.510035"><ele>3.0</ele><time>2026-04-27T10:01:04.814Z</time></trkpt><trkpt lat="45.66779" lon="12.510185"><ele>3.5</ele><time>2026-04-27T10:01:05.814Z</time></trkpt><trkpt lat="45.6678633" lon="12.5103383"><ele>4.0</ele><time>2026-04-27T10:01:06.814Z</time></trkpt><trkpt lat="45.6679317" lon="12.5104817"><ele>4.5</ele><time>2026-04-27T10:01:07.814Z</time></trkpt><trkpt lat="45.6680067" lon="12.51062"><ele>5.0</ele><time>2026-04-27T10:01:08.815Z</time></trkpt><trkpt lat="45.6680867" lon="12.5107683"><ele>5.0</ele><time>2026-04-27T10:01:09.814Z</time></trkpt><trkpt lat="45.6681717" lon="12.5109117"><ele>5.0</ele><time>2026-04-27T10:01:10.815Z</time></trkpt><trkpt lat="45.668255" lon="12.5110617"><ele>5.0</ele><time>2026-04-27T10:01:11.814Z</time></trkpt><trkpt lat="45.6683467" lon="12.5112233"><ele>5.0</ele><time>2026-04-27T10:01:12.814Z</time></trkpt><trkpt lat="45.6684383" lon="12.5113817"><ele>5.0</ele><time>2026-04-27T10:01:13.814Z</time></trkpt><trkpt lat="45.6685217" lon="12.5115467"><ele>5.0</ele><time>2026-04-27T10:01:14.814Z</time></trkpt><trkpt lat="45.668595" lon="12.5117117"><ele>5.0</ele><time>2026-04-27T10:01:15.814Z</time></trkpt><trkpt lat="45.66866" lon="12.5118683"><ele>5.0</ele><time>2026-04-27T10:01:16.814Z</time></trkpt><trkpt lat="45.66872" lon="12.512025"><ele>5.25</ele><time>2026-04-27T10:01:17.814Z</time></trkpt><trkpt lat="45.6687767" lon="12.51219"><ele>5.5</ele><time>2026-04-27T10:01:18.815Z</time></trkpt><trkpt lat="45.6688417" lon="12.5123517"><ele>5.75</ele><time>2026-04-27T10:01:19.815Z</time></trkpt><trkpt lat="45.6688983" lon="12.5125217"><ele>6.0</ele><time>2026-04-27T10:01:20.814Z</time></trkpt><trkpt lat="45.6689467" lon="12.5126867"><ele>6.0</ele><time>2026-04-27T10:01:21.814Z</time></trkpt><trkpt lat="45.6689883" lon="12.512845"><ele>6.0</ele><time>2026-04-27T10:01:22.814Z</time></trkpt><trkpt lat="45.66903" lon="12.5130033"><ele>6.0</ele><time>2026-04-27T10:01:23.814Z</time></trkpt><trkpt lat="45.6690683" lon="12.5131633"><ele>6.0</ele><time>2026-04-27T10:01:24.814Z</time></trkpt><trkpt lat="45.6691033" lon="12.5133217"><ele>6.0</ele><time>2026-04-27T10:01:25.814Z</time></trkpt><trkpt lat="45.6691433" lon="12.5134867"><ele>6.0</ele><time>2026-04-27T10:01:26.814Z</time></trkpt><trkpt lat="45.669185" lon="12.5136617"><ele>6.0</ele><time>2026-04-27T10:01:27.814Z</time></trkpt><trkpt lat="45.6692267" lon="12.5138317"><ele>6.0</ele><time>2026-04-27T10:01:28.814Z</time></trkpt><trkpt lat="45.6692633" lon="12.51401"><ele>5.25</ele><time>2026-04-27T10:01:29.815Z</time></trkpt><trkpt lat="45.6692983" lon="12.5141983"><ele>4.5</ele><time>2026-04-27T10:01:30.814Z</time></trkpt><trkpt lat="45.669335" lon="12.51439"><ele>3.75</ele><time>2026-04-27T10:01:31.814Z</time></trkpt><trkpt lat="45.669375" lon="12.514575"><ele>3.0</ele><time>2026-04-27T10:01:32.814Z</time></trkpt><trkpt lat="45.669415" lon="12.5147667"><ele>3.5</ele><time>2026-04-27T10:01:33.814Z</time></trkpt><trkpt lat="45.6694517" lon="12.5149583"><ele>4.0</ele><time>2026-04-27T10:01:34.814Z</time></trkpt><trkpt lat="45.6694933" lon="12.515145"><ele>4.5</ele><time>2026-04-27T10:01:35.814Z</time></trkpt><trkpt lat="45.66953" lon="12.5153283"><ele>5.0</ele><time>2026-04-27T10:01:36.814Z</time></trkpt><trkpt lat="45.66955" lon="12.5155117"><ele>5.0</ele><time>2026-04-27T10:01:37.814Z</time></trkpt><trkpt lat="45.6695583" lon="12.515705"><ele>5.0</ele><time>2026-04-27T10:01:38.814Z</time></trkpt><trkpt lat="45.66956" lon="12.5159033"><ele>5.0</ele><time>2026-04-27T10:01:39.814Z</time></trkpt><trkpt lat="45.6695467" lon="12.5160983"><ele>5.0</ele><time>2026-04-27T10:01:40.814Z</time></trkpt><trkpt lat="45.6695233" lon="12.5162933"><ele>5.0</ele><time>2026-04-27T10:01:41.814Z</time></trkpt><trkpt lat="45.6694883" lon="12.5164883"><ele>5.0</ele><time>2026-04-27T10:01:42.814Z</time></trkpt><trkpt lat="45.66945" lon="12.5166883"><ele>5.0</ele><time>2026-04-27T10:01:43.814Z</time></trkpt><trkpt lat="45.6693917" lon="12.51688"><ele>5.0</ele><time>2026-04-27T10:01:44.814Z</time></trkpt><trkpt lat="45.669335" lon="12.5170683"><ele>5.25</ele><time>2026-04-27T10:01:45.814Z</time></trkpt><trkpt lat="45.6692667" lon="12.5172317"><ele>5.5</ele><time>2026-04-27T10:01:46.814Z</time></trkpt><trkpt lat="45.6691917" lon="12.5173883"><ele>5.75</ele><time>2026-04-27T10:01:47.814Z</time></trkpt><trkpt lat="45.6691067" lon="12.5175383"><ele>6.0</ele><time>2026-04-27T10:01:48.814Z</time></trkpt><trkpt lat="45.6690217" lon="12.5176867"><ele>6.0</ele><time>2026-04-27T10:01:49.814Z</time></trkpt><trkpt lat="45.6689283" lon="12.5178283"><ele>6.0</ele><time>2026-04-27T10:01:50.814Z</time></trkpt><trkpt lat="45.6688317" lon="12.5179583"><ele>6.0</ele><time>2026-04-27T10:01:51.814Z</time></trkpt><trkpt lat="45.668725" lon="12.5180683"><ele>6.0</ele><time>2026-04-27T10:01:52.814Z</time></trkpt><trkpt lat="45.6686083" lon="12.5181717"><ele>5.75</ele><time>2026-04-27T10:01:53.814Z</time></trkpt><trkpt lat="45.6684867" lon="12.518265"><ele>5.5</ele><time>2026-04-27T10:01:54.814Z</time></trkpt><trkpt lat="45.668355" lon="12.5183617"><ele>5.25</ele><time>2026-04-27T10:01:55.815Z</time></trkpt><trkpt lat="45.6682233" lon="12.5184433"><ele>5.0</ele><time>2026-04-27T10:01:56.814Z</time></trkpt><trkpt lat="45.6680883" lon="12.51852"><ele>5.0</ele><time>2026-04-27T10:01:57.814Z</time></trkpt><trkpt lat="45.6679683" lon="12.51858"><ele>5.0</ele><time>2026-04-27T10:01:58.814Z</time></trkpt><trkpt lat="45.667845" lon="12.5186183"><ele>5.0</ele><time>2026-04-27T10:01:59.814Z</time></trkpt><trkpt lat="45.6677117" lon="12.5186433"><ele>5.0</ele><time>2026-04-27T10:02:00.814Z</time></trkpt><trkpt lat="45.66759" lon="12.5186483"><ele>4.0</ele><time>2026-04-27T10:02:01.814Z</time></trkpt><trkpt lat="45.667465" lon="12.5186217"><ele>3.0</ele><time>2026-04-27T10:02:02.814Z</time></trkpt><trkpt lat="45.6673333" lon="12.5185817"><ele>2.0</ele><time>2026-04-27T10:02:03.814Z</time></trkpt><trkpt lat="45.6671917" lon="12.5185467"><ele>1.0</ele><time>2026-04-27T10:02:04.814Z</time></trkpt><trkpt lat="45.6670583" lon="12.51851"><ele>2.0</ele><time>2026-04-27T10:02:05.814Z</time></trkpt><trkpt lat="45.6669383" lon="12.51847"><ele>3.0</ele><time>2026-04-27T10:02:06.814Z</time></trkpt><trkpt lat="45.6668267" lon="12.5184317"><ele>4.0</ele><time>2026-04-27T10:02:07.814Z</time></trkpt><trkpt lat="45.6667183" lon="12.5183967"><ele>5.0</ele><time>2026-04-27T10:02:08.814Z</time></trkpt><trkpt lat="45.6666217" lon="12.518355"><ele>5.0</ele><time>2026-04-27T10:02:09.814Z</time></trkpt><trkpt lat="45.666525" lon="12.5183317"><ele>5.0</ele><time>2026-04-27T10:02:10.814Z</time></trkpt><trkpt lat="45.6664367" lon="12.51833"><ele>5.0</ele><time>2026-04-27T10:02:11.815Z</time></trkpt><trkpt lat="45.6663483" lon="12.5183383"><ele>5.0</ele><time>2026-04-27T10:02:12.814Z</time></trkpt><trkpt lat="45.66625" lon="12.5183367"><ele>5.0</ele><time>2026-04-27T10:02:13.814Z</time></trkpt><trkpt lat="45.66615" lon="12.5183267"><ele>6.0</ele><time>2026-04-27T10:02:14.814Z</time></trkpt><trkpt lat="45.6660467" lon="12.5183017"><ele>7.0</ele><time>2026-04-27T10:02:15.814Z</time></trkpt><trkpt lat="45.6659533" lon="12.518275"><ele>8.0</ele><time>2026-04-27T10:02:16.814Z</time></trkpt><trkpt lat="45.6658633" lon="12.51824"><ele>9.0</ele><time>2026-04-27T10:02:17.814Z</time></trkpt><trkpt lat="45.6657583" lon="12.5182183"><ele>10.0</ele><time>2026-04-27T10:02:18.814Z</time></trkpt><trkpt lat="45.6656517" lon="12.518195"><ele>10.0</ele><time>2026-04-27T10:02:19.814Z</time></trkpt><trkpt lat="45.665545" lon="12.5181533"><ele>10.0</ele><time>2026-04-27T10:02:20.814Z</time></trkpt><trkpt lat="45.6654433" lon="12.5181033"><ele>10.0</ele><time>2026-04-27T10:02:21.814Z</time></trkpt><trkpt lat="45.6653483" lon="12.51806"><ele>10.0</ele><time>2026-04-27T10:02:22.814Z</time></trkpt><trkpt lat="45.6652467" lon="12.5180083"><ele>10.0</ele><time>2026-04-27T10:02:23.814Z</time></trkpt><trkpt lat="45.6651583" lon="12.5179717"><ele>9.4</ele><time>2026-04-27T10:02:24.814Z</time></trkpt><trkpt lat="45.6650583" lon="12.5179417"><ele>8.8</ele><time>2026-04-27T10:02:25.814Z</time></trkpt><trkpt lat="45.66496" lon="12.5179167"><ele>8.2</ele><time>2026-04-27T10:02:26.815Z</time></trkpt><trkpt lat="45.6648467" lon="12.5178983"><ele>7.6</ele><time>2026-04-27T10:02:27.814Z</time></trkpt><trkpt lat="45.6647317" lon="12.51789"><ele>7.0</ele><time>2026-04-27T10:02:28.814Z</time></trkpt><trkpt lat="45.6646067" lon="12.51787"><ele>6.0</ele><time>2026-04-27T10:02:29.814Z</time></trkpt><trkpt lat="45.6644817" lon="12.5178417"><ele>5.0</ele><time>2026-04-27T10:02:30.814Z</time></trkpt><trkpt lat="45.664365" lon="12.5178233"><ele>4.0</ele><time>2026-04-27T10:02:31.814Z</time></trkpt><trkpt lat="45.664255" lon="12.517795"><ele>3.0</ele><time>2026-04-27T10:02:32.814Z</time></trkpt><trkpt lat="45.6641467" lon="12.517785"><ele>3.0</ele><time>2026-04-27T10:02:33.814Z</time></trkpt><trkpt lat="45.66405" lon="12.5177833"><ele>3.0</ele><time>2026-04-27T10:02:34.814Z</time></trkpt><trkpt lat="45.6639567" lon="12.5178133"><ele>3.0</ele><time>2026-04-27T10:02:35.814Z</time></trkpt><trkpt lat="45.66387" lon="12.5178667"><ele>3.0</ele><time>2026-04-27T10:02:36.814Z</time></trkpt><trkpt lat="45.6637933" lon="12.5179417"><ele>3.0</ele><time>2026-04-27T10:02:37.814Z</time></trkpt><trkpt lat="45.6637233" lon="12.5180367"><ele>4.0</ele><time>2026-04-27T10:02:38.814Z</time></trkpt><trkpt lat="45.66365" lon="12.5181467"><ele>5.0</ele><time>2026-04-27T10:02:39.815Z</time></trkpt><trkpt lat="45.6635767" lon="12.5182817"><ele>6.0</ele><time>2026-04-27T10:02:40.814Z</time></trkpt><trkpt lat="45.6635017" lon="12.518415"><ele>7.0</ele><time>2026-04-27T10:02:41.814Z</time></trkpt><trkpt lat="45.6634283" lon="12.518555"><ele>7.0</ele><time>2026-04-27T10:02:42.814Z</time></trkpt><trkpt lat="45.6633533" lon="12.5187067"><ele>7.0</ele><time>2026-04-27T10:02:43.814Z</time></trkpt><trkpt lat="45.663295" lon="12.5188683"><ele>7.0</ele><time>2026-04-27T10:02:44.814Z</time></trkpt><trkpt lat="45.6632367" lon="12.519045"><ele>7.0</ele><time>2026-04-27T10:02:45.815Z</time></trkpt><trkpt lat="45.66318" lon="12.519215"><ele>7.25</ele><time>2026-04-27T10:02:46.814Z</time></trkpt><trkpt lat="45.6631383" lon="12.5193667"><ele>7.5</ele><time>2026-04-27T10:02:47.814Z</time></trkpt><trkpt lat="45.663095" lon="12.519515"><ele>7.75</ele><time>2026-04-27T10:02:48.814Z</time></trkpt><trkpt lat="45.66305" lon="12.51967"><ele>8.0</ele><time>2026-04-27T10:02:49.814Z</time></trkpt><trkpt lat="45.6630033" lon="12.5198283"><ele>7.5</ele><time>2026-04-27T10:02:50.814Z</time></trkpt><trkpt lat="45.6629583" lon="12.5199867"><ele>7.0</ele><time>2026-04-27T10:02:51.814Z</time></trkpt><trkpt lat="45.66291" lon="12.5201483"><ele>6.5</ele><time>2026-04-27T10:02:52.814Z</time></trkpt><trkpt lat="45.6628683" lon="12.5203117"><ele>6.0</ele><time>2026-04-27T10:02:53.814Z</time></trkpt><trkpt lat="45.6628317" lon="12.520485"><ele>6.25</ele><time>2026-04-27T10:02:54.814Z</time></trkpt><trkpt lat="45.662795" lon="12.5206633"><ele>6.5</ele><time>2026-04-27T10:02:55.814Z</time></trkpt><trkpt lat="45.6627617" lon="12.520835"><ele>6.75</ele><time>2026-04-27T10:02:56.814Z</time></trkpt><trkpt lat="45.6627433" lon="12.5210017"><ele>7.0</ele><time>2026-04-27T10:02:57.814Z</time></trkpt><trkpt lat="45.6627233" lon="12.521175"><ele>6.25</ele><time>2026-04-27T10:02:58.814Z</time></trkpt><trkpt lat="45.6626967" lon="12.5213567"><ele>5.5</ele><time>2026-04-27T10:02:59.814Z</time></trkpt><trkpt lat="45.662665" lon="12.5215433"><ele>4.75</ele><time>2026-04-27T10:03:00.814Z</time></trkpt><trkpt lat="45.6626367" lon="12.5217333"><ele>4.0</ele><time>2026-04-27T10:03:01.814Z</time></trkpt><trkpt lat="45.6626" lon="12.52192"><ele>4.25</ele><time>2026-04-27T10:03:02.814Z</time></trkpt><trkpt lat="45.6625667" lon="12.5221133"><ele>4.5</ele><time>2026-04-27T10:03:03.814Z</time></trkpt><trkpt lat="45.662535" lon="12.522315"><ele>4.75</ele><time>2026-04-27T10:03:04.814Z</time></trkpt><trkpt lat="45.662505" lon="12.522505"><ele>5.0</ele><time>2026-04-27T10:03:05.814Z</time></trkpt><trkpt lat="45.662475" lon="12.52269"><ele>5.0</ele><time>2026-04-27T10:03:06.814Z</time></trkpt><trkpt lat="45.66245" lon="12.5228717"><ele>5.0</ele><time>2026-04-27T10:03:07.814Z</time></trkpt><trkpt lat="45.6624233" lon="12.5230533"><ele>5.0</ele><time>2026-04-27T10:03:08.814Z</time></trkpt><trkpt lat="45.6623917" lon="12.523235"><ele>5.0</ele><time>2026-04-27T10:03:09.814Z</time></trkpt><trkpt lat="45.6623617" lon="12.5234167"><ele>4.75</ele><time>2026-04-27T10:03:10.814Z</time></trkpt><trkpt lat="45.6623317" lon="12.5236117"><ele>4.5</ele><time>2026-04-27T10:03:11.814Z</time></trkpt><trkpt lat="45.6622983" lon="12.5238033"><ele>4.25</ele><time>2026-04-27T10:03:12.814Z</time></trkpt><trkpt lat="45.6622717" lon="12.5239833"><ele>4.0</ele><time>2026-04-27T10:03:13.815Z</time></trkpt><trkpt lat="45.662245" lon="12.5241583"><ele>4.0</ele><time>2026-04-27T10:03:14.814Z</time></trkpt><trkpt lat="45.66221" lon="12.5243267"><ele>4.0</ele><time>2026-04-27T10:03:15.814Z</time></trkpt><trkpt lat="45.66217" lon="12.5244783"><ele>4.0</ele><time>2026-04-27T10:03:16.814Z</time></trkpt><trkpt lat="45.66213" lon="12.5246183"><ele>4.0</ele><time>2026-04-27T10:03:17.814Z</time></trkpt><trkpt lat="45.6620917" lon="12.5247517"><ele>4.0</ele><time>2026-04-27T10:03:18.814Z</time></trkpt><trkpt lat="45.6620517" lon="12.5248767"><ele>4.0</ele><time>2026-04-27T10:03:19.814Z</time></trkpt><trkpt lat="45.6619983" lon="12.5249983"><ele>4.0</ele><time>2026-04-27T10:03:20.814Z</time></trkpt><trkpt lat="45.661925" lon="12.5251167"><ele>4.0</ele><time>2026-04-27T10:03:21.814Z</time></trkpt><trkpt lat="45.6618517" lon="12.52524"><ele>4.0</ele><time>2026-04-27T10:03:22.814Z</time></trkpt><trkpt lat="45.6617683" lon="12.5253817"><ele>4.25</ele><time>2026-04-27T10:03:23.814Z</time></trkpt><trkpt lat="45.66168" lon="12.525525"><ele>4.5</ele><time>2026-04-27T10:03:24.814Z</time></trkpt><trkpt lat="45.661585" lon="12.5256917"><ele>4.75</ele><time>2026-04-27T10:03:25.814Z</time></trkpt><trkpt lat="45.6614917" lon="12.5258817"><ele>5.0</ele><time>2026-04-27T10:03:26.815Z</time></trkpt><trkpt lat="45.661385" lon="12.5260883"><ele>5.666666666666667</ele><time>2026-04-27T10:03:27.814Z</time></trkpt><trkpt lat="45.66127" lon="12.5263017"><ele>6.333333333333334</ele><time>2026-04-27T10:03:28.814Z</time></trkpt><trkpt lat="45.6611683" lon="12.5265067"><ele>7.0</ele><time>2026-04-27T10:03:29.814Z</time></trkpt><trkpt lat="45.6610733" lon="12.5267017"><ele>7.0</ele><time>2026-04-27T10:03:30.814Z</time></trkpt><trkpt lat="45.66099" lon="12.5268683"><ele>7.0</ele><time>2026-04-27T10:03:31.814Z</time></trkpt><trkpt lat="45.66092" lon="12.5270133"><ele>7.0</ele><time>2026-04-27T10:03:32.814Z</time></trkpt><trkpt lat="45.6608567" lon="12.5271383"><ele>7.0</ele><time>2026-04-27T10:03:33.814Z</time></trkpt><trkpt lat="45.660795" lon="12.5272517"><ele>7.500000000000001</ele><time>2026-04-27T10:03:34.814Z</time></trkpt><trkpt lat="45.6607317" lon="12.5273533"><ele>8.0</ele><time>2026-04-27T10:03:35.814Z</time></trkpt><trkpt lat="45.6606717" lon="12.5274417"><ele>8.5</ele><time>2026-04-27T10:03:36.814Z</time></trkpt><trkpt lat="45.6606133" lon="12.5275283"><ele>9.0</ele><time>2026-04-27T10:03:37.814Z</time></trkpt><trkpt lat="45.66056" lon="12.527615"><ele>9.5</ele><time>2026-04-27T10:03:38.815Z</time></trkpt><trkpt lat="45.66051" lon="12.5276983"><ele>10.0</ele><time>2026-04-27T10:03:39.814Z</time></trkpt><trkpt lat="45.6604617" lon="12.5277717"><ele>10.0</ele><time>2026-04-27T10:03:40.814Z</time></trkpt><trkpt lat="45.6604167" lon="12.5278383"><ele>10.0</ele><time>2026-04-27T10:03:41.814Z</time></trkpt><trkpt lat="45.6603667" lon="12.5278967"><ele>10.0</ele><time>2026-04-27T10:03:42.815Z</time></trkpt><trkpt lat="45.6602817" lon="12.52799"><ele>10.0</ele><time>2026-04-27T10:03:44.814Z</time></trkpt><trkpt lat="45.66021" lon="12.5281"><ele>10.0</ele><time>2026-04-27T10:03:46.814Z</time></trkpt><trkpt lat="45.66017" lon="12.528185"><ele>10.0</ele><time>2026-04-27T10:03:47.814Z</time></trkpt><trkpt lat="45.6601233" lon="12.52829"><ele>9.0</ele><time>2026-04-27T10:03:48.814Z</time></trkpt><trkpt lat="45.6600617" lon="12.5283867"><ele>8.0</ele><time>2026-04-27T10:03:49.814Z</time></trkpt><trkpt lat="45.6600017" lon="12.5284883"><ele>7.0</ele><time>2026-04-27T10:03:50.814Z</time></trkpt><trkpt lat="45.65994" lon="12.5285867"><ele>6.0</ele><time>2026-04-27T10:03:51.814Z</time></trkpt><trkpt lat="45.65988" lon="12.5286883"><ele>5.0</ele><time>2026-04-27T10:03:52.814Z</time></trkpt><trkpt lat="45.659825" lon="12.5287917"><ele>5.0</ele><time>2026-04-27T10:03:53.814Z</time></trkpt><trkpt lat="45.6597617" lon="12.5288983"><ele>5.0</ele><time>2026-04-27T10:03:54.814Z</time></trkpt><trkpt lat="45.6596967" lon="12.5290017"><ele>5.0</ele><time>2026-04-27T10:03:55.814Z</time></trkpt><trkpt lat="45.6596367" lon="12.52911"><ele>5.0</ele><time>2026-04-27T10:03:56.815Z</time></trkpt><trkpt lat="45.6595683" lon="12.5292083"><ele>5.0</ele><time>2026-04-27T10:03:57.814Z</time></trkpt><trkpt lat="45.659495" lon="12.5293133"><ele>4.8</ele><time>2026-04-27T10:03:58.814Z</time></trkpt><trkpt lat="45.6594217" lon="12.5294067"><ele>4.6</ele><time>2026-04-27T10:03:59.814Z</time></trkpt><trkpt lat="45.6593483" lon="12.529485"><ele>4.4</ele><time>2026-04-27T10:04:00.814Z</time></trkpt><trkpt lat="45.6592767" lon="12.5295617"><ele>4.2</ele><time>2026-04-27T10:04:01.814Z</time></trkpt><trkpt lat="45.6591867" lon="12.5296183"><ele>4.0</ele><time>2026-04-27T10:04:02.814Z</time></trkpt><trkpt lat="45.6590833" lon="12.5296633"><ele>4.0</ele><time>2026-04-27T10:04:03.814Z</time></trkpt><trkpt lat="45.658965" lon="12.5297"><ele>4.0</ele><time>2026-04-27T10:04:04.814Z</time></trkpt><trkpt lat="45.658855" lon="12.529725"><ele>4.0</ele><time>2026-04-27T10:04:05.814Z</time></trkpt><trkpt lat="45.658745" lon="12.5297467"><ele>4.0</ele><time>2026-04-27T10:04:06.814Z</time></trkpt><trkpt lat="45.658635" lon="12.529775"><ele>4.0</ele><time>2026-04-27T10:04:07.814Z</time></trkpt><trkpt lat="45.6585217" lon="12.5297883"><ele>4.0</ele><time>2026-04-27T10:04:08.814Z</time></trkpt><trkpt lat="45.6584083" lon="12.5297967"><ele>4.0</ele><time>2026-04-27T10:04:09.814Z</time></trkpt><trkpt lat="45.6582967" lon="12.52979"><ele>4.0</ele><time>2026-04-27T10:04:10.815Z</time></trkpt><trkpt lat="45.6581817" lon="12.5297733"><ele>4.0</ele><time>2026-04-27T10:04:11.814Z</time></trkpt><trkpt lat="45.6580633" lon="12.5297417"><ele>4.0</ele><time>2026-04-27T10:04:12.814Z</time></trkpt><trkpt lat="45.6579483" lon="12.52971"><ele>4.0</ele><time>2026-04-27T10:04:13.814Z</time></trkpt><trkpt lat="45.6578283" lon="12.529675"><ele>4.0</ele><time>2026-04-27T10:04:14.814Z</time></trkpt><trkpt lat="45.6577017" lon="12.529645"><ele>4.0</ele><time>2026-04-27T10:04:15.814Z</time></trkpt><trkpt lat="45.6575817" lon="12.5296"><ele>4.0</ele><time>2026-04-27T10:04:16.814Z</time></trkpt><trkpt lat="45.6574567" lon="12.52955"><ele>4.0</ele><time>2026-04-27T10:04:17.814Z</time></trkpt><trkpt lat="45.657335" lon="12.5294933"><ele>4.0</ele><time>2026-04-27T10:04:18.814Z</time></trkpt><trkpt lat="45.6572117" lon="12.5294367"><ele>4.0</ele><time>2026-04-27T10:04:19.814Z</time></trkpt><trkpt lat="45.6570983" lon="12.5293783"><ele>4.0</ele><time>2026-04-27T10:04:20.814Z</time></trkpt><trkpt lat="45.6569967" lon="12.5293233"><ele>4.0</ele><time>2026-04-27T10:04:21.814Z</time></trkpt><trkpt lat="45.656895" lon="12.5292667"><ele>4.0</ele><time>2026-04-27T10:04:22.814Z</time></trkpt><trkpt lat="45.6567967" lon="12.5292083"><ele>4.0</ele><time>2026-04-27T10:04:23.814Z</time></trkpt><trkpt lat="45.6566983" lon="12.529135"><ele>3.5</ele><time>2026-04-27T10:04:24.814Z</time></trkpt><trkpt lat="45.6565983" lon="12.529045"><ele>3.0</ele><time>2026-04-27T10:04:25.814Z</time></trkpt><trkpt lat="45.6564983" lon="12.5289433"><ele>2.5</ele><time>2026-04-27T10:04:26.814Z</time></trkpt><trkpt lat="45.6563933" lon="12.5288467"><ele>2.0</ele><time>2026-04-27T10:04:27.814Z</time></trkpt><trkpt lat="45.656285" lon="12.5287483"><ele>1.75</ele><time>2026-04-27T10:04:28.815Z</time></trkpt><trkpt lat="45.6561817" lon="12.52864"><ele>1.5</ele><time>2026-04-27T10:04:29.814Z</time></trkpt><trkpt lat="45.656085" lon="12.52853"><ele>1.25</ele><time>2026-04-27T10:04:30.814Z</time></trkpt><trkpt lat="45.6560067" lon="12.5284083"><ele>1.0</ele><time>2026-04-27T10:04:31.814Z</time></trkpt><trkpt lat="45.655935" lon="12.5283083"><ele>1.1666666666666665</ele><time>2026-04-27T10:04:32.814Z</time></trkpt><trkpt lat="45.6558767" lon="12.5282117"><ele>1.3333333333333333</ele><time>2026-04-27T10:04:33.814Z</time></trkpt><trkpt lat="45.65582" lon="12.528145"><ele>1.5</ele><time>2026-04-27T10:04:34.814Z</time></trkpt><trkpt lat="45.6557733" lon="12.5280783"><ele>1.6666666666666665</ele><time>2026-04-27T10:04:35.814Z</time></trkpt><trkpt lat="45.65572" lon="12.5279333"><ele>1.8333333333333333</ele><time>2026-04-27T10:04:37.814Z</time></trkpt><trkpt lat="45.6556983" lon="12.5278383"><ele>2.0</ele><time>2026-04-27T10:04:38.815Z</time></trkpt><trkpt lat="45.6556733" lon="12.5277283"><ele>1.9999999999999998</ele><time>2026-04-27T10:04:39.814Z</time></trkpt><trkpt lat="45.655635" lon="12.5276217"><ele>2.0</ele><time>2026-04-27T10:04:40.814Z</time></trkpt><trkpt lat="45.6555933" lon="12.5275183"><ele>2.0</ele><time>2026-04-27T10:04:41.814Z</time></trkpt><trkpt lat="45.655555" lon="12.5274233"><ele>2.0</ele><time>2026-04-27T10:04:42.815Z</time></trkpt><trkpt lat="45.65552" lon="12.5273117"><ele>1.9999999999999998</ele><time>2026-04-27T10:04:43.814Z</time></trkpt><trkpt lat="45.6554867" lon="12.527205"><ele>2.0</ele><time>2026-04-27T10:04:44.814Z</time></trkpt><trkpt lat="45.6554667" lon="12.5270933"><ele>1.9999999999999998</ele><time>2026-04-27T10:04:45.814Z</time></trkpt><trkpt lat="45.65544" lon="12.5269867"><ele>2.0</ele><time>2026-04-27T10:04:46.814Z</time></trkpt><trkpt lat="45.655405" lon="12.5268683"><ele>2.0</ele><time>2026-04-27T10:04:47.814Z</time></trkpt><trkpt lat="45.65537" lon="12.5267617"><ele>2.0</ele><time>2026-04-27T10:04:48.814Z</time></trkpt><trkpt lat="45.6553333" lon="12.52665"><ele>1.9999999999999998</ele><time>2026-04-27T10:04:49.814Z</time></trkpt><trkpt lat="45.6553" lon="12.5265467"><ele>2.0</ele><time>2026-04-27T10:04:50.814Z</time></trkpt><trkpt lat="45.6552567" lon="12.52644"><ele>2.1666666666666665</ele><time>2026-04-27T10:04:51.814Z</time></trkpt><trkpt lat="45.6552133" lon="12.5263367"><ele>2.333333333333333</ele><time>2026-04-27T10:04:52.814Z</time></trkpt><trkpt lat="45.6551683" lon="12.526235"><ele>2.5</ele><time>2026-04-27T10:04:53.814Z</time></trkpt><trkpt lat="45.6551317" lon="12.52613"><ele>2.6666666666666665</ele><time>2026-04-27T10:04:54.814Z</time></trkpt><trkpt lat="45.655085" lon="12.5260283"><ele>2.8333333333333335</ele><time>2026-04-27T10:04:55.814Z</time></trkpt><trkpt lat="45.655045" lon="12.5259133"><ele>3.0</ele><time>2026-04-27T10:04:56.814Z</time></trkpt><trkpt lat="45.6549967" lon="12.525795"><ele>2.6666666666666665</ele><time>2026-04-27T10:04:57.814Z</time></trkpt><trkpt lat="45.6549517" lon="12.5256833"><ele>2.3333333333333335</ele><time>2026-04-27T10:04:58.814Z</time></trkpt><trkpt lat="45.6549117" lon="12.5255817"><ele>2.0</ele><time>2026-04-27T10:04:59.815Z</time></trkpt><trkpt lat="45.6548783" lon="12.52548"><ele>1.6666666666666665</ele><time>2026-04-27T10:05:00.814Z</time></trkpt><trkpt lat="45.6548467" lon="12.5253733"><ele>1.3333333333333333</ele><time>2026-04-27T10:05:01.815Z</time></trkpt><trkpt lat="45.654815" lon="12.52528"><ele>1.0</ele><time>2026-04-27T10:05:02.814Z</time></trkpt><trkpt lat="45.6547883" lon="12.5251917"><ele>0.9999999999999999</ele><time>2026-04-27T10:05:03.814Z</time></trkpt><trkpt lat="45.6547633" lon="12.5251033"><ele>1.0</ele><time>2026-04-27T10:05:04.815Z</time></trkpt><trkpt lat="45.6547333" lon="12.5250233"><ele>1.0</ele><time>2026-04-27T10:05:05.814Z</time></trkpt><trkpt lat="45.65471" lon="12.524925"><ele>1.0</ele><time>2026-04-27T10:05:06.814Z</time></trkpt><trkpt lat="45.6546883" lon="12.5248217"><ele>0.9999999999999999</ele><time>2026-04-27T10:05:07.814Z</time></trkpt><trkpt lat="45.6546483" lon="12.5247"><ele>1.0</ele><time>2026-04-27T10:05:08.814Z</time></trkpt><trkpt lat="45.6546117" lon="12.5245883"><ele>1.5</ele><time>2026-04-27T10:05:09.814Z</time></trkpt><trkpt lat="45.65458" lon="12.5244717"><ele>2.0</ele><time>2026-04-27T10:05:10.815Z</time></trkpt><trkpt lat="45.654545" lon="12.5243617"><ele>2.5</ele><time>2026-04-27T10:05:11.814Z</time></trkpt><trkpt lat="45.6545117" lon="12.5242433"><ele>3.0</ele><time>2026-04-27T10:05:12.814Z</time></trkpt><trkpt lat="45.65448" lon="12.5241233"><ele>3.4999999999999996</ele><time>2026-04-27T10:05:13.815Z</time></trkpt><trkpt lat="45.6544483" lon="12.5240017"><ele>4.0</ele><time>2026-04-27T10:05:14.814Z</time></trkpt><trkpt lat="45.654415" lon="12.52387"><ele>4.4</ele><time>2026-04-27T10:05:15.814Z</time></trkpt><trkpt lat="45.65439" lon="12.5237317"><ele>4.800000000000001</ele><time>2026-04-27T10:05:16.814Z</time></trkpt><trkpt lat="45.6543683" lon="12.5235917"><ele>5.199999999999999</ele><time>2026-04-27T10:05:17.814Z</time></trkpt><trkpt lat="45.6543333" lon="12.5234567"><ele>5.6</ele><time>2026-04-27T10:05:18.814Z</time></trkpt><trkpt lat="45.6542967" lon="12.5233317"><ele>6.0</ele><time>2026-04-27T10:05:19.814Z</time></trkpt><trkpt lat="45.65425" lon="12.5232"><ele>6.4</ele><time>2026-04-27T10:05:20.814Z</time></trkpt><trkpt lat="45.65421" lon="12.5230833"><ele>6.8</ele><time>2026-04-27T10:05:21.814Z</time></trkpt><trkpt lat="45.65417" lon="12.522965"><ele>7.200000000000001</ele><time>2026-04-27T10:05:22.814Z</time></trkpt><trkpt lat="45.6541317" lon="12.5228667"><ele>7.6000000000000005</ele><time>2026-04-27T10:05:23.814Z</time></trkpt><trkpt lat="45.6540833" lon="12.5227483"><ele>8.0</ele><time>2026-04-27T10:05:24.814Z</time></trkpt><trkpt lat="45.6540433" lon="12.5226217"><ele>8.0</ele><time>2026-04-27T10:05:25.814Z</time></trkpt><trkpt lat="45.654" lon="12.522505"><ele>8.0</ele><time>2026-04-27T10:05:26.814Z</time></trkpt><trkpt lat="45.653955" lon="12.522395"><ele>8.0</ele><time>2026-04-27T10:05:27.814Z</time></trkpt><trkpt lat="45.65391" lon="12.5222633"><ele>8.0</ele><time>2026-04-27T10:05:28.814Z</time></trkpt><trkpt lat="45.6538633" lon="12.5221417"><ele>8.0</ele><time>2026-04-27T10:05:29.814Z</time></trkpt><trkpt lat="45.65382" lon="12.5220267"><ele>7.666666666666666</ele><time>2026-04-27T10:05:30.814Z</time></trkpt><trkpt lat="45.6537833" lon="12.5218967"><ele>7.333333333333333</ele><time>2026-04-27T10:05:31.814Z</time></trkpt><trkpt lat="45.6537467" lon="12.5217733"><ele>7.0</ele><time>2026-04-27T10:05:32.814Z</time></trkpt><trkpt lat="45.653715" lon="12.521665"><ele>6.666666666666666</ele><time>2026-04-27T10:05:33.814Z</time></trkpt><trkpt lat="45.6536883" lon="12.5215733"><ele>6.333333333333333</ele><time>2026-04-27T10:05:34.814Z</time></trkpt><trkpt lat="45.653655" lon="12.5214967"><ele>6.0</ele><time>2026-04-27T10:05:35.814Z</time></trkpt><trkpt lat="45.6535733" lon="12.5213783"><ele>6.0</ele><time>2026-04-27T10:05:37.814Z</time></trkpt><trkpt lat="45.6535017" lon="12.5212417"><ele>6.0</ele><time>2026-04-27T10:05:39.814Z</time></trkpt><trkpt lat="45.6534767" lon="12.5211517"><ele>6.0</ele><time>2026-04-27T10:05:40.814Z</time></trkpt><trkpt lat="45.653455" lon="12.5210483"><ele>6.0</ele><time>2026-04-27T10:05:41.815Z</time></trkpt><trkpt lat="45.6534333" lon="12.520945"><ele>6.0</ele><time>2026-04-27T10:05:42.814Z</time></trkpt><trkpt lat="45.6534017" lon="12.5208333"><ele>6.0</ele><time>2026-04-27T10:05:43.814Z</time></trkpt><trkpt lat="45.6533683" lon="12.5207283"><ele>6.142857142857142</ele><time>2026-04-27T10:05:44.814Z</time></trkpt><trkpt lat="45.6533317" lon="12.5206283"><ele>6.285714285714286</ele><time>2026-04-27T10:05:45.814Z</time></trkpt><trkpt lat="45.6533017" lon="12.520525"><ele>6.428571428571429</ele><time>2026-04-27T10:05:46.814Z</time></trkpt><trkpt lat="45.6532783" lon="12.5204267"><ele>6.571428571428571</ele><time>2026-04-27T10:05:47.814Z</time></trkpt><trkpt lat="45.6532667" lon="12.52032"><ele>6.714285714285714</ele><time>2026-04-27T10:05:48.814Z</time></trkpt><trkpt lat="45.65326" lon="12.5202267"><ele>6.857142857142857</ele><time>2026-04-27T10:05:49.814Z</time></trkpt><trkpt lat="45.6532517" lon="12.5201217"><ele>7.0</ele><time>2026-04-27T10:05:50.814Z</time></trkpt><trkpt lat="45.653225" lon="12.5200133"><ele>7.199999999999999</ele><time>2026-04-27T10:05:51.814Z</time></trkpt><trkpt lat="45.6531967" lon="12.5199067"><ele>7.3999999999999995</ele><time>2026-04-27T10:05:52.814Z</time></trkpt><trkpt lat="45.653175" lon="12.5197867"><ele>7.6000000000000005</ele><time>2026-04-27T10:05:53.815Z</time></trkpt><trkpt lat="45.653135" lon="12.519645"><ele>7.800000000000001</ele><time>2026-04-27T10:05:54.814Z</time></trkpt><trkpt lat="45.6531233" lon="12.5195"><ele>8.0</ele><time>2026-04-27T10:05:55.814Z</time></trkpt><trkpt lat="45.6531167" lon="12.5193533"><ele>7.333333333333333</ele><time>2026-04-27T10:05:56.814Z</time></trkpt><trkpt lat="45.6531117" lon="12.5192117"><ele>6.666666666666666</ele><time>2026-04-27T10:05:57.814Z</time></trkpt><trkpt lat="45.6531083" lon="12.5190783"><ele>6.0</ele><time>2026-04-27T10:05:58.814Z</time></trkpt><trkpt lat="45.6531017" lon="12.51896"><ele>5.333333333333333</ele><time>2026-04-27T10:05:59.814Z</time></trkpt><trkpt lat="45.6530917" lon="12.5188567"><ele>4.666666666666666</ele><time>2026-04-27T10:06:00.814Z</time></trkpt><trkpt lat="45.653085" lon="12.51875"><ele>4.0</ele><time>2026-04-27T10:06:01.814Z</time></trkpt><trkpt lat="45.653075" lon="12.5186417"><ele>4.0</ele><time>2026-04-27T10:06:02.814Z</time></trkpt><trkpt lat="45.65307" lon="12.5185483"><ele>4.0</ele><time>2026-04-27T10:06:03.814Z</time></trkpt><trkpt lat="45.65302" lon="12.5184333"><ele>4.0</ele><time>2026-04-27T10:06:05.814Z</time></trkpt><trkpt lat="45.6529317" lon="12.5184"><ele>4.0</ele><time>2026-04-27T10:06:07.814Z</time></trkpt><trkpt lat="45.652825" lon="12.5184133"><ele>4.0</ele><time>2026-04-27T10:06:09.814Z</time></trkpt><trkpt lat="45.6527317" lon="12.5183783"><ele>3.9999999999999996</ele><time>2026-04-27T10:06:11.815Z</time></trkpt><trkpt lat="45.6526367" lon="12.51829"><ele>4.0</ele><time>2026-04-27T10:06:13.814Z</time></trkpt><trkpt lat="45.65257" lon="12.518195"><ele>4.0</ele><time>2026-04-27T10:06:15.814Z</time></trkpt><trkpt lat="45.652515" lon="12.5180917"><ele>4.0</ele><time>2026-04-27T10:06:17.815Z</time></trkpt><trkpt lat="45.6524783" lon="12.518"><ele>3.9999999999999996</ele><time>2026-04-27T10:06:19.814Z</time></trkpt><trkpt lat="45.65243" lon="12.5179167"><ele>4.0</ele><time>2026-04-27T10:06:21.814Z</time></trkpt><trkpt lat="45.65235" lon="12.517805"><ele>4.166666666666666</ele><time>2026-04-27T10:06:23.814Z</time></trkpt><trkpt lat="45.652295" lon="12.5177517"><ele>4.333333333333333</ele><time>2026-04-27T10:06:24.814Z</time></trkpt><trkpt lat="45.6522367" lon="12.5176983"><ele>4.5</ele><time>2026-04-27T10:06:25.814Z</time></trkpt><trkpt lat="45.6521817" lon="12.517645"><ele>4.666666666666667</ele><time>2026-04-27T10:06:26.815Z</time></trkpt><trkpt lat="45.6520883" lon="12.5175333"><ele>4.833333333333334</ele><time>2026-04-27T10:06:28.814Z</time></trkpt><trkpt lat="45.6520067" lon="12.517425"><ele>5.0</ele><time>2026-04-27T10:06:30.814Z</time></trkpt><trkpt lat="45.6519383" lon="12.5172917"><ele>5.166666666666667</ele><time>2026-04-27T10:06:32.815Z</time></trkpt><trkpt lat="45.6518383" lon="12.5172233"><ele>5.333333333333334</ele><time>2026-04-27T10:06:34.815Z</time></trkpt><trkpt lat="45.651775" lon="12.517205"><ele>5.5</ele><time>2026-04-27T10:06:35.814Z</time></trkpt><trkpt lat="45.6516983" lon="12.5171867"><ele>5.666666666666667</ele><time>2026-04-27T10:06:36.814Z</time></trkpt><trkpt lat="45.6516183" lon="12.5171633"><ele>5.833333333333333</ele><time>2026-04-27T10:06:37.814Z</time></trkpt><trkpt lat="45.65154" lon="12.5171433"><ele>6.0</ele><time>2026-04-27T10:06:38.814Z</time></trkpt><trkpt lat="45.6514233" lon="12.5171117"><ele>6.0</ele><time>2026-04-27T10:06:40.814Z</time></trkpt><trkpt lat="45.6513317" lon="12.51712"><ele>6.0</ele><time>2026-04-27T10:06:42.814Z</time></trkpt><trkpt lat="45.651215" lon="12.51716"><ele>6.0</ele><time>2026-04-27T10:06:44.814Z</time></trkpt><trkpt lat="45.651115" lon="12.5171717"><ele>6.0</ele><time>2026-04-27T10:06:46.814Z</time></trkpt><trkpt lat="45.6510317" lon="12.5171733"><ele>6.0</ele><time>2026-04-27T10:06:48.814Z</time></trkpt><trkpt lat="45.6509633" lon="12.517205"><ele>6.0</ele><time>2026-04-27T10:06:51.814Z</time></trkpt><trkpt lat="45.6509233" lon="12.517325"><ele>6.0</ele><time>2026-04-27T10:06:54.814Z</time></trkpt><trkpt lat="45.6509333" lon="12.5175117"><ele>6.0</ele><time>2026-04-27T10:06:56.815Z</time></trkpt><trkpt lat="45.65096" lon="12.51764"><ele>6.0</ele><time>2026-04-27T10:06:57.814Z</time></trkpt><trkpt lat="45.6509867" lon="12.5177817"><ele>6.0</ele><time>2026-04-27T10:06:58.814Z</time></trkpt><trkpt lat="45.6510117" lon="12.5179317"><ele>5.75</ele><time>2026-04-27T10:06:59.814Z</time></trkpt><trkpt lat="45.6510433" lon="12.5180817"><ele>5.5</ele><time>2026-04-27T10:07:00.814Z</time></trkpt><trkpt lat="45.6510717" lon="12.518245"><ele>5.25</ele><time>2026-04-27T10:07:01.814Z</time></trkpt><trkpt lat="45.6511017" lon="12.5184133"><ele>5.0</ele><time>2026-04-27T10:07:02.814Z</time></trkpt><trkpt lat="45.6511267" lon="12.5185767"><ele>5.75</ele><time>2026-04-27T10:07:03.814Z</time></trkpt><trkpt lat="45.6511517" lon="12.5187367"><ele>6.5</ele><time>2026-04-27T10:07:04.814Z</time></trkpt><trkpt lat="45.65118" lon="12.5188917"><ele>7.25</ele><time>2026-04-27T10:07:05.814Z</time></trkpt><trkpt lat="45.6512133" lon="12.51905"><ele>8.0</ele><time>2026-04-27T10:07:06.814Z</time></trkpt><trkpt lat="45.65125" lon="12.5192133"><ele>8.0</ele><time>2026-04-27T10:07:07.814Z</time></trkpt><trkpt lat="45.6512883" lon="12.51939"><ele>8.0</ele><time>2026-04-27T10:07:08.814Z</time></trkpt><trkpt lat="45.651335" lon="12.5195683"><ele>8.0</ele><time>2026-04-27T10:07:09.814Z</time></trkpt><trkpt lat="45.6513917" lon="12.51974"><ele>8.0</ele><time>2026-04-27T10:07:10.814Z</time></trkpt><trkpt lat="45.6514483" lon="12.519895"><ele>7.75</ele><time>2026-04-27T10:07:11.815Z</time></trkpt><trkpt lat="45.651505" lon="12.5200583"><ele>7.5</ele><time>2026-04-27T10:07:12.814Z</time></trkpt><trkpt lat="45.6515617" lon="12.520205"><ele>7.25</ele><time>2026-04-27T10:07:13.815Z</time></trkpt><trkpt lat="45.6516183" lon="12.52034"><ele>7.0</ele><time>2026-04-27T10:07:14.814Z</time></trkpt><trkpt lat="45.6516717" lon="12.5204733"><ele>6.25</ele><time>2026-04-27T10:07:15.814Z</time></trkpt><trkpt lat="45.6517267" lon="12.520615"><ele>5.5</ele><time>2026-04-27T10:07:16.814Z</time></trkpt><trkpt lat="45.65179" lon="12.5207467"><ele>4.75</ele><time>2026-04-27T10:07:17.814Z</time></trkpt><trkpt lat="45.6518483" lon="12.5208933"><ele>4.0</ele><time>2026-04-27T10:07:18.814Z</time></trkpt><trkpt lat="45.6519117" lon="12.5210367"><ele>4.25</ele><time>2026-04-27T10:07:19.814Z</time></trkpt><trkpt lat="45.6519733" lon="12.5211783"><ele>4.5</ele><time>2026-04-27T10:07:20.814Z</time></trkpt><trkpt lat="45.6520317" lon="12.5213283"><ele>4.75</ele><time>2026-04-27T10:07:21.814Z</time></trkpt><trkpt lat="45.6520917" lon="12.5214867"><ele>5.0</ele><time>2026-04-27T10:07:22.814Z</time></trkpt><trkpt lat="45.6521517" lon="12.521635"><ele>5.0</ele><time>2026-04-27T10:07:23.814Z</time></trkpt><trkpt lat="45.6522117" lon="12.5217817"><ele>5.0</ele><time>2026-04-27T10:07:24.814Z</time></trkpt><trkpt lat="45.6522667" lon="12.5219317"><ele>5.0</ele><time>2026-04-27T10:07:25.814Z</time></trkpt><trkpt lat="45.6523133" lon="12.5220767"><ele>5.0</ele><time>2026-04-27T10:07:26.814Z</time></trkpt><trkpt lat="45.6523733" lon="12.5222067"><ele>5.0</ele><time>2026-04-27T10:07:27.815Z</time></trkpt><trkpt lat="45.6524233" lon="12.5223433"><ele>5.0</ele><time>2026-04-27T10:07:28.814Z</time></trkpt><trkpt lat="45.6524833" lon="12.522475"><ele>5.0</ele><time>2026-04-27T10:07:29.814Z</time></trkpt><trkpt lat="45.6525367" lon="12.5226217"><ele>5.0</ele><time>2026-04-27T10:07:30.815Z</time></trkpt><trkpt lat="45.652595" lon="12.5227667"><ele>5.0</ele><time>2026-04-27T10:07:31.814Z</time></trkpt><trkpt lat="45.6526633" lon="12.5229267"><ele>5.0</ele><time>2026-04-27T10:07:32.815Z</time></trkpt><trkpt lat="45.6527283" lon="12.5230867"><ele>5.0</ele><time>2026-04-27T10:07:33.814Z</time></trkpt><trkpt lat="45.6527983" lon="12.5232367"><ele>5.0</ele><time>2026-04-27T10:07:34.814Z</time></trkpt><trkpt lat="45.6528633" lon="12.5233933"><ele>5.0</ele><time>2026-04-27T10:07:35.814Z</time></trkpt><trkpt lat="45.6529267" lon="12.5235617"><ele>5.0</ele><time>2026-04-27T10:07:36.814Z</time></trkpt><trkpt lat="45.65299" lon="12.5237317"><ele>5.0</ele><time>2026-04-27T10:07:37.814Z</time></trkpt><trkpt lat="45.6530533" lon="12.5238833"><ele>5.0</ele><time>2026-04-27T10:07:38.814Z</time></trkpt><trkpt lat="45.6531167" lon="12.5240333"><ele>5.0</ele><time>2026-04-27T10:07:39.814Z</time></trkpt><trkpt lat="45.653175" lon="12.5241817"><ele>5.0</ele><time>2026-04-27T10:07:40.814Z</time></trkpt><trkpt lat="45.6532367" lon="12.5243433"><ele>5.0</ele><time>2026-04-27T10:07:41.814Z</time></trkpt><trkpt lat="45.6532967" lon="12.52449"><ele>5.0</ele><time>2026-04-27T10:07:42.814Z</time></trkpt><trkpt lat="45.6533567" lon="12.5246367"><ele>5.0</ele><time>2026-04-27T10:07:43.814Z</time></trkpt><trkpt lat="45.6534233" lon="12.524785"><ele>5.0</ele><time>2026-04-27T10:07:44.815Z</time></trkpt><trkpt lat="45.6534883" lon="12.5249483"><ele>5.0</ele><time>2026-04-27T10:07:45.814Z</time></trkpt><trkpt lat="45.6535567" lon="12.52511"><ele>5.0</ele><time>2026-04-27T10:07:46.814Z</time></trkpt><trkpt lat="45.6536233" lon="12.5252767"><ele>5.0</ele><time>2026-04-27T10:07:47.814Z</time></trkpt><trkpt lat="45.6536883" lon="12.52545"><ele>5.0</ele><time>2026-04-27T10:07:48.814Z</time></trkpt><trkpt lat="45.6537567" lon="12.525625"><ele>5.0</ele><time>2026-04-27T10:07:49.814Z</time></trkpt><trkpt lat="45.6538267" lon="12.5257917"><ele>5.0</ele><time>2026-04-27T10:07:50.814Z</time></trkpt><trkpt lat="45.6538883" lon="12.525945"><ele>5.0</ele><time>2026-04-27T10:07:51.814Z</time></trkpt><trkpt lat="45.653955" lon="12.5261"><ele>5.0</ele><time>2026-04-27T10:07:52.814Z</time></trkpt><trkpt lat="45.6540183" lon="12.52626"><ele>5.0</ele><time>2026-04-27T10:07:53.814Z</time></trkpt><trkpt lat="45.65409" lon="12.5264133"><ele>5.0</ele><time>2026-04-27T10:07:54.814Z</time></trkpt><trkpt lat="45.6541583" lon="12.5265667"><ele>5.0</ele><time>2026-04-27T10:07:55.814Z</time></trkpt><trkpt lat="45.6542233" lon="12.5267133"><ele>5.0</ele><time>2026-04-27T10:07:56.814Z</time></trkpt><trkpt lat="45.6542833" lon="12.5268667"><ele>5.0</ele><time>2026-04-27T10:07:57.814Z</time></trkpt><trkpt lat="45.65435" lon="12.5270133"><ele>5.0</ele><time>2026-04-27T10:07:58.814Z</time></trkpt><trkpt lat="45.6544233" lon="12.5271667"><ele>4.75</ele><time>2026-04-27T10:07:59.814Z</time></trkpt><trkpt lat="45.654505" lon="12.527315"><ele>4.5</ele><time>2026-04-27T10:08:00.814Z</time></trkpt><trkpt lat="45.65459" lon="12.52746"><ele>4.25</ele><time>2026-04-27T10:08:01.815Z</time></trkpt><trkpt lat="45.65469" lon="12.5275883"><ele>4.0</ele><time>2026-04-27T10:08:02.814Z</time></trkpt><trkpt lat="45.6547883" lon="12.5277133"><ele>4.0</ele><time>2026-04-27T10:08:03.815Z</time></trkpt><trkpt lat="45.6548933" lon="12.5278383"><ele>4.0</ele><time>2026-04-27T10:08:04.814Z</time></trkpt><trkpt lat="45.655" lon="12.5279633"><ele>4.0</ele><time>2026-04-27T10:08:05.814Z</time></trkpt><trkpt lat="45.65511" lon="12.528105"><ele>4.0</ele><time>2026-04-27T10:08:06.814Z</time></trkpt><trkpt lat="45.65522" lon="12.52824"><ele>3.75</ele><time>2026-04-27T10:08:07.814Z</time></trkpt><trkpt lat="45.655325" lon="12.528385"><ele>3.5</ele><time>2026-04-27T10:08:08.814Z</time></trkpt><trkpt lat="45.6554333" lon="12.52851"><ele>3.25</ele><time>2026-04-27T10:08:09.814Z</time></trkpt><trkpt lat="45.6555433" lon="12.528655"><ele>3.0</ele><time>2026-04-27T10:08:10.814Z</time></trkpt><trkpt lat="45.6556617" lon="12.52879"><ele>3.75</ele><time>2026-04-27T10:08:11.814Z</time></trkpt><trkpt lat="45.65577" lon="12.5289283"><ele>4.5</ele><time>2026-04-27T10:08:12.815Z</time></trkpt><trkpt lat="45.6558667" lon="12.5290517"><ele>5.25</ele><time>2026-04-27T10:08:13.814Z</time></trkpt><trkpt lat="45.65597" lon="12.52917"><ele>6.0</ele><time>2026-04-27T10:08:14.814Z</time></trkpt><trkpt lat="45.6560683" lon="12.5292967"><ele>5.5</ele><time>2026-04-27T10:08:15.814Z</time></trkpt><trkpt lat="45.6561617" lon="12.5294267"><ele>5.0</ele><time>2026-04-27T10:08:16.815Z</time></trkpt><trkpt lat="45.6562533" lon="12.529555"><ele>4.5</ele><time>2026-04-27T10:08:17.814Z</time></trkpt><trkpt lat="45.6563467" lon="12.52968"><ele>4.0</ele><time>2026-04-27T10:08:18.814Z</time></trkpt><trkpt lat="45.6564417" lon="12.5298"><ele>4.0</ele><time>2026-04-27T10:08:19.814Z</time></trkpt><trkpt lat="45.65654" lon="12.5299217"><ele>4.0</ele><time>2026-04-27T10:08:20.814Z</time></trkpt><trkpt lat="45.656635" lon="12.5300433"><ele>4.0</ele><time>2026-04-27T10:08:21.814Z</time></trkpt><trkpt lat="45.6567317" lon="12.5301533"><ele>4.0</ele><time>2026-04-27T10:08:22.814Z</time></trkpt><trkpt lat="45.656825" lon="12.530275"><ele>4.0</ele><time>2026-04-27T10:08:23.814Z</time></trkpt><trkpt lat="45.65692" lon="12.530405"><ele>4.0</ele><time>2026-04-27T10:08:24.814Z</time></trkpt><trkpt lat="45.657025" lon="12.5305367"><ele>4.0</ele><time>2026-04-27T10:08:25.814Z</time></trkpt><trkpt lat="45.6571267" lon="12.53066"><ele>4.0</ele><time>2026-04-27T10:08:26.814Z</time></trkpt><trkpt lat="45.6572283" lon="12.53079"><ele>4.5</ele><time>2026-04-27T10:08:27.814Z</time></trkpt><trkpt lat="45.6573383" lon="12.5309167"><ele>5.0</ele><time>2026-04-27T10:08:28.814Z</time></trkpt><trkpt lat="45.6574483" lon="12.5310517"><ele>5.5</ele><time>2026-04-27T10:08:29.815Z</time></trkpt><trkpt lat="45.6575567" lon="12.53119"><ele>6.0</ele><time>2026-04-27T10:08:30.814Z</time></trkpt><trkpt lat="45.6576567" lon="12.5313233"><ele>6.0</ele><time>2026-04-27T10:08:31.814Z</time></trkpt><trkpt lat="45.6577533" lon="12.5314467"><ele>6.0</ele><time>2026-04-27T10:08:32.814Z</time></trkpt><trkpt lat="45.6578517" lon="12.5315617"><ele>6.0</ele><time>2026-04-27T10:08:33.814Z</time></trkpt><trkpt lat="45.6579433" lon="12.5316817"><ele>6.0</ele><time>2026-04-27T10:08:34.814Z</time></trkpt><trkpt lat="45.6580267" lon="12.5317867"><ele>5.833333333333333</ele><time>2026-04-27T10:08:35.815Z</time></trkpt><trkpt lat="45.658105" lon="12.5318883"><ele>5.666666666666667</ele><time>2026-04-27T10:08:36.814Z</time></trkpt><trkpt lat="45.6581767" lon="12.5319817"><ele>5.5</ele><time>2026-04-27T10:08:37.814Z</time></trkpt><trkpt lat="45.6582417" lon="12.5320617"><ele>5.333333333333334</ele><time>2026-04-27T10:08:38.814Z</time></trkpt><trkpt lat="45.658295" lon="12.5321383"><ele>5.166666666666667</ele><time>2026-04-27T10:08:39.814Z</time></trkpt><trkpt lat="45.6583467" lon="12.5321967"><ele>5.0</ele><time>2026-04-27T10:08:40.814Z</time></trkpt><trkpt lat="45.6584383" lon="12.5323"><ele>4.833333333333334</ele><time>2026-04-27T10:08:42.814Z</time></trkpt><trkpt lat="45.6584833" lon="12.532365"><ele>4.666666666666667</ele><time>2026-04-27T10:08:44.814Z</time></trkpt><trkpt lat="45.6584567" lon="12.5324833"><ele>4.5</ele><time>2026-04-27T10:08:47.814Z</time></trkpt><trkpt lat="45.6584167" lon="12.532565"><ele>4.333333333333333</ele><time>2026-04-27T10:08:48.814Z</time></trkpt><trkpt lat="45.6583667" lon="12.53266"><ele>4.166666666666666</ele><time>2026-04-27T10:08:49.814Z</time></trkpt><trkpt lat="45.6583017" lon="12.532755"><ele>4.0</ele><time>2026-04-27T10:08:50.814Z</time></trkpt><trkpt lat="45.6582233" lon="12.5328567"><ele>3.75</ele><time>2026-04-27T10:08:51.815Z</time></trkpt><trkpt lat="45.6581367" lon="12.5329683"><ele>3.5</ele><time>2026-04-27T10:08:52.815Z</time></trkpt><trkpt lat="45.6580483" lon="12.53308"><ele>3.25</ele><time>2026-04-27T10:08:53.814Z</time></trkpt><trkpt lat="45.6579583" lon="12.5331983"><ele>3.0</ele><time>2026-04-27T10:08:54.814Z</time></trkpt><trkpt lat="45.6578667" lon="12.5333217"><ele>3.0</ele><time>2026-04-27T10:08:55.814Z</time></trkpt><trkpt lat="45.6577733" lon="12.5334483"><ele>3.0</ele><time>2026-04-27T10:08:56.814Z</time></trkpt><trkpt lat="45.6576767" lon="12.53357"><ele>3.0</ele><time>2026-04-27T10:08:57.814Z</time></trkpt><trkpt lat="45.657575" lon="12.5336933"><ele>3.0</ele><time>2026-04-27T10:08:58.815Z</time></trkpt><trkpt lat="45.65748" lon="12.53381"><ele>3.0</ele><time>2026-04-27T10:08:59.815Z</time></trkpt><trkpt lat="45.6573933" lon="12.5339217"><ele>3.0</ele><time>2026-04-27T10:09:00.814Z</time></trkpt><trkpt lat="45.6573083" lon="12.5340317"><ele>3.0</ele><time>2026-04-27T10:09:01.814Z</time></trkpt><trkpt lat="45.6572283" lon="12.5341433"><ele>3.0</ele><time>2026-04-27T10:09:02.814Z</time></trkpt><trkpt lat="45.657145" lon="12.5342517"><ele>3.0</ele><time>2026-04-27T10:09:03.814Z</time></trkpt><trkpt lat="45.657055" lon="12.5343717"><ele>3.0</ele><time>2026-04-27T10:09:04.814Z</time></trkpt><trkpt lat="45.6569583" lon="12.5344917"><ele>3.0</ele><time>2026-04-27T10:09:05.814Z</time></trkpt><trkpt lat="45.656875" lon="12.5345967"><ele>3.0</ele><time>2026-04-27T10:09:06.814Z</time></trkpt><trkpt lat="45.65679" lon="12.5347117"><ele>3.0</ele><time>2026-04-27T10:09:07.814Z</time></trkpt><trkpt lat="45.6566983" lon="12.5348217"><ele>3.0</ele><time>2026-04-27T10:09:08.814Z</time></trkpt><trkpt lat="45.65661" lon="12.5349283"><ele>3.0</ele><time>2026-04-27T10:09:09.814Z</time></trkpt><trkpt lat="45.65652" lon="12.535045"><ele>3.0</ele><time>2026-04-27T10:09:10.814Z</time></trkpt><trkpt lat="45.6564383" lon="12.53515"><ele>3.0</ele><time>2026-04-27T10:09:11.814Z</time></trkpt><trkpt lat="45.6563633" lon="12.535255"><ele>3.0</ele><time>2026-04-27T10:09:12.814Z</time></trkpt><trkpt lat="45.6562783" lon="12.5353617"><ele>3.0</ele><time>2026-04-27T10:09:13.814Z</time></trkpt><trkpt lat="45.656195" lon="12.5354733"><ele>3.0</ele><time>2026-04-27T10:09:14.814Z</time></trkpt><trkpt lat="45.6561067" lon="12.535585"><ele>3.0</ele><time>2026-04-27T10:09:15.814Z</time></trkpt><trkpt lat="45.65602" lon="12.535695"><ele>3.0</ele><time>2026-04-27T10:09:16.815Z</time></trkpt><trkpt lat="45.6559167" lon="12.5358167"><ele>3.0</ele><time>2026-04-27T10:09:17.814Z</time></trkpt><trkpt lat="45.6558133" lon="12.5359517"><ele>3.0</ele><time>2026-04-27T10:09:18.814Z</time></trkpt><trkpt lat="45.655705" lon="12.5360917"><ele>3.0</ele><time>2026-04-27T10:09:19.814Z</time></trkpt><trkpt lat="45.6555967" lon="12.5362317"><ele>3.0</ele><time>2026-04-27T10:09:20.814Z</time></trkpt><trkpt lat="45.65549" lon="12.53637"><ele>3.0</ele><time>2026-04-27T10:09:21.814Z</time></trkpt><trkpt lat="45.65538" lon="12.5365083"><ele>3.0</ele><time>2026-04-27T10:09:22.814Z</time></trkpt><trkpt lat="45.6552667" lon="12.536655"><ele>2.75</ele><time>2026-04-27T10:09:23.814Z</time></trkpt><trkpt lat="45.6551583" lon="12.5367967"><ele>2.5</ele><time>2026-04-27T10:09:24.814Z</time></trkpt><trkpt lat="45.6550533" lon="12.5369417"><ele>2.25</ele><time>2026-04-27T10:09:25.814Z</time></trkpt><trkpt lat="45.654945" lon="12.5370733"><ele>2.0</ele><time>2026-04-27T10:09:26.815Z</time></trkpt><trkpt lat="45.6548383" lon="12.5372083"><ele>2.0</ele><time>2026-04-27T10:09:27.815Z</time></trkpt><trkpt lat="45.6547317" lon="12.5373533"><ele>2.0</ele><time>2026-04-27T10:09:28.814Z</time></trkpt><trkpt lat="45.6546217" lon="12.5375017"><ele>2.0</ele><time>2026-04-27T10:09:29.814Z</time></trkpt><trkpt lat="45.65451" lon="12.5376417"><ele>2.0</ele><time>2026-04-27T10:09:30.814Z</time></trkpt><trkpt lat="45.654395" lon="12.5377833"><ele>2.6666666666666665</ele><time>2026-04-27T10:09:31.814Z</time></trkpt><trkpt lat="45.6542767" lon="12.53792"><ele>3.333333333333333</ele><time>2026-04-27T10:09:32.814Z</time></trkpt><trkpt lat="45.6541633" lon="12.538065"><ele>4.0</ele><time>2026-04-27T10:09:33.814Z</time></trkpt><trkpt lat="45.6540567" lon="12.5382083"><ele>4.0</ele><time>2026-04-27T10:09:34.814Z</time></trkpt><trkpt lat="45.6539533" lon="12.5383567"><ele>4.0</ele><time>2026-04-27T10:09:35.813Z</time></trkpt><trkpt lat="45.6538383" lon="12.5384983"><ele>4.0</ele><time>2026-04-27T10:09:36.813Z</time></trkpt><trkpt lat="45.65373" lon="12.5386433"><ele>4.0</ele><time>2026-04-27T10:09:37.813Z</time></trkpt><trkpt lat="45.6536267" lon="12.538775"><ele>3.75</ele><time>2026-04-27T10:09:38.813Z</time></trkpt><trkpt lat="45.65352" lon="12.5389067"><ele>3.5</ele><time>2026-04-27T10:09:39.813Z</time></trkpt><trkpt lat="45.653415" lon="12.5390367"><ele>3.25</ele><time>2026-04-27T10:09:40.813Z</time></trkpt><trkpt lat="45.653315" lon="12.5391667"><ele>3.0</ele><time>2026-04-27T10:09:41.813Z</time></trkpt><trkpt lat="45.653215" lon="12.5392967"><ele>3.0</ele><time>2026-04-27T10:09:42.813Z</time></trkpt><trkpt lat="45.6531117" lon="12.53943"><ele>3.0</ele><time>2026-04-27T10:09:43.813Z</time></trkpt><trkpt lat="45.6530067" lon="12.539555"><ele>3.0</ele><time>2026-04-27T10:09:44.813Z</time></trkpt><trkpt lat="45.6529083" lon="12.539675"><ele>3.0</ele><time>2026-04-27T10:09:45.813Z</time></trkpt><trkpt lat="45.6528133" lon="12.5397983"><ele>3.0</ele><time>2026-04-27T10:09:46.813Z</time></trkpt><trkpt lat="45.6527167" lon="12.5399217"><ele>3.0</ele><time>2026-04-27T10:09:47.813Z</time></trkpt><trkpt lat="45.6526133" lon="12.5400483"><ele>3.0</ele><time>2026-04-27T10:09:48.813Z</time></trkpt><trkpt lat="45.6525083" lon="12.5401817"><ele>3.0</ele><time>2026-04-27T10:09:49.813Z</time></trkpt><trkpt lat="45.6524033" lon="12.5403167"><ele>3.25</ele><time>2026-04-27T10:09:50.814Z</time></trkpt><trkpt lat="45.652295" lon="12.5404517"><ele>3.5</ele><time>2026-04-27T10:09:51.813Z</time></trkpt><trkpt lat="45.6521867" lon="12.54059"><ele>3.75</ele><time>2026-04-27T10:09:52.813Z</time></trkpt><trkpt lat="45.6520767" lon="12.540725"><ele>4.0</ele><time>2026-04-27T10:09:53.813Z</time></trkpt><trkpt lat="45.6519683" lon="12.54086"><ele>4.25</ele><time>2026-04-27T10:09:54.814Z</time></trkpt><trkpt lat="45.6518533" lon="12.541005"><ele>4.5</ele><time>2026-04-27T10:09:55.813Z</time></trkpt><trkpt lat="45.651745" lon="12.5411417"><ele>4.75</ele><time>2026-04-27T10:09:56.813Z</time></trkpt><trkpt lat="45.6516317" lon="12.541285"><ele>5.0</ele><time>2026-04-27T10:09:57.813Z</time></trkpt><trkpt lat="45.65152" lon="12.5414283"><ele>4.333333333333334</ele><time>2026-04-27T10:09:58.813Z</time></trkpt><trkpt lat="45.6514067" lon="12.5415667"><ele>3.666666666666667</ele><time>2026-04-27T10:09:59.813Z</time></trkpt><trkpt lat="45.6512967" lon="12.5417167"><ele>3.0</ele><time>2026-04-27T10:10:00.813Z</time></trkpt><trkpt lat="45.6511817" lon="12.54186"><ele>3.0</ele><time>2026-04-27T10:10:01.813Z</time></trkpt><trkpt lat="45.651075" lon="12.5419917"><ele>3.0</ele><time>2026-04-27T10:10:02.813Z</time></trkpt><trkpt lat="45.6509767" lon="12.54212"><ele>3.0</ele><time>2026-04-27T10:10:03.813Z</time></trkpt><trkpt lat="45.6508767" lon="12.5422483"><ele>3.0</ele><time>2026-04-27T10:10:04.813Z</time></trkpt><trkpt lat="45.6507817" lon="12.54238"><ele>3.0</ele><time>2026-04-27T10:10:05.813Z</time></trkpt><trkpt lat="45.65068" lon="12.5425117"><ele>3.0</ele><time>2026-04-27T10:10:06.813Z</time></trkpt><trkpt lat="45.6505733" lon="12.54264"><ele>3.0</ele><time>2026-04-27T10:10:07.813Z</time></trkpt><trkpt lat="45.6504617" lon="12.5427633"><ele>3.0</ele><time>2026-04-27T10:10:08.813Z</time></trkpt><trkpt lat="45.6503583" lon="12.5428967"><ele>2.75</ele><time>2026-04-27T10:10:09.813Z</time></trkpt><trkpt lat="45.6502483" lon="12.5430333"><ele>2.5</ele><time>2026-04-27T10:10:10.813Z</time></trkpt><trkpt lat="45.650145" lon="12.5431667"><ele>2.25</ele><time>2026-04-27T10:10:11.813Z</time></trkpt><trkpt lat="45.650035" lon="12.5433067"><ele>2.0</ele><time>2026-04-27T10:10:12.813Z</time></trkpt><trkpt lat="45.6499233" lon="12.5434417"><ele>2.0</ele><time>2026-04-27T10:10:13.814Z</time></trkpt><trkpt lat="45.6498217" lon="12.5435817"><ele>2.0</ele><time>2026-04-27T10:10:14.813Z</time></trkpt><trkpt lat="45.6497117" lon="12.5437233"><ele>2.0</ele><time>2026-04-27T10:10:15.813Z</time></trkpt><trkpt lat="45.6496033" lon="12.54386"><ele>2.0</ele><time>2026-04-27T10:10:16.814Z</time></trkpt><trkpt lat="45.6494983" lon="12.5439967"><ele>2.0</ele><time>2026-04-27T10:10:17.813Z</time></trkpt><trkpt lat="45.6493917" lon="12.5441333"><ele>2.0</ele><time>2026-04-27T10:10:18.813Z</time></trkpt><trkpt lat="45.64928" lon="12.5442733"><ele>2.0</ele><time>2026-04-27T10:10:19.814Z</time></trkpt><trkpt lat="45.6491667" lon="12.5444283"><ele>2.0</ele><time>2026-04-27T10:10:20.813Z</time></trkpt><trkpt lat="45.6490533" lon="12.5445767"><ele>2.25</ele><time>2026-04-27T10:10:21.813Z</time></trkpt><trkpt lat="45.6489383" lon="12.5447183"><ele>2.5</ele><time>2026-04-27T10:10:22.813Z</time></trkpt><trkpt lat="45.6488317" lon="12.5448533"><ele>2.75</ele><time>2026-04-27T10:10:23.813Z</time></trkpt><trkpt lat="45.6487333" lon="12.5449783"><ele>3.0</ele><time>2026-04-27T10:10:24.813Z</time></trkpt><trkpt lat="45.6486383" lon="12.545095"><ele>2.6</ele><time>2026-04-27T10:10:25.813Z</time></trkpt><trkpt lat="45.648545" lon="12.5452067"><ele>2.1999999999999997</ele><time>2026-04-27T10:10:26.814Z</time></trkpt><trkpt lat="45.6484567" lon="12.5453133"><ele>1.8</ele><time>2026-04-27T10:10:27.814Z</time></trkpt><trkpt lat="45.64838" lon="12.5454167"><ele>1.4</ele><time>2026-04-27T10:10:28.813Z</time></trkpt><trkpt lat="45.6483083" lon="12.5455033"><ele>1.0</ele><time>2026-04-27T10:10:29.813Z</time></trkpt><trkpt lat="45.6482533" lon="12.54558"><ele>0.8</ele><time>2026-04-27T10:10:30.813Z</time></trkpt><trkpt lat="45.648195" lon="12.5456367"><ele>0.6000000000000001</ele><time>2026-04-27T10:10:31.813Z</time></trkpt><trkpt lat="45.64814" lon="12.5456833"><ele>0.4</ele><time>2026-04-27T10:10:32.813Z</time></trkpt><trkpt lat="45.6480483" lon="12.5456683"><ele>0.2</ele><time>2026-04-27T10:10:34.813Z</time></trkpt><trkpt lat="45.6479817" lon="12.545505"><ele>0.0</ele><time>2026-04-27T10:10:36.813Z</time></trkpt><trkpt lat="45.6479483" lon="12.54538"><ele>0.25</ele><time>2026-04-27T10:10:37.813Z</time></trkpt><trkpt lat="45.6479033" lon="12.545235"><ele>0.5</ele><time>2026-04-27T10:10:38.813Z</time></trkpt><trkpt lat="45.64786" lon="12.545065"><ele>0.75</ele><time>2026-04-27T10:10:39.813Z</time></trkpt><trkpt lat="45.64781" lon="12.5448883"><ele>1.0</ele><time>2026-04-27T10:10:40.813Z</time></trkpt><trkpt lat="45.6477533" lon="12.5447233"><ele>1.25</ele><time>2026-04-27T10:10:41.813Z</time></trkpt><trkpt lat="45.6476917" lon="12.544555"><ele>1.5</ele><time>2026-04-27T10:10:42.813Z</time></trkpt><trkpt lat="45.64763" lon="12.5443717"><ele>1.75</ele><time>2026-04-27T10:10:43.813Z</time></trkpt><trkpt lat="45.6475717" lon="12.5442067"><ele>2.0</ele><time>2026-04-27T10:10:44.813Z</time></trkpt><trkpt lat="45.6475083" lon="12.544035"><ele>2.0</ele><time>2026-04-27T10:10:45.813Z</time></trkpt><trkpt lat="45.6474383" lon="12.5438817"><ele>2.0</ele><time>2026-04-27T10:10:46.813Z</time></trkpt><trkpt lat="45.6473917" lon="12.5437167"><ele>2.0</ele><time>2026-04-27T10:10:47.813Z</time></trkpt><trkpt lat="45.64733" lon="12.543575"><ele>2.0</ele><time>2026-04-27T10:10:48.813Z</time></trkpt><trkpt lat="45.647285" lon="12.5434217"><ele>2.0</ele><time>2026-04-27T10:10:49.813Z</time></trkpt><trkpt lat="45.64722" lon="12.54328"><ele>2.0</ele><time>2026-04-27T10:10:50.813Z</time></trkpt><trkpt lat="45.6471567" lon="12.5431267"><ele>2.0</ele><time>2026-04-27T10:10:51.813Z</time></trkpt><trkpt lat="45.647105" lon="12.5429683"><ele>2.0</ele><time>2026-04-27T10:10:52.813Z</time></trkpt><trkpt lat="45.6470383" lon="12.54281"><ele>2.0</ele><time>2026-04-27T10:10:53.813Z</time></trkpt><trkpt lat="45.64697" lon="12.5426517"><ele>2.0</ele><time>2026-04-27T10:10:54.813Z</time></trkpt><trkpt lat="45.6469017" lon="12.542495"><ele>2.0</ele><time>2026-04-27T10:10:55.813Z</time></trkpt><trkpt lat="45.6468283" lon="12.5423367"><ele>2.0</ele><time>2026-04-27T10:10:56.813Z</time></trkpt><trkpt lat="45.64676" lon="12.542195"><ele>1.75</ele><time>2026-04-27T10:10:57.813Z</time></trkpt><trkpt lat="45.646695" lon="12.54203"><ele>1.5</ele><time>2026-04-27T10:10:58.814Z</time></trkpt><trkpt lat="45.646615" lon="12.5418667"><ele>1.25</ele><time>2026-04-27T10:10:59.813Z</time></trkpt><trkpt lat="45.6465267" lon="12.5417033"><ele>1.0</ele><time>2026-04-27T10:11:00.813Z</time></trkpt><trkpt lat="45.646435" lon="12.54154"><ele>1.0</ele><time>2026-04-27T10:11:01.813Z</time></trkpt><trkpt lat="45.64634" lon="12.541385"><ele>1.0</ele><time>2026-04-27T10:11:02.813Z</time></trkpt><trkpt lat="45.6462367" lon="12.5412283"><ele>1.0</ele><time>2026-04-27T10:11:03.813Z</time></trkpt><trkpt lat="45.6461217" lon="12.5410867"><ele>1.0</ele><time>2026-04-27T10:11:04.813Z</time></trkpt><trkpt lat="45.6460067" lon="12.540945"><ele>0.75</ele><time>2026-04-27T10:11:05.813Z</time></trkpt><trkpt lat="45.6458967" lon="12.5408217"><ele>0.5</ele><time>2026-04-27T10:11:06.813Z</time></trkpt><trkpt lat="45.645785" lon="12.5407017"><ele>0.25</ele><time>2026-04-27T10:11:07.813Z</time></trkpt><trkpt lat="45.64567" lon="12.5405917"><ele>0.0</ele><time>2026-04-27T10:11:08.813Z</time></trkpt><trkpt lat="45.645555" lon="12.5404817"><ele>0.0</ele><time>2026-04-27T10:11:09.813Z</time></trkpt><trkpt lat="45.6454367" lon="12.540385"><ele>0.0</ele><time>2026-04-27T10:11:10.813Z</time></trkpt><trkpt lat="45.6453" lon="12.540295"><ele>0.0</ele><time>2026-04-27T10:11:11.813Z</time></trkpt><trkpt lat="45.6451583" lon="12.5402117"><ele>0.0</ele><time>2026-04-27T10:11:12.813Z</time></trkpt><trkpt lat="45.6450183" lon="12.5401367"><ele>0.5</ele><time>2026-04-27T10:11:13.813Z</time></trkpt><trkpt lat="45.6448867" lon="12.5400667"><ele>1.0</ele><time>2026-04-27T10:11:14.813Z</time></trkpt><trkpt lat="45.64475" lon="12.54"><ele>1.5</ele><time>2026-04-27T10:11:15.814Z</time></trkpt><trkpt lat="45.6446033" lon="12.53994"><ele>2.0</ele><time>2026-04-27T10:11:16.813Z</time></trkpt><trkpt lat="45.644465" lon="12.5398583"><ele>1.6666666666666665</ele><time>2026-04-27T10:11:17.813Z</time></trkpt><trkpt lat="45.644335" lon="12.5397333"><ele>1.3333333333333333</ele><time>2026-04-27T10:11:18.813Z</time></trkpt><trkpt lat="45.6442117" lon="12.53959"><ele>1.0</ele><time>2026-04-27T10:11:19.813Z</time></trkpt><trkpt lat="45.6440967" lon="12.5394533"><ele>1.0</ele><time>2026-04-27T10:11:20.813Z</time></trkpt><trkpt lat="45.6439917" lon="12.5393117"><ele>1.0</ele><time>2026-04-27T10:11:21.813Z</time></trkpt><trkpt lat="45.6438917" lon="12.5391767"><ele>1.0</ele><time>2026-04-27T10:11:22.813Z</time></trkpt><trkpt lat="45.6437967" lon="12.5390433"><ele>1.0</ele><time>2026-04-27T10:11:23.813Z</time></trkpt><trkpt lat="45.643705" lon="12.5389217"><ele>1.4</ele><time>2026-04-27T10:11:24.813Z</time></trkpt><trkpt lat="45.6436183" lon="12.5388033"><ele>1.8</ele><time>2026-04-27T10:11:25.813Z</time></trkpt><trkpt lat="45.64354" lon="12.538685"><ele>2.1999999999999997</ele><time>2026-04-27T10:11:26.813Z</time></trkpt><trkpt lat="45.643465" lon="12.5385733"><ele>2.6</ele><time>2026-04-27T10:11:27.813Z</time></trkpt><trkpt lat="45.6433967" lon="12.53847"><ele>3.0</ele><time>2026-04-27T10:11:28.813Z</time></trkpt><trkpt lat="45.64333" lon="12.5383683"><ele>3.5</ele><time>2026-04-27T10:11:29.813Z</time></trkpt><trkpt lat="45.643265" lon="12.5382767"><ele>4.0</ele><time>2026-04-27T10:11:30.813Z</time></trkpt><trkpt lat="45.6432083" lon="12.5382067"><ele>4.5</ele><time>2026-04-27T10:11:31.813Z</time></trkpt><trkpt lat="45.6431483" lon="12.5381633"><ele>5.0</ele><time>2026-04-27T10:11:32.813Z</time></trkpt><trkpt lat="45.6430717" lon="12.5381317"><ele>5.5</ele><time>2026-04-27T10:11:33.813Z</time></trkpt><trkpt lat="45.64299" lon="12.5381167"><ele>6.0</ele><time>2026-04-27T10:11:34.813Z</time></trkpt><trkpt lat="45.6428883" lon="12.5380983"><ele>5.5</ele><time>2026-04-27T10:11:35.814Z</time></trkpt><trkpt lat="45.64279" lon="12.5380617"><ele>5.0</ele><time>2026-04-27T10:11:36.813Z</time></trkpt><trkpt lat="45.6426783" lon="12.5380117"><ele>4.5</ele><time>2026-04-27T10:11:37.813Z</time></trkpt><trkpt lat="45.642555" lon="12.5379483"><ele>4.0</ele><time>2026-04-27T10:11:38.813Z</time></trkpt><trkpt lat="45.6424217" lon="12.537875"><ele>4.0</ele><time>2026-04-27T10:11:39.813Z</time></trkpt><trkpt lat="45.642285" lon="12.537795"><ele>4.0</ele><time>2026-04-27T10:11:40.813Z</time></trkpt><trkpt lat="45.6421533" lon="12.5377267"><ele>4.0</ele><time>2026-04-27T10:11:41.813Z</time></trkpt><trkpt lat="45.64204" lon="12.5376617"><ele>4.0</ele><time>2026-04-27T10:11:42.813Z</time></trkpt><trkpt lat="45.64192" lon="12.537585"><ele>3.75</ele><time>2026-04-27T10:11:43.813Z</time></trkpt><trkpt lat="45.6417933" lon="12.5375017"><ele>3.5</ele><time>2026-04-27T10:11:44.813Z</time></trkpt><trkpt lat="45.6416783" lon="12.5374333"><ele>3.25</ele><time>2026-04-27T10:11:45.813Z</time></trkpt><trkpt lat="45.6415717" lon="12.5373667"><ele>3.0</ele><time>2026-04-27T10:11:46.813Z</time></trkpt><trkpt lat="45.6414733" lon="12.5372933"><ele>3.0</ele><time>2026-04-27T10:11:47.813Z</time></trkpt><trkpt lat="45.6413633" lon="12.5372333"><ele>3.0</ele><time>2026-04-27T10:11:48.813Z</time></trkpt><trkpt lat="45.6412833" lon="12.5371567"><ele>3.0</ele><time>2026-04-27T10:11:49.813Z</time></trkpt><trkpt lat="45.6412217" lon="12.5370917"><ele>3.0</ele><time>2026-04-27T10:11:50.813Z</time></trkpt><trkpt lat="45.6411583" lon="12.537035"><ele>3.0</ele><time>2026-04-27T10:11:51.813Z</time></trkpt><trkpt lat="45.6410717" lon="12.5369867"><ele>3.0</ele><time>2026-04-27T10:11:53.813Z</time></trkpt><trkpt lat="45.640975" lon="12.5370233"><ele>3.0</ele><time>2026-04-27T10:11:55.813Z</time></trkpt><trkpt lat="45.6408967" lon="12.5370817"><ele>3.0</ele><time>2026-04-27T10:11:56.813Z</time></trkpt><trkpt lat="45.6408133" lon="12.5371683"><ele>3.0</ele><time>2026-04-27T10:11:57.813Z</time></trkpt><trkpt lat="45.6407217" lon="12.5372517"><ele>3.0</ele><time>2026-04-27T10:11:58.814Z</time></trkpt><trkpt lat="45.6406133" lon="12.537335"><ele>3.0</ele><time>2026-04-27T10:11:59.813Z</time></trkpt><trkpt lat="45.6404917" lon="12.5374117"><ele>3.0</ele><time>2026-04-27T10:12:00.813Z</time></trkpt><trkpt lat="45.6403783" lon="12.5374933"><ele>3.0</ele><time>2026-04-27T10:12:01.813Z</time></trkpt><trkpt lat="45.6402667" lon="12.5375617"><ele>3.0</ele><time>2026-04-27T10:12:02.813Z</time></trkpt><trkpt lat="45.6401483" lon="12.5376367"><ele>2.75</ele><time>2026-04-27T10:12:03.813Z</time></trkpt><trkpt lat="45.6400283" lon="12.5377"><ele>2.5</ele><time>2026-04-27T10:12:04.813Z</time></trkpt><trkpt lat="45.6399067" lon="12.5377683"><ele>2.25</ele><time>2026-04-27T10:12:05.813Z</time></trkpt><trkpt lat="45.6397933" lon="12.537825"><ele>2.0</ele><time>2026-04-27T10:12:06.813Z</time></trkpt><trkpt lat="45.6396833" lon="12.53788"><ele>2.0</ele><time>2026-04-27T10:12:07.813Z</time></trkpt><trkpt lat="45.6395767" lon="12.5379183"><ele>2.0</ele><time>2026-04-27T10:12:08.813Z</time></trkpt><trkpt lat="45.6394783" lon="12.5379633"><ele>2.0</ele><time>2026-04-27T10:12:09.813Z</time></trkpt><trkpt lat="45.63937" lon="12.5380117"><ele>2.0</ele><time>2026-04-27T10:12:10.813Z</time></trkpt><trkpt lat="45.6392667" lon="12.5380517"><ele>2.0</ele><time>2026-04-27T10:12:11.813Z</time></trkpt><trkpt lat="45.6391783" lon="12.538095"><ele>1.9999999999999998</ele><time>2026-04-27T10:12:12.813Z</time></trkpt><trkpt lat="45.6391083" lon="12.538145"><ele>2.0</ele><time>2026-04-27T10:12:13.813Z</time></trkpt><trkpt lat="45.6390517" lon="12.538215"><ele>2.0</ele><time>2026-04-27T10:12:14.813Z</time></trkpt><trkpt lat="45.6390033" lon="12.5383167"><ele>2.0</ele><time>2026-04-27T10:12:15.813Z</time></trkpt><trkpt lat="45.63896" lon="12.53844"><ele>1.9999999999999998</ele><time>2026-04-27T10:12:16.813Z</time></trkpt><trkpt lat="45.6389117" lon="12.5385767"><ele>2.0</ele><time>2026-04-27T10:12:17.813Z</time></trkpt><trkpt lat="45.6388583" lon="12.53872"><ele>2.0</ele><time>2026-04-27T10:12:18.813Z</time></trkpt><trkpt lat="45.6388033" lon="12.53886"><ele>2.0</ele><time>2026-04-27T10:12:19.813Z</time></trkpt><trkpt lat="45.6387533" lon="12.5389933"><ele>2.0</ele><time>2026-04-27T10:12:20.813Z</time></trkpt><trkpt lat="45.6387017" lon="12.5391183"><ele>2.0</ele><time>2026-04-27T10:12:21.813Z</time></trkpt><trkpt lat="45.63865" lon="12.5392467"><ele>2.0</ele><time>2026-04-27T10:12:22.813Z</time></trkpt><trkpt lat="45.6386" lon="12.5393733"><ele>2.0</ele><time>2026-04-27T10:12:23.813Z</time></trkpt><trkpt lat="45.638545" lon="12.5395017"><ele>2.0</ele><time>2026-04-27T10:12:24.813Z</time></trkpt><trkpt lat="45.6384833" lon="12.539625"><ele>2.0</ele><time>2026-04-27T10:12:25.813Z</time></trkpt><trkpt lat="45.6384267" lon="12.5397533"><ele>2.0</ele><time>2026-04-27T10:12:26.813Z</time></trkpt><trkpt lat="45.6383667" lon="12.5398917"><ele>2.0</ele><time>2026-04-27T10:12:27.813Z</time></trkpt><trkpt lat="45.6383067" lon="12.540025"><ele>2.0</ele><time>2026-04-27T10:12:28.813Z</time></trkpt><trkpt lat="45.6382467" lon="12.5401583"><ele>2.0</ele><time>2026-04-27T10:12:29.813Z</time></trkpt><trkpt lat="45.6381983" lon="12.540285"><ele>2.0</ele><time>2026-04-27T10:12:30.813Z</time></trkpt><trkpt lat="45.63814" lon="12.54043"><ele>2.0</ele><time>2026-04-27T10:12:31.813Z</time></trkpt><trkpt lat="45.638075" lon="12.540585"><ele>2.25</ele><time>2026-04-27T10:12:32.813Z</time></trkpt><trkpt lat="45.6380033" lon="12.540745"><ele>2.5</ele><time>2026-04-27T10:12:33.813Z</time></trkpt><trkpt lat="45.6379383" lon="12.540895"><ele>2.75</ele><time>2026-04-27T10:12:34.813Z</time></trkpt><trkpt lat="45.6378783" lon="12.5410333"><ele>3.0</ele><time>2026-04-27T10:12:35.813Z</time></trkpt><trkpt lat="45.6378283" lon="12.5411567"><ele>3.0</ele><time>2026-04-27T10:12:36.814Z</time></trkpt><trkpt lat="45.6377833" lon="12.5412933"><ele>3.0</ele><time>2026-04-27T10:12:37.813Z</time></trkpt><trkpt lat="45.6377333" lon="12.5414233"><ele>3.0</ele><time>2026-04-27T10:12:38.813Z</time></trkpt><trkpt lat="45.6376817" lon="12.5415367"><ele>3.0</ele><time>2026-04-27T10:12:39.813Z</time></trkpt><trkpt lat="45.63763" lon="12.5416317"><ele>3.0</ele><time>2026-04-27T10:12:40.813Z</time></trkpt><trkpt lat="45.6375867" lon="12.5417133"><ele>3.0</ele><time>2026-04-27T10:12:41.814Z</time></trkpt><trkpt lat="45.6375233" lon="12.54185"><ele>3.0</ele><time>2026-04-27T10:12:43.813Z</time></trkpt><trkpt lat="45.637485" lon="12.5419467"><ele>3.0</ele><time>2026-04-27T10:12:46.813Z</time></trkpt><trkpt lat="45.6375817" lon="12.5419867"><ele>3.0</ele><time>2026-04-27T10:12:49.813Z</time></trkpt><trkpt lat="45.637645" lon="12.5419567"><ele>3.0</ele><time>2026-04-27T10:12:50.813Z</time></trkpt><trkpt lat="45.63772" lon="12.5418983"><ele>3.0</ele><time>2026-04-27T10:12:51.813Z</time></trkpt><trkpt lat="45.6377983" lon="12.54181"><ele>3.1666666666666665</ele><time>2026-04-27T10:12:52.813Z</time></trkpt><trkpt lat="45.6378683" lon="12.5417267"><ele>3.333333333333333</ele><time>2026-04-27T10:12:53.813Z</time></trkpt><trkpt lat="45.637925" lon="12.541645"><ele>3.5</ele><time>2026-04-27T10:12:54.813Z</time></trkpt><trkpt lat="45.6379617" lon="12.5415633"><ele>3.6666666666666665</ele><time>2026-04-27T10:12:55.813Z</time></trkpt><trkpt lat="45.6379633" lon="12.5414717"><ele>3.833333333333333</ele><time>2026-04-27T10:12:56.813Z</time></trkpt><trkpt lat="45.6379333" lon="12.5413633"><ele>4.0</ele><time>2026-04-27T10:12:57.813Z</time></trkpt><trkpt lat="45.6379067" lon="12.5412683"><ele>3.833333333333333</ele><time>2026-04-27T10:12:58.813Z</time></trkpt><trkpt lat="45.637895" lon="12.5411617"><ele>3.6666666666666665</ele><time>2026-04-27T10:12:59.813Z</time></trkpt><trkpt lat="45.6379067" lon="12.5410567"><ele>3.5</ele><time>2026-04-27T10:13:00.813Z</time></trkpt><trkpt lat="45.63794" lon="12.54095"><ele>3.333333333333333</ele><time>2026-04-27T10:13:01.813Z</time></trkpt><trkpt lat="45.6379917" lon="12.54085"><ele>3.1666666666666665</ele><time>2026-04-27T10:13:02.813Z</time></trkpt><trkpt lat="45.6380367" lon="12.5407467"><ele>3.0</ele><time>2026-04-27T10:13:03.813Z</time></trkpt><trkpt lat="45.638085" lon="12.540625"><ele>3.0</ele><time>2026-04-27T10:13:04.813Z</time></trkpt><trkpt lat="45.6381417" lon="12.5404867"><ele>3.0</ele><time>2026-04-27T10:13:05.813Z</time></trkpt><trkpt lat="45.6381983" lon="12.5403483"><ele>3.0</ele><time>2026-04-27T10:13:06.813Z</time></trkpt><trkpt lat="45.6382617" lon="12.54021"><ele>3.0</ele><time>2026-04-27T10:13:07.813Z</time></trkpt><trkpt lat="45.638315" lon="12.540085"><ele>3.0</ele><time>2026-04-27T10:13:08.814Z</time></trkpt><trkpt lat="45.6383667" lon="12.539965"><ele>2.8333333333333335</ele><time>2026-04-27T10:13:09.813Z</time></trkpt><trkpt lat="45.6384217" lon="12.539845"><ele>2.6666666666666665</ele><time>2026-04-27T10:13:10.813Z</time></trkpt><trkpt lat="45.6384683" lon="12.5397333"><ele>2.5</ele><time>2026-04-27T10:13:11.813Z</time></trkpt><trkpt lat="45.638505" lon="12.5396283"><ele>2.333333333333333</ele><time>2026-04-27T10:13:12.813Z</time></trkpt><trkpt lat="45.6385233" lon="12.5395283"><ele>2.1666666666666665</ele><time>2026-04-27T10:13:13.813Z</time></trkpt><trkpt lat="45.6385183" lon="12.53943"><ele>2.0</ele><time>2026-04-27T10:13:14.813Z</time></trkpt><trkpt lat="45.6385" lon="12.5393333"><ele>1.8</ele><time>2026-04-27T10:13:15.813Z</time></trkpt><trkpt lat="45.6384667" lon="12.5392433"><ele>1.6</ele><time>2026-04-27T10:13:16.813Z</time></trkpt><trkpt lat="45.638405" lon="12.5391183"><ele>1.4000000000000001</ele><time>2026-04-27T10:13:18.813Z</time></trkpt><trkpt lat="45.6383033" lon="12.5391217"><ele>1.2000000000000002</ele><time>2026-04-27T10:13:28.813Z</time></trkpt><trkpt lat="45.6381933" lon="12.5391533"><ele>1.0</ele><time>2026-04-27T10:17:04.813Z</time></trkpt><trkpt lat="45.6382283" lon="12.5392683"><ele>1.0</ele><time>2026-04-27T10:19:26.813Z</time></trkpt></trkseg></trk></gpx>